<?xml version='1.0' encoding='UTF-8'?><gpx version="1.1" creator="JPX - https://github.com/jenetics/jpx" xmlns="http://www.topografix.com/GPX/1/1"><trk><trkseg><trkpt lat="39.39427015995591" lon="9.071247498703611"><ele>99.0</ele><time>2026-04-26T07:59:24Z</time></trkpt><trkpt lat="39.39421521851847" lon="9.071300362504598"><ele>99.0</ele><time>2026-04-26T07:59:41Z</time></trkpt><trkpt lat="39.394145259762716" lon="9.071328466142779"><ele>99.0</ele><time>2026-04-26T07:59:42Z</time></trkpt><trkpt lat="39.39419854303611" lon="9.071283453594832"><ele>99.0</ele><time>2026-04-26T08:00:22Z</time></trkpt><trkpt lat="39.394320288681044" lon="9.071186269761732"><ele>99.0</ele><time>2026-04-26T08:02:41Z</time></trkpt><trkpt lat="39.394216828931526" lon="9.071230551485955"><ele>99.0</ele><time>2026-04-26T08:02:42Z</time></trkpt><trkpt lat="39.39415949692457" lon="9.071271691606825"><ele>99.0</ele><time>2026-04-26T08:02:46Z</time></trkpt><trkpt lat="39.394191132397644" lon="9.071405232247269"><ele>99.0</ele><time>2026-04-26T08:03:30Z</time></trkpt><trkpt lat="39.39422805769475" lon="9.07147206413552"><ele>99.0</ele><time>2026-04-26T08:03:34Z</time></trkpt><trkpt lat="39.39431089401878" lon="9.071452106113977"><ele>99.0</ele><time>2026-04-26T08:03:37Z</time></trkpt><trkpt lat="39.3943931411901" lon="9.071329692133931"><ele>99.0</ele><time>2026-04-26T08:03:39Z</time></trkpt><trkpt lat="39.394449516895484" lon="9.071267643517604"><ele>99.0</ele><time>2026-04-26T08:03:40Z</time></trkpt><trkpt lat="39.394507687949236" lon="9.071196778821871"><ele>99.0</ele><time>2026-04-26T08:03:41Z</time></trkpt><trkpt lat="39.394565883294675" lon="9.071132689917391"><ele>99.0</ele><time>2026-04-26T08:03:42Z</time></trkpt><trkpt lat="39.39462898925977" lon="9.071061587762335"><ele>99.0</ele><time>2026-04-26T08:03:43Z</time></trkpt><trkpt lat="39.39469511301057" lon="9.070992364997144"><ele>99.0</ele><time>2026-04-26T08:03:44Z</time></trkpt><trkpt lat="39.39475060036669" lon="9.07092733652702"><ele>99.0</ele><time>2026-04-26T08:03:45Z</time></trkpt><trkpt lat="39.39480588817101" lon="9.070859480380362"><ele>98.83333333333333</ele><time>2026-04-26T08:03:46Z</time></trkpt><trkpt lat="39.394867465882825" lon="9.070790367173817"><ele>98.66666666666666</ele><time>2026-04-26T08:03:47Z</time></trkpt><trkpt lat="39.394928718549984" lon="9.070720204032895"><ele>98.5</ele><time>2026-04-26T08:03:48Z</time></trkpt><trkpt lat="39.39499402040675" lon="9.07064516658973"><ele>98.33333333333333</ele><time>2026-04-26T08:03:49Z</time></trkpt><trkpt lat="39.3950589872974" lon="9.070570887366735"><ele>98.16666666666666</ele><time>2026-04-26T08:03:50Z</time></trkpt><trkpt lat="39.395120955060946" lon="9.070502217922158"><ele>98.0</ele><time>2026-04-26T08:03:51Z</time></trkpt><trkpt lat="39.39518044843652" lon="9.07044077461239"><ele>96.99999999999999</ele><time>2026-04-26T08:03:52Z</time></trkpt><trkpt lat="39.395233092531555" lon="9.070385821926523"><ele>96.0</ele><time>2026-04-26T08:03:53Z</time></trkpt><trkpt lat="39.39528927502483" lon="9.070323288762129"><ele>95.0</ele><time>2026-04-26T08:03:55Z</time></trkpt><trkpt lat="39.39534894639981" lon="9.070271956154743"><ele>94.0</ele><time>2026-04-26T08:03:59Z</time></trkpt><trkpt lat="39.39539073601789" lon="9.070146518922899"><ele>93.0</ele><time>2026-04-26T08:04:15Z</time></trkpt><trkpt lat="39.3953732038429" lon="9.070056949342135"><ele>92.0</ele><time>2026-04-26T08:04:16Z</time></trkpt><trkpt lat="39.39535225592295" lon="9.069953866935986"><ele>91.6</ele><time>2026-04-26T08:04:17Z</time></trkpt><trkpt lat="39.39533060120512" lon="9.069871999484196"><ele>91.19999999999999</ele><time>2026-04-26T08:04:18Z</time></trkpt><trkpt lat="39.39529999885286" lon="9.069714594697803"><ele>90.8</ele><time>2026-04-26T08:04:20Z</time></trkpt><trkpt lat="39.395266902432965" lon="9.069563896605688"><ele>90.4</ele><time>2026-04-26T08:04:22Z</time></trkpt><trkpt lat="39.39523965739574" lon="9.069408858873368"><ele>90.0</ele><time>2026-04-26T08:04:24Z</time></trkpt><trkpt lat="39.39522549647882" lon="9.069309584879903"><ele>90.0</ele><time>2026-04-26T08:04:25Z</time></trkpt><trkpt lat="39.39520877075355" lon="9.069209036955801"><ele>90.0</ele><time>2026-04-26T08:04:26Z</time></trkpt><trkpt lat="39.395185008147884" lon="9.069133576964955"><ele>90.0</ele><time>2026-04-26T08:04:27Z</time></trkpt><trkpt lat="39.39516592899627" lon="9.069002890885125"><ele>90.0</ele><time>2026-04-26T08:04:29Z</time></trkpt><trkpt lat="39.39514274905089" lon="9.068869935340649"><ele>90.0</ele><time>2026-04-26T08:04:31Z</time></trkpt><trkpt lat="39.395117855752865" lon="9.068776654611925"><ele>90.0</ele><time>2026-04-26T08:04:32Z</time></trkpt><trkpt lat="39.395111754247786" lon="9.06866386652848"><ele>89.66666666666667</ele><time>2026-04-26T08:04:33Z</time></trkpt><trkpt lat="39.39507698627746" lon="9.068558127796187"><ele>89.33333333333333</ele><time>2026-04-26T08:04:34Z</time></trkpt><trkpt lat="39.39505912026729" lon="9.068453586323853"><ele>89.0</ele><time>2026-04-26T08:04:35Z</time></trkpt><trkpt lat="39.395052763720486" lon="9.068360356341739"><ele>88.66666666666666</ele><time>2026-04-26T08:04:36Z</time></trkpt><trkpt lat="39.39502971787493" lon="9.068259845494406"><ele>88.33333333333333</ele><time>2026-04-26T08:04:37Z</time></trkpt><trkpt lat="39.395043901517" lon="9.068144798691831"><ele>88.0</ele><time>2026-04-26T08:04:38Z</time></trkpt><trkpt lat="39.39501142953173" lon="9.068054490040007"><ele>88.0</ele><time>2026-04-26T08:04:39Z</time></trkpt><trkpt lat="39.39507852223299" lon="9.067932464353278"><ele>88.0</ele><time>2026-04-26T08:04:40Z</time></trkpt><trkpt lat="39.39505995290376" lon="9.06778828807286"><ele>88.0</ele><time>2026-04-26T08:04:42Z</time></trkpt><trkpt lat="39.39503035622963" lon="9.067702099331049"><ele>88.0</ele><time>2026-04-26T08:04:44Z</time></trkpt><trkpt lat="39.39496396082524" lon="9.06770203591896"><ele>88.0</ele><time>2026-04-26T08:04:46Z</time></trkpt><trkpt lat="39.39491035073876" lon="9.067746433168084"><ele>88.0</ele><time>2026-04-26T08:04:54Z</time></trkpt><trkpt lat="39.39491020459177" lon="9.067901957651467"><ele>88.0</ele><time>2026-04-26T08:04:56Z</time></trkpt><trkpt lat="39.39493619904253" lon="9.068003737520124"><ele>88.0</ele><time>2026-04-26T08:04:57Z</time></trkpt><trkpt lat="39.39495999539464" lon="9.06812537287619"><ele>88.0</ele><time>2026-04-26T08:04:58Z</time></trkpt><trkpt lat="39.394982132826954" lon="9.068246209423036"><ele>88.0</ele><time>2026-04-26T08:04:59Z</time></trkpt><trkpt lat="39.39500763026482" lon="9.068387157349648"><ele>88.0</ele><time>2026-04-26T08:05:00Z</time></trkpt><trkpt lat="39.39503935725493" lon="9.068538311044287"><ele>88.0</ele><time>2026-04-26T08:05:01Z</time></trkpt><trkpt lat="39.39506593718228" lon="9.068682789161393"><ele>88.0</ele><time>2026-04-26T08:05:02Z</time></trkpt><trkpt lat="39.395079841361884" lon="9.068804930079699"><ele>88.0</ele><time>2026-04-26T08:05:03Z</time></trkpt><trkpt lat="39.39511524483803" lon="9.0689178836313"><ele>88.0</ele><time>2026-04-26T08:05:04Z</time></trkpt><trkpt lat="39.39513663227459" lon="9.069035654139432"><ele>88.0</ele><time>2026-04-26T08:05:05Z</time></trkpt><trkpt lat="39.39516267127777" lon="9.069149543543574"><ele>88.5</ele><time>2026-04-26T08:05:06Z</time></trkpt><trkpt lat="39.39518371585138" lon="9.069283562133316"><ele>89.0</ele><time>2026-04-26T08:05:07Z</time></trkpt><trkpt lat="39.39521235312072" lon="9.06942510205774"><ele>89.5</ele><time>2026-04-26T08:05:08Z</time></trkpt><trkpt lat="39.39523568055625" lon="9.069569368813035"><ele>90.0</ele><time>2026-04-26T08:05:09Z</time></trkpt><trkpt lat="39.395263579095165" lon="9.069718455103613"><ele>90.0</ele><time>2026-04-26T08:05:10Z</time></trkpt><trkpt lat="39.395292136808536" lon="9.06986755799755"><ele>90.0</ele><time>2026-04-26T08:05:11Z</time></trkpt><trkpt lat="39.39533086087149" lon="9.070038165730043"><ele>90.0</ele><time>2026-04-26T08:05:12Z</time></trkpt><trkpt lat="39.39536390088806" lon="9.070203658043148"><ele>90.0</ele><time>2026-04-26T08:05:13Z</time></trkpt><trkpt lat="39.39539324541265" lon="9.070365199213736"><ele>90.5</ele><time>2026-04-26T08:05:14Z</time></trkpt><trkpt lat="39.395415109909976" lon="9.070516323244535"><ele>91.0</ele><time>2026-04-26T08:05:15Z</time></trkpt><trkpt lat="39.39543804396722" lon="9.07067283182083"><ele>91.5</ele><time>2026-04-26T08:05:16Z</time></trkpt><trkpt lat="39.395454397304654" lon="9.070821195287186"><ele>92.0</ele><time>2026-04-26T08:05:17Z</time></trkpt><trkpt lat="39.39546863767721" lon="9.070970182783912"><ele>93.19999999999999</ele><time>2026-04-26T08:05:18Z</time></trkpt><trkpt lat="39.395470090721496" lon="9.07111187785535"><ele>94.4</ele><time>2026-04-26T08:05:19Z</time></trkpt><trkpt lat="39.39548026218562" lon="9.071263724269578"><ele>95.6</ele><time>2026-04-26T08:05:20Z</time></trkpt><trkpt lat="39.395474877549375" lon="9.071402804348812"><ele>96.80000000000001</ele><time>2026-04-26T08:05:21Z</time></trkpt><trkpt lat="39.39546308117105" lon="9.071536109342015"><ele>98.0</ele><time>2026-04-26T08:05:22Z</time></trkpt><trkpt lat="39.39546230489885" lon="9.071664148786352"><ele>98.0</ele><time>2026-04-26T08:05:23Z</time></trkpt><trkpt lat="39.39545907597254" lon="9.071799130915524"><ele>98.0</ele><time>2026-04-26T08:05:24Z</time></trkpt><trkpt lat="39.39544729015976" lon="9.071954615086618"><ele>98.0</ele><time>2026-04-26T08:05:25Z</time></trkpt><trkpt lat="39.39543017656858" lon="9.072126443145248"><ele>98.0</ele><time>2026-04-26T08:05:26Z</time></trkpt><trkpt lat="39.39542326030682" lon="9.072286036500865"><ele>97.99999999999999</ele><time>2026-04-26T08:05:27Z</time></trkpt><trkpt lat="39.39542584748122" lon="9.072410913481304"><ele>98.0</ele><time>2026-04-26T08:05:28Z</time></trkpt><trkpt lat="39.39542122002206" lon="9.072503063050137"><ele>98.0</ele><time>2026-04-26T08:05:29Z</time></trkpt><trkpt lat="39.39541657432061" lon="9.072591153877807"><ele>98.0</ele><time>2026-04-26T08:05:30Z</time></trkpt><trkpt lat="39.39540887201598" lon="9.072742159106692"><ele>97.99999999999999</ele><time>2026-04-26T08:05:32Z</time></trkpt><trkpt lat="39.39540782480482" lon="9.072828677799754"><ele>98.0</ele><time>2026-04-26T08:05:33Z</time></trkpt><trkpt lat="39.39540593353484" lon="9.072914876491657"><ele>97.60000000000001</ele><time>2026-04-26T08:05:34Z</time></trkpt><trkpt lat="39.39539955538202" lon="9.073049560073235"><ele>97.2</ele><time>2026-04-26T08:05:36Z</time></trkpt><trkpt lat="39.39539611217274" lon="9.073190559580807"><ele>96.8</ele><time>2026-04-26T08:05:38Z</time></trkpt><trkpt lat="39.39538394911568" lon="9.073357947180138"><ele>96.4</ele><time>2026-04-26T08:05:40Z</time></trkpt><trkpt lat="39.395377440590366" lon="9.073441541165714"><ele>96.0</ele><time>2026-04-26T08:05:41Z</time></trkpt><trkpt lat="39.39537337312237" lon="9.073524581888584"><ele>95.85714285714285</ele><time>2026-04-26T08:05:42Z</time></trkpt><trkpt lat="39.39537100723472" lon="9.073608827399045"><ele>95.71428571428571</ele><time>2026-04-26T08:05:43Z</time></trkpt><trkpt lat="39.39537596242353" lon="9.073691374847797"><ele>95.57142857142857</ele><time>2026-04-26T08:05:44Z</time></trkpt><trkpt lat="39.395379062274635" lon="9.073775624680055"><ele>95.42857142857142</ele><time>2026-04-26T08:05:45Z</time></trkpt><trkpt lat="39.395373728694715" lon="9.073865802432802"><ele>95.28571428571429</ele><time>2026-04-26T08:05:46Z</time></trkpt><trkpt lat="39.39536920749777" lon="9.073954314195102"><ele>95.14285714285714</ele><time>2026-04-26T08:05:47Z</time></trkpt><trkpt lat="39.39535870894078" lon="9.07404984701839"><ele>95.0</ele><time>2026-04-26T08:05:48Z</time></trkpt><trkpt lat="39.39535282201843" lon="9.074149134219677"><ele>95.8</ele><time>2026-04-26T08:05:49Z</time></trkpt><trkpt lat="39.39534700170854" lon="9.074266349358918"><ele>96.6</ele><time>2026-04-26T08:05:50Z</time></trkpt><trkpt lat="39.39533706626355" lon="9.074376110545389"><ele>97.4</ele><time>2026-04-26T08:05:51Z</time></trkpt><trkpt lat="39.39533450400518" lon="9.074461802348543"><ele>98.2</ele><time>2026-04-26T08:05:52Z</time></trkpt><trkpt lat="39.39532935629427" lon="9.074625353439977"><ele>99.0</ele><time>2026-04-26T08:05:54Z</time></trkpt><trkpt lat="39.39531965654239" lon="9.074783642907548"><ele>99.0</ele><time>2026-04-26T08:05:56Z</time></trkpt><trkpt lat="39.39531892848595" lon="9.074865651442556"><ele>99.0</ele><time>2026-04-26T08:05:57Z</time></trkpt><trkpt lat="39.395313328338815" lon="9.07502046810365"><ele>99.0</ele><time>2026-04-26T08:05:59Z</time></trkpt><trkpt lat="39.39530967194053" lon="9.075113092486884"><ele>99.0</ele><time>2026-04-26T08:06:00Z</time></trkpt><trkpt lat="39.39530387668474" lon="9.075205880763976"><ele>99.0</ele><time>2026-04-26T08:06:01Z</time></trkpt><trkpt lat="39.39529737006199" lon="9.075306661374398"><ele>99.0</ele><time>2026-04-26T08:06:02Z</time></trkpt><trkpt lat="39.39529063557485" lon="9.07539788506283"><ele>99.85714285714286</ele><time>2026-04-26T08:06:03Z</time></trkpt><trkpt lat="39.39528052959927" lon="9.07548936186244"><ele>100.71428571428571</ele><time>2026-04-26T08:06:04Z</time></trkpt><trkpt lat="39.39526917214432" lon="9.075574376206768"><ele>101.57142857142857</ele><time>2026-04-26T08:06:05Z</time></trkpt><trkpt lat="39.395247191585035" lon="9.075660963178755"><ele>102.42857142857143</ele><time>2026-04-26T08:06:06Z</time></trkpt><trkpt lat="39.39521163447923" lon="9.07573431798011"><ele>103.28571428571428</ele><time>2026-04-26T08:06:07Z</time></trkpt><trkpt lat="39.39516394608124" lon="9.075798042518546"><ele>104.14285714285714</ele><time>2026-04-26T08:06:08Z</time></trkpt><trkpt lat="39.39510954765773" lon="9.075848795631524"><ele>105.0</ele><time>2026-04-26T08:06:09Z</time></trkpt><trkpt lat="39.39502622055389" lon="9.075913914832222"><ele>105.4</ele><time>2026-04-26T08:06:11Z</time></trkpt><trkpt lat="39.39495015684955" lon="9.075988345754102"><ele>105.8</ele><time>2026-04-26T08:06:14Z</time></trkpt><trkpt lat="39.39489113388083" lon="9.076047140332264"><ele>106.19999999999999</ele><time>2026-04-26T08:06:16Z</time></trkpt><trkpt lat="39.3948179344494" lon="9.076095095194171"><ele>106.6</ele><time>2026-04-26T08:06:18Z</time></trkpt><trkpt lat="39.39473779651462" lon="9.076166493865486"><ele>107.0</ele><time>2026-04-26T08:06:20Z</time></trkpt><trkpt lat="39.39465619356389" lon="9.076253325441076"><ele>107.0</ele><time>2026-04-26T08:06:22Z</time></trkpt><trkpt lat="39.394558049421015" lon="9.076342243132165"><ele>106.99999999999999</ele><time>2026-04-26T08:06:24Z</time></trkpt><trkpt lat="39.3944702674115" lon="9.076435446789882"><ele>106.99999999999999</ele><time>2026-04-26T08:06:26Z</time></trkpt><trkpt lat="39.394401440917015" lon="9.076497667465679"><ele>107.0</ele><time>2026-04-26T08:06:28Z</time></trkpt><trkpt lat="39.394347916013494" lon="9.076549930658114"><ele>107.0</ele><time>2026-04-26T08:06:30Z</time></trkpt><trkpt lat="39.39428223496678" lon="9.076604082689776"><ele>107.16666666666666</ele><time>2026-04-26T08:06:34Z</time></trkpt><trkpt lat="39.39423850286512" lon="9.076674910386178"><ele>107.33333333333333</ele><time>2026-04-26T08:06:36Z</time></trkpt><trkpt lat="39.394155358932856" lon="9.076753243743516"><ele>107.5</ele><time>2026-04-26T08:06:38Z</time></trkpt><trkpt lat="39.39409222451696" lon="9.07679269681959"><ele>107.66666666666666</ele><time>2026-04-26T08:06:39Z</time></trkpt><trkpt lat="39.39404287444333" lon="9.076870614853851"><ele>107.83333333333333</ele><time>2026-04-26T08:06:40Z</time></trkpt><trkpt lat="39.393960747719646" lon="9.076947179241955"><ele>108.0</ele><time>2026-04-26T08:06:41Z</time></trkpt><trkpt lat="39.39386872501146" lon="9.077037943773066"><ele>107.2</ele><time>2026-04-26T08:06:42Z</time></trkpt><trkpt lat="39.39378219566322" lon="9.077121189221343"><ele>106.4</ele><time>2026-04-26T08:06:43Z</time></trkpt><trkpt lat="39.39370972531046" lon="9.077196821492075"><ele>105.60000000000001</ele><time>2026-04-26T08:06:44Z</time></trkpt><trkpt lat="39.39363627707249" lon="9.077268335212398"><ele>104.80000000000001</ele><time>2026-04-26T08:06:45Z</time></trkpt><trkpt lat="39.393572310914955" lon="9.0773472805775"><ele>104.0</ele><time>2026-04-26T08:06:46Z</time></trkpt><trkpt lat="39.393511310211004" lon="9.077433394578739"><ele>103.99999999999999</ele><time>2026-04-26T08:06:47Z</time></trkpt><trkpt lat="39.39343419650965" lon="9.077486408417025"><ele>104.0</ele><time>2026-04-26T08:06:48Z</time></trkpt><trkpt lat="39.393362635592645" lon="9.077542823715115"><ele>104.0</ele><time>2026-04-26T08:06:49Z</time></trkpt><trkpt lat="39.393290067866104" lon="9.077597595945202"><ele>104.0</ele><time>2026-04-26T08:06:50Z</time></trkpt><trkpt lat="39.39323248954685" lon="9.077655836164858"><ele>103.99999999999999</ele><time>2026-04-26T08:06:51Z</time></trkpt><trkpt lat="39.393162531718815" lon="9.077736277842158"><ele>104.0</ele><time>2026-04-26T08:06:53Z</time></trkpt><trkpt lat="39.39300150120089" lon="9.077638052849624"><ele>103.49999999999999</ele><time>2026-04-26T08:06:55Z</time></trkpt><trkpt lat="39.39291728124641" lon="9.077635479403865"><ele>103.0</ele><time>2026-04-26T08:06:56Z</time></trkpt><trkpt lat="39.39281501707401" lon="9.0776296232359"><ele>102.5</ele><time>2026-04-26T08:06:58Z</time></trkpt><trkpt lat="39.39275504844135" lon="9.077678585269107"><ele>102.0</ele><time>2026-04-26T08:06:59Z</time></trkpt><trkpt lat="39.392704247772244" lon="9.07775877310811"><ele>101.49999999999999</ele><time>2026-04-26T08:07:00Z</time></trkpt><trkpt lat="39.39264376122198" lon="9.077842938298518"><ele>101.0</ele><time>2026-04-26T08:07:01Z</time></trkpt><trkpt lat="39.39256476648359" lon="9.07792238115632"><ele>100.99999999999999</ele><time>2026-04-26T08:07:02Z</time></trkpt><trkpt lat="39.39249226837878" lon="9.078000241238149"><ele>101.0</ele><time>2026-04-26T08:07:03Z</time></trkpt><trkpt lat="39.39240996780355" lon="9.078069695224082"><ele>101.0</ele><time>2026-04-26T08:07:04Z</time></trkpt><trkpt lat="39.39232306164798" lon="9.078107779065594"><ele>101.0</ele><time>2026-04-26T08:07:05Z</time></trkpt><trkpt lat="39.39225681808975" lon="9.07816353164529"><ele>100.99999999999999</ele><time>2026-04-26T08:07:06Z</time></trkpt><trkpt lat="39.39218568016364" lon="9.078210485956825"><ele>101.0</ele><time>2026-04-26T08:07:07Z</time></trkpt><trkpt lat="39.39211188496165" lon="9.07824669371382"><ele>100.49999999999999</ele><time>2026-04-26T08:07:08Z</time></trkpt><trkpt lat="39.39205481584984" lon="9.078317137407904"><ele>100.0</ele><time>2026-04-26T08:07:09Z</time></trkpt><trkpt lat="39.391997154114755" lon="9.07839141751765"><ele>99.5</ele><time>2026-04-26T08:07:10Z</time></trkpt><trkpt lat="39.39193991578568" lon="9.078470153584899"><ele>99.0</ele><time>2026-04-26T08:07:11Z</time></trkpt><trkpt lat="39.39189071683896" lon="9.078555082387844"><ele>98.49999999999999</ele><time>2026-04-26T08:07:12Z</time></trkpt><trkpt lat="39.39184145056984" lon="9.07863022214391"><ele>98.0</ele><time>2026-04-26T08:07:13Z</time></trkpt><trkpt lat="39.39178039122169" lon="9.078690123841826"><ele>97.99999999999999</ele><time>2026-04-26T08:07:14Z</time></trkpt><trkpt lat="39.39172455457345" lon="9.078750985001552"><ele>98.0</ele><time>2026-04-26T08:07:15Z</time></trkpt><trkpt lat="39.39169836509886" lon="9.078828835773542"><ele>98.0</ele><time>2026-04-26T08:07:16Z</time></trkpt><trkpt lat="39.391700833338376" lon="9.07893035705766"><ele>98.0</ele><time>2026-04-26T08:07:17Z</time></trkpt><trkpt lat="39.39170761250369" lon="9.079048921439894"><ele>97.99999999999999</ele><time>2026-04-26T08:07:18Z</time></trkpt><trkpt lat="39.39170752792801" lon="9.079176716902504"><ele>98.0</ele><time>2026-04-26T08:07:19Z</time></trkpt><trkpt lat="39.39170529176221" lon="9.079294800605572"><ele>97.99999999999999</ele><time>2026-04-26T08:07:20Z</time></trkpt><trkpt lat="39.39170797289257" lon="9.079409527053635"><ele>98.0</ele><time>2026-04-26T08:07:21Z</time></trkpt><trkpt lat="39.39170783481242" lon="9.079524711457124"><ele>98.0</ele><time>2026-04-26T08:07:22Z</time></trkpt><trkpt lat="39.391698702212985" lon="9.079636037713549"><ele>98.0</ele><time>2026-04-26T08:07:23Z</time></trkpt><trkpt lat="39.39167834800386" lon="9.079741983789035"><ele>97.99999999999999</ele><time>2026-04-26T08:07:24Z</time></trkpt><trkpt lat="39.39165667386271" lon="9.07985047722224"><ele>98.0</ele><time>2026-04-26T08:07:25Z</time></trkpt><trkpt lat="39.39163730598296" lon="9.079962191487791"><ele>98.0</ele><time>2026-04-26T08:07:26Z</time></trkpt><trkpt lat="39.39162132888314" lon="9.080092029284508"><ele>98.0</ele><time>2026-04-26T08:07:27Z</time></trkpt><trkpt lat="39.39160397130953" lon="9.080231266386871"><ele>98.0</ele><time>2026-04-26T08:07:28Z</time></trkpt><trkpt lat="39.3915758975787" lon="9.080372708593755"><ele>98.0</ele><time>2026-04-26T08:07:29Z</time></trkpt><trkpt lat="39.391549192820335" lon="9.080480901445135"><ele>98.0</ele><time>2026-04-26T08:07:30Z</time></trkpt><trkpt lat="39.391504754576886" lon="9.080564735903534"><ele>98.0</ele><time>2026-04-26T08:07:31Z</time></trkpt><trkpt lat="39.39144940580374" lon="9.080644925395376"><ele>98.0</ele><time>2026-04-26T08:07:32Z</time></trkpt><trkpt lat="39.39138592603422" lon="9.080721046010202"><ele>98.0</ele><time>2026-04-26T08:07:33Z</time></trkpt><trkpt lat="39.39130846562976" lon="9.08077974193334"><ele>98.0</ele><time>2026-04-26T08:07:34Z</time></trkpt><trkpt lat="39.39121688011252" lon="9.080815157980371"><ele>98.0</ele><time>2026-04-26T08:07:35Z</time></trkpt><trkpt lat="39.39112498669922" lon="9.08084414247035"><ele>97.60000000000001</ele><time>2026-04-26T08:07:36Z</time></trkpt><trkpt lat="39.39103095532597" lon="9.080882607312708"><ele>97.2</ele><time>2026-04-26T08:07:37Z</time></trkpt><trkpt lat="39.3909364415672" lon="9.080929362688796"><ele>96.8</ele><time>2026-04-26T08:07:38Z</time></trkpt><trkpt lat="39.39083045490429" lon="9.080968846735345"><ele>96.4</ele><time>2026-04-26T08:07:39Z</time></trkpt><trkpt lat="39.39073087395764" lon="9.081022486944992"><ele>96.0</ele><time>2026-04-26T08:07:40Z</time></trkpt><trkpt lat="39.39063052570608" lon="9.081120801062301"><ele>96.0</ele><time>2026-04-26T08:07:41Z</time></trkpt><trkpt lat="39.39054742172944" lon="9.081246376681582"><ele>96.0</ele><time>2026-04-26T08:07:42Z</time></trkpt><trkpt lat="39.390469341825806" lon="9.081344778596431"><ele>96.0</ele><time>2026-04-26T08:07:43Z</time></trkpt><trkpt lat="39.39040767463087" lon="9.081436547685938"><ele>96.0</ele><time>2026-04-26T08:07:44Z</time></trkpt><trkpt lat="39.39034451127096" lon="9.081532298333517"><ele>96.0</ele><time>2026-04-26T08:07:45Z</time></trkpt><trkpt lat="39.39026045256158" lon="9.081611061900873"><ele>96.5</ele><time>2026-04-26T08:07:46Z</time></trkpt><trkpt lat="39.39018270944848" lon="9.081716936158506"><ele>97.0</ele><time>2026-04-26T08:07:47Z</time></trkpt><trkpt lat="39.390115944122336" lon="9.081845989762682"><ele>97.5</ele><time>2026-04-26T08:07:48Z</time></trkpt><trkpt lat="39.390042068962" lon="9.081969252479793"><ele>98.0</ele><time>2026-04-26T08:07:49Z</time></trkpt><trkpt lat="39.38997929523107" lon="9.08208789807776"><ele>97.99999999999999</ele><time>2026-04-26T08:07:50Z</time></trkpt><trkpt lat="39.389928783992595" lon="9.082186098350922"><ele>98.0</ele><time>2026-04-26T08:07:51Z</time></trkpt><trkpt lat="39.3898663445168" lon="9.082258581882533"><ele>98.0</ele><time>2026-04-26T08:07:52Z</time></trkpt><trkpt lat="39.38981635444302" lon="9.082356344112958"><ele>98.0</ele><time>2026-04-26T08:07:54Z</time></trkpt><trkpt lat="39.389771169770086" lon="9.08245190108472"><ele>97.99999999999999</ele><time>2026-04-26T08:09:12Z</time></trkpt><trkpt lat="39.38974429897428" lon="9.082531881620868"><ele>98.0</ele><time>2026-04-26T08:09:13Z</time></trkpt><trkpt lat="39.38971048886692" lon="9.08261858440728"><ele>98.0</ele><time>2026-04-26T08:09:14Z</time></trkpt><trkpt lat="39.389677880907534" lon="9.08271578910001"><ele>98.0</ele><time>2026-04-26T08:09:15Z</time></trkpt><trkpt lat="39.389621368415156" lon="9.082787126337621"><ele>98.0</ele><time>2026-04-26T08:09:16Z</time></trkpt><trkpt lat="39.389556974155745" lon="9.082896750416987"><ele>98.0</ele><time>2026-04-26T08:09:17Z</time></trkpt><trkpt lat="39.38948758398589" lon="9.083014983983455"><ele>98.0</ele><time>2026-04-26T08:09:18Z</time></trkpt><trkpt lat="39.38941362332291" lon="9.083134172526975"><ele>97.75</ele><time>2026-04-26T08:09:19Z</time></trkpt><trkpt lat="39.38933824320978" lon="9.08326078913301"><ele>97.5</ele><time>2026-04-26T08:09:20Z</time></trkpt><trkpt lat="39.389251968165716" lon="9.083383873491274"><ele>97.25</ele><time>2026-04-26T08:09:21Z</time></trkpt><trkpt lat="39.389170472842686" lon="9.083495374992221"><ele>97.0</ele><time>2026-04-26T08:09:22Z</time></trkpt><trkpt lat="39.38909778271651" lon="9.083581537478585"><ele>97.00000000000001</ele><time>2026-04-26T08:09:23Z</time></trkpt><trkpt lat="39.389023455107086" lon="9.083646134975098"><ele>97.0</ele><time>2026-04-26T08:09:24Z</time></trkpt><trkpt lat="39.3889468828948" lon="9.083695829750933"><ele>97.0</ele><time>2026-04-26T08:09:25Z</time></trkpt><trkpt lat="39.388857115321365" lon="9.083732581707261"><ele>97.0</ele><time>2026-04-26T08:09:26Z</time></trkpt><trkpt lat="39.3887890567984" lon="9.083736779538517"><ele>97.00000000000001</ele><time>2026-04-26T08:09:27Z</time></trkpt><trkpt lat="39.38871850698031" lon="9.083728089690318"><ele>97.0</ele><time>2026-04-26T08:09:29Z</time></trkpt><trkpt lat="39.38863124083172" lon="9.083780399987576"><ele>97.0</ele><time>2026-04-26T08:09:31Z</time></trkpt><trkpt lat="39.38859357014673" lon="9.083870358874503"><ele>97.0</ele><time>2026-04-26T08:09:32Z</time></trkpt><trkpt lat="39.38855490221571" lon="9.08397160289029"><ele>97.0</ele><time>2026-04-26T08:09:33Z</time></trkpt><trkpt lat="39.38850454447294" lon="9.084083735480052"><ele>97.0</ele><time>2026-04-26T08:09:34Z</time></trkpt><trkpt lat="39.388451198768" lon="9.084210385581306"><ele>97.0</ele><time>2026-04-26T08:09:35Z</time></trkpt><trkpt lat="39.38839307419299" lon="9.084344338160502"><ele>97.25</ele><time>2026-04-26T08:09:36Z</time></trkpt><trkpt lat="39.38832487832137" lon="9.084478504717346"><ele>97.5</ele><time>2026-04-26T08:09:37Z</time></trkpt><trkpt lat="39.38824763085848" lon="9.084606242820396"><ele>97.75</ele><time>2026-04-26T08:09:38Z</time></trkpt><trkpt lat="39.3881527490137" lon="9.08473381434518"><ele>98.0</ele><time>2026-04-26T08:09:39Z</time></trkpt><trkpt lat="39.38806203540469" lon="9.084860628254226"><ele>98.25</ele><time>2026-04-26T08:09:40Z</time></trkpt><trkpt lat="39.38795893462101" lon="9.084984490305896"><ele>98.5</ele><time>2026-04-26T08:09:41Z</time></trkpt><trkpt lat="39.38785959976333" lon="9.085108614391643"><ele>98.75</ele><time>2026-04-26T08:09:42Z</time></trkpt><trkpt lat="39.38777206374973" lon="9.085221359407624"><ele>99.0</ele><time>2026-04-26T08:09:43Z</time></trkpt><trkpt lat="39.38769339501991" lon="9.0853468808004"><ele>99.0</ele><time>2026-04-26T08:09:44Z</time></trkpt><trkpt lat="39.38761140582813" lon="9.085473821454999"><ele>99.0</ele><time>2026-04-26T08:09:45Z</time></trkpt><trkpt lat="39.3875360678074" lon="9.085603072597475"><ele>99.0</ele><time>2026-04-26T08:09:46Z</time></trkpt><trkpt lat="39.387464367397726" lon="9.085740644880556"><ele>99.0</ele><time>2026-04-26T08:09:47Z</time></trkpt><trkpt lat="39.38739377613205" lon="9.085878741045171"><ele>99.25</ele><time>2026-04-26T08:09:48Z</time></trkpt><trkpt lat="39.387329834183426" lon="9.08603065926433"><ele>99.5</ele><time>2026-04-26T08:09:49Z</time></trkpt><trkpt lat="39.38726889320691" lon="9.086187812309253"><ele>99.75</ele><time>2026-04-26T08:09:50Z</time></trkpt><trkpt lat="39.38721593931225" lon="9.086335042742906"><ele>100.0</ele><time>2026-04-26T08:09:51Z</time></trkpt><trkpt lat="39.38717198436371" lon="9.086485328889527"><ele>100.75</ele><time>2026-04-26T08:09:52Z</time></trkpt><trkpt lat="39.38713036021061" lon="9.086639215703025"><ele>101.5</ele><time>2026-04-26T08:09:53Z</time></trkpt><trkpt lat="39.38709706094315" lon="9.086800392773755"><ele>102.25</ele><time>2026-04-26T08:09:54Z</time></trkpt><trkpt lat="39.38707438805102" lon="9.086963679489303"><ele>103.0</ele><time>2026-04-26T08:09:55Z</time></trkpt><trkpt lat="39.387052525337666" lon="9.087129036275774"><ele>103.0</ele><time>2026-04-26T08:09:56Z</time></trkpt><trkpt lat="39.38704015460577" lon="9.08729506650294"><ele>103.0</ele><time>2026-04-26T08:09:57Z</time></trkpt><trkpt lat="39.38701918954514" lon="9.087469059300657"><ele>103.0</ele><time>2026-04-26T08:09:58Z</time></trkpt><trkpt lat="39.38700921610048" lon="9.087640462275425"><ele>103.0</ele><time>2026-04-26T08:09:59Z</time></trkpt><trkpt lat="39.38699906475594" lon="9.087811964753785"><ele>103.0</ele><time>2026-04-26T08:10:00Z</time></trkpt><trkpt lat="39.38698097199837" lon="9.087977281341418"><ele>103.0</ele><time>2026-04-26T08:10:01Z</time></trkpt><trkpt lat="39.386974655418264" lon="9.088135297424964"><ele>103.0</ele><time>2026-04-26T08:10:02Z</time></trkpt><trkpt lat="39.38695583599341" lon="9.088317041720538"><ele>103.0</ele><time>2026-04-26T08:10:03Z</time></trkpt><trkpt lat="39.386944464189334" lon="9.088478604177372"><ele>102.75</ele><time>2026-04-26T08:10:04Z</time></trkpt><trkpt lat="39.38693135581376" lon="9.088642187379907"><ele>102.5</ele><time>2026-04-26T08:10:05Z</time></trkpt><trkpt lat="39.38692377990189" lon="9.088809904770708"><ele>102.25</ele><time>2026-04-26T08:10:06Z</time></trkpt><trkpt lat="39.386904704641715" lon="9.088981942067095"><ele>102.0</ele><time>2026-04-26T08:10:07Z</time></trkpt><trkpt lat="39.38689755889951" lon="9.089147870441066"><ele>102.75</ele><time>2026-04-26T08:10:08Z</time></trkpt><trkpt lat="39.38688286652261" lon="9.089317013903315"><ele>103.5</ele><time>2026-04-26T08:10:09Z</time></trkpt><trkpt lat="39.386868693932065" lon="9.089492926018197"><ele>104.25</ele><time>2026-04-26T08:10:10Z</time></trkpt><trkpt lat="39.38686095365678" lon="9.089656827065797"><ele>105.0</ele><time>2026-04-26T08:10:11Z</time></trkpt><trkpt lat="39.386850096510145" lon="9.089832918030245"><ele>105.25</ele><time>2026-04-26T08:10:12Z</time></trkpt><trkpt lat="39.3868351837914" lon="9.089994365260118"><ele>105.5</ele><time>2026-04-26T08:10:13Z</time></trkpt><trkpt lat="39.38682646921982" lon="9.090166609704607"><ele>105.75</ele><time>2026-04-26T08:10:14Z</time></trkpt><trkpt lat="39.386813348563294" lon="9.090339330821667"><ele>106.0</ele><time>2026-04-26T08:10:15Z</time></trkpt><trkpt lat="39.3868001457582" lon="9.090508662528023"><ele>106.0</ele><time>2026-04-26T08:10:16Z</time></trkpt><trkpt lat="39.386788829821946" lon="9.090675577729508"><ele>106.0</ele><time>2026-04-26T08:10:17Z</time></trkpt><trkpt lat="39.38677532743496" lon="9.09083122252295"><ele>106.0</ele><time>2026-04-26T08:10:18Z</time></trkpt><trkpt lat="39.38676184503587" lon="9.090992064155081"><ele>106.0</ele><time>2026-04-26T08:10:19Z</time></trkpt><trkpt lat="39.386746834800995" lon="9.091147754898259"><ele>106.0</ele><time>2026-04-26T08:10:20Z</time></trkpt><trkpt lat="39.38672872851551" lon="9.091300230554303"><ele>106.0</ele><time>2026-04-26T08:10:21Z</time></trkpt><trkpt lat="39.38670409602327" lon="9.091456949941584"><ele>106.0</ele><time>2026-04-26T08:10:22Z</time></trkpt><trkpt lat="39.38667597646792" lon="9.091609044913193"><ele>106.0</ele><time>2026-04-26T08:10:23Z</time></trkpt><trkpt lat="39.386646032753795" lon="9.091765462449072"><ele>106.0</ele><time>2026-04-26T08:10:24Z</time></trkpt><trkpt lat="39.3866198777267" lon="9.091917706635833"><ele>106.0</ele><time>2026-04-26T08:10:25Z</time></trkpt><trkpt lat="39.38658862356833" lon="9.09207616469826"><ele>106.0</ele><time>2026-04-26T08:10:26Z</time></trkpt><trkpt lat="39.3865597399515" lon="9.09222776652038"><ele>106.0</ele><time>2026-04-26T08:10:27Z</time></trkpt><trkpt lat="39.386531491243346" lon="9.09238607051639"><ele>106.0</ele><time>2026-04-26T08:10:28Z</time></trkpt><trkpt lat="39.386501734579035" lon="9.092544469248827"><ele>106.0</ele><time>2026-04-26T08:10:29Z</time></trkpt><trkpt lat="39.38647236512165" lon="9.092699043341266"><ele>106.0</ele><time>2026-04-26T08:10:30Z</time></trkpt><trkpt lat="39.38644779438718" lon="9.09285491713542"><ele>106.0</ele><time>2026-04-26T08:10:31Z</time></trkpt><trkpt lat="39.38641724500767" lon="9.093007831082078"><ele>106.0</ele><time>2026-04-26T08:10:32Z</time></trkpt><trkpt lat="39.38637898103498" lon="9.093178784907323"><ele>106.0</ele><time>2026-04-26T08:10:33Z</time></trkpt><trkpt lat="39.38634720476134" lon="9.093343365953055"><ele>106.0</ele><time>2026-04-26T08:10:34Z</time></trkpt><trkpt lat="39.38632522700985" lon="9.093479193190115"><ele>106.0</ele><time>2026-04-26T08:10:35Z</time></trkpt><trkpt lat="39.386296119417175" lon="9.093627520366386"><ele>108.25</ele><time>2026-04-26T08:10:36Z</time></trkpt><trkpt lat="39.3862674164253" lon="9.093777853078281"><ele>110.5</ele><time>2026-04-26T08:10:37Z</time></trkpt><trkpt lat="39.38623604431173" lon="9.093926795590813"><ele>112.75</ele><time>2026-04-26T08:10:38Z</time></trkpt><trkpt lat="39.3862073840812" lon="9.094078647409464"><ele>115.0</ele><time>2026-04-26T08:10:39Z</time></trkpt><trkpt lat="39.386183216431995" lon="9.09423316499851"><ele>115.0</ele><time>2026-04-26T08:10:40Z</time></trkpt><trkpt lat="39.38615409916604" lon="9.094383466526887"><ele>115.0</ele><time>2026-04-26T08:10:41Z</time></trkpt><trkpt lat="39.38612843351527" lon="9.094537922821567"><ele>115.0</ele><time>2026-04-26T08:10:42Z</time></trkpt><trkpt lat="39.386099365019376" lon="9.09468832037254"><ele>115.0</ele><time>2026-04-26T08:10:43Z</time></trkpt><trkpt lat="39.386072645812476" lon="9.094844475549912"><ele>114.25</ele><time>2026-04-26T08:10:44Z</time></trkpt><trkpt lat="39.38604464849988" lon="9.094997719910674"><ele>113.5</ele><time>2026-04-26T08:10:45Z</time></trkpt><trkpt lat="39.38602155291532" lon="9.095153948960458"><ele>112.75</ele><time>2026-04-26T08:10:46Z</time></trkpt><trkpt lat="39.385987571274626" lon="9.09530839182269"><ele>112.0</ele><time>2026-04-26T08:10:47Z</time></trkpt><trkpt lat="39.38595853078554" lon="9.095462855012531"><ele>112.0</ele><time>2026-04-26T08:10:48Z</time></trkpt><trkpt lat="39.38592862945941" lon="9.095617951287668"><ele>112.0</ele><time>2026-04-26T08:10:49Z</time></trkpt><trkpt lat="39.385899904326216" lon="9.095775454745551"><ele>112.0</ele><time>2026-04-26T08:10:50Z</time></trkpt><trkpt lat="39.38587293768061" lon="9.09593309907571"><ele>112.0</ele><time>2026-04-26T08:10:51Z</time></trkpt><trkpt lat="39.385844012600096" lon="9.096093909095238"><ele>111.5</ele><time>2026-04-26T08:10:52Z</time></trkpt><trkpt lat="39.385809714091096" lon="9.096256602846774"><ele>111.0</ele><time>2026-04-26T08:10:53Z</time></trkpt><trkpt lat="39.38577979189737" lon="9.096424839253338"><ele>110.5</ele><time>2026-04-26T08:10:54Z</time></trkpt><trkpt lat="39.385748068114616" lon="9.09657952891584"><ele>110.0</ele><time>2026-04-26T08:10:55Z</time></trkpt><trkpt lat="39.38572073453621" lon="9.09673546905468"><ele>109.75</ele><time>2026-04-26T08:10:56Z</time></trkpt><trkpt lat="39.385693661872416" lon="9.096895715843326"><ele>109.5</ele><time>2026-04-26T08:10:57Z</time></trkpt><trkpt lat="39.385666109268286" lon="9.09705438326669"><ele>109.25</ele><time>2026-04-26T08:10:58Z</time></trkpt><trkpt lat="39.385634207040056" lon="9.097212870897236"><ele>109.0</ele><time>2026-04-26T08:10:59Z</time></trkpt><trkpt lat="39.38560318558541" lon="9.097378695000712"><ele>109.25</ele><time>2026-04-26T08:11:00Z</time></trkpt><trkpt lat="39.38556831221418" lon="9.097530694844592"><ele>109.5</ele><time>2026-04-26T08:11:01Z</time></trkpt><trkpt lat="39.38553561843216" lon="9.097691902297658"><ele>109.75</ele><time>2026-04-26T08:11:02Z</time></trkpt><trkpt lat="39.3855113668803" lon="9.097868740596358"><ele>110.0</ele><time>2026-04-26T08:11:03Z</time></trkpt><trkpt lat="39.38548601515298" lon="9.098034039217728"><ele>110.5</ele><time>2026-04-26T08:11:04Z</time></trkpt><trkpt lat="39.385453109956615" lon="9.098189316124612"><ele>111.0</ele><time>2026-04-26T08:11:05Z</time></trkpt><trkpt lat="39.38542350022521" lon="9.098346695114108"><ele>111.5</ele><time>2026-04-26T08:11:06Z</time></trkpt><trkpt lat="39.38539207738784" lon="9.098504296694202"><ele>112.0</ele><time>2026-04-26T08:11:07Z</time></trkpt><trkpt lat="39.38536437707195" lon="9.098663157566511"><ele>112.75</ele><time>2026-04-26T08:11:08Z</time></trkpt><trkpt lat="39.38533603555518" lon="9.098820947233504"><ele>113.5</ele><time>2026-04-26T08:11:09Z</time></trkpt><trkpt lat="39.38530593673078" lon="9.09897867456256"><ele>114.25</ele><time>2026-04-26T08:11:10Z</time></trkpt><trkpt lat="39.38527689529119" lon="9.099131735001542"><ele>115.0</ele><time>2026-04-26T08:11:11Z</time></trkpt><trkpt lat="39.38524808610887" lon="9.09927738896861"><ele>115.0</ele><time>2026-04-26T08:11:12Z</time></trkpt><trkpt lat="39.385224806474035" lon="9.09942554425827"><ele>115.0</ele><time>2026-04-26T08:11:13Z</time></trkpt><trkpt lat="39.385207193132715" lon="9.09957111761531"><ele>115.0</ele><time>2026-04-26T08:11:14Z</time></trkpt><trkpt lat="39.38519047117691" lon="9.099716686948954"><ele>115.0</ele><time>2026-04-26T08:11:15Z</time></trkpt><trkpt lat="39.38518238333598" lon="9.099867610238343"><ele>115.0</ele><time>2026-04-26T08:11:16Z</time></trkpt><trkpt lat="39.38518272424063" lon="9.100018925844862"><ele>115.0</ele><time>2026-04-26T08:11:17Z</time></trkpt><trkpt lat="39.385175287828524" lon="9.10016825568899"><ele>115.0</ele><time>2026-04-26T08:11:18Z</time></trkpt><trkpt lat="39.38517014272678" lon="9.100323628541476"><ele>115.0</ele><time>2026-04-26T08:11:19Z</time></trkpt><trkpt lat="39.3851692942519" lon="9.100497393753201"><ele>115.0</ele><time>2026-04-26T08:11:20Z</time></trkpt><trkpt lat="39.385164512995644" lon="9.100665051336323"><ele>115.0</ele><time>2026-04-26T08:11:21Z</time></trkpt><trkpt lat="39.38516903964202" lon="9.100824157558126"><ele>115.0</ele><time>2026-04-26T08:11:22Z</time></trkpt><trkpt lat="39.38516489522503" lon="9.10097856053164"><ele>115.0</ele><time>2026-04-26T08:11:23Z</time></trkpt><trkpt lat="39.385163471179894" lon="9.101135433458914"><ele>115.0</ele><time>2026-04-26T08:11:24Z</time></trkpt><trkpt lat="39.38516215082429" lon="9.101288532567771"><ele>115.0</ele><time>2026-04-26T08:11:25Z</time></trkpt><trkpt lat="39.38515853320224" lon="9.101446426041155"><ele>115.0</ele><time>2026-04-26T08:11:26Z</time></trkpt><trkpt lat="39.38516065881509" lon="9.101603609564345"><ele>115.0</ele><time>2026-04-26T08:11:27Z</time></trkpt><trkpt lat="39.385159649519075" lon="9.10176357833994"><ele>115.0</ele><time>2026-04-26T08:11:28Z</time></trkpt><trkpt lat="39.38515949973381" lon="9.10192074248026"><ele>115.0</ele><time>2026-04-26T08:11:29Z</time></trkpt><trkpt lat="39.385158143304714" lon="9.102084643552512"><ele>115.0</ele><time>2026-04-26T08:11:30Z</time></trkpt><trkpt lat="39.385155897491245" lon="9.102245000453255"><ele>115.0</ele><time>2026-04-26T08:11:31Z</time></trkpt><trkpt lat="39.38515406846922" lon="9.1024061258434"><ele>115.25</ele><time>2026-04-26T08:11:32Z</time></trkpt><trkpt lat="39.38514989003142" lon="9.10256762519816"><ele>115.5</ele><time>2026-04-26T08:11:33Z</time></trkpt><trkpt lat="39.38514748572144" lon="9.102727990099256"><ele>115.75</ele><time>2026-04-26T08:11:34Z</time></trkpt><trkpt lat="39.385148562672036" lon="9.10288989820202"><ele>116.0</ele><time>2026-04-26T08:11:35Z</time></trkpt><trkpt lat="39.38515012180813" lon="9.103052078898875"><ele>116.0</ele><time>2026-04-26T08:11:36Z</time></trkpt><trkpt lat="39.38514523061173" lon="9.103214066269135"><ele>116.0</ele><time>2026-04-26T08:11:37Z</time></trkpt><trkpt lat="39.3851416032011" lon="9.1033792839177"><ele>116.0</ele><time>2026-04-26T08:11:38Z</time></trkpt><trkpt lat="39.38513980708101" lon="9.103539392017346"><ele>116.0</ele><time>2026-04-26T08:11:39Z</time></trkpt><trkpt lat="39.385142671960224" lon="9.103701910887738"><ele>116.0</ele><time>2026-04-26T08:11:40Z</time></trkpt><trkpt lat="39.385142367312234" lon="9.103860067796724"><ele>116.0</ele><time>2026-04-26T08:11:41Z</time></trkpt><trkpt lat="39.38513983621724" lon="9.103995196726132"><ele>116.0</ele><time>2026-04-26T08:11:42Z</time></trkpt><trkpt lat="39.38513851059551" lon="9.10414232430595"><ele>116.0</ele><time>2026-04-26T08:11:43Z</time></trkpt><trkpt lat="39.385138292673574" lon="9.104303757682338"><ele>116.5</ele><time>2026-04-26T08:11:44Z</time></trkpt><trkpt lat="39.3851331065689" lon="9.104469707816238"><ele>117.0</ele><time>2026-04-26T08:11:45Z</time></trkpt><trkpt lat="39.38513373440181" lon="9.104633102589007"><ele>117.5</ele><time>2026-04-26T08:11:46Z</time></trkpt><trkpt lat="39.38513581694886" lon="9.104796896202737"><ele>118.0</ele><time>2026-04-26T08:11:47Z</time></trkpt><trkpt lat="39.38512757198509" lon="9.10496854734779"><ele>118.25</ele><time>2026-04-26T08:11:48Z</time></trkpt><trkpt lat="39.385127125140805" lon="9.105132934802795"><ele>118.5</ele><time>2026-04-26T08:11:49Z</time></trkpt><trkpt lat="39.385128254341076" lon="9.10528848301717"><ele>118.75</ele><time>2026-04-26T08:11:50Z</time></trkpt><trkpt lat="39.38512413431825" lon="9.105451112636784"><ele>119.0</ele><time>2026-04-26T08:11:51Z</time></trkpt><trkpt lat="39.385124322239044" lon="9.105608809995879"><ele>119.0</ele><time>2026-04-26T08:11:52Z</time></trkpt><trkpt lat="39.38512130800314" lon="9.105769026081912"><ele>119.0</ele><time>2026-04-26T08:11:53Z</time></trkpt><trkpt lat="39.385118759412016" lon="9.10593261801013"><ele>119.0</ele><time>2026-04-26T08:11:54Z</time></trkpt><trkpt lat="39.38511745200877" lon="9.106095802696188"><ele>119.0</ele><time>2026-04-26T08:11:55Z</time></trkpt><trkpt lat="39.38511769007126" lon="9.106260441287331"><ele>119.0</ele><time>2026-04-26T08:11:56Z</time></trkpt><trkpt lat="39.38511453307984" lon="9.106425916688048"><ele>119.0</ele><time>2026-04-26T08:11:57Z</time></trkpt><trkpt lat="39.3851138415978" lon="9.106602099562739"><ele>119.0</ele><time>2026-04-26T08:11:58Z</time></trkpt><trkpt lat="39.38511518590102" lon="9.106774050660022"><ele>119.0</ele><time>2026-04-26T08:11:59Z</time></trkpt><trkpt lat="39.38511258664564" lon="9.106948388115978"><ele>119.25</ele><time>2026-04-26T08:12:00Z</time></trkpt><trkpt lat="39.38511496347027" lon="9.107122708511053"><ele>119.5</ele><time>2026-04-26T08:12:01Z</time></trkpt><trkpt lat="39.38511274642458" lon="9.107299933145098"><ele>119.75</ele><time>2026-04-26T08:12:02Z</time></trkpt><trkpt lat="39.3851119345555" lon="9.107471439991917"><ele>120.0</ele><time>2026-04-26T08:12:03Z</time></trkpt><trkpt lat="39.38510330302965" lon="9.107640387103455"><ele>120.0</ele><time>2026-04-26T08:12:04Z</time></trkpt><trkpt lat="39.385107028860006" lon="9.107806291503671"><ele>120.0</ele><time>2026-04-26T08:12:05Z</time></trkpt><trkpt lat="39.385111244201056" lon="9.107975462114995"><ele>120.0</ele><time>2026-04-26T08:12:06Z</time></trkpt><trkpt lat="39.38510024490776" lon="9.108149074338922"><ele>120.0</ele><time>2026-04-26T08:12:07Z</time></trkpt><trkpt lat="39.38510049083398" lon="9.108322680632334"><ele>120.0</ele><time>2026-04-26T08:12:08Z</time></trkpt><trkpt lat="39.385103951390505" lon="9.1084972161283"><ele>120.0</ele><time>2026-04-26T08:12:09Z</time></trkpt><trkpt lat="39.38510818496791" lon="9.108668204955103"><ele>120.0</ele><time>2026-04-26T08:12:10Z</time></trkpt><trkpt lat="39.385112303844565" lon="9.108833806120373"><ele>120.0</ele><time>2026-04-26T08:12:11Z</time></trkpt><trkpt lat="39.38511192569109" lon="9.109008750981747"><ele>120.25</ele><time>2026-04-26T08:12:12Z</time></trkpt><trkpt lat="39.385095610824195" lon="9.109186103170284"><ele>120.5</ele><time>2026-04-26T08:12:13Z</time></trkpt><trkpt lat="39.385109919297754" lon="9.109362697016582"><ele>120.75</ele><time>2026-04-26T08:12:14Z</time></trkpt><trkpt lat="39.38509543917539" lon="9.109537066961366"><ele>121.0</ele><time>2026-04-26T08:12:15Z</time></trkpt><trkpt lat="39.38508205795312" lon="9.109709898036606"><ele>121.0</ele><time>2026-04-26T08:12:16Z</time></trkpt><trkpt lat="39.385075398775534" lon="9.10989128303114"><ele>121.0</ele><time>2026-04-26T08:12:17Z</time></trkpt><trkpt lat="39.38507642757605" lon="9.110060454989052"><ele>121.0</ele><time>2026-04-26T08:12:18Z</time></trkpt><trkpt lat="39.38507591391802" lon="9.11022285425802"><ele>121.0</ele><time>2026-04-26T08:12:19Z</time></trkpt><trkpt lat="39.385067342120564" lon="9.11039637661973"><ele>121.0</ele><time>2026-04-26T08:12:20Z</time></trkpt><trkpt lat="39.38507694780103" lon="9.11056848763472"><ele>121.0</ele><time>2026-04-26T08:12:21Z</time></trkpt><trkpt lat="39.38506784786874" lon="9.110738825394678"><ele>121.0</ele><time>2026-04-26T08:12:22Z</time></trkpt><trkpt lat="39.385065131098074" lon="9.110914370674566"><ele>121.0</ele><time>2026-04-26T08:12:23Z</time></trkpt><trkpt lat="39.385061372652956" lon="9.11109027161855"><ele>121.25</ele><time>2026-04-26T08:12:24Z</time></trkpt><trkpt lat="39.38506087323894" lon="9.111270593449253"><ele>121.5</ele><time>2026-04-26T08:12:25Z</time></trkpt><trkpt lat="39.385062779396804" lon="9.111453077827438"><ele>121.75</ele><time>2026-04-26T08:12:26Z</time></trkpt><trkpt lat="39.38505598285724" lon="9.111627706241313"><ele>122.0</ele><time>2026-04-26T08:12:27Z</time></trkpt><trkpt lat="39.38505589974802" lon="9.11179937363233"><ele>122.0</ele><time>2026-04-26T08:12:28Z</time></trkpt><trkpt lat="39.3850521380973" lon="9.111972406039838"><ele>122.0</ele><time>2026-04-26T08:12:29Z</time></trkpt><trkpt lat="39.38504888061092" lon="9.112145267057475"><ele>122.0</ele><time>2026-04-26T08:12:30Z</time></trkpt><trkpt lat="39.38504914712755" lon="9.112317079919164"><ele>122.0</ele><time>2026-04-26T08:12:31Z</time></trkpt><trkpt lat="39.385044745559625" lon="9.112493157031171"><ele>122.0</ele><time>2026-04-26T08:12:32Z</time></trkpt><trkpt lat="39.38504445454408" lon="9.112667326653611"><ele>122.0</ele><time>2026-04-26T08:12:33Z</time></trkpt><trkpt lat="39.38504413867533" lon="9.112840600260201"><ele>122.0</ele><time>2026-04-26T08:12:34Z</time></trkpt><trkpt lat="39.38503891393443" lon="9.113015769978528"><ele>122.0</ele><time>2026-04-26T08:12:35Z</time></trkpt><trkpt lat="39.38503966261022" lon="9.11318962967702"><ele>122.0</ele><time>2026-04-26T08:12:36Z</time></trkpt><trkpt lat="39.385035397697045" lon="9.113363912335512"><ele>122.0</ele><time>2026-04-26T08:12:37Z</time></trkpt><trkpt lat="39.385036047771855" lon="9.113537833981361"><ele>122.0</ele><time>2026-04-26T08:12:38Z</time></trkpt><trkpt lat="39.38503707989836" lon="9.113710698800686"><ele>122.0</ele><time>2026-04-26T08:12:39Z</time></trkpt><trkpt lat="39.385029490988686" lon="9.113885230933935"><ele>122.0</ele><time>2026-04-26T08:12:40Z</time></trkpt><trkpt lat="39.38502820384278" lon="9.114058828613512"><ele>122.0</ele><time>2026-04-26T08:12:41Z</time></trkpt><trkpt lat="39.385029884412205" lon="9.11423140259406"><ele>122.0</ele><time>2026-04-26T08:12:42Z</time></trkpt><trkpt lat="39.38502447784269" lon="9.114402897181773"><ele>122.0</ele><time>2026-04-26T08:12:43Z</time></trkpt><trkpt lat="39.38502406327888" lon="9.114577160585533"><ele>122.25</ele><time>2026-04-26T08:12:44Z</time></trkpt><trkpt lat="39.385020055416575" lon="9.114747944200118"><ele>122.5</ele><time>2026-04-26T08:12:45Z</time></trkpt><trkpt lat="39.38500739373584" lon="9.114920888667283"><ele>122.75</ele><time>2026-04-26T08:12:46Z</time></trkpt><trkpt lat="39.384998967505894" lon="9.115093995522974"><ele>123.0</ele><time>2026-04-26T08:12:47Z</time></trkpt><trkpt lat="39.384987549841156" lon="9.115265886873155"><ele>123.25</ele><time>2026-04-26T08:12:48Z</time></trkpt><trkpt lat="39.38497062927955" lon="9.11543559906118"><ele>123.5</ele><time>2026-04-26T08:12:49Z</time></trkpt><trkpt lat="39.38495886759028" lon="9.115609669881504"><ele>123.75</ele><time>2026-04-26T08:12:50Z</time></trkpt><trkpt lat="39.3849407506615" lon="9.115777813546432"><ele>124.0</ele><time>2026-04-26T08:12:51Z</time></trkpt><trkpt lat="39.38492219823564" lon="9.115948503490815"><ele>124.5</ele><time>2026-04-26T08:12:52Z</time></trkpt><trkpt lat="39.384903798821554" lon="9.116118993308293"><ele>125.0</ele><time>2026-04-26T08:12:53Z</time></trkpt><trkpt lat="39.38488855822033" lon="9.116289682485188"><ele>125.5</ele><time>2026-04-26T08:12:54Z</time></trkpt><trkpt lat="39.384866077109194" lon="9.116458289070508"><ele>126.0</ele><time>2026-04-26T08:12:55Z</time></trkpt><trkpt lat="39.38484890218649" lon="9.116633875414328"><ele>126.0</ele><time>2026-04-26T08:12:56Z</time></trkpt><trkpt lat="39.384834279686466" lon="9.11680252009233"><ele>126.0</ele><time>2026-04-26T08:12:57Z</time></trkpt><trkpt lat="39.38481810140933" lon="9.116971236683522"><ele>126.0</ele><time>2026-04-26T08:12:58Z</time></trkpt><trkpt lat="39.38479459090112" lon="9.117141952492254"><ele>126.0</ele><time>2026-04-26T08:12:59Z</time></trkpt><trkpt lat="39.38478179763321" lon="9.117324124545465"><ele>126.25</ele><time>2026-04-26T08:13:00Z</time></trkpt><trkpt lat="39.38476188172628" lon="9.117505112079453"><ele>126.5</ele><time>2026-04-26T08:13:01Z</time></trkpt><trkpt lat="39.384741849359024" lon="9.11767491183868"><ele>126.75</ele><time>2026-04-26T08:13:02Z</time></trkpt><trkpt lat="39.38472401582037" lon="9.11784910320783"><ele>127.0</ele><time>2026-04-26T08:13:03Z</time></trkpt><trkpt lat="39.38470506368263" lon="9.118019970941257"><ele>127.0</ele><time>2026-04-26T08:13:04Z</time></trkpt><trkpt lat="39.3846843595792" lon="9.118191691019323"><ele>127.0</ele><time>2026-04-26T08:13:05Z</time></trkpt><trkpt lat="39.384670959306916" lon="9.118364583706978"><ele>127.0</ele><time>2026-04-26T08:13:06Z</time></trkpt><trkpt lat="39.384647534219184" lon="9.118532784512498"><ele>127.0</ele><time>2026-04-26T08:13:07Z</time></trkpt><trkpt lat="39.38462641121087" lon="9.118704600843587"><ele>127.25</ele><time>2026-04-26T08:13:08Z</time></trkpt><trkpt lat="39.384611020295594" lon="9.118875631263098"><ele>127.5</ele><time>2026-04-26T08:13:09Z</time></trkpt><trkpt lat="39.384591889502204" lon="9.119042214343699"><ele>127.75</ele><time>2026-04-26T08:13:10Z</time></trkpt><trkpt lat="39.38457374443979" lon="9.119213282359256"><ele>128.0</ele><time>2026-04-26T08:13:11Z</time></trkpt><trkpt lat="39.38455832279735" lon="9.119387595511515"><ele>128.25</ele><time>2026-04-26T08:13:12Z</time></trkpt><trkpt lat="39.384537293215274" lon="9.119553386296678"><ele>128.5</ele><time>2026-04-26T08:13:13Z</time></trkpt><trkpt lat="39.38452252885931" lon="9.119725643855952"><ele>128.75</ele><time>2026-04-26T08:13:14Z</time></trkpt><trkpt lat="39.3845037518895" lon="9.11989154404987"><ele>129.0</ele><time>2026-04-26T08:13:15Z</time></trkpt><trkpt lat="39.38448788898724" lon="9.120066364379175"><ele>129.25</ele><time>2026-04-26T08:13:16Z</time></trkpt><trkpt lat="39.38446906029665" lon="9.120240192201955"><ele>129.5</ele><time>2026-04-26T08:13:17Z</time></trkpt><trkpt lat="39.38445190420936" lon="9.120405400288757"><ele>129.75</ele><time>2026-04-26T08:13:18Z</time></trkpt><trkpt lat="39.384434764997785" lon="9.120577452566023"><ele>130.0</ele><time>2026-04-26T08:13:19Z</time></trkpt><trkpt lat="39.38441625133627" lon="9.120745450450421"><ele>130.25</ele><time>2026-04-26T08:13:20Z</time></trkpt><trkpt lat="39.384398760185476" lon="9.120908396413338"><ele>130.5</ele><time>2026-04-26T08:13:21Z</time></trkpt><trkpt lat="39.38438143822146" lon="9.121080142566745"><ele>130.75</ele><time>2026-04-26T08:13:22Z</time></trkpt><trkpt lat="39.38436361364064" lon="9.121243896418518"><ele>131.0</ele><time>2026-04-26T08:13:23Z</time></trkpt><trkpt lat="39.38434587321249" lon="9.121401250718886"><ele>131.0</ele><time>2026-04-26T08:13:24Z</time></trkpt><trkpt lat="39.38432949096585" lon="9.12155097858458"><ele>131.0</ele><time>2026-04-26T08:13:25Z</time></trkpt><trkpt lat="39.38431677694546" lon="9.121703219093384"><ele>131.0</ele><time>2026-04-26T08:13:26Z</time></trkpt><trkpt lat="39.38430358917995" lon="9.121853259353626"><ele>131.0</ele><time>2026-04-26T08:13:27Z</time></trkpt><trkpt lat="39.38428810341259" lon="9.122009414636873"><ele>131.5</ele><time>2026-04-26T08:13:28Z</time></trkpt><trkpt lat="39.38427163678401" lon="9.122164675149463"><ele>132.0</ele><time>2026-04-26T08:13:29Z</time></trkpt><trkpt lat="39.38425332983554" lon="9.122320035310581"><ele>132.5</ele><time>2026-04-26T08:13:30Z</time></trkpt><trkpt lat="39.38423589180971" lon="9.122481277715858"><ele>133.0</ele><time>2026-04-26T08:13:31Z</time></trkpt><trkpt lat="39.38422267345461" lon="9.122645407560395"><ele>133.0</ele><time>2026-04-26T08:13:32Z</time></trkpt><trkpt lat="39.38420266872651" lon="9.12281217008777"><ele>133.0</ele><time>2026-04-26T08:13:33Z</time></trkpt><trkpt lat="39.384183322815545" lon="9.122969353529951"><ele>133.0</ele><time>2026-04-26T08:13:34Z</time></trkpt><trkpt lat="39.384167723835816" lon="9.123120323406402"><ele>133.0</ele><time>2026-04-26T08:13:35Z</time></trkpt><trkpt lat="39.384149896919276" lon="9.123243471685324"><ele>133.0</ele><time>2026-04-26T08:13:36Z</time></trkpt><trkpt lat="39.384134076606394" lon="9.123331292402897"><ele>133.0</ele><time>2026-04-26T08:13:37Z</time></trkpt><trkpt lat="39.3841139315925" lon="9.123411371076024"><ele>133.0</ele><time>2026-04-26T08:13:39Z</time></trkpt><trkpt lat="39.384111605677" lon="9.123524835371228"><ele>133.0</ele><time>2026-04-26T08:13:57Z</time></trkpt><trkpt lat="39.38411162065124" lon="9.123609108188967"><ele>133.0</ele><time>2026-04-26T08:13:58Z</time></trkpt><trkpt lat="39.38410461681156" lon="9.123699613036676"><ele>133.0</ele><time>2026-04-26T08:13:59Z</time></trkpt><trkpt lat="39.384101067570036" lon="9.123800216684895"><ele>133.0</ele><time>2026-04-26T08:14:00Z</time></trkpt><trkpt lat="39.38408536239442" lon="9.123933137739654"><ele>133.25</ele><time>2026-04-26T08:14:01Z</time></trkpt><trkpt lat="39.3840664355389" lon="9.1240770708126"><ele>133.5</ele><time>2026-04-26T08:14:02Z</time></trkpt><trkpt lat="39.38405115714168" lon="9.124220358306621"><ele>133.75</ele><time>2026-04-26T08:14:03Z</time></trkpt><trkpt lat="39.38403398266849" lon="9.124375129367609"><ele>134.0</ele><time>2026-04-26T08:14:04Z</time></trkpt><trkpt lat="39.384017908788515" lon="9.124538437303142"><ele>134.0</ele><time>2026-04-26T08:14:05Z</time></trkpt><trkpt lat="39.38399912221838" lon="9.124699944987318"><ele>134.0</ele><time>2026-04-26T08:14:06Z</time></trkpt><trkpt lat="39.383981385065546" lon="9.124862723481542"><ele>134.0</ele><time>2026-04-26T08:14:07Z</time></trkpt><trkpt lat="39.38396299947908" lon="9.125024947901666"><ele>134.0</ele><time>2026-04-26T08:14:08Z</time></trkpt><trkpt lat="39.38394610135021" lon="9.125191481112449"><ele>133.75</ele><time>2026-04-26T08:14:09Z</time></trkpt><trkpt lat="39.38392948223487" lon="9.125353789198659"><ele>133.5</ele><time>2026-04-26T08:14:10Z</time></trkpt><trkpt lat="39.38391201013469" lon="9.12551707803127"><ele>133.25</ele><time>2026-04-26T08:14:11Z</time></trkpt><trkpt lat="39.38389605828572" lon="9.125675555266058"><ele>133.0</ele><time>2026-04-26T08:14:12Z</time></trkpt><trkpt lat="39.383879450854096" lon="9.125831976151128"><ele>133.5</ele><time>2026-04-26T08:14:13Z</time></trkpt><trkpt lat="39.383864570916224" lon="9.125984758271487"><ele>134.0</ele><time>2026-04-26T08:14:14Z</time></trkpt><trkpt lat="39.383846080822224" lon="9.126140837982575"><ele>134.5</ele><time>2026-04-26T08:14:15Z</time></trkpt><trkpt lat="39.38382762518769" lon="9.126299764005807"><ele>135.0</ele><time>2026-04-26T08:14:16Z</time></trkpt><trkpt lat="39.38381077624865" lon="9.126462110462171"><ele>135.0</ele><time>2026-04-26T08:14:17Z</time></trkpt><trkpt lat="39.38379463615912" lon="9.126624662738829"><ele>135.0</ele><time>2026-04-26T08:14:18Z</time></trkpt><trkpt lat="39.38377960083856" lon="9.12678881298294"><ele>135.0</ele><time>2026-04-26T08:14:19Z</time></trkpt><trkpt lat="39.38376381675576" lon="9.126949210442554"><ele>135.0</ele><time>2026-04-26T08:14:20Z</time></trkpt><trkpt lat="39.38374770034973" lon="9.127112163594346"><ele>135.0</ele><time>2026-04-26T08:14:21Z</time></trkpt><trkpt lat="39.38372991449481" lon="9.127274078248663"><ele>135.0</ele><time>2026-04-26T08:14:22Z</time></trkpt><trkpt lat="39.38371245821474" lon="9.127433417153457"><ele>135.0</ele><time>2026-04-26T08:14:23Z</time></trkpt><trkpt lat="39.383694426605736" lon="9.127596324040992"><ele>135.0</ele><time>2026-04-26T08:14:24Z</time></trkpt><trkpt lat="39.383675218148746" lon="9.127769684696144"><ele>135.25</ele><time>2026-04-26T08:14:25Z</time></trkpt><trkpt lat="39.383656478604706" lon="9.127933739284709"><ele>135.5</ele><time>2026-04-26T08:14:26Z</time></trkpt><trkpt lat="39.383643242999746" lon="9.128092311232773"><ele>135.75</ele><time>2026-04-26T08:14:27Z</time></trkpt><trkpt lat="39.38362780537979" lon="9.12825655098498"><ele>136.0</ele><time>2026-04-26T08:14:28Z</time></trkpt><trkpt lat="39.38361251085113" lon="9.128418814327642"><ele>136.0</ele><time>2026-04-26T08:14:29Z</time></trkpt><trkpt lat="39.38359352918714" lon="9.128581758753324"><ele>136.0</ele><time>2026-04-26T08:14:30Z</time></trkpt><trkpt lat="39.383573328857636" lon="9.12874770719304"><ele>136.0</ele><time>2026-04-26T08:14:31Z</time></trkpt><trkpt lat="39.383553015222766" lon="9.12891343923656"><ele>136.0</ele><time>2026-04-26T08:14:32Z</time></trkpt><trkpt lat="39.383531823581755" lon="9.12907642320269"><ele>136.0</ele><time>2026-04-26T08:14:33Z</time></trkpt><trkpt lat="39.38352043256212" lon="9.129245661561049"><ele>136.0</ele><time>2026-04-26T08:14:34Z</time></trkpt><trkpt lat="39.383504749116995" lon="9.129421363415391"><ele>136.0</ele><time>2026-04-26T08:14:35Z</time></trkpt><trkpt lat="39.38348599553902" lon="9.129586047141535"><ele>136.0</ele><time>2026-04-26T08:14:36Z</time></trkpt><trkpt lat="39.383464407182565" lon="9.12974980202629"><ele>135.75</ele><time>2026-04-26T08:14:37Z</time></trkpt><trkpt lat="39.383452273101554" lon="9.12992346422397"><ele>135.5</ele><time>2026-04-26T08:14:38Z</time></trkpt><trkpt lat="39.38343483350267" lon="9.130089991532794"><ele>135.25</ele><time>2026-04-26T08:14:39Z</time></trkpt><trkpt lat="39.383406497086945" lon="9.130250546450263"><ele>135.0</ele><time>2026-04-26T08:14:40Z</time></trkpt><trkpt lat="39.38340055338787" lon="9.130421541593007"><ele>135.0</ele><time>2026-04-26T08:14:41Z</time></trkpt><trkpt lat="39.38337081118676" lon="9.130584504055765"><ele>135.0</ele><time>2026-04-26T08:14:42Z</time></trkpt><trkpt lat="39.38335494747996" lon="9.130754376555636"><ele>135.0</ele><time>2026-04-26T08:14:43Z</time></trkpt><trkpt lat="39.38333977927045" lon="9.130919819261099"><ele>135.0</ele><time>2026-04-26T08:14:44Z</time></trkpt><trkpt lat="39.383320660059624" lon="9.131086352767248"><ele>135.75</ele><time>2026-04-26T08:14:45Z</time></trkpt><trkpt lat="39.38331230305612" lon="9.131254785892011"><ele>136.5</ele><time>2026-04-26T08:14:46Z</time></trkpt><trkpt lat="39.383303196099945" lon="9.131429549802283"><ele>137.25</ele><time>2026-04-26T08:14:47Z</time></trkpt><trkpt lat="39.383297293562066" lon="9.131591500372595"><ele>138.0</ele><time>2026-04-26T08:14:48Z</time></trkpt><trkpt lat="39.38330528362689" lon="9.131764768828392"><ele>138.0</ele><time>2026-04-26T08:14:49Z</time></trkpt><trkpt lat="39.38330765996403" lon="9.131922569918029"><ele>138.0</ele><time>2026-04-26T08:14:50Z</time></trkpt><trkpt lat="39.383318066623566" lon="9.132099172780821"><ele>138.0</ele><time>2026-04-26T08:14:51Z</time></trkpt><trkpt lat="39.383336820489106" lon="9.13226962286694"><ele>138.0</ele><time>2026-04-26T08:14:52Z</time></trkpt><trkpt lat="39.383343163090984" lon="9.132440393245274"><ele>138.5</ele><time>2026-04-26T08:14:53Z</time></trkpt><trkpt lat="39.38336315460803" lon="9.132621794265882"><ele>139.0</ele><time>2026-04-26T08:14:54Z</time></trkpt><trkpt lat="39.383378470642405" lon="9.132782544495749"><ele>139.5</ele><time>2026-04-26T08:14:55Z</time></trkpt><trkpt lat="39.383383872880444" lon="9.13294781045162"><ele>140.0</ele><time>2026-04-26T08:14:56Z</time></trkpt><trkpt lat="39.38338587344657" lon="9.13310718765271"><ele>140.75</ele><time>2026-04-26T08:14:57Z</time></trkpt><trkpt lat="39.38339931468317" lon="9.133285066962042"><ele>141.5</ele><time>2026-04-26T08:14:58Z</time></trkpt><trkpt lat="39.38341410864119" lon="9.133455863743349"><ele>142.25</ele><time>2026-04-26T08:14:59Z</time></trkpt><trkpt lat="39.383427451247464" lon="9.133622243906542"><ele>143.0</ele><time>2026-04-26T08:15:00Z</time></trkpt><trkpt lat="39.38344150098135" lon="9.13379389720796"><ele>143.0</ele><time>2026-04-26T08:15:01Z</time></trkpt><trkpt lat="39.38345669582049" lon="9.133968356150419"><ele>143.0</ele><time>2026-04-26T08:15:02Z</time></trkpt><trkpt lat="39.38347147794911" lon="9.134131731151749"><ele>143.0</ele><time>2026-04-26T08:15:03Z</time></trkpt><trkpt lat="39.38348512278916" lon="9.134298887113848"><ele>143.0</ele><time>2026-04-26T08:15:04Z</time></trkpt><trkpt lat="39.383505209460616" lon="9.134466288553812"><ele>143.0</ele><time>2026-04-26T08:15:05Z</time></trkpt><trkpt lat="39.383523761961825" lon="9.134636351977068"><ele>143.0</ele><time>2026-04-26T08:15:06Z</time></trkpt><trkpt lat="39.383539492529515" lon="9.134805747440174"><ele>143.0</ele><time>2026-04-26T08:15:07Z</time></trkpt><trkpt lat="39.38354494428402" lon="9.134965958395876"><ele>143.0</ele><time>2026-04-26T08:15:08Z</time></trkpt><trkpt lat="39.38355148470798" lon="9.135143292969678"><ele>142.75</ele><time>2026-04-26T08:15:09Z</time></trkpt><trkpt lat="39.383567013430635" lon="9.135302773834141"><ele>142.5</ele><time>2026-04-26T08:15:10Z</time></trkpt><trkpt lat="39.38358253779619" lon="9.135463115550895"><ele>142.25</ele><time>2026-04-26T08:15:11Z</time></trkpt><trkpt lat="39.38359541092313" lon="9.135625868945647"><ele>142.0</ele><time>2026-04-26T08:15:12Z</time></trkpt><trkpt lat="39.383611329123696" lon="9.135782572230703"><ele>142.4</ele><time>2026-04-26T08:15:13Z</time></trkpt><trkpt lat="39.38362208046282" lon="9.13592184598124"><ele>142.79999999999998</ele><time>2026-04-26T08:15:14Z</time></trkpt><trkpt lat="39.38364293981774" lon="9.136057690742135"><ele>143.2</ele><time>2026-04-26T08:15:15Z</time></trkpt><trkpt lat="39.38366472516306" lon="9.136201115059125"><ele>143.6</ele><time>2026-04-26T08:15:16Z</time></trkpt><trkpt lat="39.383690446385074" lon="9.136354088570611"><ele>144.0</ele><time>2026-04-26T08:15:17Z</time></trkpt><trkpt lat="39.3837297461029" lon="9.136519771540195"><ele>144.0</ele><time>2026-04-26T08:15:18Z</time></trkpt><trkpt lat="39.38376865010791" lon="9.13669507274983"><ele>144.0</ele><time>2026-04-26T08:15:19Z</time></trkpt><trkpt lat="39.383800144627216" lon="9.136854231828242"><ele>144.0</ele><time>2026-04-26T08:15:20Z</time></trkpt><trkpt lat="39.38382508064067" lon="9.137003530568702"><ele>144.0</ele><time>2026-04-26T08:15:21Z</time></trkpt><trkpt lat="39.38385635520363" lon="9.137156775901524"><ele>143.75</ele><time>2026-04-26T08:15:22Z</time></trkpt><trkpt lat="39.383891437281505" lon="9.13730662582327"><ele>143.5</ele><time>2026-04-26T08:15:23Z</time></trkpt><trkpt lat="39.383923057389744" lon="9.137463007889558"><ele>143.25</ele><time>2026-04-26T08:15:24Z</time></trkpt><trkpt lat="39.3839558848168" lon="9.137622458537454"><ele>143.0</ele><time>2026-04-26T08:15:25Z</time></trkpt><trkpt lat="39.383988360002604" lon="9.137778721945812"><ele>143.75</ele><time>2026-04-26T08:15:26Z</time></trkpt><trkpt lat="39.38402355281595" lon="9.137934499595653"><ele>144.5</ele><time>2026-04-26T08:15:27Z</time></trkpt><trkpt lat="39.38405727091123" lon="9.138095461611277"><ele>145.25</ele><time>2026-04-26T08:15:28Z</time></trkpt><trkpt lat="39.3840895310293" lon="9.138256772133978"><ele>146.0</ele><time>2026-04-26T08:15:29Z</time></trkpt><trkpt lat="39.38412192085834" lon="9.138412010168922"><ele>146.25</ele><time>2026-04-26T08:15:30Z</time></trkpt><trkpt lat="39.384156358703805" lon="9.138564079563865"><ele>146.5</ele><time>2026-04-26T08:15:31Z</time></trkpt><trkpt lat="39.38419145756091" lon="9.138714323233982"><ele>146.75</ele><time>2026-04-26T08:15:32Z</time></trkpt><trkpt lat="39.38422642951728" lon="9.13887593191348"><ele>147.0</ele><time>2026-04-26T08:15:33Z</time></trkpt><trkpt lat="39.38425728352784" lon="9.139043751143557"><ele>147.0</ele><time>2026-04-26T08:15:34Z</time></trkpt><trkpt lat="39.38429736020238" lon="9.139208795541066"><ele>147.0</ele><time>2026-04-26T08:15:35Z</time></trkpt><trkpt lat="39.38432522236828" lon="9.139358233823653"><ele>147.0</ele><time>2026-04-26T08:15:36Z</time></trkpt><trkpt lat="39.38435535069333" lon="9.139510904890514"><ele>147.0</ele><time>2026-04-26T08:15:37Z</time></trkpt><trkpt lat="39.384389316545274" lon="9.139668723931063"><ele>147.0</ele><time>2026-04-26T08:15:38Z</time></trkpt><trkpt lat="39.384421211902044" lon="9.139826794224364"><ele>147.0</ele><time>2026-04-26T08:15:39Z</time></trkpt><trkpt lat="39.384453119547416" lon="9.139979243591373"><ele>147.0</ele><time>2026-04-26T08:15:40Z</time></trkpt><trkpt lat="39.384486019121375" lon="9.14013222679579"><ele>147.0</ele><time>2026-04-26T08:15:41Z</time></trkpt><trkpt lat="39.38451889806839" lon="9.14028771312288"><ele>147.0</ele><time>2026-04-26T08:15:42Z</time></trkpt><trkpt lat="39.38455251957179" lon="9.140438482880667"><ele>147.0</ele><time>2026-04-26T08:15:43Z</time></trkpt><trkpt lat="39.384584817838196" lon="9.140595844938375"><ele>147.0</ele><time>2026-04-26T08:15:44Z</time></trkpt><trkpt lat="39.384615302345146" lon="9.140759242864737"><ele>147.0</ele><time>2026-04-26T08:15:45Z</time></trkpt><trkpt lat="39.384646726684345" lon="9.140915943050551"><ele>147.25</ele><time>2026-04-26T08:15:46Z</time></trkpt><trkpt lat="39.38468258740205" lon="9.141067916200242"><ele>147.5</ele><time>2026-04-26T08:15:47Z</time></trkpt><trkpt lat="39.38471349216711" lon="9.141229076761137"><ele>147.75</ele><time>2026-04-26T08:15:48Z</time></trkpt><trkpt lat="39.38474531339846" lon="9.141388485231664"><ele>148.0</ele><time>2026-04-26T08:15:49Z</time></trkpt><trkpt lat="39.384772526951004" lon="9.141548076760259"><ele>148.25</ele><time>2026-04-26T08:15:50Z</time></trkpt><trkpt lat="39.38479163021616" lon="9.141715993606859"><ele>148.5</ele><time>2026-04-26T08:15:51Z</time></trkpt><trkpt lat="39.384804567087265" lon="9.141879385687448"><ele>148.75</ele><time>2026-04-26T08:15:52Z</time></trkpt><trkpt lat="39.38480544238662" lon="9.142046067234498"><ele>149.0</ele><time>2026-04-26T08:15:53Z</time></trkpt><trkpt lat="39.3848041308013" lon="9.142213546781594"><ele>149.0</ele><time>2026-04-26T08:15:54Z</time></trkpt><trkpt lat="39.38480131941417" lon="9.142377084439365"><ele>149.0</ele><time>2026-04-26T08:15:55Z</time></trkpt><trkpt lat="39.38478519440747" lon="9.142549682863057"><ele>149.0</ele><time>2026-04-26T08:15:56Z</time></trkpt><trkpt lat="39.38476368967727" lon="9.142716448965263"><ele>149.0</ele><time>2026-04-26T08:15:57Z</time></trkpt><trkpt lat="39.38475631132273" lon="9.142883259656589"><ele>149.0</ele><time>2026-04-26T08:15:58Z</time></trkpt><trkpt lat="39.3847284372841" lon="9.143039053644909"><ele>149.0</ele><time>2026-04-26T08:15:59Z</time></trkpt><trkpt lat="39.38470764554441" lon="9.14319773204742"><ele>149.0</ele><time>2026-04-26T08:16:00Z</time></trkpt><trkpt lat="39.38468690457681" lon="9.143349849245121"><ele>149.0</ele><time>2026-04-26T08:16:01Z</time></trkpt><trkpt lat="39.38466633343185" lon="9.143505867565995"><ele>149.0</ele><time>2026-04-26T08:16:02Z</time></trkpt><trkpt lat="39.38464944570906" lon="9.14365885571809"><ele>149.0</ele><time>2026-04-26T08:16:03Z</time></trkpt><trkpt lat="39.38463074148676" lon="9.143807375402607"><ele>149.0</ele><time>2026-04-26T08:16:04Z</time></trkpt><trkpt lat="39.38461401000428" lon="9.143957853259563"><ele>149.0</ele><time>2026-04-26T08:16:05Z</time></trkpt><trkpt lat="39.38458775622005" lon="9.144110414821656"><ele>149.0</ele><time>2026-04-26T08:16:06Z</time></trkpt><trkpt lat="39.38456586873287" lon="9.144264366522895"><ele>149.0</ele><time>2026-04-26T08:16:07Z</time></trkpt><trkpt lat="39.38455086652337" lon="9.14441540647022"><ele>149.0</ele><time>2026-04-26T08:16:08Z</time></trkpt><trkpt lat="39.3845322547249" lon="9.144567845828051"><ele>149.0</ele><time>2026-04-26T08:16:09Z</time></trkpt><trkpt lat="39.384513484865394" lon="9.144721971287085"><ele>149.0</ele><time>2026-04-26T08:16:10Z</time></trkpt><trkpt lat="39.384493996754095" lon="9.144873544657482"><ele>149.0</ele><time>2026-04-26T08:16:11Z</time></trkpt><trkpt lat="39.384471896099036" lon="9.14502870390281"><ele>149.0</ele><time>2026-04-26T08:16:12Z</time></trkpt><trkpt lat="39.38445131276969" lon="9.145179992114011"><ele>149.0</ele><time>2026-04-26T08:16:13Z</time></trkpt><trkpt lat="39.3844357581292" lon="9.145330991605041"><ele>149.25</ele><time>2026-04-26T08:16:14Z</time></trkpt><trkpt lat="39.38441442338345" lon="9.14547919199772"><ele>149.5</ele><time>2026-04-26T08:16:15Z</time></trkpt><trkpt lat="39.38439241671359" lon="9.14562844387969"><ele>149.75</ele><time>2026-04-26T08:16:16Z</time></trkpt><trkpt lat="39.38437022948257" lon="9.145776589410408"><ele>150.0</ele><time>2026-04-26T08:16:17Z</time></trkpt><trkpt lat="39.38434799991345" lon="9.145924448571682"><ele>151.0</ele><time>2026-04-26T08:16:18Z</time></trkpt><trkpt lat="39.384319195137216" lon="9.146070909526317"><ele>152.0</ele><time>2026-04-26T08:16:19Z</time></trkpt><trkpt lat="39.38428204795382" lon="9.146218536244943"><ele>153.0</ele><time>2026-04-26T08:16:20Z</time></trkpt><trkpt lat="39.38423639075279" lon="9.146370528718162"><ele>154.0</ele><time>2026-04-26T08:16:21Z</time></trkpt><trkpt lat="39.384184410134594" lon="9.146515078776977"><ele>154.5</ele><time>2026-04-26T08:16:22Z</time></trkpt><trkpt lat="39.38413591929521" lon="9.14666202413252"><ele>155.0</ele><time>2026-04-26T08:16:23Z</time></trkpt><trkpt lat="39.38407547750169" lon="9.146805632835042"><ele>155.5</ele><time>2026-04-26T08:16:24Z</time></trkpt><trkpt lat="39.38401329637504" lon="9.146941673082717"><ele>156.0</ele><time>2026-04-26T08:16:25Z</time></trkpt><trkpt lat="39.3839472617144" lon="9.147078825320428"><ele>156.0</ele><time>2026-04-26T08:16:26Z</time></trkpt><trkpt lat="39.38387384634118" lon="9.147207051241402"><ele>156.0</ele><time>2026-04-26T08:16:27Z</time></trkpt><trkpt lat="39.383800414229135" lon="9.147332412234807"><ele>156.0</ele><time>2026-04-26T08:16:28Z</time></trkpt><trkpt lat="39.38372100032718" lon="9.14745316580364"><ele>156.0</ele><time>2026-04-26T08:16:29Z</time></trkpt><trkpt lat="39.38364276348886" lon="9.147572922933179"><ele>156.25</ele><time>2026-04-26T08:16:30Z</time></trkpt><trkpt lat="39.383564196764894" lon="9.147697832617835"><ele>156.5</ele><time>2026-04-26T08:16:31Z</time></trkpt><trkpt lat="39.38348442629888" lon="9.147820297596832"><ele>156.75</ele><time>2026-04-26T08:16:32Z</time></trkpt><trkpt lat="39.38340639146551" lon="9.147945025678387"><ele>157.0</ele><time>2026-04-26T08:16:33Z</time></trkpt><trkpt lat="39.38332669188567" lon="9.14806337013173"><ele>157.0</ele><time>2026-04-26T08:16:34Z</time></trkpt><trkpt lat="39.38325160178895" lon="9.148186874316323"><ele>157.0</ele><time>2026-04-26T08:16:35Z</time></trkpt><trkpt lat="39.383176606131464" lon="9.1483052831148"><ele>157.0</ele><time>2026-04-26T08:16:36Z</time></trkpt><trkpt lat="39.38310207765274" lon="9.148424093871915"><ele>157.0</ele><time>2026-04-26T08:16:37Z</time></trkpt><trkpt lat="39.383026425607945" lon="9.148541936832542"><ele>156.25</ele><time>2026-04-26T08:16:38Z</time></trkpt><trkpt lat="39.38295168717742" lon="9.148664961573145"><ele>155.5</ele><time>2026-04-26T08:16:39Z</time></trkpt><trkpt lat="39.38287816851747" lon="9.14878626193565"><ele>154.75</ele><time>2026-04-26T08:16:40Z</time></trkpt><trkpt lat="39.38280235441426" lon="9.148907663495647"><ele>154.0</ele><time>2026-04-26T08:16:41Z</time></trkpt><trkpt lat="39.38272530914347" lon="9.149025376810368"><ele>154.6</ele><time>2026-04-26T08:16:42Z</time></trkpt><trkpt lat="39.38266154339754" lon="9.149123238857971"><ele>155.2</ele><time>2026-04-26T08:16:43Z</time></trkpt><trkpt lat="39.382600097202804" lon="9.149214065473911"><ele>155.79999999999998</ele><time>2026-04-26T08:16:44Z</time></trkpt><trkpt lat="39.38252949883769" lon="9.149322569471728"><ele>156.4</ele><time>2026-04-26T08:16:45Z</time></trkpt><trkpt lat="39.382455728234525" lon="9.14943691886158"><ele>157.0</ele><time>2026-04-26T08:16:46Z</time></trkpt><trkpt lat="39.3823760472557" lon="9.149560415820734"><ele>157.0</ele><time>2026-04-26T08:16:47Z</time></trkpt><trkpt lat="39.382302867573465" lon="9.14967563104259"><ele>157.0</ele><time>2026-04-26T08:16:48Z</time></trkpt><trkpt lat="39.3822329154671" lon="9.149786847790047"><ele>157.0</ele><time>2026-04-26T08:16:49Z</time></trkpt><trkpt lat="39.38216514560608" lon="9.149894409985071"><ele>157.0</ele><time>2026-04-26T08:16:50Z</time></trkpt><trkpt lat="39.38210198450165" lon="9.149995263382456"><ele>157.0</ele><time>2026-04-26T08:16:51Z</time></trkpt><trkpt lat="39.38203817254806" lon="9.150095763976042"><ele>156.75</ele><time>2026-04-26T08:16:52Z</time></trkpt><trkpt lat="39.38197128168155" lon="9.150199809132083"><ele>156.5</ele><time>2026-04-26T08:16:53Z</time></trkpt><trkpt lat="39.38190497260671" lon="9.150307335990572"><ele>156.25</ele><time>2026-04-26T08:16:54Z</time></trkpt><trkpt lat="39.38182876510753" lon="9.15043070966979"><ele>156.0</ele><time>2026-04-26T08:16:55Z</time></trkpt><trkpt lat="39.38174724244405" lon="9.15056315006697"><ele>156.0</ele><time>2026-04-26T08:16:56Z</time></trkpt><trkpt lat="39.38165879713887" lon="9.150700088937095"><ele>156.0</ele><time>2026-04-26T08:16:57Z</time></trkpt><trkpt lat="39.381584174575174" lon="9.150815974691325"><ele>156.0</ele><time>2026-04-26T08:16:58Z</time></trkpt><trkpt lat="39.38150905512253" lon="9.150931983807222"><ele>156.0</ele><time>2026-04-26T08:16:59Z</time></trkpt><trkpt lat="39.381435556477165" lon="9.151045708475452"><ele>156.25</ele><time>2026-04-26T08:17:00Z</time></trkpt><trkpt lat="39.38135706290008" lon="9.151164770027018"><ele>156.5</ele><time>2026-04-26T08:17:01Z</time></trkpt><trkpt lat="39.381280711678514" lon="9.15128337135699"><ele>156.75</ele><time>2026-04-26T08:17:02Z</time></trkpt><trkpt lat="39.381207481134034" lon="9.151396943052001"><ele>157.0</ele><time>2026-04-26T08:17:03Z</time></trkpt><trkpt lat="39.38114182174959" lon="9.151512042607616"><ele>157.5</ele><time>2026-04-26T08:17:04Z</time></trkpt><trkpt lat="39.381067076109595" lon="9.15163152445102"><ele>158.0</ele><time>2026-04-26T08:17:05Z</time></trkpt><trkpt lat="39.38098766315929" lon="9.151759414279269"><ele>158.5</ele><time>2026-04-26T08:17:06Z</time></trkpt><trkpt lat="39.380907183641995" lon="9.151887343214081"><ele>159.0</ele><time>2026-04-26T08:17:07Z</time></trkpt><trkpt lat="39.38082965778163" lon="9.151999254917854"><ele>159.0</ele><time>2026-04-26T08:17:08Z</time></trkpt><trkpt lat="39.380753912095095" lon="9.15211184658439"><ele>159.0</ele><time>2026-04-26T08:17:09Z</time></trkpt><trkpt lat="39.38067842603065" lon="9.15223446208097"><ele>159.0</ele><time>2026-04-26T08:17:10Z</time></trkpt><trkpt lat="39.3805958161649" lon="9.152359522676385"><ele>159.0</ele><time>2026-04-26T08:17:11Z</time></trkpt><trkpt lat="39.380510761070155" lon="9.152487782283064"><ele>159.75</ele><time>2026-04-26T08:17:12Z</time></trkpt><trkpt lat="39.38043691285321" lon="9.152611237143471"><ele>160.5</ele><time>2026-04-26T08:17:13Z</time></trkpt><trkpt lat="39.38036124453117" lon="9.15272640828133"><ele>161.25</ele><time>2026-04-26T08:17:14Z</time></trkpt><trkpt lat="39.38029212747586" lon="9.152841139531795"><ele>162.0</ele><time>2026-04-26T08:17:15Z</time></trkpt><trkpt lat="39.38022373736564" lon="9.152958992699226"><ele>162.0</ele><time>2026-04-26T08:17:16Z</time></trkpt><trkpt lat="39.38015093254818" lon="9.153077160690852"><ele>162.0</ele><time>2026-04-26T08:17:17Z</time></trkpt><trkpt lat="39.38007536721687" lon="9.15319362615348"><ele>162.0</ele><time>2026-04-26T08:17:18Z</time></trkpt><trkpt lat="39.37999757374988" lon="9.153317037990059"><ele>162.0</ele><time>2026-04-26T08:17:19Z</time></trkpt><trkpt lat="39.37991547379564" lon="9.153444732066308"><ele>162.2</ele><time>2026-04-26T08:17:20Z</time></trkpt><trkpt lat="39.37984166693916" lon="9.153564223389008"><ele>162.39999999999998</ele><time>2026-04-26T08:17:21Z</time></trkpt><trkpt lat="39.37978192923483" lon="9.15366715455514"><ele>162.60000000000002</ele><time>2026-04-26T08:17:22Z</time></trkpt><trkpt lat="39.37972607984836" lon="9.15375907087766"><ele>162.8</ele><time>2026-04-26T08:17:23Z</time></trkpt><trkpt lat="39.37967261930235" lon="9.153833645873295"><ele>163.0</ele><time>2026-04-26T08:17:24Z</time></trkpt><trkpt lat="39.37962142632921" lon="9.153896142437253"><ele>163.8</ele><time>2026-04-26T08:17:25Z</time></trkpt><trkpt lat="39.37950784309085" lon="9.153979766332437"><ele>164.60000000000002</ele><time>2026-04-26T08:17:27Z</time></trkpt><trkpt lat="39.379461873107864" lon="9.154063078319282"><ele>165.39999999999998</ele><time>2026-04-26T08:17:28Z</time></trkpt><trkpt lat="39.379451696367305" lon="9.154167678719926"><ele>166.2</ele><time>2026-04-26T08:17:29Z</time></trkpt><trkpt lat="39.37947770623273" lon="9.154268828524444"><ele>167.0</ele><time>2026-04-26T08:17:30Z</time></trkpt><trkpt lat="39.379542632993854" lon="9.15435600179138"><ele>167.0</ele><time>2026-04-26T08:17:31Z</time></trkpt><trkpt lat="39.379599104244384" lon="9.154456514426657"><ele>167.0</ele><time>2026-04-26T08:17:32Z</time></trkpt><trkpt lat="39.37964469554093" lon="9.154579693780388"><ele>167.0</ele><time>2026-04-26T08:17:33Z</time></trkpt><trkpt lat="39.37968056373095" lon="9.154706685266616"><ele>167.0</ele><time>2026-04-26T08:17:34Z</time></trkpt><trkpt lat="39.37972086376157" lon="9.154847147239659"><ele>167.0</ele><time>2026-04-26T08:17:35Z</time></trkpt><trkpt lat="39.37976728482864" lon="9.154988728582827"><ele>166.75</ele><time>2026-04-26T08:17:36Z</time></trkpt><trkpt lat="39.379812077317254" lon="9.155122834197467"><ele>166.5</ele><time>2026-04-26T08:17:37Z</time></trkpt><trkpt lat="39.379858352875615" lon="9.155268301023588"><ele>166.25</ele><time>2026-04-26T08:17:38Z</time></trkpt><trkpt lat="39.379908926677324" lon="9.155415148606208"><ele>166.0</ele><time>2026-04-26T08:17:39Z</time></trkpt><trkpt lat="39.379950723870834" lon="9.155544313022723"><ele>166.0</ele><time>2026-04-26T08:17:40Z</time></trkpt><trkpt lat="39.379989601787095" lon="9.155668100990795"><ele>166.0</ele><time>2026-04-26T08:17:41Z</time></trkpt><trkpt lat="39.380030849401734" lon="9.155791071770325"><ele>166.0</ele><time>2026-04-26T08:17:42Z</time></trkpt><trkpt lat="39.38007446160354" lon="9.155917159412976"><ele>166.0</ele><time>2026-04-26T08:17:43Z</time></trkpt><trkpt lat="39.38011334115756" lon="9.156042907893584"><ele>166.0</ele><time>2026-04-26T08:17:44Z</time></trkpt><trkpt lat="39.38013131996357" lon="9.156176110458704"><ele>166.5</ele><time>2026-04-26T08:17:45Z</time></trkpt><trkpt lat="39.38012241280558" lon="9.156317303008352"><ele>167.0</ele><time>2026-04-26T08:17:46Z</time></trkpt><trkpt lat="39.380080289780004" lon="9.156458791293876"><ele>167.5</ele><time>2026-04-26T08:17:47Z</time></trkpt><trkpt lat="39.38003847668298" lon="9.156604550893396"><ele>168.0</ele><time>2026-04-26T08:17:48Z</time></trkpt><trkpt lat="39.38000358122783" lon="9.156754861193738"><ele>169.0</ele><time>2026-04-26T08:17:49Z</time></trkpt><trkpt lat="39.379976018290215" lon="9.156903140679866"><ele>170.0</ele><time>2026-04-26T08:17:50Z</time></trkpt><trkpt lat="39.3799449356579" lon="9.157047251180789"><ele>171.0</ele><time>2026-04-26T08:17:51Z</time></trkpt><trkpt lat="39.379915608947734" lon="9.157192663119464"><ele>172.0</ele><time>2026-04-26T08:17:52Z</time></trkpt><trkpt lat="39.37988515394256" lon="9.157338815514173"><ele>173.5</ele><time>2026-04-26T08:17:53Z</time></trkpt><trkpt lat="39.37985651376569" lon="9.157487021596593"><ele>175.0</ele><time>2026-04-26T08:17:54Z</time></trkpt><trkpt lat="39.37982564290311" lon="9.157637056132318"><ele>176.5</ele><time>2026-04-26T08:17:55Z</time></trkpt><trkpt lat="39.379799104881904" lon="9.157789812488348"><ele>178.0</ele><time>2026-04-26T08:17:56Z</time></trkpt><trkpt lat="39.3797628552529" lon="9.157941242858064"><ele>178.0</ele><time>2026-04-26T08:17:57Z</time></trkpt><trkpt lat="39.37973115770366" lon="9.15809502647687"><ele>178.0</ele><time>2026-04-26T08:17:58Z</time></trkpt><trkpt lat="39.379697895672166" lon="9.158250942903786"><ele>178.0</ele><time>2026-04-26T08:17:59Z</time></trkpt><trkpt lat="39.37966952582384" lon="9.158400826660165"><ele>178.0</ele><time>2026-04-26T08:18:00Z</time></trkpt><trkpt lat="39.379643168541136" lon="9.15854890182744"><ele>178.75</ele><time>2026-04-26T08:18:01Z</time></trkpt><trkpt lat="39.379614031207026" lon="9.158694267476422"><ele>179.5</ele><time>2026-04-26T08:18:02Z</time></trkpt><trkpt lat="39.37958314468632" lon="9.158844347241208"><ele>180.25</ele><time>2026-04-26T08:18:03Z</time></trkpt><trkpt lat="39.37955417309049" lon="9.15900456988967"><ele>181.0</ele><time>2026-04-26T08:18:04Z</time></trkpt><trkpt lat="39.37952356432539" lon="9.159164764632989"><ele>182.25</ele><time>2026-04-26T08:18:05Z</time></trkpt><trkpt lat="39.37949726873528" lon="9.159304950678193"><ele>183.5</ele><time>2026-04-26T08:18:06Z</time></trkpt><trkpt lat="39.379470745119505" lon="9.159439598453542"><ele>184.75</ele><time>2026-04-26T08:18:07Z</time></trkpt><trkpt lat="39.37944270645298" lon="9.159583900804119"><ele>186.0</ele><time>2026-04-26T08:18:08Z</time></trkpt><trkpt lat="39.37942005747243" lon="9.159739884868198"><ele>186.75</ele><time>2026-04-26T08:18:09Z</time></trkpt><trkpt lat="39.37939202166526" lon="9.159900508881103"><ele>187.5</ele><time>2026-04-26T08:18:10Z</time></trkpt><trkpt lat="39.37936077246391" lon="9.16006597980051"><ele>188.25</ele><time>2026-04-26T08:18:11Z</time></trkpt><trkpt lat="39.37933149738732" lon="9.160229646629542"><ele>189.0</ele><time>2026-04-26T08:18:12Z</time></trkpt><trkpt lat="39.37930782608047" lon="9.160373348943967"><ele>189.0</ele><time>2026-04-26T08:18:13Z</time></trkpt><trkpt lat="39.37928187820172" lon="9.160517442889123"><ele>189.0</ele><time>2026-04-26T08:18:14Z</time></trkpt><trkpt lat="39.37926137783983" lon="9.160662865222873"><ele>189.0</ele><time>2026-04-26T08:18:15Z</time></trkpt><trkpt lat="39.37923665621444" lon="9.160809237936004"><ele>189.0</ele><time>2026-04-26T08:18:16Z</time></trkpt><trkpt lat="39.37921185450207" lon="9.160953630677332"><ele>188.5</ele><time>2026-04-26T08:18:17Z</time></trkpt><trkpt lat="39.379186991994764" lon="9.16109885573482"><ele>188.0</ele><time>2026-04-26T08:18:18Z</time></trkpt><trkpt lat="39.379164297411364" lon="9.161242974865262"><ele>187.5</ele><time>2026-04-26T08:18:19Z</time></trkpt><trkpt lat="39.37914135488006" lon="9.161385992147864"><ele>187.0</ele><time>2026-04-26T08:18:20Z</time></trkpt><trkpt lat="39.37911748682531" lon="9.16152905080181"><ele>187.0</ele><time>2026-04-26T08:18:21Z</time></trkpt><trkpt lat="39.379092169624705" lon="9.161679322814031"><ele>187.0</ele><time>2026-04-26T08:18:22Z</time></trkpt><trkpt lat="39.37906198809353" lon="9.161837928422498"><ele>187.0</ele><time>2026-04-26T08:18:23Z</time></trkpt><trkpt lat="39.37903776725881" lon="9.161993961121443"><ele>187.0</ele><time>2026-04-26T08:18:24Z</time></trkpt><trkpt lat="39.37900985031906" lon="9.16214118944497"><ele>187.0</ele><time>2026-04-26T08:18:25Z</time></trkpt><trkpt lat="39.378981864055305" lon="9.162284262491996"><ele>187.0</ele><time>2026-04-26T08:18:26Z</time></trkpt><trkpt lat="39.378943822065175" lon="9.162426614235661"><ele>187.0</ele><time>2026-04-26T08:18:27Z</time></trkpt><trkpt lat="39.378912235171065" lon="9.162571061515882"><ele>187.0</ele><time>2026-04-26T08:18:28Z</time></trkpt><trkpt lat="39.37887035387426" lon="9.162709380934594"><ele>187.25</ele><time>2026-04-26T08:18:29Z</time></trkpt><trkpt lat="39.378827852248186" lon="9.162847979110564"><ele>187.5</ele><time>2026-04-26T08:18:30Z</time></trkpt><trkpt lat="39.37878592436546" lon="9.162994106504671"><ele>187.75</ele><time>2026-04-26T08:18:31Z</time></trkpt><trkpt lat="39.3787394507109" lon="9.163149586728746"><ele>188.0</ele><time>2026-04-26T08:18:32Z</time></trkpt><trkpt lat="39.37869713655517" lon="9.163294543621653"><ele>188.25</ele><time>2026-04-26T08:18:33Z</time></trkpt><trkpt lat="39.37864869289115" lon="9.163442889440388"><ele>188.5</ele><time>2026-04-26T08:18:34Z</time></trkpt><trkpt lat="39.3785950884202" lon="9.163592975375224"><ele>188.75</ele><time>2026-04-26T08:18:35Z</time></trkpt><trkpt lat="39.378541133533844" lon="9.16374340392209"><ele>189.0</ele><time>2026-04-26T08:18:36Z</time></trkpt><trkpt lat="39.378477291696626" lon="9.1638889197099"><ele>189.0</ele><time>2026-04-26T08:18:37Z</time></trkpt><trkpt lat="39.37840795938451" lon="9.164023099675237"><ele>189.0</ele><time>2026-04-26T08:18:38Z</time></trkpt><trkpt lat="39.37832665663463" lon="9.164155507552273"><ele>189.0</ele><time>2026-04-26T08:18:39Z</time></trkpt><trkpt lat="39.37824275829927" lon="9.164280231370617"><ele>189.0</ele><time>2026-04-26T08:18:40Z</time></trkpt><trkpt lat="39.378163101250315" lon="9.164390688044897"><ele>189.0</ele><time>2026-04-26T08:18:41Z</time></trkpt><trkpt lat="39.37808936216113" lon="9.164517336212484"><ele>189.0</ele><time>2026-04-26T08:18:42Z</time></trkpt><trkpt lat="39.37799985162155" lon="9.16464213369697"><ele>189.0</ele><time>2026-04-26T08:18:43Z</time></trkpt><trkpt lat="39.37791001775203" lon="9.164763631970255"><ele>189.0</ele><time>2026-04-26T08:18:44Z</time></trkpt><trkpt lat="39.377815737916514" lon="9.164880768784753"><ele>189.0</ele><time>2026-04-26T08:18:45Z</time></trkpt><trkpt lat="39.377712247778945" lon="9.164982236979553"><ele>189.0</ele><time>2026-04-26T08:18:46Z</time></trkpt><trkpt lat="39.377610445978746" lon="9.16508229157734"><ele>189.0</ele><time>2026-04-26T08:18:47Z</time></trkpt><trkpt lat="39.3775009745597" lon="9.165176903783335"><ele>189.0</ele><time>2026-04-26T08:18:48Z</time></trkpt><trkpt lat="39.37739677963796" lon="9.165274587618844"><ele>189.0</ele><time>2026-04-26T08:18:49Z</time></trkpt><trkpt lat="39.37729066328219" lon="9.165370319662596"><ele>189.0</ele><time>2026-04-26T08:18:50Z</time></trkpt><trkpt lat="39.37718353196943" lon="9.16546044371417"><ele>189.0</ele><time>2026-04-26T08:18:51Z</time></trkpt><trkpt lat="39.37709231389277" lon="9.165549142795909"><ele>189.0</ele><time>2026-04-26T08:18:52Z</time></trkpt><trkpt lat="39.376993939344835" lon="9.165621756542516"><ele>189.0</ele><time>2026-04-26T08:18:53Z</time></trkpt><trkpt lat="39.376889829710755" lon="9.165706950984607"><ele>189.0</ele><time>2026-04-26T08:18:54Z</time></trkpt><trkpt lat="39.3767800802945" lon="9.165781595288522"><ele>189.0</ele><time>2026-04-26T08:18:55Z</time></trkpt><trkpt lat="39.37666752373636" lon="9.165861968814717"><ele>189.0</ele><time>2026-04-26T08:18:56Z</time></trkpt><trkpt lat="39.376565268737046" lon="9.165935900113245"><ele>189.0</ele><time>2026-04-26T08:18:57Z</time></trkpt><trkpt lat="39.37647703467324" lon="9.166003286407266"><ele>189.0</ele><time>2026-04-26T08:18:58Z</time></trkpt><trkpt lat="39.376394401419496" lon="9.166063881101273"><ele>189.0</ele><time>2026-04-26T08:18:59Z</time></trkpt><trkpt lat="39.376315803687326" lon="9.166125573537585"><ele>189.0</ele><time>2026-04-26T08:19:00Z</time></trkpt><trkpt lat="39.37623785636142" lon="9.166178587636296"><ele>189.0</ele><time>2026-04-26T08:19:01Z</time></trkpt><trkpt lat="39.376173961990425" lon="9.166211894209741"><ele>189.0</ele><time>2026-04-26T08:19:02Z</time></trkpt><trkpt lat="39.37607160673874" lon="9.166234279963197"><ele>189.0</ele><time>2026-04-26T08:19:04Z</time></trkpt><trkpt lat="39.37599983872161" lon="9.16625274603201"><ele>189.0</ele><time>2026-04-26T08:19:18Z</time></trkpt><trkpt lat="39.37595520066824" lon="9.166413249298387"><ele>189.0</ele><time>2026-04-26T08:19:21Z</time></trkpt><trkpt lat="39.37595923965827" lon="9.166505183387727"><ele>189.0</ele><time>2026-04-26T08:19:22Z</time></trkpt><trkpt lat="39.375947142355365" lon="9.166609867404802"><ele>189.0</ele><time>2026-04-26T08:19:23Z</time></trkpt><trkpt lat="39.37593601872834" lon="9.166721624704895"><ele>189.0</ele><time>2026-04-26T08:19:24Z</time></trkpt><trkpt lat="39.375939711848545" lon="9.166828905415192"><ele>189.0</ele><time>2026-04-26T08:19:25Z</time></trkpt><trkpt lat="39.375935234404146" lon="9.166969323062416"><ele>189.0</ele><time>2026-04-26T08:19:26Z</time></trkpt><trkpt lat="39.375931616700505" lon="9.167115992130661"><ele>189.0</ele><time>2026-04-26T08:19:27Z</time></trkpt><trkpt lat="39.37592412030252" lon="9.167262012088726"><ele>189.0</ele><time>2026-04-26T08:19:28Z</time></trkpt><trkpt lat="39.37592031620212" lon="9.167417962157627"><ele>189.2</ele><time>2026-04-26T08:19:29Z</time></trkpt><trkpt lat="39.37591329206311" lon="9.167574771319524"><ele>189.39999999999998</ele><time>2026-04-26T08:19:30Z</time></trkpt><trkpt lat="39.37590645091567" lon="9.167715643651299"><ele>189.6</ele><time>2026-04-26T08:19:31Z</time></trkpt><trkpt lat="39.375902558572925" lon="9.167842568920355"><ele>189.8</ele><time>2026-04-26T08:19:32Z</time></trkpt><trkpt lat="39.37589683635427" lon="9.167968473636899"><ele>190.0</ele><time>2026-04-26T08:19:33Z</time></trkpt><trkpt lat="39.37589056145088" lon="9.168102771629954"><ele>191.0</ele><time>2026-04-26T08:19:34Z</time></trkpt><trkpt lat="39.37588460865831" lon="9.168252898518205"><ele>192.0</ele><time>2026-04-26T08:19:35Z</time></trkpt><trkpt lat="39.37587757841122" lon="9.168406758806348"><ele>193.0</ele><time>2026-04-26T08:19:36Z</time></trkpt><trkpt lat="39.375868615291246" lon="9.168564945698307"><ele>194.0</ele><time>2026-04-26T08:19:37Z</time></trkpt><trkpt lat="39.375859450801244" lon="9.168723816207882"><ele>194.0</ele><time>2026-04-26T08:19:38Z</time></trkpt><trkpt lat="39.37585277357197" lon="9.16887992140021"><ele>194.0</ele><time>2026-04-26T08:19:39Z</time></trkpt><trkpt lat="39.375846054406324" lon="9.169021617705667"><ele>194.0</ele><time>2026-04-26T08:19:40Z</time></trkpt><trkpt lat="39.375839655451514" lon="9.1691408155002"><ele>194.0</ele><time>2026-04-26T08:19:41Z</time></trkpt><trkpt lat="39.375836240114424" lon="9.169277075553948"><ele>194.0</ele><time>2026-04-26T08:19:42Z</time></trkpt><trkpt lat="39.37582957334292" lon="9.169374655748506"><ele>194.0</ele><time>2026-04-26T08:19:43Z</time></trkpt><trkpt lat="39.37582198066249" lon="9.169494163344813"><ele>194.0</ele><time>2026-04-26T08:19:45Z</time></trkpt><trkpt lat="39.375762187590354" lon="9.169619813369914"><ele>194.0</ele><time>2026-04-26T08:19:47Z</time></trkpt><trkpt lat="39.37564330801456" lon="9.169647488769051"><ele>194.0</ele><time>2026-04-26T08:19:48Z</time></trkpt><trkpt lat="39.375548708327244" lon="9.169713510181639"><ele>194.0</ele><time>2026-04-26T08:19:49Z</time></trkpt><trkpt lat="39.37544850043341" lon="9.169773532692634"><ele>194.0</ele><time>2026-04-26T08:19:50Z</time></trkpt><trkpt lat="39.37534184091425" lon="9.169841668667372"><ele>194.0</ele><time>2026-04-26T08:19:51Z</time></trkpt><trkpt lat="39.37523212860939" lon="9.169917502489511"><ele>194.0</ele><time>2026-04-26T08:19:52Z</time></trkpt><trkpt lat="39.375122975745434" lon="9.1699924188445"><ele>194.0</ele><time>2026-04-26T08:19:53Z</time></trkpt><trkpt lat="39.37501236944122" lon="9.170066632022536"><ele>194.0</ele><time>2026-04-26T08:19:54Z</time></trkpt><trkpt lat="39.37491094042995" lon="9.17012795403281"><ele>194.0</ele><time>2026-04-26T08:19:55Z</time></trkpt><trkpt lat="39.37481492069259" lon="9.170188967101172"><ele>194.0</ele><time>2026-04-26T08:19:56Z</time></trkpt><trkpt lat="39.37471213271474" lon="9.170259278117017"><ele>194.0</ele><time>2026-04-26T08:19:57Z</time></trkpt><trkpt lat="39.374602260819024" lon="9.170325451983054"><ele>194.0</ele><time>2026-04-26T08:19:58Z</time></trkpt><trkpt lat="39.37449803195339" lon="9.170384347729641"><ele>194.0</ele><time>2026-04-26T08:19:59Z</time></trkpt><trkpt lat="39.37439647873688" lon="9.170439081746453"><ele>194.0</ele><time>2026-04-26T08:20:00Z</time></trkpt><trkpt lat="39.374285732065104" lon="9.170493549751095"><ele>194.0</ele><time>2026-04-26T08:20:01Z</time></trkpt><trkpt lat="39.37416727447912" lon="9.170541591202495"><ele>194.0</ele><time>2026-04-26T08:20:02Z</time></trkpt><trkpt lat="39.37405427858812" lon="9.170592047745155"><ele>194.0</ele><time>2026-04-26T08:20:03Z</time></trkpt><trkpt lat="39.3739452122647" lon="9.170647151542587"><ele>194.0</ele><time>2026-04-26T08:20:04Z</time></trkpt><trkpt lat="39.373843504898836" lon="9.170693915242106"><ele>194.0</ele><time>2026-04-26T08:20:05Z</time></trkpt><trkpt lat="39.37374918425172" lon="9.170725901598315"><ele>194.0</ele><time>2026-04-26T08:20:06Z</time></trkpt><trkpt lat="39.373664121337214" lon="9.170756399083425"><ele>194.0</ele><time>2026-04-26T08:20:07Z</time></trkpt><trkpt lat="39.37358803179692" lon="9.170787349918966"><ele>194.0</ele><time>2026-04-26T08:20:08Z</time></trkpt><trkpt lat="39.3734901469457" lon="9.170830328465593"><ele>194.0</ele><time>2026-04-26T08:20:10Z</time></trkpt><trkpt lat="39.37341623265993" lon="9.170865420981634"><ele>194.0</ele><time>2026-04-26T08:21:42Z</time></trkpt><trkpt lat="39.37329938196816" lon="9.170931723877178"><ele>194.0</ele><time>2026-04-26T08:21:44Z</time></trkpt><trkpt lat="39.37321578101507" lon="9.170958263769867"><ele>194.0</ele><time>2026-04-26T08:21:45Z</time></trkpt><trkpt lat="39.37312570995404" lon="9.171010932879119"><ele>194.0</ele><time>2026-04-26T08:21:46Z</time></trkpt><trkpt lat="39.37303091749212" lon="9.171059599334516"><ele>194.0</ele><time>2026-04-26T08:21:47Z</time></trkpt><trkpt lat="39.372920000485" lon="9.171107002582204"><ele>194.0</ele><time>2026-04-26T08:21:48Z</time></trkpt><trkpt lat="39.37279860939703" lon="9.1711569994771"><ele>194.0</ele><time>2026-04-26T08:21:49Z</time></trkpt><trkpt lat="39.3726752777097" lon="9.171211003777465"><ele>193.75</ele><time>2026-04-26T08:21:50Z</time></trkpt><trkpt lat="39.372554210559656" lon="9.171266496758326"><ele>193.5</ele><time>2026-04-26T08:21:51Z</time></trkpt><trkpt lat="39.37243707814059" lon="9.171319065330902"><ele>193.25</ele><time>2026-04-26T08:21:52Z</time></trkpt><trkpt lat="39.37232057942496" lon="9.171367753729728"><ele>193.0</ele><time>2026-04-26T08:21:53Z</time></trkpt><trkpt lat="39.372207249447854" lon="9.171420890949577"><ele>192.75</ele><time>2026-04-26T08:21:54Z</time></trkpt><trkpt lat="39.372090546084074" lon="9.171468296335943"><ele>192.5</ele><time>2026-04-26T08:21:55Z</time></trkpt><trkpt lat="39.37197608215073" lon="9.171523807558073"><ele>192.25</ele><time>2026-04-26T08:21:56Z</time></trkpt><trkpt lat="39.37185515826942" lon="9.171572396686464"><ele>192.0</ele><time>2026-04-26T08:21:57Z</time></trkpt><trkpt lat="39.3717393106533" lon="9.171629887910285"><ele>192.75</ele><time>2026-04-26T08:21:58Z</time></trkpt><trkpt lat="39.37161996805872" lon="9.171684178225924"><ele>193.5</ele><time>2026-04-26T08:21:59Z</time></trkpt><trkpt lat="39.371505128864634" lon="9.171738931099998"><ele>194.25</ele><time>2026-04-26T08:22:00Z</time></trkpt><trkpt lat="39.371395519412495" lon="9.171790426023188"><ele>195.0</ele><time>2026-04-26T08:22:01Z</time></trkpt><trkpt lat="39.3712839119426" lon="9.17183859560454"><ele>195.2</ele><time>2026-04-26T08:22:02Z</time></trkpt><trkpt lat="39.37117808852279" lon="9.171894294887274"><ele>195.4</ele><time>2026-04-26T08:22:03Z</time></trkpt><trkpt lat="39.371074112366045" lon="9.171945799738824"><ele>195.60000000000002</ele><time>2026-04-26T08:22:04Z</time></trkpt><trkpt lat="39.37097093757527" lon="9.17199812365791"><ele>195.8</ele><time>2026-04-26T08:22:05Z</time></trkpt><trkpt lat="39.37086473517824" lon="9.172040674721293"><ele>196.0</ele><time>2026-04-26T08:22:06Z</time></trkpt><trkpt lat="39.370758085197934" lon="9.17208409501874"><ele>196.0</ele><time>2026-04-26T08:22:07Z</time></trkpt><trkpt lat="39.37065422874547" lon="9.172124183669041"><ele>196.0</ele><time>2026-04-26T08:22:08Z</time></trkpt><trkpt lat="39.370558171210945" lon="9.17217354130234"><ele>196.0</ele><time>2026-04-26T08:22:09Z</time></trkpt><trkpt lat="39.370463325760504" lon="9.172209837683129"><ele>196.0</ele><time>2026-04-26T08:22:10Z</time></trkpt><trkpt lat="39.370364806341264" lon="9.172249437187617"><ele>196.0</ele><time>2026-04-26T08:22:11Z</time></trkpt><trkpt lat="39.37026475987871" lon="9.17228906483884"><ele>195.99999999999997</ele><time>2026-04-26T08:22:12Z</time></trkpt><trkpt lat="39.37017354477006" lon="9.172327283000252"><ele>196.0</ele><time>2026-04-26T08:22:13Z</time></trkpt><trkpt lat="39.3700848155774" lon="9.172347041809177"><ele>196.0</ele><time>2026-04-26T08:22:14Z</time></trkpt><trkpt lat="39.37000412873523" lon="9.172378484920273"><ele>196.0</ele><time>2026-04-26T08:22:15Z</time></trkpt><trkpt lat="39.36992416615408" lon="9.17240984121978"><ele>195.99999999999997</ele><time>2026-04-26T08:22:16Z</time></trkpt><trkpt lat="39.36985371144121" lon="9.172458760181051"><ele>196.0</ele><time>2026-04-26T08:22:17Z</time></trkpt><trkpt lat="39.36977141758682" lon="9.172485320315253"><ele>195.99999999999997</ele><time>2026-04-26T08:22:18Z</time></trkpt><trkpt lat="39.369692786551866" lon="9.172518104392807"><ele>196.0</ele><time>2026-04-26T08:22:19Z</time></trkpt><trkpt lat="39.36962922105351" lon="9.172564919409872"><ele>196.0</ele><time>2026-04-26T08:22:20Z</time></trkpt><trkpt lat="39.369592373998884" lon="9.172631781382343"><ele>196.0</ele><time>2026-04-26T08:22:21Z</time></trkpt><trkpt lat="39.36955852070093" lon="9.172703397323348"><ele>195.99999999999997</ele><time>2026-04-26T08:22:22Z</time></trkpt><trkpt lat="39.36953408922558" lon="9.172783282679635"><ele>196.0</ele><time>2026-04-26T08:22:23Z</time></trkpt><trkpt lat="39.36948059203903" lon="9.172918875984749"><ele>196.33333333333331</ele><time>2026-04-26T08:22:25Z</time></trkpt><trkpt lat="39.36943548886598" lon="9.173015431632269"><ele>196.66666666666666</ele><time>2026-04-26T08:22:27Z</time></trkpt><trkpt lat="39.3693981131379" lon="9.173100248060214"><ele>197.0</ele><time>2026-04-26T08:22:33Z</time></trkpt><trkpt lat="39.369502306838456" lon="9.173205815655486"><ele>197.33333333333331</ele><time>2026-04-26T08:22:36Z</time></trkpt><trkpt lat="39.36957853581549" lon="9.173231615066669"><ele>197.66666666666666</ele><time>2026-04-26T08:22:37Z</time></trkpt><trkpt lat="39.36964278877524" lon="9.173266180561306"><ele>198.0</ele><time>2026-04-26T08:22:38Z</time></trkpt><trkpt lat="39.36970452702152" lon="9.17330509291011"><ele>198.16666666666666</ele><time>2026-04-26T08:22:39Z</time></trkpt><trkpt lat="39.36977264323249" lon="9.173343440050528"><ele>198.33333333333331</ele><time>2026-04-26T08:22:40Z</time></trkpt><trkpt lat="39.3698461860055" lon="9.173383822342739"><ele>198.5</ele><time>2026-04-26T08:22:41Z</time></trkpt><trkpt lat="39.3699239880771" lon="9.173422412512096"><ele>198.66666666666666</ele><time>2026-04-26T08:22:42Z</time></trkpt><trkpt lat="39.37000054310705" lon="9.173467333143957"><ele>198.83333333333331</ele><time>2026-04-26T08:22:43Z</time></trkpt><trkpt lat="39.37007246154098" lon="9.173509336489074"><ele>199.0</ele><time>2026-04-26T08:22:44Z</time></trkpt><trkpt lat="39.37013937291375" lon="9.173548961543457"><ele>198.99999999999997</ele><time>2026-04-26T08:22:45Z</time></trkpt><trkpt lat="39.37020561268115" lon="9.17358750781915"><ele>199.0</ele><time>2026-04-26T08:22:46Z</time></trkpt><trkpt lat="39.37027271060991" lon="9.173622439901592"><ele>199.0</ele><time>2026-04-26T08:22:47Z</time></trkpt><trkpt lat="39.37034291817935" lon="9.17366091428079"><ele>199.0</ele><time>2026-04-26T08:22:48Z</time></trkpt><trkpt lat="39.370416253869564" lon="9.173703328521903"><ele>198.99999999999997</ele><time>2026-04-26T08:22:49Z</time></trkpt><trkpt lat="39.37049395517929" lon="9.17375187048016"><ele>199.0</ele><time>2026-04-26T08:22:50Z</time></trkpt><trkpt lat="39.37058195345372" lon="9.173795717028476"><ele>199.39999999999998</ele><time>2026-04-26T08:22:51Z</time></trkpt><trkpt lat="39.370673446023" lon="9.173851171110268"><ele>199.8</ele><time>2026-04-26T08:22:52Z</time></trkpt><trkpt lat="39.37076860296725" lon="9.173900917138656"><ele>200.2</ele><time>2026-04-26T08:22:53Z</time></trkpt><trkpt lat="39.37086130387436" lon="9.17395753230716"><ele>200.60000000000002</ele><time>2026-04-26T08:22:54Z</time></trkpt><trkpt lat="39.370967718405986" lon="9.174015978585532"><ele>201.0</ele><time>2026-04-26T08:22:55Z</time></trkpt><trkpt lat="39.371083154915986" lon="9.174080475398377"><ele>201.5</ele><time>2026-04-26T08:22:56Z</time></trkpt><trkpt lat="39.371201045886174" lon="9.174138417262109"><ele>202.0</ele><time>2026-04-26T08:22:57Z</time></trkpt><trkpt lat="39.37131472546662" lon="9.174208196454975"><ele>202.5</ele><time>2026-04-26T08:22:58Z</time></trkpt><trkpt lat="39.371425838106816" lon="9.174270565405882"><ele>203.0</ele><time>2026-04-26T08:22:59Z</time></trkpt><trkpt lat="39.37153441137039" lon="9.174333522747883"><ele>203.25</ele><time>2026-04-26T08:23:00Z</time></trkpt><trkpt lat="39.37164686985512" lon="9.174399874109533"><ele>203.5</ele><time>2026-04-26T08:23:01Z</time></trkpt><trkpt lat="39.37176059059537" lon="9.174467978624621"><ele>203.75</ele><time>2026-04-26T08:23:02Z</time></trkpt><trkpt lat="39.37187860024675" lon="9.174538420912638"><ele>204.0</ele><time>2026-04-26T08:23:03Z</time></trkpt><trkpt lat="39.37199058074641" lon="9.174601250639865"><ele>204.0</ele><time>2026-04-26T08:23:04Z</time></trkpt><trkpt lat="39.3721011596921" lon="9.174658446658219"><ele>204.0</ele><time>2026-04-26T08:23:05Z</time></trkpt><trkpt lat="39.37221141765568" lon="9.174711746665222"><ele>204.0</ele><time>2026-04-26T08:23:06Z</time></trkpt><trkpt lat="39.37231510230222" lon="9.174770608904165"><ele>204.0</ele><time>2026-04-26T08:23:07Z</time></trkpt><trkpt lat="39.37242126449746" lon="9.17483287759569"><ele>205.25</ele><time>2026-04-26T08:23:08Z</time></trkpt><trkpt lat="39.37252774386486" lon="9.174896785121602"><ele>206.5</ele><time>2026-04-26T08:23:09Z</time></trkpt><trkpt lat="39.37263927484845" lon="9.174949144639504"><ele>207.75</ele><time>2026-04-26T08:23:10Z</time></trkpt><trkpt lat="39.37275059191185" lon="9.175014575807237"><ele>209.0</ele><time>2026-04-26T08:23:11Z</time></trkpt><trkpt lat="39.37286850274646" lon="9.175085996006302"><ele>209.0</ele><time>2026-04-26T08:23:12Z</time></trkpt><trkpt lat="39.372981258759886" lon="9.175152711759624"><ele>209.0</ele><time>2026-04-26T08:23:13Z</time></trkpt><trkpt lat="39.37308870268562" lon="9.175223058198496"><ele>209.0</ele><time>2026-04-26T08:23:14Z</time></trkpt><trkpt lat="39.37318939631889" lon="9.175278407529273"><ele>209.0</ele><time>2026-04-26T08:23:15Z</time></trkpt><trkpt lat="39.37328938876269" lon="9.175335084699215"><ele>209.6</ele><time>2026-04-26T08:23:16Z</time></trkpt><trkpt lat="39.373387511167024" lon="9.175381833403598"><ele>210.2</ele><time>2026-04-26T08:23:17Z</time></trkpt><trkpt lat="39.373478022573785" lon="9.17544393441291"><ele>210.79999999999998</ele><time>2026-04-26T08:23:18Z</time></trkpt><trkpt lat="39.37355358126987" lon="9.175494032689329"><ele>211.39999999999998</ele><time>2026-04-26T08:23:19Z</time></trkpt><trkpt lat="39.37362966273373" lon="9.17555288021744"><ele>212.0</ele><time>2026-04-26T08:23:20Z</time></trkpt><trkpt lat="39.37370967172565" lon="9.175624517634192"><ele>212.39999999999998</ele><time>2026-04-26T08:23:21Z</time></trkpt><trkpt lat="39.37378885967135" lon="9.17570857473575"><ele>212.79999999999998</ele><time>2026-04-26T08:23:22Z</time></trkpt><trkpt lat="39.373845510485474" lon="9.175821899157345"><ele>213.2</ele><time>2026-04-26T08:23:23Z</time></trkpt><trkpt lat="39.37390656906915" lon="9.175925348722547"><ele>213.6</ele><time>2026-04-26T08:23:24Z</time></trkpt><trkpt lat="39.373975634619406" lon="9.176009233539833"><ele>214.0</ele><time>2026-04-26T08:23:25Z</time></trkpt><trkpt lat="39.37403835521704" lon="9.176092538575103"><ele>215.0</ele><time>2026-04-26T08:23:26Z</time></trkpt><trkpt lat="39.37411238928262" lon="9.176160682909622"><ele>215.99999999999997</ele><time>2026-04-26T08:23:27Z</time></trkpt><trkpt lat="39.37420557907612" lon="9.176195427808366"><ele>216.99999999999997</ele><time>2026-04-26T08:23:28Z</time></trkpt><trkpt lat="39.374303263145926" lon="9.17621278246841"><ele>218.0</ele><time>2026-04-26T08:23:29Z</time></trkpt><trkpt lat="39.37439966867207" lon="9.176219016578411"><ele>219.0</ele><time>2026-04-26T08:23:30Z</time></trkpt><trkpt lat="39.37448816940983" lon="9.176158569721343"><ele>219.0</ele><time>2026-04-26T08:23:31Z</time></trkpt><trkpt lat="39.3745670898516" lon="9.176116086588289"><ele>219.0</ele><time>2026-04-26T08:23:32Z</time></trkpt><trkpt lat="39.37465838784923" lon="9.176069061419664"><ele>219.0</ele><time>2026-04-26T08:23:33Z</time></trkpt><trkpt lat="39.37475445663572" lon="9.176053150045629"><ele>219.0</ele><time>2026-04-26T08:23:34Z</time></trkpt><trkpt lat="39.37482236782572" lon="9.176029812753807"><ele>219.0</ele><time>2026-04-26T08:23:35Z</time></trkpt><trkpt lat="39.374886433747044" lon="9.176007328958889"><ele>219.0</ele><time>2026-04-26T08:23:36Z</time></trkpt><trkpt lat="39.374973356777794" lon="9.17598310863468"><ele>219.5</ele><time>2026-04-26T08:23:38Z</time></trkpt><trkpt lat="39.37503680972386" lon="9.175973160655856"><ele>220.0</ele><time>2026-04-26T08:23:41Z</time></trkpt><trkpt lat="39.37514096524291" lon="9.175972239199556"><ele>220.5</ele><time>2026-04-26T08:23:45Z</time></trkpt><trkpt lat="39.37525497304579" lon="9.175923528436906"><ele>221.0</ele><time>2026-04-26T08:23:47Z</time></trkpt><trkpt lat="39.3753247406349" lon="9.17588921472027"><ele>221.5</ele><time>2026-04-26T08:23:48Z</time></trkpt><trkpt lat="39.375391436532276" lon="9.175857049198902"><ele>222.0</ele><time>2026-04-26T08:23:49Z</time></trkpt><trkpt lat="39.37546023183895" lon="9.175829579693414"><ele>222.0</ele><time>2026-04-26T08:23:50Z</time></trkpt><trkpt lat="39.37552447905719" lon="9.175809850042357"><ele>222.0</ele><time>2026-04-26T08:23:51Z</time></trkpt><trkpt lat="39.375590594316975" lon="9.175791197245449"><ele>222.0</ele><time>2026-04-26T08:23:52Z</time></trkpt><trkpt lat="39.37565724512099" lon="9.175786114003603"><ele>222.0</ele><time>2026-04-26T08:23:53Z</time></trkpt><trkpt lat="39.375732049848516" lon="9.175782617828066"><ele>222.0</ele><time>2026-04-26T08:23:54Z</time></trkpt><trkpt lat="39.37580832734374" lon="9.175786871006903"><ele>222.0</ele><time>2026-04-26T08:23:55Z</time></trkpt><trkpt lat="39.37589095630443" lon="9.175796232914388"><ele>222.0</ele><time>2026-04-26T08:23:56Z</time></trkpt><trkpt lat="39.37597158458633" lon="9.175807538172347"><ele>222.0</ele><time>2026-04-26T08:23:57Z</time></trkpt><trkpt lat="39.37604775091531" lon="9.175819446083981"><ele>222.0</ele><time>2026-04-26T08:23:58Z</time></trkpt><trkpt lat="39.37613090816359" lon="9.175832446963536"><ele>222.0</ele><time>2026-04-26T08:23:59Z</time></trkpt><trkpt lat="39.37621289339577" lon="9.175844344211061"><ele>222.0</ele><time>2026-04-26T08:24:00Z</time></trkpt><trkpt lat="39.37629217243876" lon="9.175855318794868"><ele>222.0</ele><time>2026-04-26T08:24:01Z</time></trkpt><trkpt lat="39.37636547545363" lon="9.175865466246835"><ele>222.0</ele><time>2026-04-26T08:24:02Z</time></trkpt><trkpt lat="39.3764412305572" lon="9.17587177090573"><ele>222.16666666666666</ele><time>2026-04-26T08:24:03Z</time></trkpt><trkpt lat="39.37651700452043" lon="9.175857475554471"><ele>222.33333333333331</ele><time>2026-04-26T08:24:04Z</time></trkpt><trkpt lat="39.376595355667995" lon="9.175867661308535"><ele>222.5</ele><time>2026-04-26T08:24:05Z</time></trkpt><trkpt lat="39.376675192938876" lon="9.175867959347702"><ele>222.66666666666666</ele><time>2026-04-26T08:24:06Z</time></trkpt><trkpt lat="39.376754426535264" lon="9.175871990519733"><ele>222.83333333333331</ele><time>2026-04-26T08:24:07Z</time></trkpt><trkpt lat="39.37683973223483" lon="9.175879338936793"><ele>223.0</ele><time>2026-04-26T08:24:08Z</time></trkpt><trkpt lat="39.37693358656164" lon="9.17588434546052"><ele>222.99999999999997</ele><time>2026-04-26T08:24:09Z</time></trkpt><trkpt lat="39.377013615167286" lon="9.175897036418808"><ele>223.0</ele><time>2026-04-26T08:24:10Z</time></trkpt><trkpt lat="39.37708134181715" lon="9.17589475241088"><ele>223.0</ele><time>2026-04-26T08:24:11Z</time></trkpt><trkpt lat="39.37719959176717" lon="9.17590327046878"><ele>223.0</ele><time>2026-04-26T08:24:13Z</time></trkpt><trkpt lat="39.37724143213895" lon="9.175975973965224"><ele>222.99999999999997</ele><time>2026-04-26T08:24:15Z</time></trkpt><trkpt lat="39.37723489647784" lon="9.176117225462137"><ele>223.0</ele><time>2026-04-26T08:24:16Z</time></trkpt><trkpt lat="39.37722573090534" lon="9.176202848305012"><ele>222.83333333333331</ele><time>2026-04-26T08:24:17Z</time></trkpt><trkpt lat="39.37721695202535" lon="9.176336398617861"><ele>222.66666666666666</ele><time>2026-04-26T08:24:19Z</time></trkpt><trkpt lat="39.37721394035165" lon="9.176506485971329"><ele>222.5</ele><time>2026-04-26T08:24:21Z</time></trkpt><trkpt lat="39.37721708328742" lon="9.176594625747777"><ele>222.33333333333331</ele><time>2026-04-26T08:24:22Z</time></trkpt><trkpt lat="39.37721964991009" lon="9.176686411442743"><ele>222.16666666666666</ele><time>2026-04-26T08:24:23Z</time></trkpt><trkpt lat="39.37721987928655" lon="9.176778195678231"><ele>222.0</ele><time>2026-04-26T08:24:24Z</time></trkpt><trkpt lat="39.37723157683643" lon="9.176920805583634"><ele>222.16666666666666</ele><time>2026-04-26T08:24:26Z</time></trkpt><trkpt lat="39.377172838596834" lon="9.17703404126151"><ele>222.33333333333331</ele><time>2026-04-26T08:24:28Z</time></trkpt><trkpt lat="39.377102248299124" lon="9.177023744050839"><ele>222.5</ele><time>2026-04-26T08:24:29Z</time></trkpt><trkpt lat="39.37702490779891" lon="9.177002054669124"><ele>222.66666666666666</ele><time>2026-04-26T08:24:30Z</time></trkpt><trkpt lat="39.376948917866386" lon="9.17700368428237"><ele>222.83333333333331</ele><time>2026-04-26T08:24:31Z</time></trkpt><trkpt lat="39.37687318939937" lon="9.177004406217574"><ele>223.0</ele><time>2026-04-26T08:24:32Z</time></trkpt><trkpt lat="39.37679535734858" lon="9.177009954286106"><ele>222.99999999999997</ele><time>2026-04-26T08:24:33Z</time></trkpt><trkpt lat="39.376716864736494" lon="9.177016478680557"><ele>223.0</ele><time>2026-04-26T08:24:34Z</time></trkpt><trkpt lat="39.376648285535914" lon="9.177018281379748"><ele>223.0</ele><time>2026-04-26T08:24:35Z</time></trkpt><trkpt lat="39.37651910901894" lon="9.177025252454788"><ele>223.0</ele><time>2026-04-26T08:24:37Z</time></trkpt><trkpt lat="39.376450803111304" lon="9.177029771678537"><ele>222.99999999999997</ele><time>2026-04-26T08:24:38Z</time></trkpt><trkpt lat="39.37637885679033" lon="9.177030463486695"><ele>223.0</ele><time>2026-04-26T08:24:39Z</time></trkpt><trkpt lat="39.37625515032758" lon="9.177039671899864"><ele>223.14285714285714</ele><time>2026-04-26T08:24:41Z</time></trkpt><trkpt lat="39.376190514263065" lon="9.177042017389109"><ele>223.28571428571428</ele><time>2026-04-26T08:24:42Z</time></trkpt><trkpt lat="39.37612433900348" lon="9.1770450715631"><ele>223.42857142857144</ele><time>2026-04-26T08:24:43Z</time></trkpt><trkpt lat="39.376051982185665" lon="9.177041247661961"><ele>223.57142857142856</ele><time>2026-04-26T08:24:44Z</time></trkpt><trkpt lat="39.37598288211185" lon="9.177039781900522"><ele>223.71428571428572</ele><time>2026-04-26T08:24:45Z</time></trkpt><trkpt lat="39.375902653358814" lon="9.177046066667698"><ele>223.85714285714286</ele><time>2026-04-26T08:24:46Z</time></trkpt><trkpt lat="39.375814843243255" lon="9.177042892356651"><ele>224.0</ele><time>2026-04-26T08:24:47Z</time></trkpt><trkpt lat="39.37572778705811" lon="9.17704184859085"><ele>224.0</ele><time>2026-04-26T08:24:48Z</time></trkpt><trkpt lat="39.3756557610498" lon="9.177047099022287"><ele>224.0</ele><time>2026-04-26T08:24:49Z</time></trkpt><trkpt lat="39.375587784840604" lon="9.177054668464912"><ele>224.0</ele><time>2026-04-26T08:24:50Z</time></trkpt><trkpt lat="39.37551347802663" lon="9.177052437387989"><ele>224.0</ele><time>2026-04-26T08:24:51Z</time></trkpt><trkpt lat="39.37544817772096" lon="9.177059041644457"><ele>224.0</ele><time>2026-04-26T08:24:52Z</time></trkpt><trkpt lat="39.375353135222994" lon="9.177066638059483"><ele>224.0</ele><time>2026-04-26T08:24:54Z</time></trkpt><trkpt lat="39.37528504249235" lon="9.177073343130951"><ele>224.0</ele><time>2026-04-26T08:24:58Z</time></trkpt><trkpt lat="39.37530011785156" lon="9.177263392683722"><ele>224.16666666666669</ele><time>2026-04-26T08:25:01Z</time></trkpt><trkpt lat="39.375347115518515" lon="9.177326446812982"><ele>224.33333333333334</ele><time>2026-04-26T08:25:02Z</time></trkpt><trkpt lat="39.375405939413874" lon="9.177411122415139"><ele>224.5</ele><time>2026-04-26T08:25:03Z</time></trkpt><trkpt lat="39.37546399531112" lon="9.17749731695445"><ele>224.66666666666669</ele><time>2026-04-26T08:25:04Z</time></trkpt><trkpt lat="39.37552488695884" lon="9.177599652760254"><ele>224.83333333333334</ele><time>2026-04-26T08:25:05Z</time></trkpt><trkpt lat="39.375585158585984" lon="9.177688130021023"><ele>225.0</ele><time>2026-04-26T08:25:06Z</time></trkpt><trkpt lat="39.375632816730274" lon="9.177762863050543"><ele>225.16666666666666</ele><time>2026-04-26T08:25:07Z</time></trkpt><trkpt lat="39.37567722755623" lon="9.177834383133023"><ele>225.33333333333331</ele><time>2026-04-26T08:25:08Z</time></trkpt><trkpt lat="39.375740575594236" lon="9.177898252859697"><ele>225.5</ele><time>2026-04-26T08:25:09Z</time></trkpt><trkpt lat="39.375827807909836" lon="9.177950897169934"><ele>225.66666666666666</ele><time>2026-04-26T08:25:10Z</time></trkpt><trkpt lat="39.37591373400807" lon="9.178002802172559"><ele>225.83333333333331</ele><time>2026-04-26T08:25:11Z</time></trkpt><trkpt lat="39.376008465112925" lon="9.178050871657415"><ele>226.0</ele><time>2026-04-26T08:25:12Z</time></trkpt><trkpt lat="39.37610303065717" lon="9.178108134440004"><ele>226.0</ele><time>2026-04-26T08:25:13Z</time></trkpt><trkpt lat="39.376195916963795" lon="9.178172741389504"><ele>226.00000000000003</ele><time>2026-04-26T08:25:14Z</time></trkpt><trkpt lat="39.37628411396117" lon="9.178256184686699"><ele>226.00000000000003</ele><time>2026-04-26T08:25:15Z</time></trkpt><trkpt lat="39.37635862251639" lon="9.1783287565835"><ele>226.0</ele><time>2026-04-26T08:25:16Z</time></trkpt><trkpt lat="39.37642362263906" lon="9.178394469062518"><ele>226.0</ele><time>2026-04-26T08:25:17Z</time></trkpt><trkpt lat="39.37649839918989" lon="9.178464437236544"><ele>226.60000000000002</ele><time>2026-04-26T08:25:18Z</time></trkpt><trkpt lat="39.37657931323799" lon="9.17853734381352"><ele>227.20000000000002</ele><time>2026-04-26T08:25:19Z</time></trkpt><trkpt lat="39.37666013585538" lon="9.178616519442604"><ele>227.79999999999998</ele><time>2026-04-26T08:25:20Z</time></trkpt><trkpt lat="39.376737249158616" lon="9.178704929154463"><ele>228.39999999999998</ele><time>2026-04-26T08:25:21Z</time></trkpt><trkpt lat="39.376819661156915" lon="9.178797783450964"><ele>229.0</ele><time>2026-04-26T08:25:22Z</time></trkpt><trkpt lat="39.37690846328285" lon="9.178884581909815"><ele>228.99999999999997</ele><time>2026-04-26T08:25:23Z</time></trkpt><trkpt lat="39.3769910278021" lon="9.178950788302068"><ele>229.0</ele><time>2026-04-26T08:25:24Z</time></trkpt><trkpt lat="39.377063901933425" lon="9.179024059358555"><ele>229.0</ele><time>2026-04-26T08:25:25Z</time></trkpt><trkpt lat="39.377123879837036" lon="9.179103634591199"><ele>229.0</ele><time>2026-04-26T08:25:26Z</time></trkpt><trkpt lat="39.37716944193642" lon="9.179171049277864"><ele>228.99999999999997</ele><time>2026-04-26T08:25:27Z</time></trkpt><trkpt lat="39.377224259060895" lon="9.179254401564997"><ele>229.0</ele><time>2026-04-26T08:25:29Z</time></trkpt><trkpt lat="39.37729094763639" lon="9.179374021105502"><ele>229.83333333333331</ele><time>2026-04-26T08:25:32Z</time></trkpt><trkpt lat="39.37730119745524" lon="9.179460932900632"><ele>230.66666666666666</ele><time>2026-04-26T08:25:33Z</time></trkpt><trkpt lat="39.377339548873636" lon="9.179548490951992"><ele>231.5</ele><time>2026-04-26T08:25:34Z</time></trkpt><trkpt lat="39.37736094174743" lon="9.179660167279339"><ele>232.33333333333331</ele><time>2026-04-26T08:25:35Z</time></trkpt><trkpt lat="39.37737727827913" lon="9.179773659908983"><ele>233.16666666666666</ele><time>2026-04-26T08:25:36Z</time></trkpt><trkpt lat="39.377363347567666" lon="9.179912508753487"><ele>234.0</ele><time>2026-04-26T08:25:37Z</time></trkpt><trkpt lat="39.37738243805645" lon="9.18004196659639"><ele>234.6</ele><time>2026-04-26T08:25:38Z</time></trkpt><trkpt lat="39.37737280537083" lon="9.18019009823412"><ele>235.2</ele><time>2026-04-26T08:25:39Z</time></trkpt><trkpt lat="39.37739686469942" lon="9.180296895320685"><ele>235.79999999999998</ele><time>2026-04-26T08:25:40Z</time></trkpt><trkpt lat="39.37739932313244" lon="9.18042259032609"><ele>236.39999999999998</ele><time>2026-04-26T08:25:41Z</time></trkpt><trkpt lat="39.377407461876004" lon="9.180538840643782"><ele>237.0</ele><time>2026-04-26T08:25:42Z</time></trkpt><trkpt lat="39.377410007321835" lon="9.18065101540086"><ele>237.0</ele><time>2026-04-26T08:25:43Z</time></trkpt><trkpt lat="39.37741250502948" lon="9.180764845859594"><ele>237.0</ele><time>2026-04-26T08:25:44Z</time></trkpt><trkpt lat="39.377414763115056" lon="9.180876221050433"><ele>237.0</ele><time>2026-04-26T08:25:45Z</time></trkpt><trkpt lat="39.37741276045092" lon="9.180992617657017"><ele>237.0</ele><time>2026-04-26T08:25:46Z</time></trkpt><trkpt lat="39.37741740972722" lon="9.18112225779629"><ele>237.0</ele><time>2026-04-26T08:25:47Z</time></trkpt><trkpt lat="39.37742220782642" lon="9.181255985616724"><ele>237.0</ele><time>2026-04-26T08:25:48Z</time></trkpt><trkpt lat="39.37742405336247" lon="9.181370758479966"><ele>237.0</ele><time>2026-04-26T08:25:49Z</time></trkpt><trkpt lat="39.37742899916373" lon="9.18146849090319"><ele>237.0</ele><time>2026-04-26T08:25:50Z</time></trkpt><trkpt lat="39.377434962102896" lon="9.181566646057801"><ele>237.0</ele><time>2026-04-26T08:25:51Z</time></trkpt><trkpt lat="39.37744176201957" lon="9.181665505563334"><ele>237.0</ele><time>2026-04-26T08:25:52Z</time></trkpt><trkpt lat="39.377450635587756" lon="9.181749987091884"><ele>237.0</ele><time>2026-04-26T08:25:53Z</time></trkpt><trkpt lat="39.37745650808315" lon="9.181881741271168"><ele>237.39999999999998</ele><time>2026-04-26T08:25:55Z</time></trkpt><trkpt lat="39.377452352538455" lon="9.182020731474903"><ele>237.79999999999998</ele><time>2026-04-26T08:25:58Z</time></trkpt><trkpt lat="39.37754473116771" lon="9.182085690909803"><ele>238.2</ele><time>2026-04-26T08:25:59Z</time></trkpt><trkpt lat="39.377611737271515" lon="9.18213704023962"><ele>238.6</ele><time>2026-04-26T08:26:00Z</time></trkpt><trkpt lat="39.37768566282576" lon="9.182181244800715"><ele>239.0</ele><time>2026-04-26T08:26:01Z</time></trkpt><trkpt lat="39.3777559336823" lon="9.182245198136075"><ele>239.0</ele><time>2026-04-26T08:26:02Z</time></trkpt><trkpt lat="39.37785682827468" lon="9.182311741507617"><ele>238.99999999999997</ele><time>2026-04-26T08:26:03Z</time></trkpt><trkpt lat="39.37795642228231" lon="9.182353103097812"><ele>238.99999999999997</ele><time>2026-04-26T08:26:04Z</time></trkpt><trkpt lat="39.378056700289946" lon="9.182417652579568"><ele>239.0</ele><time>2026-04-26T08:26:05Z</time></trkpt><trkpt lat="39.37814807888823" lon="9.182500429373663"><ele>239.0</ele><time>2026-04-26T08:26:06Z</time></trkpt><trkpt lat="39.37825217774016" lon="9.182567131965495"><ele>238.5</ele><time>2026-04-26T08:26:07Z</time></trkpt><trkpt lat="39.37836615654961" lon="9.182616195571159"><ele>238.0</ele><time>2026-04-26T08:26:08Z</time></trkpt><trkpt lat="39.37846223800117" lon="9.182702053923409"><ele>237.5</ele><time>2026-04-26T08:26:09Z</time></trkpt><trkpt lat="39.3785649273426" lon="9.18276875590323"><ele>237.0</ele><time>2026-04-26T08:26:10Z</time></trkpt><trkpt lat="39.37865953324685" lon="9.182830207254606"><ele>237.0</ele><time>2026-04-26T08:26:11Z</time></trkpt><trkpt lat="39.378762851599156" lon="9.18289731779432"><ele>237.0</ele><time>2026-04-26T08:26:12Z</time></trkpt><trkpt lat="39.37886114439806" lon="9.182961163924974"><ele>237.0</ele><time>2026-04-26T08:26:13Z</time></trkpt><trkpt lat="39.37895979979433" lon="9.183025237715897"><ele>237.0</ele><time>2026-04-26T08:26:14Z</time></trkpt><trkpt lat="39.37905531959439" lon="9.183086766835086"><ele>237.0</ele><time>2026-04-26T08:26:15Z</time></trkpt><trkpt lat="39.37916065376843" lon="9.183132134860438"><ele>236.0</ele><time>2026-04-26T08:26:16Z</time></trkpt><trkpt lat="39.37925452713833" lon="9.183193837244179"><ele>235.0</ele><time>2026-04-26T08:26:17Z</time></trkpt><trkpt lat="39.379350501667396" lon="9.183265005798138"><ele>234.0</ele><time>2026-04-26T08:26:18Z</time></trkpt><trkpt lat="39.379447415685334" lon="9.183332541820352"><ele>233.0</ele><time>2026-04-26T08:26:19Z</time></trkpt><trkpt lat="39.379551386598244" lon="9.183394512062023"><ele>232.0</ele><time>2026-04-26T08:26:20Z</time></trkpt><trkpt lat="39.37964539763441" lon="9.183458027418354"><ele>231.5</ele><time>2026-04-26T08:26:21Z</time></trkpt><trkpt lat="39.37974856759017" lon="9.183525639735167"><ele>231.0</ele><time>2026-04-26T08:26:22Z</time></trkpt><trkpt lat="39.37985719643397" lon="9.183599861478745"><ele>230.5</ele><time>2026-04-26T08:26:23Z</time></trkpt><trkpt lat="39.3799660913615" lon="9.18366909304384"><ele>230.0</ele><time>2026-04-26T08:26:24Z</time></trkpt><trkpt lat="39.3800664052634" lon="9.183735857360457"><ele>230.0</ele><time>2026-04-26T08:26:25Z</time></trkpt><trkpt lat="39.380177353623964" lon="9.1838039434949"><ele>230.0</ele><time>2026-04-26T08:26:26Z</time></trkpt><trkpt lat="39.380282979165486" lon="9.183878457696181"><ele>230.0</ele><time>2026-04-26T08:26:27Z</time></trkpt><trkpt lat="39.38038710888199" lon="9.183942560939512"><ele>230.0</ele><time>2026-04-26T08:26:28Z</time></trkpt><trkpt lat="39.38049245340995" lon="9.184008644543743"><ele>230.0</ele><time>2026-04-26T08:26:29Z</time></trkpt><trkpt lat="39.380589375399765" lon="9.184075276596394"><ele>230.0</ele><time>2026-04-26T08:26:30Z</time></trkpt><trkpt lat="39.38068538778132" lon="9.184128852327962"><ele>230.0</ele><time>2026-04-26T08:26:31Z</time></trkpt><trkpt lat="39.38077343068838" lon="9.184187756784"><ele>230.0</ele><time>2026-04-26T08:26:32Z</time></trkpt><trkpt lat="39.38086730080324" lon="9.184248002694058"><ele>230.0</ele><time>2026-04-26T08:26:33Z</time></trkpt><trkpt lat="39.38096567383442" lon="9.184311359071279"><ele>230.0</ele><time>2026-04-26T08:26:34Z</time></trkpt><trkpt lat="39.38105462052888" lon="9.184372802678741"><ele>230.0</ele><time>2026-04-26T08:26:35Z</time></trkpt><trkpt lat="39.381151680184175" lon="9.184433418752503"><ele>230.0</ele><time>2026-04-26T08:26:36Z</time></trkpt><trkpt lat="39.38124860276578" lon="9.184492339943802"><ele>230.0</ele><time>2026-04-26T08:26:37Z</time></trkpt><trkpt lat="39.3813485275856" lon="9.184553580631396"><ele>230.0</ele><time>2026-04-26T08:26:38Z</time></trkpt><trkpt lat="39.38145162229851" lon="9.18462067280385"><ele>229.8</ele><time>2026-04-26T08:26:39Z</time></trkpt><trkpt lat="39.381549077650995" lon="9.184705337690488"><ele>229.6</ele><time>2026-04-26T08:26:40Z</time></trkpt><trkpt lat="39.38165725526199" lon="9.18475232049162"><ele>229.39999999999998</ele><time>2026-04-26T08:26:41Z</time></trkpt><trkpt lat="39.381743647154195" lon="9.184829381390019"><ele>229.2</ele><time>2026-04-26T08:26:42Z</time></trkpt><trkpt lat="39.38184342607467" lon="9.18488098241435"><ele>229.0</ele><time>2026-04-26T08:26:43Z</time></trkpt><trkpt lat="39.38194671227163" lon="9.184961145701719"><ele>228.75</ele><time>2026-04-26T08:26:44Z</time></trkpt><trkpt lat="39.38204823541705" lon="9.185027952032524"><ele>228.5</ele><time>2026-04-26T08:26:45Z</time></trkpt><trkpt lat="39.3821593385078" lon="9.18509103927746"><ele>228.25</ele><time>2026-04-26T08:26:46Z</time></trkpt><trkpt lat="39.382267023340845" lon="9.18516133079552"><ele>228.0</ele><time>2026-04-26T08:26:47Z</time></trkpt><trkpt lat="39.38237042758131" lon="9.18522675883261"><ele>227.75</ele><time>2026-04-26T08:26:48Z</time></trkpt><trkpt lat="39.38247605178567" lon="9.185290134531586"><ele>227.5</ele><time>2026-04-26T08:26:49Z</time></trkpt><trkpt lat="39.38257652487613" lon="9.18535987058046"><ele>227.25</ele><time>2026-04-26T08:26:50Z</time></trkpt><trkpt lat="39.38267456262689" lon="9.18542873439531"><ele>227.0</ele><time>2026-04-26T08:26:51Z</time></trkpt><trkpt lat="39.382773426331255" lon="9.185492046431781"><ele>227.0</ele><time>2026-04-26T08:26:52Z</time></trkpt><trkpt lat="39.3828714853473" lon="9.185555103738627"><ele>227.0</ele><time>2026-04-26T08:26:53Z</time></trkpt><trkpt lat="39.38297637805984" lon="9.185621010635439"><ele>227.0</ele><time>2026-04-26T08:26:54Z</time></trkpt><trkpt lat="39.383074742805384" lon="9.185684060876302"><ele>227.0</ele><time>2026-04-26T08:26:55Z</time></trkpt><trkpt lat="39.383183259959715" lon="9.185750566242142"><ele>226.75</ele><time>2026-04-26T08:26:56Z</time></trkpt><trkpt lat="39.38329072536614" lon="9.185821327258386"><ele>226.5</ele><time>2026-04-26T08:26:57Z</time></trkpt><trkpt lat="39.38340123272843" lon="9.185889933254208"><ele>226.25</ele><time>2026-04-26T08:26:58Z</time></trkpt><trkpt lat="39.383509168685585" lon="9.185959095339456"><ele>226.0</ele><time>2026-04-26T08:26:59Z</time></trkpt><trkpt lat="39.383621827727055" lon="9.186026230825442"><ele>226.0</ele><time>2026-04-26T08:27:00Z</time></trkpt><trkpt lat="39.383732119491825" lon="9.186084717484153"><ele>226.0</ele><time>2026-04-26T08:27:01Z</time></trkpt><trkpt lat="39.3838295208947" lon="9.186155612671927"><ele>226.0</ele><time>2026-04-26T08:27:02Z</time></trkpt><trkpt lat="39.38392091019151" lon="9.186232353751544"><ele>226.0</ele><time>2026-04-26T08:27:03Z</time></trkpt><trkpt lat="39.38402939845352" lon="9.18630815123977"><ele>225.75</ele><time>2026-04-26T08:27:04Z</time></trkpt><trkpt lat="39.38414585171997" lon="9.18637852781662"><ele>225.5</ele><time>2026-04-26T08:27:05Z</time></trkpt><trkpt lat="39.38426104955976" lon="9.186450340816082"><ele>225.25</ele><time>2026-04-26T08:27:06Z</time></trkpt><trkpt lat="39.38436224803226" lon="9.186517160872087"><ele>225.0</ele><time>2026-04-26T08:27:07Z</time></trkpt><trkpt lat="39.3844657244016" lon="9.186588952828252"><ele>225.0</ele><time>2026-04-26T08:27:08Z</time></trkpt><trkpt lat="39.384572492969056" lon="9.186653385290409"><ele>225.0</ele><time>2026-04-26T08:27:09Z</time></trkpt><trkpt lat="39.38467662739062" lon="9.186726482537779"><ele>225.0</ele><time>2026-04-26T08:27:10Z</time></trkpt><trkpt lat="39.38478537963729" lon="9.186790925058524"><ele>225.0</ele><time>2026-04-26T08:27:11Z</time></trkpt><trkpt lat="39.38489422197403" lon="9.186858229876867"><ele>224.25</ele><time>2026-04-26T08:27:12Z</time></trkpt><trkpt lat="39.38500116985743" lon="9.18692883133924"><ele>223.5</ele><time>2026-04-26T08:27:13Z</time></trkpt><trkpt lat="39.38511160691091" lon="9.187000976216133"><ele>222.75</ele><time>2026-04-26T08:27:14Z</time></trkpt><trkpt lat="39.38521901268178" lon="9.187070910349615"><ele>222.0</ele><time>2026-04-26T08:27:15Z</time></trkpt><trkpt lat="39.38532433396062" lon="9.187139517608967"><ele>222.0</ele><time>2026-04-26T08:27:16Z</time></trkpt><trkpt lat="39.385423900571666" lon="9.187207335649477"><ele>222.0</ele><time>2026-04-26T08:27:17Z</time></trkpt><trkpt lat="39.38552394492455" lon="9.187269516191806"><ele>222.0</ele><time>2026-04-26T08:27:18Z</time></trkpt><trkpt lat="39.385626928482836" lon="9.187336990529387"><ele>222.0</ele><time>2026-04-26T08:27:19Z</time></trkpt><trkpt lat="39.38573061681272" lon="9.1874069221121"><ele>221.25</ele><time>2026-04-26T08:27:20Z</time></trkpt><trkpt lat="39.38583867401788" lon="9.18747249945682"><ele>220.5</ele><time>2026-04-26T08:27:21Z</time></trkpt><trkpt lat="39.38594579271869" lon="9.187539308779115"><ele>219.75</ele><time>2026-04-26T08:27:22Z</time></trkpt><trkpt lat="39.386052455569526" lon="9.187611049482252"><ele>219.0</ele><time>2026-04-26T08:27:23Z</time></trkpt><trkpt lat="39.38615880797045" lon="9.187677846418355"><ele>219.0</ele><time>2026-04-26T08:27:24Z</time></trkpt><trkpt lat="39.38626681382624" lon="9.187750614560128"><ele>219.0</ele><time>2026-04-26T08:27:25Z</time></trkpt><trkpt lat="39.38637537936283" lon="9.18781735015648"><ele>219.0</ele><time>2026-04-26T08:27:26Z</time></trkpt><trkpt lat="39.38647408115891" lon="9.18788400597117"><ele>219.0</ele><time>2026-04-26T08:27:27Z</time></trkpt><trkpt lat="39.38656919305419" lon="9.187941017827242"><ele>218.2</ele><time>2026-04-26T08:27:28Z</time></trkpt><trkpt lat="39.38665697510312" lon="9.18799719661177"><ele>217.39999999999998</ele><time>2026-04-26T08:27:29Z</time></trkpt><trkpt lat="39.38675336094944" lon="9.188064940442647"><ele>216.6</ele><time>2026-04-26T08:27:30Z</time></trkpt><trkpt lat="39.38685960833785" lon="9.188132078238706"><ele>215.8</ele><time>2026-04-26T08:27:31Z</time></trkpt><trkpt lat="39.38696595807566" lon="9.18819949568584"><ele>215.0</ele><time>2026-04-26T08:27:32Z</time></trkpt><trkpt lat="39.38707654585943" lon="9.188267370063985"><ele>214.5</ele><time>2026-04-26T08:27:33Z</time></trkpt><trkpt lat="39.38718380790848" lon="9.188342096905892"><ele>214.0</ele><time>2026-04-26T08:27:34Z</time></trkpt><trkpt lat="39.38729183991067" lon="9.188415431096463"><ele>213.5</ele><time>2026-04-26T08:27:35Z</time></trkpt><trkpt lat="39.38739771821189" lon="9.188478846039608"><ele>213.0</ele><time>2026-04-26T08:27:36Z</time></trkpt><trkpt lat="39.3875076971462" lon="9.188547054839544"><ele>213.0</ele><time>2026-04-26T08:27:37Z</time></trkpt><trkpt lat="39.387613389208965" lon="9.18861757253858"><ele>213.0</ele><time>2026-04-26T08:27:38Z</time></trkpt><trkpt lat="39.38772628661787" lon="9.188684319189361"><ele>213.0</ele><time>2026-04-26T08:27:39Z</time></trkpt><trkpt lat="39.3878271624808" lon="9.188761416612172"><ele>213.0</ele><time>2026-04-26T08:27:40Z</time></trkpt><trkpt lat="39.387938983812504" lon="9.188833012190784"><ele>212.5</ele><time>2026-04-26T08:27:41Z</time></trkpt><trkpt lat="39.38804887155459" lon="9.188897873001146"><ele>212.0</ele><time>2026-04-26T08:27:42Z</time></trkpt><trkpt lat="39.38816032178678" lon="9.188972538706802"><ele>211.5</ele><time>2026-04-26T08:27:43Z</time></trkpt><trkpt lat="39.38826626278402" lon="9.18903958837658"><ele>211.0</ele><time>2026-04-26T08:27:44Z</time></trkpt><trkpt lat="39.38837025119605" lon="9.189102813840845"><ele>211.0</ele><time>2026-04-26T08:27:45Z</time></trkpt><trkpt lat="39.38846883103324" lon="9.18917406298312"><ele>211.0</ele><time>2026-04-26T08:27:46Z</time></trkpt><trkpt lat="39.38857638806836" lon="9.189244951919042"><ele>211.0</ele><time>2026-04-26T08:27:47Z</time></trkpt><trkpt lat="39.38869049399642" lon="9.189311150000261"><ele>211.0</ele><time>2026-04-26T08:27:48Z</time></trkpt><trkpt lat="39.38879898219828" lon="9.189385397084115"><ele>210.5</ele><time>2026-04-26T08:27:49Z</time></trkpt><trkpt lat="39.388904323762404" lon="9.189451744636406"><ele>210.0</ele><time>2026-04-26T08:27:50Z</time></trkpt><trkpt lat="39.38900638308839" lon="9.189516952542066"><ele>209.5</ele><time>2026-04-26T08:27:51Z</time></trkpt><trkpt lat="39.38911084434785" lon="9.189578394354445"><ele>209.0</ele><time>2026-04-26T08:27:52Z</time></trkpt><trkpt lat="39.38921146603825" lon="9.189649861170684"><ele>209.0</ele><time>2026-04-26T08:27:53Z</time></trkpt><trkpt lat="39.38931717446997" lon="9.18972148568506"><ele>209.0</ele><time>2026-04-26T08:27:54Z</time></trkpt><trkpt lat="39.389421761047444" lon="9.189788881357519"><ele>209.0</ele><time>2026-04-26T08:27:55Z</time></trkpt><trkpt lat="39.38953162834329" lon="9.189856466183"><ele>209.0</ele><time>2026-04-26T08:27:56Z</time></trkpt><trkpt lat="39.38964259614147" lon="9.189929324573336"><ele>209.0</ele><time>2026-04-26T08:27:57Z</time></trkpt><trkpt lat="39.38975071475099" lon="9.18999975860927"><ele>209.0</ele><time>2026-04-26T08:27:58Z</time></trkpt><trkpt lat="39.38986052019796" lon="9.190064954826056"><ele>209.0</ele><time>2026-04-26T08:27:59Z</time></trkpt><trkpt lat="39.38996898097586" lon="9.190136825762572"><ele>209.0</ele><time>2026-04-26T08:28:00Z</time></trkpt><trkpt lat="39.390082286200744" lon="9.190208150309424"><ele>209.0</ele><time>2026-04-26T08:28:01Z</time></trkpt><trkpt lat="39.39019638560105" lon="9.190285019504532"><ele>209.0</ele><time>2026-04-26T08:28:02Z</time></trkpt><trkpt lat="39.390311121033946" lon="9.19035944085671"><ele>209.0</ele><time>2026-04-26T08:28:03Z</time></trkpt><trkpt lat="39.39041845421368" lon="9.190436598329686"><ele>209.0</ele><time>2026-04-26T08:28:04Z</time></trkpt><trkpt lat="39.39051876291004" lon="9.190499867417184"><ele>208.75</ele><time>2026-04-26T08:28:05Z</time></trkpt><trkpt lat="39.390625292985696" lon="9.190569259198893"><ele>208.5</ele><time>2026-04-26T08:28:06Z</time></trkpt><trkpt lat="39.39073324738943" lon="9.19063600726443"><ele>208.25</ele><time>2026-04-26T08:28:07Z</time></trkpt><trkpt lat="39.39084072017092" lon="9.190700878112413"><ele>208.0</ele><time>2026-04-26T08:28:08Z</time></trkpt><trkpt lat="39.39094772955596" lon="9.190781565214248"><ele>208.5</ele><time>2026-04-26T08:28:09Z</time></trkpt><trkpt lat="39.39105638489069" lon="9.190847167058637"><ele>209.0</ele><time>2026-04-26T08:28:10Z</time></trkpt><trkpt lat="39.39116928816623" lon="9.190922474014075"><ele>209.5</ele><time>2026-04-26T08:28:11Z</time></trkpt><trkpt lat="39.39128300554993" lon="9.190994953389339"><ele>210.0</ele><time>2026-04-26T08:28:12Z</time></trkpt><trkpt lat="39.391397549302326" lon="9.191067836406583"><ele>210.0</ele><time>2026-04-26T08:28:13Z</time></trkpt><trkpt lat="39.39151244499837" lon="9.191141199530351"><ele>210.0</ele><time>2026-04-26T08:28:14Z</time></trkpt><trkpt lat="39.391626448467406" lon="9.191216705066752"><ele>210.0</ele><time>2026-04-26T08:28:15Z</time></trkpt><trkpt lat="39.39174025829116" lon="9.191291304500158"><ele>210.0</ele><time>2026-04-26T08:28:16Z</time></trkpt><trkpt lat="39.39184815570211" lon="9.191355518269447"><ele>210.0</ele><time>2026-04-26T08:28:17Z</time></trkpt><trkpt lat="39.39195485958957" lon="9.191424039449917"><ele>210.0</ele><time>2026-04-26T08:28:18Z</time></trkpt><trkpt lat="39.39205858657509" lon="9.191486985285724"><ele>210.0</ele><time>2026-04-26T08:28:19Z</time></trkpt><trkpt lat="39.39215766126836" lon="9.19155686182853"><ele>210.0</ele><time>2026-04-26T08:28:20Z</time></trkpt><trkpt lat="39.392254739586" lon="9.191620757018281"><ele>210.75</ele><time>2026-04-26T08:28:21Z</time></trkpt><trkpt lat="39.392355141034706" lon="9.191686086296416"><ele>211.5</ele><time>2026-04-26T08:28:22Z</time></trkpt><trkpt lat="39.39246511117937" lon="9.19175861958203"><ele>212.25</ele><time>2026-04-26T08:28:23Z</time></trkpt><trkpt lat="39.39258047983028" lon="9.19183351427597"><ele>213.0</ele><time>2026-04-26T08:28:24Z</time></trkpt><trkpt lat="39.39271083665313" lon="9.191910736448461"><ele>213.0</ele><time>2026-04-26T08:28:25Z</time></trkpt><trkpt lat="39.39283095211473" lon="9.191991646896039"><ele>213.0</ele><time>2026-04-26T08:28:26Z</time></trkpt><trkpt lat="39.39296322786769" lon="9.19209078324451"><ele>213.0</ele><time>2026-04-26T08:28:27Z</time></trkpt><trkpt lat="39.39310880040976" lon="9.19218228592313"><ele>212.75</ele><time>2026-04-26T08:28:29Z</time></trkpt><trkpt lat="39.393212223159466" lon="9.192252012429421"><ele>212.5</ele><time>2026-04-26T08:28:30Z</time></trkpt><trkpt lat="39.39331723162735" lon="9.192320355153257"><ele>212.25</ele><time>2026-04-26T08:28:31Z</time></trkpt><trkpt lat="39.39341721794184" lon="9.192386592193143"><ele>212.0</ele><time>2026-04-26T08:28:32Z</time></trkpt><trkpt lat="39.39351841217297" lon="9.192453184640629"><ele>212.75</ele><time>2026-04-26T08:28:33Z</time></trkpt><trkpt lat="39.39362162656912" lon="9.192521503645448"><ele>213.5</ele><time>2026-04-26T08:28:34Z</time></trkpt><trkpt lat="39.39372587922689" lon="9.192588464212655"><ele>214.25</ele><time>2026-04-26T08:28:35Z</time></trkpt><trkpt lat="39.39382869108379" lon="9.192659719586239"><ele>215.0</ele><time>2026-04-26T08:28:36Z</time></trkpt><trkpt lat="39.39392966269282" lon="9.19272756077261"><ele>215.25</ele><time>2026-04-26T08:28:37Z</time></trkpt><trkpt lat="39.39403305592134" lon="9.192799205173683"><ele>215.5</ele><time>2026-04-26T08:28:38Z</time></trkpt><trkpt lat="39.394140743033546" lon="9.192869081695923"><ele>215.75</ele><time>2026-04-26T08:28:39Z</time></trkpt><trkpt lat="39.39424816690891" lon="9.192936323726885"><ele>216.0</ele><time>2026-04-26T08:28:40Z</time></trkpt><trkpt lat="39.394357335494995" lon="9.193009858443387"><ele>216.0</ele><time>2026-04-26T08:28:41Z</time></trkpt><trkpt lat="39.39446654816803" lon="9.193081437886772"><ele>216.0</ele><time>2026-04-26T08:28:42Z</time></trkpt><trkpt lat="39.39457113584833" lon="9.193151958969493"><ele>216.0</ele><time>2026-04-26T08:28:43Z</time></trkpt><trkpt lat="39.39467038569724" lon="9.19321937720862"><ele>216.0</ele><time>2026-04-26T08:28:44Z</time></trkpt><trkpt lat="39.39476746718692" lon="9.193280965492939"><ele>218.0</ele><time>2026-04-26T08:28:45Z</time></trkpt><trkpt lat="39.39486696582073" lon="9.193341267469851"><ele>220.0</ele><time>2026-04-26T08:28:46Z</time></trkpt><trkpt lat="39.39497047328213" lon="9.193402751589343"><ele>222.0</ele><time>2026-04-26T08:28:47Z</time></trkpt><trkpt lat="39.39507712449479" lon="9.193470259693418"><ele>224.0</ele><time>2026-04-26T08:28:48Z</time></trkpt><trkpt lat="39.39518691091091" lon="9.19353784876976"><ele>224.0</ele><time>2026-04-26T08:28:49Z</time></trkpt><trkpt lat="39.39528993417354" lon="9.193600355703637"><ele>223.99999999999997</ele><time>2026-04-26T08:28:50Z</time></trkpt><trkpt lat="39.39538644458346" lon="9.193669842307788"><ele>223.99999999999997</ele><time>2026-04-26T08:28:51Z</time></trkpt><trkpt lat="39.39548332893495" lon="9.193733534932479"><ele>224.0</ele><time>2026-04-26T08:28:52Z</time></trkpt><trkpt lat="39.395584848361175" lon="9.193795444543165"><ele>224.0</ele><time>2026-04-26T08:28:53Z</time></trkpt><trkpt lat="39.39568776878111" lon="9.193859183994707"><ele>224.5</ele><time>2026-04-26T08:28:54Z</time></trkpt><trkpt lat="39.39579140080706" lon="9.193927537412"><ele>225.0</ele><time>2026-04-26T08:28:55Z</time></trkpt><trkpt lat="39.39589483528212" lon="9.193995111149462"><ele>225.5</ele><time>2026-04-26T08:28:56Z</time></trkpt><trkpt lat="39.39600588002141" lon="9.194071020807648"><ele>226.0</ele><time>2026-04-26T08:28:57Z</time></trkpt><trkpt lat="39.39611912777887" lon="9.194140302162145"><ele>226.0</ele><time>2026-04-26T08:28:58Z</time></trkpt><trkpt lat="39.396227992746205" lon="9.194207369581635"><ele>226.0</ele><time>2026-04-26T08:28:59Z</time></trkpt><trkpt lat="39.39633596799922" lon="9.194280956946738"><ele>226.0</ele><time>2026-04-26T08:29:00Z</time></trkpt><trkpt lat="39.39644935014866" lon="9.194353513559363"><ele>226.0</ele><time>2026-04-26T08:29:01Z</time></trkpt><trkpt lat="39.396559076391405" lon="9.194429702559482"><ele>224.5</ele><time>2026-04-26T08:29:02Z</time></trkpt><trkpt lat="39.39667353801036" lon="9.194497230878161"><ele>223.0</ele><time>2026-04-26T08:29:03Z</time></trkpt><trkpt lat="39.396784237294696" lon="9.194564749398166"><ele>221.5</ele><time>2026-04-26T08:29:04Z</time></trkpt><trkpt lat="39.3968920957235" lon="9.194639151524271"><ele>220.0</ele><time>2026-04-26T08:29:05Z</time></trkpt><trkpt lat="39.39699834398751" lon="9.194711679121873"><ele>220.0</ele><time>2026-04-26T08:29:06Z</time></trkpt><trkpt lat="39.39710665394182" lon="9.194783780020316"><ele>220.0</ele><time>2026-04-26T08:29:07Z</time></trkpt><trkpt lat="39.39721803847204" lon="9.194856337617937"><ele>220.0</ele><time>2026-04-26T08:29:08Z</time></trkpt><trkpt lat="39.39732217579215" lon="9.194922492363032"><ele>220.0</ele><time>2026-04-26T08:29:09Z</time></trkpt><trkpt lat="39.397427977976974" lon="9.194988518089986"><ele>220.75</ele><time>2026-04-26T08:29:10Z</time></trkpt><trkpt lat="39.39753543223263" lon="9.195060099544898"><ele>221.5</ele><time>2026-04-26T08:29:11Z</time></trkpt><trkpt lat="39.39764594543804" lon="9.195130904222717"><ele>222.25</ele><time>2026-04-26T08:29:12Z</time></trkpt><trkpt lat="39.39776258346686" lon="9.195202646089001"><ele>223.0</ele><time>2026-04-26T08:29:13Z</time></trkpt><trkpt lat="39.39787478425805" lon="9.1952784898648"><ele>223.0</ele><time>2026-04-26T08:29:14Z</time></trkpt><trkpt lat="39.39798549942922" lon="9.195349101162845"><ele>223.0</ele><time>2026-04-26T08:29:15Z</time></trkpt><trkpt lat="39.398096365786394" lon="9.19542139965255"><ele>223.0</ele><time>2026-04-26T08:29:16Z</time></trkpt><trkpt lat="39.39821191819347" lon="9.195494407647383"><ele>223.0</ele><time>2026-04-26T08:29:17Z</time></trkpt><trkpt lat="39.398327519660064" lon="9.19556946853489"><ele>223.75</ele><time>2026-04-26T08:29:18Z</time></trkpt><trkpt lat="39.39845268107681" lon="9.195651658291377"><ele>224.5</ele><time>2026-04-26T08:29:19Z</time></trkpt><trkpt lat="39.39857604799438" lon="9.195738177853116"><ele>225.25</ele><time>2026-04-26T08:29:20Z</time></trkpt><trkpt lat="39.39868121006824" lon="9.195805075354462"><ele>226.0</ele><time>2026-04-26T08:29:21Z</time></trkpt><trkpt lat="39.39877838822995" lon="9.195870435860517"><ele>227.25</ele><time>2026-04-26T08:29:22Z</time></trkpt><trkpt lat="39.39887856767942" lon="9.195937593919194"><ele>228.5</ele><time>2026-04-26T08:29:23Z</time></trkpt><trkpt lat="39.39898557811204" lon="9.195995277766997"><ele>229.75</ele><time>2026-04-26T08:29:24Z</time></trkpt><trkpt lat="39.39909172475533" lon="9.196062486405308"><ele>231.0</ele><time>2026-04-26T08:29:25Z</time></trkpt><trkpt lat="39.39920424385791" lon="9.196134822420836"><ele>231.0</ele><time>2026-04-26T08:29:26Z</time></trkpt><trkpt lat="39.39931408508089" lon="9.196206490965922"><ele>231.0</ele><time>2026-04-26T08:29:27Z</time></trkpt><trkpt lat="39.39942571509727" lon="9.196280050944466"><ele>231.0</ele><time>2026-04-26T08:29:28Z</time></trkpt><trkpt lat="39.39953739503287" lon="9.196352309705924"><ele>231.0</ele><time>2026-04-26T08:29:29Z</time></trkpt><trkpt lat="39.399645484928826" lon="9.1964283931641"><ele>231.0</ele><time>2026-04-26T08:29:30Z</time></trkpt><trkpt lat="39.39975217552422" lon="9.196502656608649"><ele>231.0</ele><time>2026-04-26T08:29:31Z</time></trkpt><trkpt lat="39.399864450943085" lon="9.196560850689734"><ele>231.0</ele><time>2026-04-26T08:29:32Z</time></trkpt><trkpt lat="39.399971123834966" lon="9.19663192830701"><ele>231.0</ele><time>2026-04-26T08:29:33Z</time></trkpt><trkpt lat="39.40008312026947" lon="9.196699652472804"><ele>231.0</ele><time>2026-04-26T08:29:34Z</time></trkpt><trkpt lat="39.40018886125298" lon="9.196772021895656"><ele>231.0</ele><time>2026-04-26T08:29:35Z</time></trkpt><trkpt lat="39.400295454524866" lon="9.196840613969833"><ele>231.0</ele><time>2026-04-26T08:29:36Z</time></trkpt><trkpt lat="39.400403631828674" lon="9.196911165428356"><ele>231.0</ele><time>2026-04-26T08:29:37Z</time></trkpt><trkpt lat="39.4005152387075" lon="9.196986506950704"><ele>232.5</ele><time>2026-04-26T08:29:38Z</time></trkpt><trkpt lat="39.400622111111055" lon="9.197056541156757"><ele>234.0</ele><time>2026-04-26T08:29:39Z</time></trkpt><trkpt lat="39.40072892779657" lon="9.197124125844404"><ele>235.5</ele><time>2026-04-26T08:29:40Z</time></trkpt><trkpt lat="39.40083498192778" lon="9.19718982657571"><ele>237.0</ele><time>2026-04-26T08:29:41Z</time></trkpt><trkpt lat="39.40093203648987" lon="9.197256302606826"><ele>237.0</ele><time>2026-04-26T08:29:42Z</time></trkpt><trkpt lat="39.40101018489367" lon="9.197310683743334"><ele>237.0</ele><time>2026-04-26T08:29:43Z</time></trkpt><trkpt lat="39.401086870132" lon="9.197361695292606"><ele>237.0</ele><time>2026-04-26T08:29:44Z</time></trkpt><trkpt lat="39.40117528639178" lon="9.197418162227532"><ele>237.0</ele><time>2026-04-26T08:29:45Z</time></trkpt><trkpt lat="39.401270989510394" lon="9.19747653083452"><ele>237.0</ele><time>2026-04-26T08:29:46Z</time></trkpt><trkpt lat="39.40137143041343" lon="9.197539420984649"><ele>238.0</ele><time>2026-04-26T08:29:47Z</time></trkpt><trkpt lat="39.401476168673845" lon="9.197603767040084"><ele>239.0</ele><time>2026-04-26T08:29:48Z</time></trkpt><trkpt lat="39.40158406949175" lon="9.197671165409515"><ele>240.0</ele><time>2026-04-26T08:29:49Z</time></trkpt><trkpt lat="39.401694313835094" lon="9.197744304861569"><ele>241.0</ele><time>2026-04-26T08:29:50Z</time></trkpt><trkpt lat="39.401807807252275" lon="9.197818048996911"><ele>241.0</ele><time>2026-04-26T08:29:51Z</time></trkpt><trkpt lat="39.401914767581474" lon="9.197885737780734"><ele>241.0</ele><time>2026-04-26T08:29:52Z</time></trkpt><trkpt lat="39.40201994040425" lon="9.197955292833093"><ele>241.0</ele><time>2026-04-26T08:29:53Z</time></trkpt><trkpt lat="39.40212760187879" lon="9.198019566520633"><ele>241.0</ele><time>2026-04-26T08:29:54Z</time></trkpt><trkpt lat="39.40223568877178" lon="9.198097552636765"><ele>241.0</ele><time>2026-04-26T08:29:55Z</time></trkpt><trkpt lat="39.40234714177869" lon="9.198167457554286"><ele>241.0</ele><time>2026-04-26T08:29:56Z</time></trkpt><trkpt lat="39.402460526876254" lon="9.198244576877489"><ele>241.0</ele><time>2026-04-26T08:29:57Z</time></trkpt><trkpt lat="39.40257647799523" lon="9.198321196260828"><ele>241.0</ele><time>2026-04-26T08:29:58Z</time></trkpt><trkpt lat="39.402684139704526" lon="9.19838780580741"><ele>241.5</ele><time>2026-04-26T08:29:59Z</time></trkpt><trkpt lat="39.402787110996286" lon="9.198459806788678"><ele>242.0</ele><time>2026-04-26T08:30:00Z</time></trkpt><trkpt lat="39.40289660762276" lon="9.198528239369828"><ele>242.5</ele><time>2026-04-26T08:30:01Z</time></trkpt><trkpt lat="39.40300752754935" lon="9.198606266163905"><ele>243.0</ele><time>2026-04-26T08:30:02Z</time></trkpt><trkpt lat="39.403122236417744" lon="9.198678002232349"><ele>243.0</ele><time>2026-04-26T08:30:03Z</time></trkpt><trkpt lat="39.40323395341598" lon="9.19874965207687"><ele>243.0</ele><time>2026-04-26T08:30:04Z</time></trkpt><trkpt lat="39.403339026871784" lon="9.198821619465244"><ele>243.0</ele><time>2026-04-26T08:30:05Z</time></trkpt><trkpt lat="39.40344483278097" lon="9.198892081918489"><ele>243.0</ele><time>2026-04-26T08:30:06Z</time></trkpt><trkpt lat="39.40354987152217" lon="9.198963913479183"><ele>244.5</ele><time>2026-04-26T08:30:07Z</time></trkpt><trkpt lat="39.40366335666027" lon="9.199034512439239"><ele>246.0</ele><time>2026-04-26T08:30:08Z</time></trkpt><trkpt lat="39.40377523902864" lon="9.19910423879595"><ele>247.5</ele><time>2026-04-26T08:30:09Z</time></trkpt><trkpt lat="39.403890114523655" lon="9.199175903917865"><ele>249.0</ele><time>2026-04-26T08:30:10Z</time></trkpt><trkpt lat="39.40400288566065" lon="9.199252370603144"><ele>249.25</ele><time>2026-04-26T08:30:11Z</time></trkpt><trkpt lat="39.40412315241175" lon="9.199329207450686"><ele>249.5</ele><time>2026-04-26T08:30:12Z</time></trkpt><trkpt lat="39.40423917644491" lon="9.199407600828701"><ele>249.75</ele><time>2026-04-26T08:30:13Z</time></trkpt><trkpt lat="39.40435093698355" lon="9.199474384943779"><ele>250.0</ele><time>2026-04-26T08:30:14Z</time></trkpt><trkpt lat="39.40445944521273" lon="9.199550131090405"><ele>250.0</ele><time>2026-04-26T08:30:15Z</time></trkpt><trkpt lat="39.40456850132863" lon="9.199635287264199"><ele>250.0</ele><time>2026-04-26T08:30:16Z</time></trkpt><trkpt lat="39.40468053191964" lon="9.199715917006714"><ele>250.0</ele><time>2026-04-26T08:30:17Z</time></trkpt><trkpt lat="39.40478974446744" lon="9.199803410578154"><ele>250.0</ele><time>2026-04-26T08:30:18Z</time></trkpt><trkpt lat="39.4048994456525" lon="9.199895152379606"><ele>252.25</ele><time>2026-04-26T08:30:19Z</time></trkpt><trkpt lat="39.40500408157847" lon="9.199986565598808"><ele>254.5</ele><time>2026-04-26T08:30:20Z</time></trkpt><trkpt lat="39.4051080238942" lon="9.200073233066385"><ele>256.75</ele><time>2026-04-26T08:30:21Z</time></trkpt><trkpt lat="39.40521516952343" lon="9.20015546183733"><ele>259.0</ele><time>2026-04-26T08:30:22Z</time></trkpt><trkpt lat="39.40532544236386" lon="9.20023668133008"><ele>259.0</ele><time>2026-04-26T08:30:23Z</time></trkpt><trkpt lat="39.405435154880244" lon="9.200301382051512"><ele>259.0</ele><time>2026-04-26T08:30:24Z</time></trkpt><trkpt lat="39.4055425434737" lon="9.200356819953075"><ele>259.0</ele><time>2026-04-26T08:30:25Z</time></trkpt><trkpt lat="39.40566328388453" lon="9.200390551776186"><ele>259.0</ele><time>2026-04-26T08:30:26Z</time></trkpt><trkpt lat="39.405791106825525" lon="9.20040812432223"><ele>259.25</ele><time>2026-04-26T08:30:27Z</time></trkpt><trkpt lat="39.4059160689684" lon="9.200424815037854"><ele>259.5</ele><time>2026-04-26T08:30:28Z</time></trkpt><trkpt lat="39.40603631859357" lon="9.200428151369321"><ele>259.75</ele><time>2026-04-26T08:30:29Z</time></trkpt><trkpt lat="39.40614393303783" lon="9.20043778275605"><ele>260.0</ele><time>2026-04-26T08:30:30Z</time></trkpt><trkpt lat="39.40624658439046" lon="9.200450362568228"><ele>259.4</ele><time>2026-04-26T08:30:31Z</time></trkpt><trkpt lat="39.40634751043185" lon="9.200463709731212"><ele>258.8</ele><time>2026-04-26T08:30:32Z</time></trkpt><trkpt lat="39.40643733966575" lon="9.200477771914354"><ele>258.2</ele><time>2026-04-26T08:30:33Z</time></trkpt><trkpt lat="39.40652687693086" lon="9.200497127067077"><ele>257.6</ele><time>2026-04-26T08:30:34Z</time></trkpt><trkpt lat="39.40662804913446" lon="9.200519724717045"><ele>257.0</ele><time>2026-04-26T08:30:35Z</time></trkpt><trkpt lat="39.40674389491477" lon="9.200581871897594"><ele>257.0</ele><time>2026-04-26T08:30:36Z</time></trkpt><trkpt lat="39.406857149416936" lon="9.20066425262231"><ele>257.0</ele><time>2026-04-26T08:30:37Z</time></trkpt><trkpt lat="39.40696973994852" lon="9.200762287842924"><ele>257.0</ele><time>2026-04-26T08:30:38Z</time></trkpt><trkpt lat="39.40707625452529" lon="9.200851531877385"><ele>257.0</ele><time>2026-04-26T08:30:39Z</time></trkpt><trkpt lat="39.40717433634374" lon="9.20093696262453"><ele>255.5</ele><time>2026-04-26T08:30:40Z</time></trkpt><trkpt lat="39.40727745870655" lon="9.20102455734181"><ele>254.0</ele><time>2026-04-26T08:30:41Z</time></trkpt><trkpt lat="39.40738001629757" lon="9.201111854729016"><ele>252.5</ele><time>2026-04-26T08:30:42Z</time></trkpt><trkpt lat="39.40748311755627" lon="9.201201409025927"><ele>251.0</ele><time>2026-04-26T08:30:43Z</time></trkpt><trkpt lat="39.40758366997885" lon="9.201283578421894"><ele>251.0</ele><time>2026-04-26T08:30:44Z</time></trkpt><trkpt lat="39.40767608671206" lon="9.201370584707629"><ele>251.00000000000003</ele><time>2026-04-26T08:30:45Z</time></trkpt><trkpt lat="39.407761863367064" lon="9.201451783521282"><ele>251.00000000000003</ele><time>2026-04-26T08:30:46Z</time></trkpt><trkpt lat="39.40783160817458" lon="9.201560891782503"><ele>251.0</ele><time>2026-04-26T08:30:47Z</time></trkpt><trkpt lat="39.407877710715645" lon="9.201675155117952"><ele>251.0</ele><time>2026-04-26T08:30:48Z</time></trkpt><trkpt lat="39.40789071923695" lon="9.201805894870919"><ele>252.0</ele><time>2026-04-26T08:30:49Z</time></trkpt><trkpt lat="39.40788692716868" lon="9.20194671811035"><ele>253.0</ele><time>2026-04-26T08:30:50Z</time></trkpt><trkpt lat="39.407876307755544" lon="9.202095560368033"><ele>254.0</ele><time>2026-04-26T08:30:51Z</time></trkpt><trkpt lat="39.40784900542643" lon="9.202249657079761"><ele>255.0</ele><time>2026-04-26T08:30:52Z</time></trkpt><trkpt lat="39.40780702587157" lon="9.202396199046444"><ele>255.25</ele><time>2026-04-26T08:30:53Z</time></trkpt><trkpt lat="39.407744980409134" lon="9.20253618736757"><ele>255.5</ele><time>2026-04-26T08:30:54Z</time></trkpt><trkpt lat="39.40767900201382" lon="9.202679706934955"><ele>255.75</ele><time>2026-04-26T08:30:55Z</time></trkpt><trkpt lat="39.40762375115148" lon="9.202811231591568"><ele>256.0</ele><time>2026-04-26T08:30:56Z</time></trkpt><trkpt lat="39.40757361512457" lon="9.20293557687148"><ele>256.0</ele><time>2026-04-26T08:30:57Z</time></trkpt><trkpt lat="39.40752214871739" lon="9.203062143932435"><ele>256.0</ele><time>2026-04-26T08:30:58Z</time></trkpt><trkpt lat="39.40746737897108" lon="9.20319033446512"><ele>256.0</ele><time>2026-04-26T08:30:59Z</time></trkpt><trkpt lat="39.40741707655207" lon="9.20331530541576"><ele>256.0</ele><time>2026-04-26T08:31:00Z</time></trkpt><trkpt lat="39.407387112913234" lon="9.203434928595707"><ele>256.0</ele><time>2026-04-26T08:31:01Z</time></trkpt><trkpt lat="39.40738174526037" lon="9.203568841660918"><ele>255.4</ele><time>2026-04-26T08:31:02Z</time></trkpt><trkpt lat="39.407400300048984" lon="9.203711132893737"><ele>254.8</ele><time>2026-04-26T08:31:03Z</time></trkpt><trkpt lat="39.40743156236562" lon="9.203853187009543"><ele>254.20000000000002</ele><time>2026-04-26T08:31:04Z</time></trkpt><trkpt lat="39.407452138528726" lon="9.203990125898939"><ele>253.60000000000002</ele><time>2026-04-26T08:31:05Z</time></trkpt><trkpt lat="39.407466984106186" lon="9.204126775580832"><ele>253.0</ele><time>2026-04-26T08:31:06Z</time></trkpt><trkpt lat="39.40746881318909" lon="9.20426972474358"><ele>253.0</ele><time>2026-04-26T08:31:07Z</time></trkpt><trkpt lat="39.40744903282525" lon="9.204414973196066"><ele>253.0</ele><time>2026-04-26T08:31:08Z</time></trkpt><trkpt lat="39.407423467785684" lon="9.204564259350414"><ele>253.0</ele><time>2026-04-26T08:31:09Z</time></trkpt><trkpt lat="39.40740049336609" lon="9.204716535315919"><ele>253.0</ele><time>2026-04-26T08:31:10Z</time></trkpt><trkpt lat="39.407379889098614" lon="9.204864206427722"><ele>253.0</ele><time>2026-04-26T08:31:11Z</time></trkpt><trkpt lat="39.40735557107874" lon="9.205006547354577"><ele>253.0</ele><time>2026-04-26T08:31:12Z</time></trkpt><trkpt lat="39.40733275885804" lon="9.205148349649097"><ele>253.0</ele><time>2026-04-26T08:31:13Z</time></trkpt><trkpt lat="39.40731357869553" lon="9.20529211781114"><ele>253.0</ele><time>2026-04-26T08:31:14Z</time></trkpt><trkpt lat="39.40729124697381" lon="9.205441199951272"><ele>253.0</ele><time>2026-04-26T08:31:15Z</time></trkpt><trkpt lat="39.40727531329119" lon="9.205593438166913"><ele>253.0</ele><time>2026-04-26T08:31:16Z</time></trkpt><trkpt lat="39.40726674439761" lon="9.205745057617518"><ele>253.0</ele><time>2026-04-26T08:31:17Z</time></trkpt><trkpt lat="39.407281008225766" lon="9.20588764624079"><ele>253.0</ele><time>2026-04-26T08:31:18Z</time></trkpt><trkpt lat="39.407287407852024" lon="9.206031469253256"><ele>253.60000000000002</ele><time>2026-04-26T08:31:19Z</time></trkpt><trkpt lat="39.40729554564314" lon="9.206175717926856"><ele>254.20000000000002</ele><time>2026-04-26T08:31:20Z</time></trkpt><trkpt lat="39.40729879918519" lon="9.206299085108736"><ele>254.8</ele><time>2026-04-26T08:31:21Z</time></trkpt><trkpt lat="39.40729015112772" lon="9.206420662936084"><ele>255.4</ele><time>2026-04-26T08:31:22Z</time></trkpt><trkpt lat="39.40728239460531" lon="9.206562048639409"><ele>256.0</ele><time>2026-04-26T08:31:23Z</time></trkpt><trkpt lat="39.40728304521577" lon="9.206707851026183"><ele>256.40000000000003</ele><time>2026-04-26T08:31:24Z</time></trkpt><trkpt lat="39.40727414041209" lon="9.206827425483757"><ele>256.8</ele><time>2026-04-26T08:31:25Z</time></trkpt><trkpt lat="39.40723833880185" lon="9.206945252754494"><ele>257.20000000000005</ele><time>2026-04-26T08:31:26Z</time></trkpt><trkpt lat="39.407228394859274" lon="9.20706852268939"><ele>257.6</ele><time>2026-04-26T08:31:27Z</time></trkpt><trkpt lat="39.407221119825074" lon="9.207181453907346"><ele>258.0</ele><time>2026-04-26T08:31:28Z</time></trkpt><trkpt lat="39.407225772003656" lon="9.207288853385911"><ele>257.8333333333333</ele><time>2026-04-26T08:31:29Z</time></trkpt><trkpt lat="39.40725999375359" lon="9.207396215297232"><ele>257.6666666666667</ele><time>2026-04-26T08:31:30Z</time></trkpt><trkpt lat="39.40722274783822" lon="9.207481579436147"><ele>257.5</ele><time>2026-04-26T08:31:31Z</time></trkpt><trkpt lat="39.40726301009344" lon="9.20757749441217"><ele>257.33333333333337</ele><time>2026-04-26T08:31:32Z</time></trkpt><trkpt lat="39.40732075430273" lon="9.207669790032336"><ele>257.1666666666667</ele><time>2026-04-26T08:31:33Z</time></trkpt><trkpt lat="39.40740863512956" lon="9.207742328421817"><ele>257.0</ele><time>2026-04-26T08:31:34Z</time></trkpt><trkpt lat="39.40750762452177" lon="9.207778965366787"><ele>257.0</ele><time>2026-04-26T08:31:35Z</time></trkpt><trkpt lat="39.40761500451963" lon="9.207779724172125"><ele>257.0</ele><time>2026-04-26T08:31:36Z</time></trkpt><trkpt lat="39.40771773565337" lon="9.20772434535306"><ele>257.0</ele><time>2026-04-26T08:31:37Z</time></trkpt><trkpt lat="39.407814466842254" lon="9.20762881924694"><ele>257.0</ele><time>2026-04-26T08:31:38Z</time></trkpt><trkpt lat="39.40791488585064" lon="9.207523145881884"><ele>256.25</ele><time>2026-04-26T08:31:39Z</time></trkpt><trkpt lat="39.408017859749236" lon="9.207416842655107"><ele>255.5</ele><time>2026-04-26T08:31:40Z</time></trkpt><trkpt lat="39.408120630345316" lon="9.207308376361786"><ele>254.75</ele><time>2026-04-26T08:31:41Z</time></trkpt><trkpt lat="39.40822708902355" lon="9.207210006130381"><ele>254.0</ele><time>2026-04-26T08:31:42Z</time></trkpt><trkpt lat="39.40833187659144" lon="9.207118489756345"><ele>254.0</ele><time>2026-04-26T08:31:43Z</time></trkpt><trkpt lat="39.408415418303086" lon="9.207037236525023"><ele>253.99999999999997</ele><time>2026-04-26T08:31:44Z</time></trkpt><trkpt lat="39.40849692886043" lon="9.206966126061916"><ele>253.99999999999997</ele><time>2026-04-26T08:31:45Z</time></trkpt><trkpt lat="39.40858271990074" lon="9.206893498657466"><ele>254.0</ele><time>2026-04-26T08:31:46Z</time></trkpt><trkpt lat="39.408671173341126" lon="9.206813701176797"><ele>254.0</ele><time>2026-04-26T08:31:47Z</time></trkpt><trkpt lat="39.408763151531105" lon="9.206725988034849"><ele>254.75</ele><time>2026-04-26T08:31:48Z</time></trkpt><trkpt lat="39.40885878283865" lon="9.206642020454074"><ele>255.5</ele><time>2026-04-26T08:31:49Z</time></trkpt><trkpt lat="39.40895907295631" lon="9.206555030800153"><ele>256.25</ele><time>2026-04-26T08:31:50Z</time></trkpt><trkpt lat="39.40905819654261" lon="9.2064698248348"><ele>257.0</ele><time>2026-04-26T08:31:51Z</time></trkpt><trkpt lat="39.40915295188905" lon="9.206375534410277"><ele>257.0</ele><time>2026-04-26T08:31:52Z</time></trkpt><trkpt lat="39.40924596140271" lon="9.206292854751435"><ele>257.0</ele><time>2026-04-26T08:31:53Z</time></trkpt><trkpt lat="39.409317559846535" lon="9.206226874656247"><ele>257.0</ele><time>2026-04-26T08:31:54Z</time></trkpt><trkpt lat="39.40938661693584" lon="9.206185064826403"><ele>257.0</ele><time>2026-04-26T08:31:55Z</time></trkpt><trkpt lat="39.409455654989436" lon="9.206186439475568"><ele>257.0</ele><time>2026-04-26T08:31:56Z</time></trkpt><trkpt lat="39.40957604567512" lon="9.206261457041125"><ele>257.0</ele><time>2026-04-26T08:31:58Z</time></trkpt><trkpt lat="39.409635906976625" lon="9.206338924283958"><ele>257.0</ele><time>2026-04-26T08:31:59Z</time></trkpt><trkpt lat="39.40967514542173" lon="9.206447114158893"><ele>257.0</ele><time>2026-04-26T08:32:00Z</time></trkpt><trkpt lat="39.40969542199279" lon="9.206567371681817"><ele>257.0</ele><time>2026-04-26T08:32:01Z</time></trkpt><trkpt lat="39.40970873743585" lon="9.206700804646943"><ele>257.0</ele><time>2026-04-26T08:32:02Z</time></trkpt><trkpt lat="39.40972272176107" lon="9.20682453646026"><ele>258.75</ele><time>2026-04-26T08:32:03Z</time></trkpt><trkpt lat="39.40974385863229" lon="9.206958034977449"><ele>260.5</ele><time>2026-04-26T08:32:04Z</time></trkpt><trkpt lat="39.40976648662592" lon="9.207104262826668"><ele>262.25</ele><time>2026-04-26T08:32:05Z</time></trkpt><trkpt lat="39.409786294817685" lon="9.207262525504857"><ele>264.0</ele><time>2026-04-26T08:32:06Z</time></trkpt><trkpt lat="39.409808337861364" lon="9.207426431881878"><ele>265.2</ele><time>2026-04-26T08:32:07Z</time></trkpt><trkpt lat="39.40982883908187" lon="9.207584267832397"><ele>266.4</ele><time>2026-04-26T08:32:08Z</time></trkpt><trkpt lat="39.40984848910742" lon="9.207721950804952"><ele>267.6</ele><time>2026-04-26T08:32:09Z</time></trkpt><trkpt lat="39.40986501751661" lon="9.207843308969931"><ele>268.8</ele><time>2026-04-26T08:32:10Z</time></trkpt><trkpt lat="39.40988000019959" lon="9.207972468717552"><ele>270.0</ele><time>2026-04-26T08:32:11Z</time></trkpt><trkpt lat="39.4098775128347" lon="9.208097627523351"><ele>269.5</ele><time>2026-04-26T08:32:12Z</time></trkpt><trkpt lat="39.40984756439146" lon="9.208226666604629"><ele>269.0</ele><time>2026-04-26T08:32:13Z</time></trkpt><trkpt lat="39.40979197990315" lon="9.208359332659752"><ele>268.5</ele><time>2026-04-26T08:32:14Z</time></trkpt><trkpt lat="39.40971432675194" lon="9.208486355350649"><ele>268.0</ele><time>2026-04-26T08:32:15Z</time></trkpt><trkpt lat="39.40963580536304" lon="9.208620051223816"><ele>269.75</ele><time>2026-04-26T08:32:16Z</time></trkpt><trkpt lat="39.409561933956674" lon="9.20874596064372"><ele>271.5</ele><time>2026-04-26T08:32:17Z</time></trkpt><trkpt lat="39.40949472517154" lon="9.208860847389971"><ele>273.25</ele><time>2026-04-26T08:32:18Z</time></trkpt><trkpt lat="39.40940965724456" lon="9.208969595279816"><ele>275.0</ele><time>2026-04-26T08:32:19Z</time></trkpt><trkpt lat="39.40930574401918" lon="9.209059479347035"><ele>275.0</ele><time>2026-04-26T08:32:20Z</time></trkpt><trkpt lat="39.409183179388705" lon="9.209114689428288"><ele>275.0</ele><time>2026-04-26T08:32:21Z</time></trkpt><trkpt lat="39.40906062640865" lon="9.209167384376613"><ele>275.0</ele><time>2026-04-26T08:32:22Z</time></trkpt><trkpt lat="39.408960499323484" lon="9.20926182841409"><ele>275.0</ele><time>2026-04-26T08:32:23Z</time></trkpt><trkpt lat="39.40886677689747" lon="9.209371595979285"><ele>280.25</ele><time>2026-04-26T08:32:24Z</time></trkpt><trkpt lat="39.408786111478776" lon="9.209494349441888"><ele>285.5</ele><time>2026-04-26T08:32:25Z</time></trkpt><trkpt lat="39.40870123260031" lon="9.209618330002922"><ele>290.75</ele><time>2026-04-26T08:32:26Z</time></trkpt><trkpt lat="39.408619062653486" lon="9.209724525917425"><ele>296.0</ele><time>2026-04-26T08:32:27Z</time></trkpt><trkpt lat="39.40855072258309" lon="9.209822260023918"><ele>294.5</ele><time>2026-04-26T08:32:28Z</time></trkpt><trkpt lat="39.40848478822229" lon="9.209935438327799"><ele>293.0</ele><time>2026-04-26T08:32:29Z</time></trkpt><trkpt lat="39.408429323862244" lon="9.21006592417262"><ele>291.5</ele><time>2026-04-26T08:32:30Z</time></trkpt><trkpt lat="39.40836842243089" lon="9.210195581614805"><ele>290.0</ele><time>2026-04-26T08:32:31Z</time></trkpt><trkpt lat="39.40830573268768" lon="9.21033017204152"><ele>290.0</ele><time>2026-04-26T08:32:32Z</time></trkpt><trkpt lat="39.40824689799125" lon="9.210472868329228"><ele>290.0</ele><time>2026-04-26T08:32:33Z</time></trkpt><trkpt lat="39.4081934412319" lon="9.210617852278743"><ele>290.0</ele><time>2026-04-26T08:32:34Z</time></trkpt><trkpt lat="39.4081521412205" lon="9.210764971721728"><ele>290.0</ele><time>2026-04-26T08:32:35Z</time></trkpt><trkpt lat="39.408106352930695" lon="9.210903602885656"><ele>288.0</ele><time>2026-04-26T08:32:36Z</time></trkpt><trkpt lat="39.40807061157552" lon="9.211043685046278"><ele>286.0</ele><time>2026-04-26T08:32:37Z</time></trkpt><trkpt lat="39.408037237418945" lon="9.211185810744718"><ele>284.0</ele><time>2026-04-26T08:32:38Z</time></trkpt><trkpt lat="39.408003236370135" lon="9.211322916376693"><ele>282.0</ele><time>2026-04-26T08:32:39Z</time></trkpt><trkpt lat="39.407970225868056" lon="9.211449265628474"><ele>280.0</ele><time>2026-04-26T08:32:40Z</time></trkpt><trkpt lat="39.4079468069028" lon="9.21157065620263"><ele>279.4</ele><time>2026-04-26T08:32:41Z</time></trkpt><trkpt lat="39.40793902625761" lon="9.21170497535838"><ele>278.8</ele><time>2026-04-26T08:32:42Z</time></trkpt><trkpt lat="39.40795137119805" lon="9.211848724404613"><ele>278.2</ele><time>2026-04-26T08:32:43Z</time></trkpt><trkpt lat="39.40797917275589" lon="9.211993886970848"><ele>277.6</ele><time>2026-04-26T08:32:44Z</time></trkpt><trkpt lat="39.40801251590557" lon="9.21211932225555"><ele>277.0</ele><time>2026-04-26T08:32:45Z</time></trkpt><trkpt lat="39.40804450858533" lon="9.212232047011021"><ele>276.2</ele><time>2026-04-26T08:32:46Z</time></trkpt><trkpt lat="39.40806362677889" lon="9.212340326115118"><ele>275.4</ele><time>2026-04-26T08:32:47Z</time></trkpt><trkpt lat="39.40806532483263" lon="9.212462670996027"><ele>274.6</ele><time>2026-04-26T08:32:48Z</time></trkpt><trkpt lat="39.4080350147433" lon="9.21259194549167"><ele>273.8</ele><time>2026-04-26T08:32:49Z</time></trkpt><trkpt lat="39.40797702693931" lon="9.21271499961836"><ele>273.0</ele><time>2026-04-26T08:32:50Z</time></trkpt><trkpt lat="39.40788510526669" lon="9.212826343988503"><ele>275.25</ele><time>2026-04-26T08:32:51Z</time></trkpt><trkpt lat="39.407781529855576" lon="9.212923089030122"><ele>277.5</ele><time>2026-04-26T08:32:52Z</time></trkpt><trkpt lat="39.40767574452024" lon="9.213029531342196"><ele>279.75</ele><time>2026-04-26T08:32:53Z</time></trkpt><trkpt lat="39.407563712341705" lon="9.213143889997212"><ele>282.0</ele><time>2026-04-26T08:32:54Z</time></trkpt><trkpt lat="39.40745723852149" lon="9.213254367927643"><ele>282.0</ele><time>2026-04-26T08:32:55Z</time></trkpt><trkpt lat="39.40735539115443" lon="9.213365791500253"><ele>282.0</ele><time>2026-04-26T08:32:56Z</time></trkpt><trkpt lat="39.40726122763719" lon="9.213468310216278"><ele>282.0</ele><time>2026-04-26T08:32:57Z</time></trkpt><trkpt lat="39.40716866271324" lon="9.21356740708355"><ele>282.0</ele><time>2026-04-26T08:32:58Z</time></trkpt><trkpt lat="39.407077110662414" lon="9.213674346584925"><ele>282.5</ele><time>2026-04-26T08:32:59Z</time></trkpt><trkpt lat="39.406981767628956" lon="9.213780486779621"><ele>283.0</ele><time>2026-04-26T08:33:00Z</time></trkpt><trkpt lat="39.40688527891466" lon="9.213881643326244"><ele>283.5</ele><time>2026-04-26T08:33:01Z</time></trkpt><trkpt lat="39.406791670574506" lon="9.21398381906765"><ele>284.0</ele><time>2026-04-26T08:33:02Z</time></trkpt><trkpt lat="39.40669302563822" lon="9.214087568339586"><ele>284.0</ele><time>2026-04-26T08:33:03Z</time></trkpt><trkpt lat="39.40658791518686" lon="9.214176454328568"><ele>284.0</ele><time>2026-04-26T08:33:04Z</time></trkpt><trkpt lat="39.40648020558695" lon="9.21425867885114"><ele>284.0</ele><time>2026-04-26T08:33:05Z</time></trkpt><trkpt lat="39.40636232778664" lon="9.21431806067484"><ele>284.0</ele><time>2026-04-26T08:33:06Z</time></trkpt><trkpt lat="39.406253787769295" lon="9.214369431873974"><ele>289.75</ele><time>2026-04-26T08:33:07Z</time></trkpt><trkpt lat="39.40615218329834" lon="9.214425290966238"><ele>295.5</ele><time>2026-04-26T08:33:08Z</time></trkpt><trkpt lat="39.4060530712029" lon="9.21449698396344"><ele>301.25</ele><time>2026-04-26T08:33:09Z</time></trkpt><trkpt lat="39.40594625325232" lon="9.214569393976818"><ele>307.0</ele><time>2026-04-26T08:33:10Z</time></trkpt><trkpt lat="39.40585371012269" lon="9.214639590635985"><ele>307.0</ele><time>2026-04-26T08:33:11Z</time></trkpt><trkpt lat="39.405775252191326" lon="9.214703173383183"><ele>307.0</ele><time>2026-04-26T08:33:12Z</time></trkpt><trkpt lat="39.40570872235292" lon="9.214755503656733"><ele>307.0</ele><time>2026-04-26T08:33:13Z</time></trkpt><trkpt lat="39.405651124628335" lon="9.214820987603263"><ele>307.0</ele><time>2026-04-26T08:33:14Z</time></trkpt><trkpt lat="39.405606977195866" lon="9.214898485262474"><ele>307.0</ele><time>2026-04-26T08:33:15Z</time></trkpt><trkpt lat="39.40558082559749" lon="9.215004185982137"><ele>307.0</ele><time>2026-04-26T08:33:16Z</time></trkpt><trkpt lat="39.40558366489962" lon="9.215125684609964"><ele>302.2</ele><time>2026-04-26T08:33:17Z</time></trkpt><trkpt lat="39.40561543812497" lon="9.215251290790373"><ele>297.4</ele><time>2026-04-26T08:33:18Z</time></trkpt><trkpt lat="39.40567958830069" lon="9.215363943493122"><ele>292.6</ele><time>2026-04-26T08:33:19Z</time></trkpt><trkpt lat="39.40576994440484" lon="9.215454327502107"><ele>287.8</ele><time>2026-04-26T08:33:20Z</time></trkpt><trkpt lat="39.4058612378148" lon="9.215531337404185"><ele>283.0</ele><time>2026-04-26T08:33:21Z</time></trkpt><trkpt lat="39.40594251921268" lon="9.215611979113243"><ele>282.4</ele><time>2026-04-26T08:33:22Z</time></trkpt><trkpt lat="39.40602590208826" lon="9.215681042272301"><ele>281.8</ele><time>2026-04-26T08:33:23Z</time></trkpt><trkpt lat="39.40611965583453" lon="9.215717014274604"><ele>281.2</ele><time>2026-04-26T08:33:24Z</time></trkpt><trkpt lat="39.40622567997578" lon="9.215707299301414"><ele>280.6</ele><time>2026-04-26T08:33:25Z</time></trkpt><trkpt lat="39.40633752377771" lon="9.215671488851605"><ele>280.0</ele><time>2026-04-26T08:33:26Z</time></trkpt><trkpt lat="39.40645792508216" lon="9.215631444152747"><ele>279.0</ele><time>2026-04-26T08:33:27Z</time></trkpt><trkpt lat="39.40657881958806" lon="9.215587303167666"><ele>278.0</ele><time>2026-04-26T08:33:28Z</time></trkpt><trkpt lat="39.406713833418166" lon="9.215539604096739"><ele>277.0</ele><time>2026-04-26T08:33:29Z</time></trkpt><trkpt lat="39.40683975412996" lon="9.215494395731213"><ele>276.0</ele><time>2026-04-26T08:33:30Z</time></trkpt><trkpt lat="39.406958621844524" lon="9.21544342292569"><ele>276.0</ele><time>2026-04-26T08:33:31Z</time></trkpt><trkpt lat="39.40707008488258" lon="9.215380771194619"><ele>276.0</ele><time>2026-04-26T08:33:32Z</time></trkpt><trkpt lat="39.40718819014533" lon="9.215314291743526"><ele>276.0</ele><time>2026-04-26T08:33:33Z</time></trkpt><trkpt lat="39.40729695010349" lon="9.215243115467269"><ele>276.0</ele><time>2026-04-26T08:33:34Z</time></trkpt><trkpt lat="39.40740429637304" lon="9.215173466683124"><ele>277.25</ele><time>2026-04-26T08:33:35Z</time></trkpt><trkpt lat="39.407516918711494" lon="9.215113971597699"><ele>278.5</ele><time>2026-04-26T08:33:36Z</time></trkpt><trkpt lat="39.40762444641963" lon="9.215052462102033"><ele>279.75</ele><time>2026-04-26T08:33:37Z</time></trkpt><trkpt lat="39.40773149234995" lon="9.214990672650192"><ele>281.0</ele><time>2026-04-26T08:33:38Z</time></trkpt><trkpt lat="39.40784480455473" lon="9.214933410046394"><ele>281.0</ele><time>2026-04-26T08:33:39Z</time></trkpt><trkpt lat="39.407952574864474" lon="9.214874773251378"><ele>281.0</ele><time>2026-04-26T08:33:40Z</time></trkpt><trkpt lat="39.40804982434026" lon="9.21484450716638"><ele>281.0</ele><time>2026-04-26T08:33:41Z</time></trkpt><trkpt lat="39.408140675823454" lon="9.214822508098889"><ele>281.0</ele><time>2026-04-26T08:33:42Z</time></trkpt><trkpt lat="39.40823446210623" lon="9.214795700596223"><ele>281.0</ele><time>2026-04-26T08:33:43Z</time></trkpt><trkpt lat="39.40832593894058" lon="9.214731472603505"><ele>281.5</ele><time>2026-04-26T08:33:44Z</time></trkpt><trkpt lat="39.40839997735505" lon="9.214617878064495"><ele>282.0</ele><time>2026-04-26T08:33:45Z</time></trkpt><trkpt lat="39.40847077508246" lon="9.214488023517838"><ele>282.5</ele><time>2026-04-26T08:33:46Z</time></trkpt><trkpt lat="39.40853690102164" lon="9.214351302286659"><ele>283.0</ele><time>2026-04-26T08:33:47Z</time></trkpt><trkpt lat="39.408613475048696" lon="9.214219620218671"><ele>283.0</ele><time>2026-04-26T08:33:48Z</time></trkpt><trkpt lat="39.408694628853986" lon="9.214099351837719"><ele>283.0</ele><time>2026-04-26T08:33:49Z</time></trkpt><trkpt lat="39.40879299669944" lon="9.213991062549521"><ele>283.0</ele><time>2026-04-26T08:33:50Z</time></trkpt><trkpt lat="39.40890101938481" lon="9.213895849187793"><ele>283.0</ele><time>2026-04-26T08:33:51Z</time></trkpt><trkpt lat="39.40899754292379" lon="9.213807669942586"><ele>283.2</ele><time>2026-04-26T08:33:52Z</time></trkpt><trkpt lat="39.40908302140916" lon="9.213725599539579"><ele>283.4</ele><time>2026-04-26T08:33:53Z</time></trkpt><trkpt lat="39.409175647836456" lon="9.21364377679265"><ele>283.59999999999997</ele><time>2026-04-26T08:33:54Z</time></trkpt><trkpt lat="39.40927072811939" lon="9.213575986836897"><ele>283.8</ele><time>2026-04-26T08:33:55Z</time></trkpt><trkpt lat="39.40937150212742" lon="9.213542293854456"><ele>284.0</ele><time>2026-04-26T08:33:56Z</time></trkpt><trkpt lat="39.40948160066994" lon="9.213542230814644"><ele>284.0</ele><time>2026-04-26T08:33:57Z</time></trkpt><trkpt lat="39.40958863603416" lon="9.213581726900639"><ele>284.0</ele><time>2026-04-26T08:33:58Z</time></trkpt><trkpt lat="39.40969601496113" lon="9.21364437948156"><ele>284.0</ele><time>2026-04-26T08:33:59Z</time></trkpt><trkpt lat="39.40979741358188" lon="9.213716649472913"><ele>284.0</ele><time>2026-04-26T08:34:00Z</time></trkpt><trkpt lat="39.40989707319462" lon="9.213773166900276"><ele>284.2</ele><time>2026-04-26T08:34:01Z</time></trkpt><trkpt lat="39.40998114607427" lon="9.213831001396013"><ele>284.4</ele><time>2026-04-26T08:34:02Z</time></trkpt><trkpt lat="39.41005165367086" lon="9.213912233726369"><ele>284.6</ele><time>2026-04-26T08:34:03Z</time></trkpt><trkpt lat="39.410107660154644" lon="9.214030799500557"><ele>284.8</ele><time>2026-04-26T08:34:04Z</time></trkpt><trkpt lat="39.4101441398727" lon="9.214170899100361"><ele>285.0</ele><time>2026-04-26T08:34:05Z</time></trkpt><trkpt lat="39.41016949982797" lon="9.214319477853325"><ele>290.75</ele><time>2026-04-26T08:34:06Z</time></trkpt><trkpt lat="39.41019264973083" lon="9.21447397625765"><ele>296.5</ele><time>2026-04-26T08:34:07Z</time></trkpt><trkpt lat="39.41022272755786" lon="9.214625747618088"><ele>302.25</ele><time>2026-04-26T08:34:08Z</time></trkpt><trkpt lat="39.41025516963573" lon="9.21477740235779"><ele>308.0</ele><time>2026-04-26T08:34:09Z</time></trkpt><trkpt lat="39.410304856821114" lon="9.214918776408934"><ele>307.0</ele><time>2026-04-26T08:34:10Z</time></trkpt><trkpt lat="39.410371770618944" lon="9.215050584238705"><ele>306.0</ele><time>2026-04-26T08:34:11Z</time></trkpt><trkpt lat="39.41044420064235" lon="9.215175943094316"><ele>305.0</ele><time>2026-04-26T08:34:12Z</time></trkpt><trkpt lat="39.410518627925214" lon="9.215291508429393"><ele>304.0</ele><time>2026-04-26T08:34:13Z</time></trkpt><trkpt lat="39.410590256922085" lon="9.215422372249993"><ele>304.0</ele><time>2026-04-26T08:34:14Z</time></trkpt><trkpt lat="39.41066308478988" lon="9.215549761419952"><ele>304.0</ele><time>2026-04-26T08:34:15Z</time></trkpt><trkpt lat="39.41072836278117" lon="9.215683362431287"><ele>304.0</ele><time>2026-04-26T08:34:16Z</time></trkpt><trkpt lat="39.41078652937382" lon="9.215805078083335"><ele>304.0</ele><time>2026-04-26T08:34:17Z</time></trkpt><trkpt lat="39.41084636222286" lon="9.215920543026114"><ele>307.0</ele><time>2026-04-26T08:34:18Z</time></trkpt><trkpt lat="39.41090151180606" lon="9.216047538939911"><ele>310.0</ele><time>2026-04-26T08:34:19Z</time></trkpt><trkpt lat="39.41096083516537" lon="9.216168935662381"><ele>313.0</ele><time>2026-04-26T08:34:20Z</time></trkpt><trkpt lat="39.411022039170916" lon="9.216292708164433"><ele>316.0</ele><time>2026-04-26T08:34:21Z</time></trkpt><trkpt lat="39.411085396772144" lon="9.216424162172348"><ele>320.5</ele><time>2026-04-26T08:34:22Z</time></trkpt><trkpt lat="39.41114793747649" lon="9.216558963842713"><ele>325.0</ele><time>2026-04-26T08:34:23Z</time></trkpt><trkpt lat="39.41120021156036" lon="9.216684564979932"><ele>329.5</ele><time>2026-04-26T08:34:24Z</time></trkpt><trkpt lat="39.411248875139286" lon="9.216811797431719"><ele>334.0</ele><time>2026-04-26T08:34:25Z</time></trkpt><trkpt lat="39.41129532566013" lon="9.216943282838896"><ele>332.6</ele><time>2026-04-26T08:34:26Z</time></trkpt><trkpt lat="39.411343460692436" lon="9.217075782359604"><ele>331.2</ele><time>2026-04-26T08:34:27Z</time></trkpt><trkpt lat="39.41139189799706" lon="9.217202884059667"><ele>329.8</ele><time>2026-04-26T08:34:28Z</time></trkpt><trkpt lat="39.41144799551985" lon="9.217322764669756"><ele>328.40000000000003</ele><time>2026-04-26T08:34:29Z</time></trkpt><trkpt lat="39.41150753396109" lon="9.217444987910612"><ele>327.0</ele><time>2026-04-26T08:34:30Z</time></trkpt><trkpt lat="39.411569269388686" lon="9.217567656604702"><ele>327.0</ele><time>2026-04-26T08:34:31Z</time></trkpt><trkpt lat="39.41162237566037" lon="9.217670690057679"><ele>327.0</ele><time>2026-04-26T08:34:32Z</time></trkpt><trkpt lat="39.411668196673" lon="9.217766975805306"><ele>327.0</ele><time>2026-04-26T08:34:33Z</time></trkpt><trkpt lat="39.411718092700376" lon="9.217872009426223"><ele>327.0</ele><time>2026-04-26T08:34:34Z</time></trkpt><trkpt lat="39.411773557401986" lon="9.217971372437905"><ele>327.0</ele><time>2026-04-26T08:34:35Z</time></trkpt><trkpt lat="39.41183566959382" lon="9.218033794133817"><ele>327.0</ele><time>2026-04-26T08:34:36Z</time></trkpt><trkpt lat="39.41191349324684" lon="9.218073760721182"><ele>327.0</ele><time>2026-04-26T08:34:37Z</time></trkpt><trkpt lat="39.41198631253739" lon="9.218072104669982"><ele>327.0</ele><time>2026-04-26T08:34:38Z</time></trkpt><trkpt lat="39.412058770992054" lon="9.21805317061255"><ele>327.0</ele><time>2026-04-26T08:34:39Z</time></trkpt><trkpt lat="39.41213744625751" lon="9.218004398434388"><ele>327.0</ele><time>2026-04-26T08:34:40Z</time></trkpt><trkpt lat="39.412210442635136" lon="9.217940624013337"><ele>327.0</ele><time>2026-04-26T08:34:41Z</time></trkpt><trkpt lat="39.41228497533646" lon="9.217870971543439"><ele>328.6666666666667</ele><time>2026-04-26T08:34:42Z</time></trkpt><trkpt lat="39.41235150300728" lon="9.217806542456819"><ele>330.3333333333333</ele><time>2026-04-26T08:34:43Z</time></trkpt><trkpt lat="39.41240277806665" lon="9.217736536935565"><ele>332.0</ele><time>2026-04-26T08:34:44Z</time></trkpt><trkpt lat="39.41243385311575" lon="9.217639476196183"><ele>333.66666666666663</ele><time>2026-04-26T08:34:45Z</time></trkpt><trkpt lat="39.4124442168091" lon="9.217531020664108"><ele>335.3333333333333</ele><time>2026-04-26T08:34:46Z</time></trkpt><trkpt lat="39.41243978401401" lon="9.217403920143331"><ele>337.0</ele><time>2026-04-26T08:34:47Z</time></trkpt><trkpt lat="39.4124229580184" lon="9.217271840120839"><ele>338.5</ele><time>2026-04-26T08:34:48Z</time></trkpt><trkpt lat="39.412410522503535" lon="9.217142449490094"><ele>340.0</ele><time>2026-04-26T08:34:49Z</time></trkpt><trkpt lat="39.41239631394487" lon="9.216998140019971"><ele>341.5</ele><time>2026-04-26T08:34:50Z</time></trkpt><trkpt lat="39.412379761153616" lon="9.216846047250176"><ele>343.0</ele><time>2026-04-26T08:34:51Z</time></trkpt><trkpt lat="39.412348082841355" lon="9.2166870646284"><ele>343.0</ele><time>2026-04-26T08:34:52Z</time></trkpt><trkpt lat="39.4122983359648" lon="9.21653872924966"><ele>343.0</ele><time>2026-04-26T08:34:53Z</time></trkpt><trkpt lat="39.4122628754578" lon="9.216401097771284"><ele>343.0</ele><time>2026-04-26T08:34:54Z</time></trkpt><trkpt lat="39.41220821061187" lon="9.21628206181296"><ele>343.0</ele><time>2026-04-26T08:34:55Z</time></trkpt><trkpt lat="39.412178786876495" lon="9.216144380052095"><ele>337.0</ele><time>2026-04-26T08:34:56Z</time></trkpt><trkpt lat="39.412136165855806" lon="9.216010216086753"><ele>331.0</ele><time>2026-04-26T08:34:57Z</time></trkpt><trkpt lat="39.41208219777929" lon="9.21588164658589"><ele>325.0</ele><time>2026-04-26T08:34:58Z</time></trkpt><trkpt lat="39.41205613031442" lon="9.215737901596668"><ele>319.0</ele><time>2026-04-26T08:34:59Z</time></trkpt><trkpt lat="39.412039222006364" lon="9.21559335615845"><ele>319.0</ele><time>2026-04-26T08:35:00Z</time></trkpt><trkpt lat="39.412033100068584" lon="9.2154377369309"><ele>319.0</ele><time>2026-04-26T08:35:01Z</time></trkpt><trkpt lat="39.41202018428096" lon="9.215287152484802"><ele>319.0</ele><time>2026-04-26T08:35:02Z</time></trkpt><trkpt lat="39.412011938783365" lon="9.21513095872857"><ele>319.0</ele><time>2026-04-26T08:35:03Z</time></trkpt><trkpt lat="39.41200757108842" lon="9.214977981635492"><ele>319.0</ele><time>2026-04-26T08:35:04Z</time></trkpt><trkpt lat="39.41199924218881" lon="9.214832514921937"><ele>319.0</ele><time>2026-04-26T08:35:05Z</time></trkpt><trkpt lat="39.411998629379525" lon="9.214710218176025"><ele>319.0</ele><time>2026-04-26T08:35:06Z</time></trkpt><trkpt lat="39.412017590784956" lon="9.214585897540593"><ele>319.0</ele><time>2026-04-26T08:35:07Z</time></trkpt><trkpt lat="39.41207167607108" lon="9.214472958346073"><ele>319.0</ele><time>2026-04-26T08:35:08Z</time></trkpt><trkpt lat="39.412136730002224" lon="9.214377858190055"><ele>323.2</ele><time>2026-04-26T08:35:09Z</time></trkpt><trkpt lat="39.41223726473088" lon="9.214334423701471"><ele>327.4</ele><time>2026-04-26T08:35:10Z</time></trkpt><trkpt lat="39.412351460596234" lon="9.214337913534086"><ele>331.6</ele><time>2026-04-26T08:35:11Z</time></trkpt><trkpt lat="39.41245276063473" lon="9.21436332814772"><ele>335.8</ele><time>2026-04-26T08:35:12Z</time></trkpt><trkpt lat="39.412556400535195" lon="9.214399960994765"><ele>340.0</ele><time>2026-04-26T08:35:13Z</time></trkpt><trkpt lat="39.41266277392909" lon="9.2144203803767"><ele>340.0</ele><time>2026-04-26T08:35:14Z</time></trkpt><trkpt lat="39.41277518969696" lon="9.21445106696089"><ele>340.0</ele><time>2026-04-26T08:35:15Z</time></trkpt><trkpt lat="39.41288854944941" lon="9.21446732183918"><ele>340.0</ele><time>2026-04-26T08:35:16Z</time></trkpt><trkpt lat="39.413006373912864" lon="9.214465749428502"><ele>340.0</ele><time>2026-04-26T08:35:17Z</time></trkpt><trkpt lat="39.41310514820842" lon="9.21447793381094"><ele>340.0</ele><time>2026-04-26T08:35:18Z</time></trkpt><trkpt lat="39.41320864689784" lon="9.214480823101319"><ele>341.8</ele><time>2026-04-26T08:35:19Z</time></trkpt><trkpt lat="39.41332063284753" lon="9.21443114861337"><ele>343.6</ele><time>2026-04-26T08:35:20Z</time></trkpt><trkpt lat="39.413424906022826" lon="9.214426946846421"><ele>345.4</ele><time>2026-04-26T08:35:21Z</time></trkpt><trkpt lat="39.41350989012176" lon="9.214459533566863"><ele>347.2</ele><time>2026-04-26T08:35:22Z</time></trkpt><trkpt lat="39.41358600730474" lon="9.214504764953794"><ele>349.0</ele><time>2026-04-26T08:35:23Z</time></trkpt><trkpt lat="39.413659252485424" lon="9.21458926447076"><ele>349.0</ele><time>2026-04-26T08:35:24Z</time></trkpt><trkpt lat="39.41370531319059" lon="9.21470302801538"><ele>349.0</ele><time>2026-04-26T08:35:25Z</time></trkpt><trkpt lat="39.413766842140305" lon="9.214814256101935"><ele>349.0</ele><time>2026-04-26T08:35:26Z</time></trkpt><trkpt lat="39.413836513415525" lon="9.214882186551653"><ele>349.0</ele><time>2026-04-26T08:35:27Z</time></trkpt><trkpt lat="39.413907447373084" lon="9.2149396206181"><ele>349.0</ele><time>2026-04-26T08:35:28Z</time></trkpt><trkpt lat="39.4139945285622" lon="9.214965305273118"><ele>352.6</ele><time>2026-04-26T08:35:29Z</time></trkpt><trkpt lat="39.4140863480229" lon="9.214937093645558"><ele>356.2</ele><time>2026-04-26T08:35:30Z</time></trkpt><trkpt lat="39.41416551484145" lon="9.214855421874736"><ele>359.8</ele><time>2026-04-26T08:35:31Z</time></trkpt><trkpt lat="39.41421378105715" lon="9.214734060042034"><ele>363.40000000000003</ele><time>2026-04-26T08:35:32Z</time></trkpt><trkpt lat="39.41424198702013" lon="9.214594756374733"><ele>367.0</ele><time>2026-04-26T08:35:33Z</time></trkpt><trkpt lat="39.41424580418956" lon="9.214444743224648"><ele>367.0</ele><time>2026-04-26T08:35:34Z</time></trkpt><trkpt lat="39.414230318731434" lon="9.214290085648313"><ele>367.0</ele><time>2026-04-26T08:35:35Z</time></trkpt><trkpt lat="39.414214590567546" lon="9.214129613872194"><ele>367.0</ele><time>2026-04-26T08:35:36Z</time></trkpt><trkpt lat="39.41422822245376" lon="9.213967897299026"><ele>367.0</ele><time>2026-04-26T08:35:37Z</time></trkpt><trkpt lat="39.414247838522" lon="9.21379912733039"><ele>367.0</ele><time>2026-04-26T08:35:38Z</time></trkpt><trkpt lat="39.41426184273854" lon="9.213632420165544"><ele>367.0</ele><time>2026-04-26T08:35:39Z</time></trkpt><trkpt lat="39.414278082909675" lon="9.213480529732381"><ele>367.0</ele><time>2026-04-26T08:35:40Z</time></trkpt><trkpt lat="39.41431121035557" lon="9.21337245474591"><ele>367.0</ele><time>2026-04-26T08:35:41Z</time></trkpt><trkpt lat="39.41434309367427" lon="9.21327615283472"><ele>367.0</ele><time>2026-04-26T08:35:42Z</time></trkpt><trkpt lat="39.414412592787386" lon="9.213210808506918"><ele>367.0</ele><time>2026-04-26T08:35:43Z</time></trkpt><trkpt lat="39.414495551445874" lon="9.213157522610844"><ele>367.0</ele><time>2026-04-26T08:35:44Z</time></trkpt><trkpt lat="39.41459373496871" lon="9.21315530054411"><ele>367.0</ele><time>2026-04-26T08:35:45Z</time></trkpt><trkpt lat="39.41469413803607" lon="9.213190863456894"><ele>367.0</ele><time>2026-04-26T08:35:46Z</time></trkpt><trkpt lat="39.41478415718271" lon="9.213277696710865"><ele>367.0</ele><time>2026-04-26T08:35:47Z</time></trkpt><trkpt lat="39.41488419572731" lon="9.213371495417855"><ele>369.0</ele><time>2026-04-26T08:35:48Z</time></trkpt><trkpt lat="39.41498414803207" lon="9.213441466339807"><ele>371.0</ele><time>2026-04-26T08:35:49Z</time></trkpt><trkpt lat="39.41505612696323" lon="9.213498921711102"><ele>373.0</ele><time>2026-04-26T08:35:50Z</time></trkpt><trkpt lat="39.41514766516085" lon="9.213525319776922"><ele>375.0</ele><time>2026-04-26T08:35:51Z</time></trkpt><trkpt lat="39.41525163108678" lon="9.213488984085611"><ele>377.0</ele><time>2026-04-26T08:35:52Z</time></trkpt><trkpt lat="39.41535066931009" lon="9.213422124847654"><ele>377.0</ele><time>2026-04-26T08:35:53Z</time></trkpt><trkpt lat="39.41545047998986" lon="9.213341352319047"><ele>377.0</ele><time>2026-04-26T08:35:54Z</time></trkpt><trkpt lat="39.41555192822669" lon="9.213238344302026"><ele>377.0</ele><time>2026-04-26T08:35:55Z</time></trkpt><trkpt lat="39.41565483397716" lon="9.213139108936279"><ele>377.0</ele><time>2026-04-26T08:35:56Z</time></trkpt><trkpt lat="39.4157448039245" lon="9.213053657941874"><ele>374.0</ele><time>2026-04-26T08:35:57Z</time></trkpt><trkpt lat="39.415828047090166" lon="9.212986367396114"><ele>371.0</ele><time>2026-04-26T08:35:58Z</time></trkpt><trkpt lat="39.415925895730496" lon="9.212938944659074"><ele>368.0</ele><time>2026-04-26T08:35:59Z</time></trkpt><trkpt lat="39.41603309325946" lon="9.212963605645761"><ele>365.0</ele><time>2026-04-26T08:36:00Z</time></trkpt><trkpt lat="39.41615260191062" lon="9.212987871148206"><ele>362.0</ele><time>2026-04-26T08:36:01Z</time></trkpt><trkpt lat="39.416260087645696" lon="9.213063002786114"><ele>360.6</ele><time>2026-04-26T08:36:02Z</time></trkpt><trkpt lat="39.416366274098365" lon="9.2131365759425"><ele>359.20000000000005</ele><time>2026-04-26T08:36:03Z</time></trkpt><trkpt lat="39.41647257964811" lon="9.21319869343781"><ele>357.8</ele><time>2026-04-26T08:36:04Z</time></trkpt><trkpt lat="39.416561896427126" lon="9.213255219117007"><ele>356.4</ele><time>2026-04-26T08:36:05Z</time></trkpt><trkpt lat="39.41664006313619" lon="9.213346387052189"><ele>355.0</ele><time>2026-04-26T08:36:06Z</time></trkpt><trkpt lat="39.41670176192659" lon="9.213469004299277"><ele>361.5</ele><time>2026-04-26T08:36:07Z</time></trkpt><trkpt lat="39.41674795332321" lon="9.213606748661293"><ele>368.0</ele><time>2026-04-26T08:36:08Z</time></trkpt><trkpt lat="39.4167768006188" lon="9.21374970463035"><ele>374.5</ele><time>2026-04-26T08:36:09Z</time></trkpt><trkpt lat="39.41677589450624" lon="9.21389873803015"><ele>381.0</ele><time>2026-04-26T08:36:10Z</time></trkpt><trkpt lat="39.41671858375428" lon="9.214031906806607"><ele>383.5</ele><time>2026-04-26T08:36:11Z</time></trkpt><trkpt lat="39.41668198313454" lon="9.214185603390545"><ele>386.0</ele><time>2026-04-26T08:36:12Z</time></trkpt><trkpt lat="39.416624222695425" lon="9.214327591325024"><ele>388.5</ele><time>2026-04-26T08:36:13Z</time></trkpt><trkpt lat="39.41657649035595" lon="9.214476042249803"><ele>391.0</ele><time>2026-04-26T08:36:14Z</time></trkpt><trkpt lat="39.416524552161604" lon="9.214615155273968"><ele>391.0</ele><time>2026-04-26T08:36:15Z</time></trkpt><trkpt lat="39.41649222689055" lon="9.214729505241927"><ele>391.0</ele><time>2026-04-26T08:36:16Z</time></trkpt><trkpt lat="39.416479596310204" lon="9.214854068504389"><ele>391.0</ele><time>2026-04-26T08:36:17Z</time></trkpt><trkpt lat="39.41649291619353" lon="9.214993269496896"><ele>391.0</ele><time>2026-04-26T08:36:18Z</time></trkpt><trkpt lat="39.41651468238318" lon="9.215133725215235"><ele>391.0</ele><time>2026-04-26T08:36:19Z</time></trkpt><trkpt lat="39.41655020971242" lon="9.215269634193616"><ele>391.8</ele><time>2026-04-26T08:36:20Z</time></trkpt><trkpt lat="39.416594635116255" lon="9.215394845381672"><ele>392.6</ele><time>2026-04-26T08:36:21Z</time></trkpt><trkpt lat="39.41664540765035" lon="9.215494246497084"><ele>393.4</ele><time>2026-04-26T08:36:22Z</time></trkpt><trkpt lat="39.41672733766655" lon="9.215564827719264"><ele>394.2</ele><time>2026-04-26T08:36:23Z</time></trkpt><trkpt lat="39.416820181661016" lon="9.215617463133073"><ele>395.0</ele><time>2026-04-26T08:36:24Z</time></trkpt><trkpt lat="39.416924876495024" lon="9.21564092572928"><ele>395.0</ele><time>2026-04-26T08:36:25Z</time></trkpt><trkpt lat="39.4170389274775" lon="9.215635648540989"><ele>395.0</ele><time>2026-04-26T08:36:26Z</time></trkpt><trkpt lat="39.41714926813056" lon="9.21563337901227"><ele>395.0</ele><time>2026-04-26T08:36:27Z</time></trkpt><trkpt lat="39.417242233133585" lon="9.21567025119607"><ele>395.0</ele><time>2026-04-26T08:36:28Z</time></trkpt><trkpt lat="39.4173172850182" lon="9.215759623901054"><ele>395.0</ele><time>2026-04-26T08:36:29Z</time></trkpt><trkpt lat="39.417361704790935" lon="9.215893044116457"><ele>395.0</ele><time>2026-04-26T08:36:30Z</time></trkpt><trkpt lat="39.41737788944763" lon="9.21603680558603"><ele>395.0</ele><time>2026-04-26T08:36:31Z</time></trkpt><trkpt lat="39.41734566812972" lon="9.216190957299007"><ele>395.0</ele><time>2026-04-26T08:36:32Z</time></trkpt><trkpt lat="39.417333313107356" lon="9.216351537518932"><ele>395.0</ele><time>2026-04-26T08:36:33Z</time></trkpt><trkpt lat="39.41733025410391" lon="9.216486463930233"><ele>398.4</ele><time>2026-04-26T08:36:34Z</time></trkpt><trkpt lat="39.417371370176554" lon="9.216594808151923"><ele>401.8</ele><time>2026-04-26T08:36:35Z</time></trkpt><trkpt lat="39.41743959325533" lon="9.21668991629584"><ele>405.20000000000005</ele><time>2026-04-26T08:36:36Z</time></trkpt><trkpt lat="39.4175346449196" lon="9.21676262921637"><ele>408.6</ele><time>2026-04-26T08:36:37Z</time></trkpt><trkpt lat="39.41764444308212" lon="9.216799707885952"><ele>412.0</ele><time>2026-04-26T08:36:38Z</time></trkpt><trkpt lat="39.417755977411595" lon="9.216825058820346"><ele>412.0</ele><time>2026-04-26T08:36:39Z</time></trkpt><trkpt lat="39.41786695351176" lon="9.216852219259858"><ele>412.0</ele><time>2026-04-26T08:36:40Z</time></trkpt><trkpt lat="39.41797404217816" lon="9.21688169509383"><ele>412.0</ele><time>2026-04-26T08:36:41Z</time></trkpt><trkpt lat="39.41808046272985" lon="9.216919208735458"><ele>412.0</ele><time>2026-04-26T08:36:42Z</time></trkpt><trkpt lat="39.41818454741218" lon="9.216972724321177"><ele>412.0</ele><time>2026-04-26T08:36:43Z</time></trkpt><trkpt lat="39.4182776681145" lon="9.217052229541586"><ele>415.0</ele><time>2026-04-26T08:36:44Z</time></trkpt><trkpt lat="39.41835915841244" lon="9.217151506534323"><ele>418.0</ele><time>2026-04-26T08:36:45Z</time></trkpt><trkpt lat="39.418437737717944" lon="9.21726669968491"><ele>421.0</ele><time>2026-04-26T08:36:46Z</time></trkpt><trkpt lat="39.418498858947615" lon="9.217394417692368"><ele>424.0</ele><time>2026-04-26T08:36:47Z</time></trkpt><trkpt lat="39.41856570565198" lon="9.217513713349927"><ele>424.0</ele><time>2026-04-26T08:36:48Z</time></trkpt><trkpt lat="39.418633436576656" lon="9.217620414128461"><ele>424.0</ele><time>2026-04-26T08:36:49Z</time></trkpt><trkpt lat="39.418663849783265" lon="9.21773075732869"><ele>424.0</ele><time>2026-04-26T08:36:50Z</time></trkpt><trkpt lat="39.41866927219063" lon="9.21785223634047"><ele>424.0</ele><time>2026-04-26T08:36:51Z</time></trkpt><trkpt lat="39.418650107406734" lon="9.217989438172193"><ele>424.0</ele><time>2026-04-26T08:36:52Z</time></trkpt><trkpt lat="39.41858749249406" lon="9.218110623911889"><ele>426.2</ele><time>2026-04-26T08:36:53Z</time></trkpt><trkpt lat="39.41853492020974" lon="9.218245461153247"><ele>428.4</ele><time>2026-04-26T08:36:54Z</time></trkpt><trkpt lat="39.41848686831288" lon="9.218380844373767"><ele>430.6</ele><time>2026-04-26T08:36:55Z</time></trkpt><trkpt lat="39.41844052333143" lon="9.218502381637855"><ele>432.8</ele><time>2026-04-26T08:36:56Z</time></trkpt><trkpt lat="39.41840685600337" lon="9.218614592316978"><ele>435.0</ele><time>2026-04-26T08:36:57Z</time></trkpt><trkpt lat="39.418390759896816" lon="9.218736820866882"><ele>435.0</ele><time>2026-04-26T08:36:58Z</time></trkpt><trkpt lat="39.41838083739665" lon="9.218862532504131"><ele>435.0</ele><time>2026-04-26T08:36:59Z</time></trkpt><trkpt lat="39.418415835387044" lon="9.21898577970165"><ele>435.0</ele><time>2026-04-26T08:37:00Z</time></trkpt><trkpt lat="39.41847238125609" lon="9.219086057319153"><ele>435.0</ele><time>2026-04-26T08:37:01Z</time></trkpt><trkpt lat="39.41856644660826" lon="9.219170399397447"><ele>435.0</ele><time>2026-04-26T08:37:02Z</time></trkpt><trkpt lat="39.41867725869969" lon="9.219228912632333"><ele>435.75</ele><time>2026-04-26T08:37:03Z</time></trkpt><trkpt lat="39.418793584906965" lon="9.21924367492824"><ele>436.5</ele><time>2026-04-26T08:37:04Z</time></trkpt><trkpt lat="39.418909894985056" lon="9.219251626228653"><ele>437.25</ele><time>2026-04-26T08:37:05Z</time></trkpt><trkpt lat="39.41903061311585" lon="9.219246262060091"><ele>438.0</ele><time>2026-04-26T08:37:06Z</time></trkpt><trkpt lat="39.41915225264051" lon="9.219243491990863"><ele>436.79999999999995</ele><time>2026-04-26T08:37:07Z</time></trkpt><trkpt lat="39.41927480668609" lon="9.219242924286386"><ele>435.59999999999997</ele><time>2026-04-26T08:37:08Z</time></trkpt><trkpt lat="39.419379483358036" lon="9.219242640971217"><ele>434.40000000000003</ele><time>2026-04-26T08:37:09Z</time></trkpt><trkpt lat="39.419471795293475" lon="9.219252103049733"><ele>433.20000000000005</ele><time>2026-04-26T08:37:10Z</time></trkpt><trkpt lat="39.419567949617985" lon="9.219260442381351"><ele>432.0</ele><time>2026-04-26T08:37:11Z</time></trkpt><trkpt lat="39.419674873606304" lon="9.21926570111884"><ele>432.0</ele><time>2026-04-26T08:37:12Z</time></trkpt><trkpt lat="39.41978961823946" lon="9.219269460089494"><ele>432.00000000000006</ele><time>2026-04-26T08:37:13Z</time></trkpt><trkpt lat="39.419902406130035" lon="9.21927110397017"><ele>432.00000000000006</ele><time>2026-04-26T08:37:14Z</time></trkpt><trkpt lat="39.42000178279452" lon="9.21927823579901"><ele>432.0</ele><time>2026-04-26T08:37:15Z</time></trkpt><trkpt lat="39.42009155015209" lon="9.219269778212496"><ele>432.0</ele><time>2026-04-26T08:37:16Z</time></trkpt><trkpt lat="39.42018027708019" lon="9.219222752703093"><ele>432.0</ele><time>2026-04-26T08:37:17Z</time></trkpt><trkpt lat="39.42026016843176" lon="9.219143310651745"><ele>432.00000000000006</ele><time>2026-04-26T08:37:18Z</time></trkpt><trkpt lat="39.42034195320192" lon="9.219060509612053"><ele>432.00000000000006</ele><time>2026-04-26T08:37:19Z</time></trkpt><trkpt lat="39.420441016877376" lon="9.219025708370765"><ele>432.0</ele><time>2026-04-26T08:37:20Z</time></trkpt><trkpt lat="39.42054686728116" lon="9.219026621775361"><ele>432.0</ele><time>2026-04-26T08:37:21Z</time></trkpt><trkpt lat="39.420639757723464" lon="9.219097109105636"><ele>433.6</ele><time>2026-04-26T08:37:22Z</time></trkpt><trkpt lat="39.420744697891486" lon="9.219138680648351"><ele>435.20000000000005</ele><time>2026-04-26T08:37:23Z</time></trkpt><trkpt lat="39.42082980416018" lon="9.219195111017953"><ele>436.8</ele><time>2026-04-26T08:37:24Z</time></trkpt><trkpt lat="39.420927646445875" lon="9.219206550096942"><ele>438.4</ele><time>2026-04-26T08:37:25Z</time></trkpt><trkpt lat="39.42102522189362" lon="9.219188956416287"><ele>440.0</ele><time>2026-04-26T08:37:26Z</time></trkpt><trkpt lat="39.42110908412339" lon="9.219164360306733"><ele>439.99999999999994</ele><time>2026-04-26T08:37:27Z</time></trkpt><trkpt lat="39.42117418314272" lon="9.219127230637984"><ele>440.0</ele><time>2026-04-26T08:37:28Z</time></trkpt><trkpt lat="39.42123448096401" lon="9.219070845650792"><ele>440.0</ele><time>2026-04-26T08:37:29Z</time></trkpt><trkpt lat="39.421287619390455" lon="9.218977894658343"><ele>440.0</ele><time>2026-04-26T08:37:30Z</time></trkpt><trkpt lat="39.42131868604945" lon="9.21885001559124"><ele>439.99999999999994</ele><time>2026-04-26T08:37:31Z</time></trkpt><trkpt lat="39.42134559562447" lon="9.218717291449131"><ele>440.0</ele><time>2026-04-26T08:37:32Z</time></trkpt><trkpt lat="39.42137512186538" lon="9.218582762368449"><ele>437.6</ele><time>2026-04-26T08:37:33Z</time></trkpt><trkpt lat="39.421406595834675" lon="9.218445102726246"><ele>435.2</ele><time>2026-04-26T08:37:34Z</time></trkpt><trkpt lat="39.421429007104116" lon="9.218314677194906"><ele>432.79999999999995</ele><time>2026-04-26T08:37:35Z</time></trkpt><trkpt lat="39.42141299344504" lon="9.21817507556085"><ele>430.4</ele><time>2026-04-26T08:37:36Z</time></trkpt><trkpt lat="39.4213713569792" lon="9.218027501382512"><ele>428.0</ele><time>2026-04-26T08:37:37Z</time></trkpt><trkpt lat="39.42131185073375" lon="9.217881958229263"><ele>428.0</ele><time>2026-04-26T08:37:38Z</time></trkpt><trkpt lat="39.421250925406156" lon="9.217737315452586"><ele>428.0</ele><time>2026-04-26T08:37:39Z</time></trkpt><trkpt lat="39.42119796186098" lon="9.217602711470416"><ele>428.0</ele><time>2026-04-26T08:37:40Z</time></trkpt><trkpt lat="39.42115051796994" lon="9.217480986882094"><ele>428.0</ele><time>2026-04-26T08:37:41Z</time></trkpt><trkpt lat="39.42109992602888" lon="9.217365045858218"><ele>430.0</ele><time>2026-04-26T08:37:42Z</time></trkpt><trkpt lat="39.42105782965802" lon="9.217238332432538"><ele>431.99999999999994</ele><time>2026-04-26T08:37:43Z</time></trkpt><trkpt lat="39.42100513378034" lon="9.217116987277851"><ele>433.99999999999994</ele><time>2026-04-26T08:37:44Z</time></trkpt><trkpt lat="39.42095496140368" lon="9.216991807944304"><ele>436.0</ele><time>2026-04-26T08:37:45Z</time></trkpt><trkpt lat="39.42090858684637" lon="9.216867942448612"><ele>438.0</ele><time>2026-04-26T08:37:46Z</time></trkpt><trkpt lat="39.420869788218866" lon="9.216742794577762"><ele>438.0</ele><time>2026-04-26T08:37:47Z</time></trkpt><trkpt lat="39.42087003944969" lon="9.216600515067336"><ele>438.0</ele><time>2026-04-26T08:37:48Z</time></trkpt><trkpt lat="39.42086936196479" lon="9.216452336965398"><ele>438.0</ele><time>2026-04-26T08:37:49Z</time></trkpt><trkpt lat="39.420880017024764" lon="9.216301784004086"><ele>438.0</ele><time>2026-04-26T08:37:50Z</time></trkpt><trkpt lat="39.42089517189581" lon="9.216153340008667"><ele>437.79999999999995</ele><time>2026-04-26T08:37:51Z</time></trkpt><trkpt lat="39.420910728426314" lon="9.216009821233197"><ele>437.59999999999997</ele><time>2026-04-26T08:37:52Z</time></trkpt><trkpt lat="39.42093593759292" lon="9.215890573716687"><ele>437.40000000000003</ele><time>2026-04-26T08:37:53Z</time></trkpt><trkpt lat="39.42097164801521" lon="9.215779270073973"><ele>437.20000000000005</ele><time>2026-04-26T08:37:54Z</time></trkpt><trkpt lat="39.42106243912913" lon="9.215705798373719"><ele>437.0</ele><time>2026-04-26T08:37:55Z</time></trkpt><trkpt lat="39.421171443271724" lon="9.21568170061156"><ele>437.0</ele><time>2026-04-26T08:37:56Z</time></trkpt><trkpt lat="39.42128092039862" lon="9.215692595466559"><ele>437.00000000000006</ele><time>2026-04-26T08:37:57Z</time></trkpt><trkpt lat="39.421375718813664" lon="9.215765620436722"><ele>437.00000000000006</ele><time>2026-04-26T08:37:58Z</time></trkpt><trkpt lat="39.42144242401078" lon="9.215878193973133"><ele>437.0</ele><time>2026-04-26T08:37:59Z</time></trkpt><trkpt lat="39.421478166458186" lon="9.216013465645172"><ele>437.0</ele><time>2026-04-26T08:38:00Z</time></trkpt><trkpt lat="39.42148599003406" lon="9.216163282329857"><ele>437.25</ele><time>2026-04-26T08:38:01Z</time></trkpt><trkpt lat="39.421489576779976" lon="9.216314093720532"><ele>437.5</ele><time>2026-04-26T08:38:02Z</time></trkpt><trkpt lat="39.421521013854225" lon="9.216457226008124"><ele>437.75</ele><time>2026-04-26T08:38:03Z</time></trkpt><trkpt lat="39.42158267652165" lon="9.216591556406193"><ele>438.0</ele><time>2026-04-26T08:38:04Z</time></trkpt><trkpt lat="39.42165548050834" lon="9.216715558056663"><ele>441.0</ele><time>2026-04-26T08:38:05Z</time></trkpt><trkpt lat="39.42173203927975" lon="9.216834101860576"><ele>444.0</ele><time>2026-04-26T08:38:06Z</time></trkpt><trkpt lat="39.42180716596878" lon="9.216951933385166"><ele>447.0</ele><time>2026-04-26T08:38:07Z</time></trkpt><trkpt lat="39.42188453925446" lon="9.217074346067553"><ele>450.0</ele><time>2026-04-26T08:38:08Z</time></trkpt><trkpt lat="39.42196452293873" lon="9.217199171078947"><ele>450.25</ele><time>2026-04-26T08:38:09Z</time></trkpt><trkpt lat="39.42204107617337" lon="9.217325157097651"><ele>450.5</ele><time>2026-04-26T08:38:10Z</time></trkpt><trkpt lat="39.42211835260234" lon="9.217442962016504"><ele>450.75</ele><time>2026-04-26T08:38:11Z</time></trkpt><trkpt lat="39.42219556885584" lon="9.217568102365794"><ele>451.0</ele><time>2026-04-26T08:38:12Z</time></trkpt><trkpt lat="39.42227600211516" lon="9.217687101750737"><ele>451.0</ele><time>2026-04-26T08:38:13Z</time></trkpt><trkpt lat="39.42235288045392" lon="9.217811860971551"><ele>451.0</ele><time>2026-04-26T08:38:14Z</time></trkpt><trkpt lat="39.42242783964343" lon="9.217935000617562"><ele>451.0</ele><time>2026-04-26T08:38:15Z</time></trkpt><trkpt lat="39.42250578995286" lon="9.218057139956205"><ele>451.0</ele><time>2026-04-26T08:38:16Z</time></trkpt><trkpt lat="39.422583102633006" lon="9.218187717604723"><ele>455.0</ele><time>2026-04-26T08:38:17Z</time></trkpt><trkpt lat="39.42265987549333" lon="9.218316737201627"><ele>459.0</ele><time>2026-04-26T08:38:18Z</time></trkpt><trkpt lat="39.422732063382576" lon="9.218429781429549"><ele>463.0</ele><time>2026-04-26T08:38:19Z</time></trkpt><trkpt lat="39.422792242296914" lon="9.218526900898674"><ele>467.0</ele><time>2026-04-26T08:38:20Z</time></trkpt><trkpt lat="39.42284761462696" lon="9.21861850504827"><ele>471.0</ele><time>2026-04-26T08:38:21Z</time></trkpt><trkpt lat="39.42291121712094" lon="9.218716466587816"><ele>468.8</ele><time>2026-04-26T08:38:22Z</time></trkpt><trkpt lat="39.42299051555427" lon="9.218807628149259"><ele>466.6</ele><time>2026-04-26T08:38:23Z</time></trkpt><trkpt lat="39.42308504130083" lon="9.218872382004939"><ele>464.4</ele><time>2026-04-26T08:38:24Z</time></trkpt><trkpt lat="39.42319354687176" lon="9.218919968046269"><ele>462.2</ele><time>2026-04-26T08:38:25Z</time></trkpt><trkpt lat="39.42330753086998" lon="9.218953838792505"><ele>460.0</ele><time>2026-04-26T08:38:26Z</time></trkpt><trkpt lat="39.42342334380259" lon="9.219001621361944"><ele>464.5</ele><time>2026-04-26T08:38:27Z</time></trkpt><trkpt lat="39.4235381026638" lon="9.219051519031032"><ele>469.0</ele><time>2026-04-26T08:38:28Z</time></trkpt><trkpt lat="39.423650573034124" lon="9.219101363102412"><ele>473.5</ele><time>2026-04-26T08:38:29Z</time></trkpt><trkpt lat="39.42376458025005" lon="9.219152279899674"><ele>478.0</ele><time>2026-04-26T08:38:30Z</time></trkpt><trkpt lat="39.42387815105989" lon="9.219199341717403"><ele>478.0</ele><time>2026-04-26T08:38:31Z</time></trkpt><trkpt lat="39.423990190957475" lon="9.21925170153458"><ele>478.0</ele><time>2026-04-26T08:38:32Z</time></trkpt><trkpt lat="39.42409842934706" lon="9.219328132186293"><ele>478.0</ele><time>2026-04-26T08:38:33Z</time></trkpt><trkpt lat="39.42420170520237" lon="9.219405786069412"><ele>478.0</ele><time>2026-04-26T08:38:34Z</time></trkpt><trkpt lat="39.424304614559944" lon="9.219489512365483"><ele>478.0</ele><time>2026-04-26T08:38:35Z</time></trkpt><trkpt lat="39.42441289501547" lon="9.219570730139925"><ele>478.0</ele><time>2026-04-26T08:38:36Z</time></trkpt><trkpt lat="39.4245167166454" lon="9.219667848223152"><ele>478.0</ele><time>2026-04-26T08:38:37Z</time></trkpt><trkpt lat="39.42462088060127" lon="9.21975796924877"><ele>478.0</ele><time>2026-04-26T08:38:38Z</time></trkpt><trkpt lat="39.4247187075631" lon="9.219845818535898"><ele>480.79999999999995</ele><time>2026-04-26T08:38:39Z</time></trkpt><trkpt lat="39.42480847276221" lon="9.219918811167192"><ele>483.59999999999997</ele><time>2026-04-26T08:38:40Z</time></trkpt><trkpt lat="39.424892017164545" lon="9.2199917748212"><ele>486.40000000000003</ele><time>2026-04-26T08:38:41Z</time></trkpt><trkpt lat="39.424973528368916" lon="9.220084767602787"><ele>489.20000000000005</ele><time>2026-04-26T08:38:42Z</time></trkpt><trkpt lat="39.42504171997291" lon="9.220204540626682"><ele>492.0</ele><time>2026-04-26T08:38:43Z</time></trkpt><trkpt lat="39.425095895784764" lon="9.220327593935888"><ele>492.0</ele><time>2026-04-26T08:38:44Z</time></trkpt><trkpt lat="39.42513864622896" lon="9.220463856058954"><ele>492.0</ele><time>2026-04-26T08:38:45Z</time></trkpt><trkpt lat="39.425168049695685" lon="9.220612204373401"><ele>492.0</ele><time>2026-04-26T08:38:46Z</time></trkpt><trkpt lat="39.42520200034844" lon="9.220757812608896"><ele>492.0</ele><time>2026-04-26T08:38:47Z</time></trkpt><trkpt lat="39.42524201598497" lon="9.220896312075647"><ele>495.25</ele><time>2026-04-26T08:38:48Z</time></trkpt><trkpt lat="39.42527957179351" lon="9.22103734389415"><ele>498.5</ele><time>2026-04-26T08:38:49Z</time></trkpt><trkpt lat="39.42532214349292" lon="9.221181289963576"><ele>501.75</ele><time>2026-04-26T08:38:50Z</time></trkpt><trkpt lat="39.42536327114407" lon="9.221329947821186"><ele>505.0</ele><time>2026-04-26T08:38:51Z</time></trkpt><trkpt lat="39.42540647138128" lon="9.221483878122928"><ele>506.2</ele><time>2026-04-26T08:38:52Z</time></trkpt><trkpt lat="39.42544737879266" lon="9.221638998289055"><ele>507.4</ele><time>2026-04-26T08:38:53Z</time></trkpt><trkpt lat="39.42548670989116" lon="9.221774924582386"><ele>508.6</ele><time>2026-04-26T08:38:54Z</time></trkpt><trkpt lat="39.42552286911654" lon="9.221891998326019"><ele>509.8</ele><time>2026-04-26T08:38:55Z</time></trkpt><trkpt lat="39.42555719341591" lon="9.222016971629293"><ele>511.0</ele><time>2026-04-26T08:38:56Z</time></trkpt><trkpt lat="39.42559489808208" lon="9.222154818642917"><ele>511.0</ele><time>2026-04-26T08:38:57Z</time></trkpt><trkpt lat="39.425630042321245" lon="9.222294433628607"><ele>511.0</ele><time>2026-04-26T08:38:58Z</time></trkpt><trkpt lat="39.425670651852904" lon="9.222437821251745"><ele>511.0</ele><time>2026-04-26T08:38:59Z</time></trkpt><trkpt lat="39.425709239283584" lon="9.222582264953623"><ele>511.0</ele><time>2026-04-26T08:39:00Z</time></trkpt><trkpt lat="39.42574709554966" lon="9.22273057576763"><ele>511.6</ele><time>2026-04-26T08:39:01Z</time></trkpt><trkpt lat="39.42578474188242" lon="9.222878322503776"><ele>512.2</ele><time>2026-04-26T08:39:02Z</time></trkpt><trkpt lat="39.42582481174428" lon="9.22301945287515"><ele>512.8</ele><time>2026-04-26T08:39:03Z</time></trkpt><trkpt lat="39.42586586996629" lon="9.223145259435759"><ele>513.4</ele><time>2026-04-26T08:39:04Z</time></trkpt><trkpt lat="39.42589766670322" lon="9.223253851944683"><ele>514.0</ele><time>2026-04-26T08:39:05Z</time></trkpt><trkpt lat="39.425925163216434" lon="9.223363971356452"><ele>514.5</ele><time>2026-04-26T08:39:06Z</time></trkpt><trkpt lat="39.425956815144055" lon="9.223482567565213"><ele>515.0</ele><time>2026-04-26T08:39:07Z</time></trkpt><trkpt lat="39.425987538507684" lon="9.223601305547554"><ele>515.5</ele><time>2026-04-26T08:39:08Z</time></trkpt><trkpt lat="39.426009242624545" lon="9.223710529422315"><ele>516.0</ele><time>2026-04-26T08:39:09Z</time></trkpt><trkpt lat="39.42601327752058" lon="9.223801458514028"><ele>516.5</ele><time>2026-04-26T08:39:10Z</time></trkpt><trkpt lat="39.42600416304012" lon="9.223892303139777"><ele>517.0</ele><time>2026-04-26T08:39:11Z</time></trkpt><trkpt lat="39.42596378677106" lon="9.224012896666354"><ele>517.0</ele><time>2026-04-26T08:39:13Z</time></trkpt><trkpt lat="39.425971448027774" lon="9.223915188236266"><ele>517.0</ele><time>2026-04-26T08:39:21Z</time></trkpt><trkpt lat="39.425996205360576" lon="9.223780058311226"><ele>517.0</ele><time>2026-04-26T08:39:24Z</time></trkpt><trkpt lat="39.42597675424699" lon="9.2236423465248"><ele>517.0</ele><time>2026-04-26T08:39:26Z</time></trkpt><trkpt lat="39.42587773390955" lon="9.223584821394159"><ele>517.0</ele><time>2026-04-26T08:39:27Z</time></trkpt><trkpt lat="39.42580805591262" lon="9.223493708491251"><ele>517.0</ele><time>2026-04-26T08:39:29Z</time></trkpt><trkpt lat="39.42576265116374" lon="9.223396498593663"><ele>517.0</ele><time>2026-04-26T08:39:31Z</time></trkpt><trkpt lat="39.425704159818935" lon="9.223310291628529"><ele>517.0</ele><time>2026-04-26T08:39:33Z</time></trkpt><trkpt lat="39.42564330089913" lon="9.22321729339469"><ele>517.0</ele><time>2026-04-26T08:39:35Z</time></trkpt><trkpt lat="39.425557354027866" lon="9.223133220458285"><ele>517.0</ele><time>2026-04-26T08:39:37Z</time></trkpt><trkpt lat="39.42545702551489" lon="9.223060756242036"><ele>519.0</ele><time>2026-04-26T08:39:39Z</time></trkpt><trkpt lat="39.42533650862211" lon="9.223035911957016"><ele>521.0</ele><time>2026-04-26T08:39:41Z</time></trkpt><trkpt lat="39.425237732764096" lon="9.223017349592347"><ele>523.0</ele><time>2026-04-26T08:39:43Z</time></trkpt><trkpt lat="39.42514812831572" lon="9.223006399567526"><ele>525.0</ele><time>2026-04-26T08:39:45Z</time></trkpt><trkpt lat="39.425059780814415" lon="9.223000007268723"><ele>527.0</ele><time>2026-04-26T08:39:47Z</time></trkpt><trkpt lat="39.424997409750375" lon="9.223030818029102"><ele>529.6</ele><time>2026-04-26T08:39:49Z</time></trkpt><trkpt lat="39.42504287692872" lon="9.223168484119997"><ele>532.2</ele><time>2026-04-26T08:39:50Z</time></trkpt><trkpt lat="39.42508682177088" lon="9.223268422868655"><ele>534.8</ele><time>2026-04-26T08:39:52Z</time></trkpt><trkpt lat="39.42513049203697" lon="9.223372945296358"><ele>537.4</ele><time>2026-04-26T08:39:54Z</time></trkpt><trkpt lat="39.42516246049338" lon="9.223475919875234"><ele>540.0</ele><time>2026-04-26T08:39:56Z</time></trkpt><trkpt lat="39.42513362110581" lon="9.223590115632131"><ele>540.0</ele><time>2026-04-26T08:39:58Z</time></trkpt><trkpt lat="39.42504375252329" lon="9.223557359565808"><ele>540.0</ele><time>2026-04-26T08:40:00Z</time></trkpt><trkpt lat="39.42494564982566" lon="9.223541070892315"><ele>540.0</ele><time>2026-04-26T08:40:02Z</time></trkpt><trkpt lat="39.42485063569583" lon="9.223502547318866"><ele>540.0</ele><time>2026-04-26T08:40:04Z</time></trkpt><trkpt lat="39.424774141243525" lon="9.22346718815404"><ele>540.0</ele><time>2026-04-26T08:40:06Z</time></trkpt><trkpt lat="39.424696659250124" lon="9.223456742972017"><ele>540.0</ele><time>2026-04-26T08:40:08Z</time></trkpt><trkpt lat="39.42466740480551" lon="9.223529479498984"><ele>540.0</ele><time>2026-04-26T08:40:09Z</time></trkpt><trkpt lat="39.4246945537343" lon="9.223610810050289"><ele>540.0</ele><time>2026-04-26T08:40:10Z</time></trkpt><trkpt lat="39.42471520070746" lon="9.2237457986304"><ele>540.0</ele><time>2026-04-26T08:40:12Z</time></trkpt><trkpt lat="39.42471759325106" lon="9.223860772758455"><ele>540.0</ele><time>2026-04-26T08:40:14Z</time></trkpt><trkpt lat="39.424734183931825" lon="9.223945696471025"><ele>540.0</ele><time>2026-04-26T08:40:16Z</time></trkpt><trkpt lat="39.42477482630995" lon="9.224028749044432"><ele>541.3333333333334</ele><time>2026-04-26T08:40:18Z</time></trkpt><trkpt lat="39.42480845062378" lon="9.224125796295587"><ele>542.6666666666666</ele><time>2026-04-26T08:40:20Z</time></trkpt><trkpt lat="39.42482117716984" lon="9.22423164012322"><ele>544.0</ele><time>2026-04-26T08:40:22Z</time></trkpt><trkpt lat="39.42480849752799" lon="9.224325017969525"><ele>545.3333333333333</ele><time>2026-04-26T08:40:24Z</time></trkpt><trkpt lat="39.424766939066245" lon="9.224413473174547"><ele>546.6666666666666</ele><time>2026-04-26T08:40:26Z</time></trkpt><trkpt lat="39.424698319999855" lon="9.224436387083186"><ele>548.0</ele><time>2026-04-26T08:40:28Z</time></trkpt><trkpt lat="39.42460120609376" lon="9.224415317039938"><ele>552.4</ele><time>2026-04-26T08:40:30Z</time></trkpt><trkpt lat="39.42448711756256" lon="9.224415317041867"><ele>556.8</ele><time>2026-04-26T08:40:32Z</time></trkpt><trkpt lat="39.42437046417226" lon="9.224414642187385"><ele>561.2</ele><time>2026-04-26T08:40:34Z</time></trkpt><trkpt lat="39.424294486340315" lon="9.224420798081754"><ele>565.6</ele><time>2026-04-26T08:40:35Z</time></trkpt><trkpt lat="39.42422489168329" lon="9.224431224273609"><ele>570.0</ele><time>2026-04-26T08:40:36Z</time></trkpt><trkpt lat="39.42412062262899" lon="9.224420439816642"><ele>570.0</ele><time>2026-04-26T08:40:38Z</time></trkpt><trkpt lat="39.424007338822236" lon="9.224423343502176"><ele>570.0</ele><time>2026-04-26T08:40:40Z</time></trkpt><trkpt lat="39.42391711621469" lon="9.224419837128487"><ele>570.0</ele><time>2026-04-26T08:40:42Z</time></trkpt><trkpt lat="39.42383720685385" lon="9.224394701301566"><ele>570.0</ele><time>2026-04-26T08:41:00Z</time></trkpt><trkpt lat="39.42386141652464" lon="9.224282232167655"><ele>570.0</ele><time>2026-04-26T08:41:03Z</time></trkpt><trkpt lat="39.423864273331496" lon="9.224172200022192"><ele>570.0</ele><time>2026-04-26T08:41:05Z</time></trkpt><trkpt lat="39.42384759125939" lon="9.224080713267213"><ele>570.0</ele><time>2026-04-26T08:41:07Z</time></trkpt><trkpt lat="39.42380642761681" lon="9.224012120442906"><ele>570.0</ele><time>2026-04-26T08:41:12Z</time></trkpt><trkpt lat="39.42368251969318" lon="9.224045327550353"><ele>570.0</ele><time>2026-04-26T08:41:14Z</time></trkpt><trkpt lat="39.42361590066211" lon="9.224021787032273"><ele>570.0</ele><time>2026-04-26T08:41:16Z</time></trkpt><trkpt lat="39.42355236985103" lon="9.22400789725652"><ele>570.0</ele><time>2026-04-26T08:41:18Z</time></trkpt><trkpt lat="39.42348977176169" lon="9.223986235045173"><ele>573.2</ele><time>2026-04-26T08:41:20Z</time></trkpt><trkpt lat="39.423425268354336" lon="9.22392929586488"><ele>576.4</ele><time>2026-04-26T08:41:22Z</time></trkpt><trkpt lat="39.423335324365254" lon="9.223856921557099"><ele>579.6</ele><time>2026-04-26T08:41:24Z</time></trkpt><trkpt lat="39.42324368087924" lon="9.223797825134032"><ele>582.8</ele><time>2026-04-26T08:41:26Z</time></trkpt><trkpt lat="39.423158624166156" lon="9.223705337204656"><ele>586.0</ele><time>2026-04-26T08:41:28Z</time></trkpt><trkpt lat="39.42306545299762" lon="9.223630800569532"><ele>587.2</ele><time>2026-04-26T08:41:30Z</time></trkpt><trkpt lat="39.422963540875955" lon="9.223572338272302"><ele>588.4000000000001</ele><time>2026-04-26T08:41:32Z</time></trkpt><trkpt lat="39.42287672178884" lon="9.223481964457108"><ele>589.6</ele><time>2026-04-26T08:41:34Z</time></trkpt><trkpt lat="39.42277874007445" lon="9.223445241019746"><ele>590.8000000000001</ele><time>2026-04-26T08:41:36Z</time></trkpt><trkpt lat="39.422673641087336" lon="9.223509179795977"><ele>592.0</ele><time>2026-04-26T08:41:38Z</time></trkpt><trkpt lat="39.42261868526638" lon="9.223637456346488"><ele>592.0</ele><time>2026-04-26T08:41:40Z</time></trkpt><trkpt lat="39.42258734388018" lon="9.223764618681168"><ele>592.0</ele><time>2026-04-26T08:41:42Z</time></trkpt><trkpt lat="39.42258565516932" lon="9.223885381318576"><ele>592.0</ele><time>2026-04-26T08:41:44Z</time></trkpt><trkpt lat="39.4225830401611" lon="9.223994625818811"><ele>592.0</ele><time>2026-04-26T08:41:46Z</time></trkpt><trkpt lat="39.42257521585164" lon="9.224113034637048"><ele>592.0</ele><time>2026-04-26T08:41:48Z</time></trkpt><trkpt lat="39.42256298894192" lon="9.224233812492786"><ele>594.6</ele><time>2026-04-26T08:41:50Z</time></trkpt><trkpt lat="39.42254224648983" lon="9.224362522413278"><ele>597.2</ele><time>2026-04-26T08:41:52Z</time></trkpt><trkpt lat="39.42252016495934" lon="9.224490715105652"><ele>599.8</ele><time>2026-04-26T08:41:54Z</time></trkpt><trkpt lat="39.422498135519575" lon="9.22461860552468"><ele>602.4</ele><time>2026-04-26T08:41:56Z</time></trkpt><trkpt lat="39.42247798787138" lon="9.22475900572923"><ele>605.0</ele><time>2026-04-26T08:41:58Z</time></trkpt><trkpt lat="39.422483422925716" lon="9.224864825916825"><ele>607.0</ele><time>2026-04-26T08:42:00Z</time></trkpt><trkpt lat="39.42246520984515" lon="9.224975163871893"><ele>609.0</ele><time>2026-04-26T08:42:02Z</time></trkpt><trkpt lat="39.422461352350446" lon="9.225093187470222"><ele>611.0</ele><time>2026-04-26T08:42:04Z</time></trkpt><trkpt lat="39.422458411657715" lon="9.225219294266825"><ele>613.0</ele><time>2026-04-26T08:42:06Z</time></trkpt><trkpt lat="39.42245795478144" lon="9.225322869129888"><ele>615.0</ele><time>2026-04-26T08:42:08Z</time></trkpt><trkpt lat="39.422457497096964" lon="9.225426626722872"><ele>617.0</ele><time>2026-04-26T08:42:10Z</time></trkpt><trkpt lat="39.42245308364173" lon="9.225511746643349"><ele>617.0</ele><time>2026-04-26T08:42:19Z</time></trkpt><trkpt lat="39.42243944426876" lon="9.225637913066038"><ele>617.0</ele><time>2026-04-26T08:42:22Z</time></trkpt><trkpt lat="39.42242649856635" lon="9.225735512983531"><ele>617.0</ele><time>2026-04-26T08:42:24Z</time></trkpt><trkpt lat="39.42241371764226" lon="9.22581987024977"><ele>617.0</ele><time>2026-04-26T08:42:26Z</time></trkpt><trkpt lat="39.42238042967518" lon="9.225907868466521"><ele>617.0</ele><time>2026-04-26T08:42:29Z</time></trkpt><trkpt lat="39.422311118990805" lon="9.225870605619793"><ele>617.0</ele><time>2026-04-26T08:42:32Z</time></trkpt><trkpt lat="39.42233425378636" lon="9.225742468436632"><ele>617.0</ele><time>2026-04-26T08:42:34Z</time></trkpt><trkpt lat="39.42231828901556" lon="9.22559332305318"><ele>617.0</ele><time>2026-04-26T08:42:36Z</time></trkpt><trkpt lat="39.42229244172382" lon="9.225509152491714"><ele>617.0</ele><time>2026-04-26T08:42:37Z</time></trkpt><trkpt lat="39.42225572370112" lon="9.225438082559757"><ele>617.0</ele><time>2026-04-26T08:42:38Z</time></trkpt><trkpt lat="39.42218739394637" lon="9.225317413839655"><ele>617.0</ele><time>2026-04-26T08:42:40Z</time></trkpt><trkpt lat="39.42211373799674" lon="9.225207470294059"><ele>620.4</ele><time>2026-04-26T08:42:42Z</time></trkpt><trkpt lat="39.422037569669676" lon="9.225099508780511"><ele>623.8000000000001</ele><time>2026-04-26T08:42:44Z</time></trkpt><trkpt lat="39.42195507226194" lon="9.224992368655792"><ele>627.2</ele><time>2026-04-26T08:42:46Z</time></trkpt><trkpt lat="39.42187068292901" lon="9.224901246683249"><ele>630.6</ele><time>2026-04-26T08:42:48Z</time></trkpt><trkpt lat="39.421777177980466" lon="9.224833403780647"><ele>634.0</ele><time>2026-04-26T08:42:50Z</time></trkpt><trkpt lat="39.421692134459846" lon="9.224777493104908"><ele>634.0</ele><time>2026-04-26T08:42:52Z</time></trkpt><trkpt lat="39.42160637177029" lon="9.224697473755374"><ele>634.0</ele><time>2026-04-26T08:42:54Z</time></trkpt><trkpt lat="39.421516525369725" lon="9.22459890836554"><ele>634.0</ele><time>2026-04-26T08:42:56Z</time></trkpt><trkpt lat="39.42146749088476" lon="9.224547417688001"><ele>634.0</ele><time>2026-04-26T08:42:57Z</time></trkpt><trkpt lat="39.42137475029797" lon="9.224458016086581"><ele>634.0</ele><time>2026-04-26T08:42:59Z</time></trkpt><trkpt lat="39.421281402016334" lon="9.22440220509077"><ele>633.6666666666667</ele><time>2026-04-26T08:43:01Z</time></trkpt><trkpt lat="39.42119359932757" lon="9.224377817366145"><ele>633.3333333333334</ele><time>2026-04-26T08:43:03Z</time></trkpt><trkpt lat="39.421096076943186" lon="9.224467953224165"><ele>633.0</ele><time>2026-04-26T08:43:05Z</time></trkpt><trkpt lat="39.42111645431296" lon="9.224573233296985"><ele>632.6666666666666</ele><time>2026-04-26T08:43:06Z</time></trkpt><trkpt lat="39.42117146557506" lon="9.224619534012605"><ele>632.3333333333333</ele><time>2026-04-26T08:43:07Z</time></trkpt><trkpt lat="39.42118821812936" lon="9.224734473739137"><ele>632.0</ele><time>2026-04-26T08:43:09Z</time></trkpt><trkpt lat="39.421206754049" lon="9.224860679619823"><ele>634.6</ele><time>2026-04-26T08:43:11Z</time></trkpt><trkpt lat="39.42124203840319" lon="9.225003114310901"><ele>637.2</ele><time>2026-04-26T08:43:13Z</time></trkpt><trkpt lat="39.421244981156576" lon="9.225138030453797"><ele>639.8</ele><time>2026-04-26T08:43:15Z</time></trkpt><trkpt lat="39.421262488168345" lon="9.225267011984265"><ele>642.4</ele><time>2026-04-26T08:43:17Z</time></trkpt><trkpt lat="39.421279549364165" lon="9.225409880181"><ele>645.0</ele><time>2026-04-26T08:43:19Z</time></trkpt><trkpt lat="39.42128901205205" lon="9.225535019331192"><ele>649.2</ele><time>2026-04-26T08:43:21Z</time></trkpt><trkpt lat="39.42129193864541" lon="9.225674502064987"><ele>653.4</ele><time>2026-04-26T08:43:23Z</time></trkpt><trkpt lat="39.42128582297572" lon="9.225799470590033"><ele>657.5999999999999</ele><time>2026-04-26T08:43:25Z</time></trkpt><trkpt lat="39.42127656355796" lon="9.225915236809824"><ele>661.8</ele><time>2026-04-26T08:43:27Z</time></trkpt><trkpt lat="39.4212270002181" lon="9.22602563330569"><ele>666.0</ele><time>2026-04-26T08:43:29Z</time></trkpt><trkpt lat="39.421148694290224" lon="9.226080256350915"><ele>666.0</ele><time>2026-04-26T08:43:31Z</time></trkpt><trkpt lat="39.42107347974261" lon="9.226147126180187"><ele>666.0</ele><time>2026-04-26T08:43:33Z</time></trkpt><trkpt lat="39.42099192780194" lon="9.226231750965262"><ele>666.0</ele><time>2026-04-26T08:43:35Z</time></trkpt><trkpt lat="39.42092058012656" lon="9.226322288289163"><ele>666.0</ele><time>2026-04-26T08:43:37Z</time></trkpt><trkpt lat="39.42087832938989" lon="9.226387025552045"><ele>666.0</ele><time>2026-04-26T08:43:38Z</time></trkpt><trkpt lat="39.42081787467374" lon="9.226514469597047"><ele>666.4</ele><time>2026-04-26T08:43:40Z</time></trkpt><trkpt lat="39.42075299132498" lon="9.226609606530442"><ele>666.8</ele><time>2026-04-26T08:43:42Z</time></trkpt><trkpt lat="39.420678441961115" lon="9.226707277327682"><ele>667.1999999999999</ele><time>2026-04-26T08:43:44Z</time></trkpt><trkpt lat="39.42061420988328" lon="9.226786109608353"><ele>667.5999999999999</ele><time>2026-04-26T08:43:46Z</time></trkpt><trkpt lat="39.42051657543622" lon="9.226865710409678"><ele>668.0</ele><time>2026-04-26T08:43:48Z</time></trkpt><trkpt lat="39.42044971978878" lon="9.226969599003313"><ele>668.0</ele><time>2026-04-26T08:43:50Z</time></trkpt><trkpt lat="39.42039345166123" lon="9.227079069482114"><ele>668.0</ele><time>2026-04-26T08:43:52Z</time></trkpt><trkpt lat="39.42034056489951" lon="9.227191763622454"><ele>668.0</ele><time>2026-04-26T08:43:54Z</time></trkpt><trkpt lat="39.420281108850816" lon="9.227341771705431"><ele>668.0</ele><time>2026-04-26T08:43:56Z</time></trkpt><trkpt lat="39.42024656187837" lon="9.227431969370526"><ele>668.0</ele><time>2026-04-26T08:43:58Z</time></trkpt><trkpt lat="39.42021333205195" lon="9.227536841866877"><ele>675.0</ele><time>2026-04-26T08:44:00Z</time></trkpt><trkpt lat="39.4201722953136" lon="9.22768085609899"><ele>682.0</ele><time>2026-04-26T08:44:02Z</time></trkpt><trkpt lat="39.42015241194099" lon="9.227817059182515"><ele>689.0</ele><time>2026-04-26T08:44:04Z</time></trkpt><trkpt lat="39.42017475447536" lon="9.227948840738584"><ele>696.0</ele><time>2026-04-26T08:44:06Z</time></trkpt><trkpt lat="39.420277911740925" lon="9.22805023175187"><ele>699.0</ele><time>2026-04-26T08:44:08Z</time></trkpt><trkpt lat="39.420373491504925" lon="9.228160394039007"><ele>702.0</ele><time>2026-04-26T08:44:10Z</time></trkpt><trkpt lat="39.420413310970424" lon="9.228247020163609"><ele>705.0</ele><time>2026-04-26T08:44:11Z</time></trkpt><trkpt lat="39.420416978607264" lon="9.228333437566773"><ele>708.0</ele><time>2026-04-26T08:44:12Z</time></trkpt><trkpt lat="39.42042492454053" lon="9.228463727471002"><ele>711.0</ele><time>2026-04-26T08:44:14Z</time></trkpt><trkpt lat="39.420362087012904" lon="9.228535812425358"><ele>711.0</ele><time>2026-04-26T08:44:15Z</time></trkpt><trkpt lat="39.420308866314535" lon="9.228601145447808"><ele>711.0</ele><time>2026-04-26T08:44:16Z</time></trkpt><trkpt lat="39.420252941329835" lon="9.228679347935511"><ele>711.0</ele><time>2026-04-26T08:44:17Z</time></trkpt><trkpt lat="39.42018913859896" lon="9.228757094795768"><ele>711.0</ele><time>2026-04-26T08:44:18Z</time></trkpt><trkpt lat="39.42012156500601" lon="9.22882704670318"><ele>711.0</ele><time>2026-04-26T08:44:19Z</time></trkpt><trkpt lat="39.420052303005754" lon="9.228886499575927"><ele>711.0</ele><time>2026-04-26T08:44:20Z</time></trkpt><trkpt lat="39.419978662191944" lon="9.228941374348972"><ele>713.6666666666666</ele><time>2026-04-26T08:44:21Z</time></trkpt><trkpt lat="39.41991771195486" lon="9.228992962169167"><ele>716.3333333333334</ele><time>2026-04-26T08:44:22Z</time></trkpt><trkpt lat="39.419843869056265" lon="9.2290455043004"><ele>719.0</ele><time>2026-04-26T08:44:23Z</time></trkpt><trkpt lat="39.419758257535044" lon="9.229079982667471"><ele>721.6666666666667</ele><time>2026-04-26T08:44:24Z</time></trkpt><trkpt lat="39.41968789801012" lon="9.22912579498546"><ele>724.3333333333334</ele><time>2026-04-26T08:44:25Z</time></trkpt><trkpt lat="39.419625473677726" lon="9.229169386864395"><ele>727.0</ele><time>2026-04-26T08:44:26Z</time></trkpt><trkpt lat="39.419560374093855" lon="9.229231057057937"><ele>727.0</ele><time>2026-04-26T08:44:27Z</time></trkpt><trkpt lat="39.41949472617369" lon="9.229270813171945"><ele>727.0</ele><time>2026-04-26T08:44:28Z</time></trkpt><trkpt lat="39.41943350695245" lon="9.229324967407347"><ele>727.0</ele><time>2026-04-26T08:44:29Z</time></trkpt><trkpt lat="39.41935981405554" lon="9.229351405769185"><ele>727.0</ele><time>2026-04-26T08:44:30Z</time></trkpt><trkpt lat="39.41929487660204" lon="9.229413807204727"><ele>727.0</ele><time>2026-04-26T08:44:31Z</time></trkpt><trkpt lat="39.41922891623239" lon="9.229483914473597"><ele>727.0</ele><time>2026-04-26T08:44:32Z</time></trkpt><trkpt lat="39.41917210132658" lon="9.229562209514823"><ele>727.0</ele><time>2026-04-26T08:44:33Z</time></trkpt><trkpt lat="39.419106400389815" lon="9.229647665706125"><ele>727.0</ele><time>2026-04-26T08:44:34Z</time></trkpt><trkpt lat="39.41905032440959" lon="9.229730993595634"><ele>727.0</ele><time>2026-04-26T08:44:35Z</time></trkpt><trkpt lat="39.41899282861834" lon="9.229809827359887"><ele>727.0</ele><time>2026-04-26T08:44:36Z</time></trkpt><trkpt lat="39.418936268109896" lon="9.229876564752516"><ele>727.0</ele><time>2026-04-26T08:44:37Z</time></trkpt><trkpt lat="39.41888198543352" lon="9.229950464489422"><ele>727.0</ele><time>2026-04-26T08:44:38Z</time></trkpt><trkpt lat="39.418834223934496" lon="9.230022961924307"><ele>729.5</ele><time>2026-04-26T08:44:39Z</time></trkpt><trkpt lat="39.418767960379355" lon="9.23007666835897"><ele>732.0</ele><time>2026-04-26T08:44:40Z</time></trkpt><trkpt lat="39.41870502358539" lon="9.2301440468563"><ele>734.5</ele><time>2026-04-26T08:44:41Z</time></trkpt><trkpt lat="39.41863967453708" lon="9.230205003003892"><ele>737.0</ele><time>2026-04-26T08:44:42Z</time></trkpt><trkpt lat="39.41857689837202" lon="9.230270719815435"><ele>739.5</ele><time>2026-04-26T08:44:43Z</time></trkpt><trkpt lat="39.418493835026275" lon="9.23031057977987"><ele>742.0</ele><time>2026-04-26T08:44:44Z</time></trkpt><trkpt lat="39.418399423081205" lon="9.230328169585643"><ele>742.0</ele><time>2026-04-26T08:44:45Z</time></trkpt><trkpt lat="39.41832116178816" lon="9.2303525594664"><ele>742.0</ele><time>2026-04-26T08:44:46Z</time></trkpt><trkpt lat="39.41823653671463" lon="9.230391711066257"><ele>742.0</ele><time>2026-04-26T08:44:47Z</time></trkpt><trkpt lat="39.418157158475175" lon="9.23045439067177"><ele>742.0</ele><time>2026-04-26T08:44:48Z</time></trkpt><trkpt lat="39.418077068388236" lon="9.230480665578549"><ele>742.0</ele><time>2026-04-26T08:44:49Z</time></trkpt><trkpt lat="39.418014419067646" lon="9.2305323384111"><ele>742.0</ele><time>2026-04-26T08:44:50Z</time></trkpt><trkpt lat="39.41795016799326" lon="9.230622545378848"><ele>741.8</ele><time>2026-04-26T08:44:52Z</time></trkpt><trkpt lat="39.41788290868806" lon="9.230744651388399"><ele>741.6</ele><time>2026-04-26T08:44:54Z</time></trkpt><trkpt lat="39.41783522266585" lon="9.23087216257595"><ele>741.4</ele><time>2026-04-26T08:44:56Z</time></trkpt><trkpt lat="39.41781719779716" lon="9.231009810497858"><ele>741.1999999999999</ele><time>2026-04-26T08:44:58Z</time></trkpt><trkpt lat="39.41779641404104" lon="9.231088676335176"><ele>741.0</ele><time>2026-04-26T08:44:59Z</time></trkpt><trkpt lat="39.41778889626043" lon="9.23124135808611"><ele>741.0</ele><time>2026-04-26T08:45:01Z</time></trkpt><trkpt lat="39.41776592387252" lon="9.231317332366089"><ele>741.0</ele><time>2026-04-26T08:45:02Z</time></trkpt><trkpt lat="39.41771735180423" lon="9.231381870797408"><ele>741.0</ele><time>2026-04-26T08:45:03Z</time></trkpt><trkpt lat="39.41767471779464" lon="9.231445566802742"><ele>741.0</ele><time>2026-04-26T08:45:04Z</time></trkpt><trkpt lat="39.41761123668781" lon="9.231576269018449"><ele>741.0</ele><time>2026-04-26T08:45:06Z</time></trkpt><trkpt lat="39.41757225539516" lon="9.231643751404729"><ele>741.0</ele><time>2026-04-26T08:45:07Z</time></trkpt><trkpt lat="39.41752399413514" lon="9.231715032069154"><ele>742.0</ele><time>2026-04-26T08:45:08Z</time></trkpt><trkpt lat="39.417479199960056" lon="9.23177267760273"><ele>743.0</ele><time>2026-04-26T08:45:09Z</time></trkpt><trkpt lat="39.417431470108774" lon="9.231826119569885"><ele>744.0</ele><time>2026-04-26T08:45:10Z</time></trkpt><trkpt lat="39.417376725063605" lon="9.23187781925214"><ele>745.0</ele><time>2026-04-26T08:45:11Z</time></trkpt><trkpt lat="39.417318816808674" lon="9.231931539157674"><ele>746.0</ele><time>2026-04-26T08:45:12Z</time></trkpt><trkpt lat="39.41726087654058" lon="9.231972504911116"><ele>747.0</ele><time>2026-04-26T08:45:13Z</time></trkpt><trkpt lat="39.417151945405294" lon="9.232003193866422"><ele>748.0</ele><time>2026-04-26T08:45:15Z</time></trkpt><trkpt lat="39.41707007430828" lon="9.232027869051837"><ele>748.0</ele><time>2026-04-26T08:45:17Z</time></trkpt><trkpt lat="39.41700858673695" lon="9.232081897738745"><ele>748.0</ele><time>2026-04-26T08:45:20Z</time></trkpt><trkpt lat="39.41714408969457" lon="9.232224122174054"><ele>748.0</ele><time>2026-04-26T08:45:23Z</time></trkpt><trkpt lat="39.41723402128933" lon="9.232211899101186"><ele>748.0</ele><time>2026-04-26T08:45:25Z</time></trkpt><trkpt lat="39.417333135754504" lon="9.232196489429906"><ele>748.0</ele><time>2026-04-26T08:45:27Z</time></trkpt><trkpt lat="39.41745039063614" lon="9.2321441684222"><ele>751.1666666666667</ele><time>2026-04-26T08:45:29Z</time></trkpt><trkpt lat="39.4175108772662" lon="9.232115562519478"><ele>754.3333333333334</ele><time>2026-04-26T08:45:30Z</time></trkpt><trkpt lat="39.417575377508555" lon="9.23209723670995"><ele>757.5</ele><time>2026-04-26T08:45:31Z</time></trkpt><trkpt lat="39.417688404385935" lon="9.232082937161744"><ele>760.6666666666666</ele><time>2026-04-26T08:45:33Z</time></trkpt><trkpt lat="39.417755158961505" lon="9.232086094200934"><ele>763.8333333333333</ele><time>2026-04-26T08:45:34Z</time></trkpt><trkpt lat="39.417872672561806" lon="9.23207652013726"><ele>767.0</ele><time>2026-04-26T08:45:36Z</time></trkpt><trkpt lat="39.41793413809436" lon="9.232037278857058"><ele>769.8</ele><time>2026-04-26T08:45:37Z</time></trkpt><trkpt lat="39.41798867132951" lon="9.231992222050762"><ele>772.6</ele><time>2026-04-26T08:45:38Z</time></trkpt><trkpt lat="39.418092912823134" lon="9.231905045091072"><ele>775.4</ele><time>2026-04-26T08:45:40Z</time></trkpt><trkpt lat="39.418214108669495" lon="9.231859255452694"><ele>778.1999999999999</ele><time>2026-04-26T08:45:42Z</time></trkpt><trkpt lat="39.418274124095724" lon="9.231831405778397"><ele>781.0</ele><time>2026-04-26T08:45:43Z</time></trkpt><trkpt lat="39.41836603990418" lon="9.231761879452144"><ele>780.9999999999999</ele><time>2026-04-26T08:45:45Z</time></trkpt><trkpt lat="39.41839937096379" lon="9.231649587921074"><ele>781.0</ele><time>2026-04-26T08:45:47Z</time></trkpt><trkpt lat="39.4183336349514" lon="9.231605539965178"><ele>781.0</ele><time>2026-04-26T08:45:50Z</time></trkpt><trkpt lat="39.41837783178694" lon="9.231664492933698"><ele>781.0</ele><time>2026-04-26T09:00:29Z</time></trkpt><trkpt lat="39.418366703849244" lon="9.231759106008296"><ele>780.9999999999999</ele><time>2026-04-26T09:00:33Z</time></trkpt><trkpt lat="39.418304719141446" lon="9.23181632482348"><ele>781.0</ele><time>2026-04-26T09:00:36Z</time></trkpt><trkpt lat="39.41822160439931" lon="9.231859483168208"><ele>781.0</ele><time>2026-04-26T09:00:39Z</time></trkpt><trkpt lat="39.418153177006545" lon="9.231887716931368"><ele>781.0</ele><time>2026-04-26T09:00:41Z</time></trkpt><trkpt lat="39.41808933161362" lon="9.231922304018912"><ele>781.0</ele><time>2026-04-26T09:00:43Z</time></trkpt><trkpt lat="39.4180316013411" lon="9.231958625284644"><ele>781.0</ele><time>2026-04-26T09:00:45Z</time></trkpt><trkpt lat="39.417972385019965" lon="9.231998422027536"><ele>781.0</ele><time>2026-04-26T09:00:47Z</time></trkpt><trkpt lat="39.41790975588514" lon="9.23203844810122"><ele>781.0</ele><time>2026-04-26T09:00:49Z</time></trkpt><trkpt lat="39.417838895908375" lon="9.232068673504337"><ele>781.0</ele><time>2026-04-26T09:00:51Z</time></trkpt><trkpt lat="39.41775790300956" lon="9.232084745031784"><ele>778.6666666666666</ele><time>2026-04-26T09:00:53Z</time></trkpt><trkpt lat="39.41767761809303" lon="9.232074648897944"><ele>776.3333333333333</ele><time>2026-04-26T09:00:55Z</time></trkpt><trkpt lat="39.41758535184564" lon="9.232088409777491"><ele>774.0</ele><time>2026-04-26T09:00:58Z</time></trkpt><trkpt lat="39.417520646903284" lon="9.232100013296382"><ele>771.6666666666666</ele><time>2026-04-26T09:01:00Z</time></trkpt><trkpt lat="39.4174479795398" lon="9.232139385471164"><ele>769.3333333333333</ele><time>2026-04-26T09:01:02Z</time></trkpt><trkpt lat="39.41737449509958" lon="9.232165820803171"><ele>767.0</ele><time>2026-04-26T09:01:04Z</time></trkpt><trkpt lat="39.41730694559827" lon="9.23218258122658"><ele>767.0</ele><time>2026-04-26T09:01:06Z</time></trkpt><trkpt lat="39.41723525156582" lon="9.232192430537653"><ele>767.0</ele><time>2026-04-26T09:01:08Z</time></trkpt><trkpt lat="39.41716700821987" lon="9.232194667107454"><ele>767.0</ele><time>2026-04-26T09:01:10Z</time></trkpt><trkpt lat="39.41707428158993" lon="9.2321873513909"><ele>767.0</ele><time>2026-04-26T09:01:13Z</time></trkpt><trkpt lat="39.417046046930466" lon="9.232088204868244"><ele>767.0</ele><time>2026-04-26T09:01:18Z</time></trkpt><trkpt lat="39.41709872516424" lon="9.232038660818946"><ele>767.0</ele><time>2026-04-26T09:01:20Z</time></trkpt><trkpt lat="39.41717283291712" lon="9.23202482443069"><ele>767.0</ele><time>2026-04-26T09:01:22Z</time></trkpt><trkpt lat="39.417249229750496" lon="9.232006122710935"><ele>767.0</ele><time>2026-04-26T09:01:24Z</time></trkpt><trkpt lat="39.417326924434555" lon="9.23195992855878"><ele>767.0</ele><time>2026-04-26T09:01:26Z</time></trkpt><trkpt lat="39.41741740924329" lon="9.231873391231714"><ele>767.0</ele><time>2026-04-26T09:01:28Z</time></trkpt><trkpt lat="39.417503976795786" lon="9.231788935590686"><ele>767.0</ele><time>2026-04-26T09:01:30Z</time></trkpt><trkpt lat="39.417571672524815" lon="9.231689059788147"><ele>767.0</ele><time>2026-04-26T09:01:32Z</time></trkpt><trkpt lat="39.417639105833295" lon="9.231569941536309"><ele>767.0</ele><time>2026-04-26T09:01:34Z</time></trkpt><trkpt lat="39.417700465864364" lon="9.231446546683895"><ele>767.0</ele><time>2026-04-26T09:01:36Z</time></trkpt><trkpt lat="39.41776267813309" lon="9.231332997196608"><ele>767.0</ele><time>2026-04-26T09:01:38Z</time></trkpt><trkpt lat="39.41781959614513" lon="9.23123014420007"><ele>767.0</ele><time>2026-04-26T09:01:40Z</time></trkpt><trkpt lat="39.41782218735503" lon="9.23113363407321"><ele>762.8333333333333</ele><time>2026-04-26T09:01:42Z</time></trkpt><trkpt lat="39.41782571822166" lon="9.231006002625417"><ele>758.6666666666666</ele><time>2026-04-26T09:01:45Z</time></trkpt><trkpt lat="39.417846244740296" lon="9.23091090962777"><ele>754.5</ele><time>2026-04-26T09:01:48Z</time></trkpt><trkpt lat="39.41787151945297" lon="9.230816449248781"><ele>750.3333333333334</ele><time>2026-04-26T09:01:52Z</time></trkpt><trkpt lat="39.41790717732721" lon="9.230745768894446"><ele>746.1666666666667</ele><time>2026-04-26T09:01:55Z</time></trkpt><trkpt lat="39.417958350903284" lon="9.230660334134882"><ele>742.0</ele><time>2026-04-26T09:01:59Z</time></trkpt><trkpt lat="39.418016290082164" lon="9.23059751698212"><ele>742.0</ele><time>2026-04-26T09:02:02Z</time></trkpt><trkpt lat="39.41808504610288" lon="9.230523221038546"><ele>742.0</ele><time>2026-04-26T09:02:05Z</time></trkpt><trkpt lat="39.418153848302396" lon="9.230476078373782"><ele>742.0</ele><time>2026-04-26T09:02:07Z</time></trkpt><trkpt lat="39.418230408761794" lon="9.230437128760249"><ele>742.0</ele><time>2026-04-26T09:02:09Z</time></trkpt><trkpt lat="39.418316012290774" lon="9.230399545291883"><ele>742.0</ele><time>2026-04-26T09:02:11Z</time></trkpt><trkpt lat="39.41839331648551" lon="9.230372155068588"><ele>742.0</ele><time>2026-04-26T09:02:13Z</time></trkpt><trkpt lat="39.41845873165669" lon="9.23033291605805"><ele>742.0</ele><time>2026-04-26T09:02:15Z</time></trkpt><trkpt lat="39.41855034281509" lon="9.230292299803256"><ele>742.0</ele><time>2026-04-26T09:02:17Z</time></trkpt><trkpt lat="39.418639144615504" lon="9.230245034361483"><ele>742.0</ele><time>2026-04-26T09:02:19Z</time></trkpt><trkpt lat="39.418719851761274" lon="9.230178414347764"><ele>742.0</ele><time>2026-04-26T09:02:21Z</time></trkpt><trkpt lat="39.41879434976413" lon="9.23011077313309"><ele>742.0</ele><time>2026-04-26T09:02:23Z</time></trkpt><trkpt lat="39.4188518728859" lon="9.230025467888836"><ele>743.3333333333334</ele><time>2026-04-26T09:02:25Z</time></trkpt><trkpt lat="39.418922479059844" lon="9.229947781421668"><ele>744.6666666666667</ele><time>2026-04-26T09:02:27Z</time></trkpt><trkpt lat="39.418987959655965" lon="9.22986785526484"><ele>746.0</ele><time>2026-04-26T09:02:29Z</time></trkpt><trkpt lat="39.41903628250986" lon="9.229800721788193"><ele>747.3333333333334</ele><time>2026-04-26T09:02:31Z</time></trkpt><trkpt lat="39.41908489186646" lon="9.22971173234798"><ele>748.6666666666666</ele><time>2026-04-26T09:02:33Z</time></trkpt><trkpt lat="39.41914430275545" lon="9.229615913664231"><ele>750.0</ele><time>2026-04-26T09:02:35Z</time></trkpt><trkpt lat="39.419222546965685" lon="9.229531735303235"><ele>746.1666666666666</ele><time>2026-04-26T09:02:38Z</time></trkpt><trkpt lat="39.41927926986794" lon="9.229468053758174"><ele>742.3333333333334</ele><time>2026-04-26T09:02:40Z</time></trkpt><trkpt lat="39.419335962550534" lon="9.229414606321825"><ele>738.5</ele><time>2026-04-26T09:02:42Z</time></trkpt><trkpt lat="39.41940046501486" lon="9.229364942762265"><ele>734.6666666666667</ele><time>2026-04-26T09:02:44Z</time></trkpt><trkpt lat="39.419471308711444" lon="9.229312599746756"><ele>730.8333333333334</ele><time>2026-04-26T09:02:47Z</time></trkpt><trkpt lat="39.41953719901868" lon="9.229263184710815"><ele>727.0</ele><time>2026-04-26T09:02:49Z</time></trkpt><trkpt lat="39.419604344483524" lon="9.229217147932584"><ele>727.2</ele><time>2026-04-26T09:02:51Z</time></trkpt><trkpt lat="39.41966969129211" lon="9.229171768401493"><ele>727.4000000000001</ele><time>2026-04-26T09:02:53Z</time></trkpt><trkpt lat="39.4197320427603" lon="9.229138670416178"><ele>727.5999999999999</ele><time>2026-04-26T09:02:56Z</time></trkpt><trkpt lat="39.419819558594675" lon="9.229081837996155"><ele>727.8</ele><time>2026-04-26T09:03:57Z</time></trkpt><trkpt lat="39.41991182157833" lon="9.229015933870873"><ele>728.0</ele><time>2026-04-26T09:03:59Z</time></trkpt><trkpt lat="39.420010616735304" lon="9.228943105644438"><ele>724.5999999999999</ele><time>2026-04-26T09:04:01Z</time></trkpt><trkpt lat="39.42011877509456" lon="9.228870038260414"><ele>721.1999999999999</ele><time>2026-04-26T09:04:03Z</time></trkpt><trkpt lat="39.42021524468959" lon="9.22879442632532"><ele>717.8</ele><time>2026-04-26T09:04:05Z</time></trkpt><trkpt lat="39.420295928918776" lon="9.228681805154629"><ele>714.4</ele><time>2026-04-26T09:04:07Z</time></trkpt><trkpt lat="39.420335381526" lon="9.228616782611118"><ele>711.0</ele><time>2026-04-26T09:04:08Z</time></trkpt><trkpt lat="39.42040879804743" lon="9.228505231505345"><ele>711.0</ele><time>2026-04-26T09:04:10Z</time></trkpt><trkpt lat="39.42043856527693" lon="9.228356867155362"><ele>711.0</ele><time>2026-04-26T09:04:12Z</time></trkpt><trkpt lat="39.420451225245706" lon="9.228275916900436"><ele>711.0</ele><time>2026-04-26T09:04:13Z</time></trkpt><trkpt lat="39.420402851320645" lon="9.228198123290536"><ele>711.0</ele><time>2026-04-26T09:04:14Z</time></trkpt><trkpt lat="39.42036777104433" lon="9.228119386901026"><ele>711.0</ele><time>2026-04-26T09:04:15Z</time></trkpt><trkpt lat="39.42031229287345" lon="9.228056021500137"><ele>711.0</ele><time>2026-04-26T09:04:16Z</time></trkpt><trkpt lat="39.42027033288686" lon="9.227986223154417"><ele>708.0</ele><time>2026-04-26T09:04:17Z</time></trkpt><trkpt lat="39.42020591799748" lon="9.227890965585607"><ele>705.0</ele><time>2026-04-26T09:04:19Z</time></trkpt><trkpt lat="39.420174145234974" lon="9.227797463064759"><ele>702.0</ele><time>2026-04-26T09:04:21Z</time></trkpt><trkpt lat="39.42020593825812" lon="9.227670838129177"><ele>699.0</ele><time>2026-04-26T09:04:23Z</time></trkpt><trkpt lat="39.4202399660832" lon="9.2275402372906"><ele>696.0</ele><time>2026-04-26T09:04:25Z</time></trkpt><trkpt lat="39.420277476902065" lon="9.22746105684767"><ele>696.0</ele><time>2026-04-26T09:04:27Z</time></trkpt><trkpt lat="39.420306342331116" lon="9.22737517861021"><ele>696.0</ele><time>2026-04-26T09:04:30Z</time></trkpt><trkpt lat="39.420335508751556" lon="9.227300250360024"><ele>696.0</ele><time>2026-04-26T09:04:33Z</time></trkpt><trkpt lat="39.420366897926435" lon="9.227215190156292"><ele>696.0</ele><time>2026-04-26T09:04:36Z</time></trkpt><trkpt lat="39.420407845923116" lon="9.227135678579211"><ele>696.0</ele><time>2026-04-26T09:04:39Z</time></trkpt><trkpt lat="39.420453730600656" lon="9.227056682205829"><ele>696.0</ele><time>2026-04-26T09:04:42Z</time></trkpt><trkpt lat="39.42050307119057" lon="9.226970842296641"><ele>696.0</ele><time>2026-04-26T09:04:45Z</time></trkpt><trkpt lat="39.42055168631715" lon="9.226904715223759"><ele>695.3333333333334</ele><time>2026-04-26T09:04:48Z</time></trkpt><trkpt lat="39.42061176599898" lon="9.226834489187874"><ele>694.6666666666666</ele><time>2026-04-26T09:04:51Z</time></trkpt><trkpt lat="39.420671357794944" lon="9.226777156421551"><ele>694.0</ele><time>2026-04-26T09:04:53Z</time></trkpt><trkpt lat="39.42072711108111" lon="9.226706881448091"><ele>693.3333333333333</ele><time>2026-04-26T09:04:57Z</time></trkpt><trkpt lat="39.4207774212816" lon="9.226623184738306"><ele>692.6666666666666</ele><time>2026-04-26T09:05:00Z</time></trkpt><trkpt lat="39.4208408636235" lon="9.226526528702882"><ele>692.0</ele><time>2026-04-26T09:05:03Z</time></trkpt><trkpt lat="39.42089746287333" lon="9.226442463072479"><ele>687.6666666666666</ele><time>2026-04-26T09:05:06Z</time></trkpt><trkpt lat="39.4209456977032" lon="9.226357451859235"><ele>683.3333333333333</ele><time>2026-04-26T09:05:09Z</time></trkpt><trkpt lat="39.421008649371736" lon="9.226274955121342"><ele>679.0</ele><time>2026-04-26T09:05:12Z</time></trkpt><trkpt lat="39.42104792721476" lon="9.226209508517107"><ele>674.6666666666666</ele><time>2026-04-26T09:05:14Z</time></trkpt><trkpt lat="39.4211104225835" lon="9.226151670526928"><ele>670.3333333333334</ele><time>2026-04-26T09:05:17Z</time></trkpt><trkpt lat="39.4211700636069" lon="9.226100449071406"><ele>666.0</ele><time>2026-04-26T09:05:20Z</time></trkpt><trkpt lat="39.4212358042203" lon="9.226056956834013"><ele>666.0</ele><time>2026-04-26T09:05:23Z</time></trkpt><trkpt lat="39.42129306542056" lon="9.225982141473054"><ele>666.0</ele><time>2026-04-26T09:05:26Z</time></trkpt><trkpt lat="39.421322574088364" lon="9.225877584143204"><ele>666.0</ele><time>2026-04-26T09:05:29Z</time></trkpt><trkpt lat="39.421330803372285" lon="9.225770835017022"><ele>666.0</ele><time>2026-04-26T09:05:31Z</time></trkpt><trkpt lat="39.42132449690391" lon="9.225682559998862"><ele>666.0</ele><time>2026-04-26T09:05:33Z</time></trkpt><trkpt lat="39.421330007441206" lon="9.225568670137603"><ele>666.0</ele><time>2026-04-26T09:05:36Z</time></trkpt><trkpt lat="39.42132305616886" lon="9.225465540955847"><ele>662.5</ele><time>2026-04-26T09:05:38Z</time></trkpt><trkpt lat="39.42131224497658" lon="9.225379526625359"><ele>659.0</ele><time>2026-04-26T09:05:40Z</time></trkpt><trkpt lat="39.42129388571276" lon="9.225277396419342"><ele>655.5</ele><time>2026-04-26T09:05:43Z</time></trkpt><trkpt lat="39.42127112867528" lon="9.2251941462422"><ele>652.0</ele><time>2026-04-26T09:05:45Z</time></trkpt><trkpt lat="39.421266630659446" lon="9.225101481563177"><ele>648.5</ele><time>2026-04-26T09:05:47Z</time></trkpt><trkpt lat="39.421254289070454" lon="9.224996882839285"><ele>645.0</ele><time>2026-04-26T09:05:49Z</time></trkpt><trkpt lat="39.421241075173306" lon="9.22489383106545"><ele>643.4285714285714</ele><time>2026-04-26T09:05:51Z</time></trkpt><trkpt lat="39.421226406907316" lon="9.2247988498629"><ele>641.8571428571428</ele><time>2026-04-26T09:05:53Z</time></trkpt><trkpt lat="39.421217785296065" lon="9.224694045737268"><ele>640.2857142857142</ele><time>2026-04-26T09:05:55Z</time></trkpt><trkpt lat="39.42119240565775" lon="9.224593677050478"><ele>638.7142857142858</ele><time>2026-04-26T09:05:58Z</time></trkpt><trkpt lat="39.421166738528356" lon="9.22451072272936"><ele>637.1428571428571</ele><time>2026-04-26T09:06:01Z</time></trkpt><trkpt lat="39.421178456710244" lon="9.224430364368018"><ele>635.5714285714286</ele><time>2026-04-26T09:06:04Z</time></trkpt><trkpt lat="39.42124591673963" lon="9.224410829040288"><ele>634.0</ele><time>2026-04-26T09:06:06Z</time></trkpt><trkpt lat="39.421322099869755" lon="9.224470997907467"><ele>634.0</ele><time>2026-04-26T09:06:09Z</time></trkpt><trkpt lat="39.42138873122118" lon="9.224502333148912"><ele>634.0</ele><time>2026-04-26T09:06:11Z</time></trkpt><trkpt lat="39.4214612706146" lon="9.22457382765277"><ele>634.0</ele><time>2026-04-26T09:06:13Z</time></trkpt><trkpt lat="39.42153509191235" lon="9.22464638972868"><ele>634.0</ele><time>2026-04-26T09:06:15Z</time></trkpt><trkpt lat="39.42159381006033" lon="9.224739186154055"><ele>634.0</ele><time>2026-04-26T09:06:17Z</time></trkpt><trkpt lat="39.421664889264974" lon="9.224806460501442"><ele>634.0</ele><time>2026-04-26T09:06:19Z</time></trkpt><trkpt lat="39.42175778850797" lon="9.224869023596247"><ele>637.2</ele><time>2026-04-26T09:06:21Z</time></trkpt><trkpt lat="39.42184866926454" lon="9.22491197893414"><ele>640.4</ele><time>2026-04-26T09:06:23Z</time></trkpt><trkpt lat="39.42191256582996" lon="9.225000399171636"><ele>643.6</ele><time>2026-04-26T09:06:25Z</time></trkpt><trkpt lat="39.42198691668106" lon="9.225093385822037"><ele>646.8</ele><time>2026-04-26T09:06:27Z</time></trkpt><trkpt lat="39.422044269412844" lon="9.225141265065554"><ele>650.0</ele><time>2026-04-26T09:06:28Z</time></trkpt><trkpt lat="39.42212360158507" lon="9.225255613116028"><ele>644.8</ele><time>2026-04-26T09:06:30Z</time></trkpt><trkpt lat="39.422182024390054" lon="9.225377283611806"><ele>639.6</ele><time>2026-04-26T09:06:32Z</time></trkpt><trkpt lat="39.42224420524484" lon="9.225495484927166"><ele>634.4</ele><time>2026-04-26T09:06:34Z</time></trkpt><trkpt lat="39.42230443255631" lon="9.225624647836204"><ele>629.2</ele><time>2026-04-26T09:06:36Z</time></trkpt><trkpt lat="39.42231845087674" lon="9.22575905575601"><ele>624.0</ele><time>2026-04-26T09:06:38Z</time></trkpt><trkpt lat="39.42232541368416" lon="9.225846745374378"><ele>624.0</ele><time>2026-04-26T09:06:40Z</time></trkpt><trkpt lat="39.4223593827195" lon="9.225932508850196"><ele>624.0</ele><time>2026-04-26T09:06:43Z</time></trkpt><trkpt lat="39.42242778936628" lon="9.225912558878044"><ele>624.0</ele><time>2026-04-26T09:06:45Z</time></trkpt><trkpt lat="39.422441737003716" lon="9.225815135784984"><ele>624.0</ele><time>2026-04-26T09:06:47Z</time></trkpt><trkpt lat="39.422450200232255" lon="9.225720309663867"><ele>624.0</ele><time>2026-04-26T09:06:50Z</time></trkpt><trkpt lat="39.422465907598486" lon="9.225603071572593"><ele>624.0</ele><time>2026-04-26T09:06:53Z</time></trkpt><trkpt lat="39.42248036627987" lon="9.22550902122344"><ele>622.8333333333334</ele><time>2026-04-26T09:06:55Z</time></trkpt><trkpt lat="39.42247743500914" lon="9.225423557128657"><ele>621.6666666666666</ele><time>2026-04-26T09:06:58Z</time></trkpt><trkpt lat="39.42247519057684" lon="9.225332795480679"><ele>620.5</ele><time>2026-04-26T09:07:01Z</time></trkpt><trkpt lat="39.42247667953539" lon="9.22522832639966"><ele>619.3333333333333</ele><time>2026-04-26T09:07:05Z</time></trkpt><trkpt lat="39.42248530585376" lon="9.225109175454246"><ele>618.1666666666666</ele><time>2026-04-26T09:07:08Z</time></trkpt><trkpt lat="39.422480900849784" lon="9.225023940531091"><ele>617.0</ele><time>2026-04-26T09:07:10Z</time></trkpt><trkpt lat="39.422486574663246" lon="9.22492340783985"><ele>617.0</ele><time>2026-04-26T09:07:12Z</time></trkpt><trkpt lat="39.42250608148927" lon="9.224817702335127"><ele>617.0</ele><time>2026-04-26T09:07:14Z</time></trkpt><trkpt lat="39.42250092630884" lon="9.224712618615525"><ele>617.0</ele><time>2026-04-26T09:07:16Z</time></trkpt><trkpt lat="39.4225216617805" lon="9.224618589037815"><ele>617.0</ele><time>2026-04-26T09:07:18Z</time></trkpt><trkpt lat="39.42253546585521" lon="9.224514202401362"><ele>617.0</ele><time>2026-04-26T09:07:20Z</time></trkpt><trkpt lat="39.42255855368993" lon="9.224421950883986"><ele>617.0</ele><time>2026-04-26T09:07:22Z</time></trkpt><trkpt lat="39.42259111817425" lon="9.224325095650128"><ele>615.0</ele><time>2026-04-26T09:07:24Z</time></trkpt><trkpt lat="39.42260176408038" lon="9.22423929911033"><ele>613.0</ele><time>2026-04-26T09:07:26Z</time></trkpt><trkpt lat="39.422601885575624" lon="9.224134190552297"><ele>611.0</ele><time>2026-04-26T09:07:28Z</time></trkpt><trkpt lat="39.42262186347983" lon="9.224026575536415"><ele>609.0</ele><time>2026-04-26T09:07:30Z</time></trkpt><trkpt lat="39.422610284853576" lon="9.223917335219847"><ele>607.0</ele><time>2026-04-26T09:07:32Z</time></trkpt><trkpt lat="39.42260293979136" lon="9.22383308432069"><ele>605.0</ele><time>2026-04-26T09:07:34Z</time></trkpt><trkpt lat="39.42261050759331" lon="9.22374882828966"><ele>603.1428571428571</ele><time>2026-04-26T09:07:36Z</time></trkpt><trkpt lat="39.42262105746565" lon="9.223658921557753"><ele>601.2857142857143</ele><time>2026-04-26T09:07:38Z</time></trkpt><trkpt lat="39.42266511383685" lon="9.223588932526077"><ele>599.4285714285714</ele><time>2026-04-26T09:07:40Z</time></trkpt><trkpt lat="39.42271610441745" lon="9.223531821478323"><ele>597.5714285714286</ele><time>2026-04-26T09:07:42Z</time></trkpt><trkpt lat="39.422787942130654" lon="9.223460405387945"><ele>595.7142857142857</ele><time>2026-04-26T09:07:45Z</time></trkpt><trkpt lat="39.42286051432978" lon="9.22350050007292"><ele>593.8571428571429</ele><time>2026-04-26T09:07:47Z</time></trkpt><trkpt lat="39.42291300448135" lon="9.223557405917555"><ele>592.0</ele><time>2026-04-26T09:07:49Z</time></trkpt><trkpt lat="39.42299346165043" lon="9.223622689989837"><ele>590.8000000000001</ele><time>2026-04-26T09:07:51Z</time></trkpt><trkpt lat="39.423079233997996" lon="9.223692387967917"><ele>589.6</ele><time>2026-04-26T09:07:53Z</time></trkpt><trkpt lat="39.42316911791985" lon="9.223764360282328"><ele>588.4000000000001</ele><time>2026-04-26T09:07:55Z</time></trkpt><trkpt lat="39.42325654728354" lon="9.223835680160814"><ele>587.2</ele><time>2026-04-26T09:07:57Z</time></trkpt><trkpt lat="39.423325804431016" lon="9.223889992584892"><ele>586.0</ele><time>2026-04-26T09:07:59Z</time></trkpt><trkpt lat="39.42339578611391" lon="9.223944873235093"><ele>586.1666666666667</ele><time>2026-04-26T09:08:01Z</time></trkpt><trkpt lat="39.42348458775136" lon="9.224011818375395"><ele>586.3333333333334</ele><time>2026-04-26T09:08:03Z</time></trkpt><trkpt lat="39.42355400789398" lon="9.224040455912764"><ele>586.5</ele><time>2026-04-26T09:08:05Z</time></trkpt><trkpt lat="39.423653599583545" lon="9.224066622971899"><ele>586.6666666666666</ele><time>2026-04-26T09:08:08Z</time></trkpt><trkpt lat="39.42374384756825" lon="9.224056047135182"><ele>586.8333333333333</ele><time>2026-04-26T09:08:10Z</time></trkpt><trkpt lat="39.423813277118384" lon="9.224070484530936"><ele>587.0</ele><time>2026-04-26T09:08:12Z</time></trkpt><trkpt lat="39.423835263052716" lon="9.224168590177332"><ele>584.1666666666666</ele><time>2026-04-26T09:08:16Z</time></trkpt><trkpt lat="39.42382814799254" lon="9.22427940573506"><ele>581.3333333333333</ele><time>2026-04-26T09:08:18Z</time></trkpt><trkpt lat="39.42383082832226" lon="9.224369570735933"><ele>578.5</ele><time>2026-04-26T09:08:21Z</time></trkpt><trkpt lat="39.42387350281804" lon="9.224462581260758"><ele>575.6666666666666</ele><time>2026-04-26T09:08:24Z</time></trkpt><trkpt lat="39.42393434618533" lon="9.22443483409975"><ele>572.8333333333334</ele><time>2026-04-26T09:08:25Z</time></trkpt><trkpt lat="39.4240161079869" lon="9.22445144147341"><ele>570.0</ele><time>2026-04-26T09:08:27Z</time></trkpt><trkpt lat="39.42411630732796" lon="9.2244547981722"><ele>570.0</ele><time>2026-04-26T09:08:29Z</time></trkpt><trkpt lat="39.4241822477564" lon="9.224455527603519"><ele>570.0</ele><time>2026-04-26T09:08:30Z</time></trkpt><trkpt lat="39.42429563586349" lon="9.224456781901877"><ele>570.0</ele><time>2026-04-26T09:08:32Z</time></trkpt><trkpt lat="39.424400570394994" lon="9.224457942686552"><ele>570.0</ele><time>2026-04-26T09:08:34Z</time></trkpt><trkpt lat="39.424505892075786" lon="9.224441379617101"><ele>570.0</ele><time>2026-04-26T09:08:36Z</time></trkpt><trkpt lat="39.42461322091778" lon="9.224458282939207"><ele>566.3333333333334</ele><time>2026-04-26T09:08:38Z</time></trkpt><trkpt lat="39.42471821102769" lon="9.224438764565916"><ele>562.6666666666666</ele><time>2026-04-26T09:08:40Z</time></trkpt><trkpt lat="39.42478480020824" lon="9.224445183542285"><ele>559.0</ele><time>2026-04-26T09:08:42Z</time></trkpt><trkpt lat="39.42483927813485" lon="9.22437140143807"><ele>555.3333333333333</ele><time>2026-04-26T09:08:44Z</time></trkpt><trkpt lat="39.42484788506158" lon="9.22425397190879"><ele>551.6666666666666</ele><time>2026-04-26T09:08:46Z</time></trkpt><trkpt lat="39.42484158675211" lon="9.224157947785937"><ele>548.0</ele><time>2026-04-26T09:08:48Z</time></trkpt><trkpt lat="39.424803629864755" lon="9.224050840149111"><ele>546.6666666666666</ele><time>2026-04-26T09:08:50Z</time></trkpt><trkpt lat="39.42477381248809" lon="9.22395418766355"><ele>545.3333333333333</ele><time>2026-04-26T09:08:54Z</time></trkpt><trkpt lat="39.424753139521904" lon="9.223868321153905"><ele>544.0</ele><time>2026-04-26T09:08:57Z</time></trkpt><trkpt lat="39.42473697111904" lon="9.223760216221788"><ele>542.6666666666666</ele><time>2026-04-26T09:09:00Z</time></trkpt><trkpt lat="39.424727576492465" lon="9.223660749815808"><ele>541.3333333333334</ele><time>2026-04-26T09:09:02Z</time></trkpt><trkpt lat="39.4247077538153" lon="9.223559138135068"><ele>540.0</ele><time>2026-04-26T09:09:05Z</time></trkpt><trkpt lat="39.424726702345446" lon="9.22347297073071"><ele>540.0</ele><time>2026-04-26T09:09:08Z</time></trkpt><trkpt lat="39.4247891504953" lon="9.22344700786637"><ele>540.0</ele><time>2026-04-26T09:09:10Z</time></trkpt><trkpt lat="39.42484466903841" lon="9.223523011650071"><ele>540.0</ele><time>2026-04-26T09:09:12Z</time></trkpt><trkpt lat="39.42491903483218" lon="9.223553756921437"><ele>540.0</ele><time>2026-04-26T09:09:14Z</time></trkpt><trkpt lat="39.4250209127122" lon="9.223574482579647"><ele>540.0</ele><time>2026-04-26T09:09:16Z</time></trkpt><trkpt lat="39.42510266122668" lon="9.22360739187517"><ele>540.0</ele><time>2026-04-26T09:09:18Z</time></trkpt><trkpt lat="39.42516799542747" lon="9.223602527435043"><ele>540.0</ele><time>2026-04-26T09:09:20Z</time></trkpt><trkpt lat="39.42517876272624" lon="9.22347480409156"><ele>540.0</ele><time>2026-04-26T09:09:22Z</time></trkpt><trkpt lat="39.425167527565385" lon="9.223363495592297"><ele>540.0</ele><time>2026-04-26T09:09:24Z</time></trkpt><trkpt lat="39.425124008886534" lon="9.223274566280324"><ele>540.0</ele><time>2026-04-26T09:09:26Z</time></trkpt><trkpt lat="39.425091328305186" lon="9.223203466274533"><ele>540.0</ele><time>2026-04-26T09:09:28Z</time></trkpt><trkpt lat="39.425053055194596" lon="9.223105184218447"><ele>540.0</ele><time>2026-04-26T09:09:31Z</time></trkpt><trkpt lat="39.4250755164915" lon="9.223005657024219"><ele>537.8333333333334</ele><time>2026-04-26T09:09:34Z</time></trkpt><trkpt lat="39.425165677749256" lon="9.223026276029495"><ele>535.6666666666666</ele><time>2026-04-26T09:09:36Z</time></trkpt><trkpt lat="39.425268566859536" lon="9.223047043748181"><ele>533.5</ele><time>2026-04-26T09:09:38Z</time></trkpt><trkpt lat="39.42535970016573" lon="9.223063684934555"><ele>531.3333333333333</ele><time>2026-04-26T09:09:40Z</time></trkpt><trkpt lat="39.42543493207423" lon="9.223089021635683"><ele>529.1666666666666</ele><time>2026-04-26T09:09:42Z</time></trkpt><trkpt lat="39.42550264278827" lon="9.223124325447586"><ele>527.0</ele><time>2026-04-26T09:09:44Z</time></trkpt><trkpt lat="39.42561292943625" lon="9.223208589972685"><ele>525.0</ele><time>2026-04-26T09:09:46Z</time></trkpt><trkpt lat="39.42564891053497" lon="9.223292055596533"><ele>523.0</ele><time>2026-04-26T09:09:47Z</time></trkpt><trkpt lat="39.42572646246373" lon="9.223408558556645"><ele>521.0</ele><time>2026-04-26T09:09:49Z</time></trkpt><trkpt lat="39.42580414847545" lon="9.223522072078515"><ele>519.0</ele><time>2026-04-26T09:09:51Z</time></trkpt><trkpt lat="39.42586208564623" lon="9.223633389836225"><ele>517.0</ele><time>2026-04-26T09:09:53Z</time></trkpt><trkpt lat="39.42591711382314" lon="9.223738483438824"><ele>517.0</ele><time>2026-04-26T09:09:55Z</time></trkpt><trkpt lat="39.42592259544031" lon="9.223856811105637"><ele>517.0</ele><time>2026-04-26T09:09:57Z</time></trkpt><trkpt lat="39.425917291456436" lon="9.223958644193491"><ele>517.0</ele><time>2026-04-26T09:10:00Z</time></trkpt><trkpt lat="39.426036846273334" lon="9.223867461613724"><ele>517.0</ele><time>2026-04-26T09:10:08Z</time></trkpt><trkpt lat="39.42603377919936" lon="9.223729650988368"><ele>517.0</ele><time>2026-04-26T09:10:09Z</time></trkpt><trkpt lat="39.42601566020629" lon="9.22361323482617"><ele>517.0</ele><time>2026-04-26T09:10:10Z</time></trkpt><trkpt lat="39.42597890753332" lon="9.223486194901962"><ele>517.0</ele><time>2026-04-26T09:10:11Z</time></trkpt><trkpt lat="39.42595052180173" lon="9.223347229445993"><ele>517.0</ele><time>2026-04-26T09:10:12Z</time></trkpt><trkpt lat="39.425914050850444" lon="9.223212094325477"><ele>517.0</ele><time>2026-04-26T09:10:13Z</time></trkpt><trkpt lat="39.42586070645832" lon="9.223073474830173"><ele>517.0</ele><time>2026-04-26T09:10:14Z</time></trkpt><trkpt lat="39.42581899938294" lon="9.222932507447624"><ele>516.4</ele><time>2026-04-26T09:10:15Z</time></trkpt><trkpt lat="39.4257824280414" lon="9.222801566940692"><ele>515.8000000000001</ele><time>2026-04-26T09:10:16Z</time></trkpt><trkpt lat="39.42574787373111" lon="9.222673025056132"><ele>515.2</ele><time>2026-04-26T09:10:17Z</time></trkpt><trkpt lat="39.42572626540083" lon="9.2225346856424"><ele>514.6</ele><time>2026-04-26T09:10:18Z</time></trkpt><trkpt lat="39.42568023068931" lon="9.22239951858984"><ele>514.0</ele><time>2026-04-26T09:10:19Z</time></trkpt><trkpt lat="39.42564640976269" lon="9.22225671154906"><ele>513.25</ele><time>2026-04-26T09:10:20Z</time></trkpt><trkpt lat="39.42560616018216" lon="9.222115525921676"><ele>512.5</ele><time>2026-04-26T09:10:21Z</time></trkpt><trkpt lat="39.425565401614925" lon="9.221978701099694"><ele>511.75</ele><time>2026-04-26T09:10:22Z</time></trkpt><trkpt lat="39.42552448931127" lon="9.221836120101962"><ele>511.0</ele><time>2026-04-26T09:10:23Z</time></trkpt><trkpt lat="39.42548856199689" lon="9.2216860951083"><ele>512.0</ele><time>2026-04-26T09:10:24Z</time></trkpt><trkpt lat="39.42544856103782" lon="9.221537888771778"><ele>513.0</ele><time>2026-04-26T09:10:25Z</time></trkpt><trkpt lat="39.425409342948065" lon="9.22139270612704"><ele>514.0</ele><time>2026-04-26T09:10:26Z</time></trkpt><trkpt lat="39.42536905142799" lon="9.22125134971618"><ele>515.0</ele><time>2026-04-26T09:10:27Z</time></trkpt><trkpt lat="39.42532440587197" lon="9.22110918120304"><ele>512.5</ele><time>2026-04-26T09:10:28Z</time></trkpt><trkpt lat="39.42528897495536" lon="9.220967881713399"><ele>510.0</ele><time>2026-04-26T09:10:29Z</time></trkpt><trkpt lat="39.42524697076757" lon="9.22082757874952"><ele>507.5</ele><time>2026-04-26T09:10:30Z</time></trkpt><trkpt lat="39.425208151689844" lon="9.220688893951635"><ele>505.0</ele><time>2026-04-26T09:10:31Z</time></trkpt><trkpt lat="39.42517870820743" lon="9.220555125304342"><ele>502.4</ele><time>2026-04-26T09:10:32Z</time></trkpt><trkpt lat="39.42514548149379" lon="9.22043093850151"><ele>499.8</ele><time>2026-04-26T09:10:33Z</time></trkpt><trkpt lat="39.42511008265583" lon="9.220316716322595"><ele>497.20000000000005</ele><time>2026-04-26T09:10:34Z</time></trkpt><trkpt lat="39.4250704240833" lon="9.22019977593591"><ele>494.6</ele><time>2026-04-26T09:10:35Z</time></trkpt><trkpt lat="39.42501556111562" lon="9.220089548551924"><ele>492.0</ele><time>2026-04-26T09:10:36Z</time></trkpt><trkpt lat="39.42493671330903" lon="9.219985808616528"><ele>492.0</ele><time>2026-04-26T09:10:37Z</time></trkpt><trkpt lat="39.424846118838595" lon="9.219893776958957"><ele>492.0</ele><time>2026-04-26T09:10:38Z</time></trkpt><trkpt lat="39.424742952248856" lon="9.219811423462378"><ele>492.0</ele><time>2026-04-26T09:10:39Z</time></trkpt><trkpt lat="39.424632946048064" lon="9.219719797604563"><ele>492.0</ele><time>2026-04-26T09:10:40Z</time></trkpt><trkpt lat="39.42452733312383" lon="9.219631652787323"><ele>488.5</ele><time>2026-04-26T09:10:41Z</time></trkpt><trkpt lat="39.42442170227554" lon="9.219548256508489"><ele>485.0</ele><time>2026-04-26T09:10:42Z</time></trkpt><trkpt lat="39.42432554616841" lon="9.219468215015715"><ele>481.5</ele><time>2026-04-26T09:10:43Z</time></trkpt><trkpt lat="39.42422451802435" lon="9.219382705934043"><ele>478.0</ele><time>2026-04-26T09:10:44Z</time></trkpt><trkpt lat="39.42411671707921" lon="9.219305391037993"><ele>478.0</ele><time>2026-04-26T09:10:45Z</time></trkpt><trkpt lat="39.42400461715764" lon="9.219233366369178"><ele>478.0</ele><time>2026-04-26T09:10:46Z</time></trkpt><trkpt lat="39.42389128155529" lon="9.219169912127878"><ele>478.0</ele><time>2026-04-26T09:10:47Z</time></trkpt><trkpt lat="39.42377436717146" lon="9.219121002245025"><ele>478.0</ele><time>2026-04-26T09:10:48Z</time></trkpt><trkpt lat="39.42365488096535" lon="9.219064166619507"><ele>479.5</ele><time>2026-04-26T09:10:49Z</time></trkpt><trkpt lat="39.42353167485928" lon="9.2190193359052"><ele>481.0</ele><time>2026-04-26T09:10:50Z</time></trkpt><trkpt lat="39.42341263894748" lon="9.218973539904258"><ele>482.5</ele><time>2026-04-26T09:10:51Z</time></trkpt><trkpt lat="39.42330229676669" lon="9.218920807347251"><ele>484.0</ele><time>2026-04-26T09:10:52Z</time></trkpt><trkpt lat="39.423194813853634" lon="9.218871690155536"><ele>480.75</ele><time>2026-04-26T09:10:53Z</time></trkpt><trkpt lat="39.42308670598877" lon="9.21881674310854"><ele>477.5</ele><time>2026-04-26T09:10:54Z</time></trkpt><trkpt lat="39.422982660646994" lon="9.218740329733953"><ele>474.25</ele><time>2026-04-26T09:10:55Z</time></trkpt><trkpt lat="39.422891850404184" lon="9.218635241679829"><ele>471.0</ele><time>2026-04-26T09:10:56Z</time></trkpt><trkpt lat="39.422822675061234" lon="9.218496080434425"><ele>471.0</ele><time>2026-04-26T09:10:57Z</time></trkpt><trkpt lat="39.422732355859175" lon="9.218380703612693"><ele>471.0</ele><time>2026-04-26T09:10:58Z</time></trkpt><trkpt lat="39.422654221738696" lon="9.218248980970639"><ele>471.0</ele><time>2026-04-26T09:10:59Z</time></trkpt><trkpt lat="39.42258364418242" lon="9.218128081577133"><ele>471.0</ele><time>2026-04-26T09:11:00Z</time></trkpt><trkpt lat="39.422508245691056" lon="9.218007624356147"><ele>466.0</ele><time>2026-04-26T09:11:01Z</time></trkpt><trkpt lat="39.42242904199333" lon="9.217882074985797"><ele>461.0</ele><time>2026-04-26T09:11:02Z</time></trkpt><trkpt lat="39.42234874988486" lon="9.217748696251977"><ele>456.0</ele><time>2026-04-26T09:11:03Z</time></trkpt><trkpt lat="39.422268094806924" lon="9.21762079878504"><ele>451.0</ele><time>2026-04-26T09:11:04Z</time></trkpt><trkpt lat="39.422186663415665" lon="9.217493401472483"><ele>450.75</ele><time>2026-04-26T09:11:05Z</time></trkpt><trkpt lat="39.42210987835855" lon="9.217367203297991"><ele>450.5</ele><time>2026-04-26T09:11:06Z</time></trkpt><trkpt lat="39.42202908822889" lon="9.217233481477662"><ele>450.25</ele><time>2026-04-26T09:11:07Z</time></trkpt><trkpt lat="39.42195000216586" lon="9.217109438063153"><ele>450.0</ele><time>2026-04-26T09:11:08Z</time></trkpt><trkpt lat="39.42187457260439" lon="9.2169946284076"><ele>450.0</ele><time>2026-04-26T09:11:09Z</time></trkpt><trkpt lat="39.42180660526738" lon="9.216878951180812"><ele>450.0</ele><time>2026-04-26T09:11:10Z</time></trkpt><trkpt lat="39.42173846336725" lon="9.216770431939961"><ele>450.0</ele><time>2026-04-26T09:11:11Z</time></trkpt><trkpt lat="39.421664352404406" lon="9.21665002448233"><ele>450.0</ele><time>2026-04-26T09:11:12Z</time></trkpt><trkpt lat="39.42158908818885" lon="9.216518127018926"><ele>447.6</ele><time>2026-04-26T09:11:13Z</time></trkpt><trkpt lat="39.421531508197454" lon="9.216377904624823"><ele>445.2</ele><time>2026-04-26T09:11:14Z</time></trkpt><trkpt lat="39.421515636829774" lon="9.21623046864633"><ele>442.79999999999995</ele><time>2026-04-26T09:11:15Z</time></trkpt><trkpt lat="39.42148815870654" lon="9.21609198682088"><ele>440.4</ele><time>2026-04-26T09:11:16Z</time></trkpt><trkpt lat="39.421481437638676" lon="9.215977775924205"><ele>438.0</ele><time>2026-04-26T09:11:17Z</time></trkpt><trkpt lat="39.421465134212006" lon="9.215880479681449"><ele>438.0</ele><time>2026-04-26T09:11:18Z</time></trkpt><trkpt lat="39.42142574247378" lon="9.215791639254011"><ele>437.99999999999994</ele><time>2026-04-26T09:11:19Z</time></trkpt><trkpt lat="39.42136360963395" lon="9.215707236864858"><ele>437.99999999999994</ele><time>2026-04-26T09:11:20Z</time></trkpt><trkpt lat="39.42127935470648" lon="9.215655110744388"><ele>438.0</ele><time>2026-04-26T09:11:21Z</time></trkpt><trkpt lat="39.42117907077108" lon="9.215641909586626"><ele>438.0</ele><time>2026-04-26T09:11:22Z</time></trkpt><trkpt lat="39.42106882249402" lon="9.215677993379103"><ele>437.79999999999995</ele><time>2026-04-26T09:11:23Z</time></trkpt><trkpt lat="39.420974217274825" lon="9.215743631498945"><ele>437.59999999999997</ele><time>2026-04-26T09:11:24Z</time></trkpt><trkpt lat="39.420910929247" lon="9.215843738967218"><ele>437.40000000000003</ele><time>2026-04-26T09:11:25Z</time></trkpt><trkpt lat="39.42087860776724" lon="9.21598048285645"><ele>437.20000000000005</ele><time>2026-04-26T09:11:26Z</time></trkpt><trkpt lat="39.42086515897404" lon="9.216127535745297"><ele>437.0</ele><time>2026-04-26T09:11:27Z</time></trkpt><trkpt lat="39.42085265590462" lon="9.216283074445224"><ele>437.0</ele><time>2026-04-26T09:11:28Z</time></trkpt><trkpt lat="39.42084206180086" lon="9.216434303460037"><ele>437.00000000000006</ele><time>2026-04-26T09:11:29Z</time></trkpt><trkpt lat="39.42084235429895" lon="9.21656671878852"><ele>437.00000000000006</ele><time>2026-04-26T09:11:30Z</time></trkpt><trkpt lat="39.420858035137854" lon="9.216689381516906"><ele>437.0</ele><time>2026-04-26T09:11:31Z</time></trkpt><trkpt lat="39.42087879256986" lon="9.216813643058416"><ele>437.0</ele><time>2026-04-26T09:11:32Z</time></trkpt><trkpt lat="39.42092679909604" lon="9.21694209171742"><ele>437.25</ele><time>2026-04-26T09:11:33Z</time></trkpt><trkpt lat="39.420984869027045" lon="9.217085129977134"><ele>437.5</ele><time>2026-04-26T09:11:34Z</time></trkpt><trkpt lat="39.42103783035756" lon="9.21722902074891"><ele>437.75</ele><time>2026-04-26T09:11:35Z</time></trkpt><trkpt lat="39.421090989031576" lon="9.217364583412591"><ele>438.0</ele><time>2026-04-26T09:11:36Z</time></trkpt><trkpt lat="39.421138173054125" lon="9.21748675184063"><ele>436.0</ele><time>2026-04-26T09:11:37Z</time></trkpt><trkpt lat="39.42118734296749" lon="9.217610098212223"><ele>433.99999999999994</ele><time>2026-04-26T09:11:38Z</time></trkpt><trkpt lat="39.421237211518886" lon="9.217735617153446"><ele>431.99999999999994</ele><time>2026-04-26T09:11:39Z</time></trkpt><trkpt lat="39.42129000865925" lon="9.217858699623536"><ele>430.0</ele><time>2026-04-26T09:11:40Z</time></trkpt><trkpt lat="39.421333390294826" lon="9.217981342236602"><ele>428.0</ele><time>2026-04-26T09:11:41Z</time></trkpt><trkpt lat="39.42136640487286" lon="9.218100004502851"><ele>435.25</ele><time>2026-04-26T09:11:42Z</time></trkpt><trkpt lat="39.42138962594901" lon="9.218244974068481"><ele>442.5</ele><time>2026-04-26T09:11:43Z</time></trkpt><trkpt lat="39.42139603786633" lon="9.21840106855704"><ele>449.75</ele><time>2026-04-26T09:11:44Z</time></trkpt><trkpt lat="39.42135577143043" lon="9.218560295400207"><ele>457.0</ele><time>2026-04-26T09:11:45Z</time></trkpt><trkpt lat="39.42132228576557" lon="9.218696348495657"><ele>453.6</ele><time>2026-04-26T09:11:46Z</time></trkpt><trkpt lat="39.42129264937285" lon="9.218826071091627"><ele>450.20000000000005</ele><time>2026-04-26T09:11:47Z</time></trkpt><trkpt lat="39.42127491857815" lon="9.218946196521836"><ele>446.8</ele><time>2026-04-26T09:11:48Z</time></trkpt><trkpt lat="39.42122623683137" lon="9.219040675557476"><ele>443.4</ele><time>2026-04-26T09:11:49Z</time></trkpt><trkpt lat="39.42114862635187" lon="9.219110986316494"><ele>440.0</ele><time>2026-04-26T09:11:50Z</time></trkpt><trkpt lat="39.42104224731983" lon="9.219155758234171"><ele>440.0</ele><time>2026-04-26T09:11:51Z</time></trkpt><trkpt lat="39.42092688063791" lon="9.21915360356655"><ele>440.0</ele><time>2026-04-26T09:11:52Z</time></trkpt><trkpt lat="39.420805662660676" lon="9.219156558835355"><ele>440.0</ele><time>2026-04-26T09:11:53Z</time></trkpt><trkpt lat="39.42070363207574" lon="9.219090573977956"><ele>440.0</ele><time>2026-04-26T09:11:54Z</time></trkpt><trkpt lat="39.42061779831832" lon="9.219035886345178"><ele>440.0</ele><time>2026-04-26T09:11:55Z</time></trkpt><trkpt lat="39.42053229307937" lon="9.218995139070806"><ele>438.4</ele><time>2026-04-26T09:11:56Z</time></trkpt><trkpt lat="39.42045510613087" lon="9.218999207881437"><ele>436.8</ele><time>2026-04-26T09:11:57Z</time></trkpt><trkpt lat="39.42037712277468" lon="9.219012292935234"><ele>435.20000000000005</ele><time>2026-04-26T09:11:58Z</time></trkpt><trkpt lat="39.42028461068709" lon="9.219061706643522"><ele>433.6</ele><time>2026-04-26T09:11:59Z</time></trkpt><trkpt lat="39.42019172069481" lon="9.219138942677725"><ele>432.0</ele><time>2026-04-26T09:12:00Z</time></trkpt><trkpt lat="39.420112699190796" lon="9.219219645543477"><ele>432.0</ele><time>2026-04-26T09:12:01Z</time></trkpt><trkpt lat="39.42001691706363" lon="9.21927755391127"><ele>432.0</ele><time>2026-04-26T09:12:02Z</time></trkpt><trkpt lat="39.41990129117055" lon="9.219240059878612"><ele>432.0</ele><time>2026-04-26T09:12:03Z</time></trkpt><trkpt lat="39.41977199401" lon="9.219234017425583"><ele>432.0</ele><time>2026-04-26T09:12:04Z</time></trkpt><trkpt lat="39.41963962651713" lon="9.219228358385132"><ele>431.75</ele><time>2026-04-26T09:12:05Z</time></trkpt><trkpt lat="39.419516950761555" lon="9.219223391766791"><ele>431.5</ele><time>2026-04-26T09:12:06Z</time></trkpt><trkpt lat="39.419400863431036" lon="9.219218391376453"><ele>431.25</ele><time>2026-04-26T09:12:07Z</time></trkpt><trkpt lat="39.419284807994806" lon="9.219213750956898"><ele>431.0</ele><time>2026-04-26T09:12:08Z</time></trkpt><trkpt lat="39.419173233734575" lon="9.219208225998198"><ele>431.0</ele><time>2026-04-26T09:12:09Z</time></trkpt><trkpt lat="39.41905733954761" lon="9.219224517783063"><ele>431.0</ele><time>2026-04-26T09:12:10Z</time></trkpt><trkpt lat="39.41893194079894" lon="9.21921353394737"><ele>431.0</ele><time>2026-04-26T09:12:11Z</time></trkpt><trkpt lat="39.418805629826544" lon="9.219209167993172"><ele>431.0</ele><time>2026-04-26T09:12:12Z</time></trkpt><trkpt lat="39.41869473902837" lon="9.219181735115793"><ele>431.8</ele><time>2026-04-26T09:12:13Z</time></trkpt><trkpt lat="39.4185884732001" lon="9.219172672814823"><ele>432.6</ele><time>2026-04-26T09:12:14Z</time></trkpt><trkpt lat="39.418515848579304" lon="9.219070610842442"><ele>433.4</ele><time>2026-04-26T09:12:15Z</time></trkpt><trkpt lat="39.41845165048" lon="9.218968034604366"><ele>434.2</ele><time>2026-04-26T09:12:16Z</time></trkpt><trkpt lat="39.41841663401979" lon="9.218839867394111"><ele>435.0</ele><time>2026-04-26T09:12:17Z</time></trkpt><trkpt lat="39.41840724995545" lon="9.218691454513847"><ele>435.0</ele><time>2026-04-26T09:12:18Z</time></trkpt><trkpt lat="39.41843645935501" lon="9.218535431308961"><ele>435.0</ele><time>2026-04-26T09:12:19Z</time></trkpt><trkpt lat="39.418503708845755" lon="9.218417062064237"><ele>435.0</ele><time>2026-04-26T09:12:20Z</time></trkpt><trkpt lat="39.41854200073176" lon="9.218283931218805"><ele>435.0</ele><time>2026-04-26T09:12:21Z</time></trkpt><trkpt lat="39.418598738105636" lon="9.218167516306423"><ele>432.8</ele><time>2026-04-26T09:12:22Z</time></trkpt><trkpt lat="39.41864206615005" lon="9.218056831034708"><ele>430.6</ele><time>2026-04-26T09:12:23Z</time></trkpt><trkpt lat="39.41867833127182" lon="9.217950348377592"><ele>428.4</ele><time>2026-04-26T09:12:24Z</time></trkpt><trkpt lat="39.41869948505506" lon="9.217842246030663"><ele>426.2</ele><time>2026-04-26T09:12:25Z</time></trkpt><trkpt lat="39.41868882744391" lon="9.217722710338439"><ele>424.0</ele><time>2026-04-26T09:12:26Z</time></trkpt><trkpt lat="39.418649586326445" lon="9.217604550809675"><ele>424.0</ele><time>2026-04-26T09:12:27Z</time></trkpt><trkpt lat="39.418590534089034" lon="9.217487121591052"><ele>424.0</ele><time>2026-04-26T09:12:28Z</time></trkpt><trkpt lat="39.41852381138454" lon="9.217361258114678"><ele>424.0</ele><time>2026-04-26T09:12:29Z</time></trkpt><trkpt lat="39.4184541146324" lon="9.217243343919591"><ele>424.0</ele><time>2026-04-26T09:12:30Z</time></trkpt><trkpt lat="39.418386620519605" lon="9.217134363600653"><ele>424.0</ele><time>2026-04-26T09:12:31Z</time></trkpt><trkpt lat="39.41830758574338" lon="9.217036238630582"><ele>421.0</ele><time>2026-04-26T09:12:32Z</time></trkpt><trkpt lat="39.418220349285434" lon="9.216954823295788"><ele>418.0</ele><time>2026-04-26T09:12:33Z</time></trkpt><trkpt lat="39.4181126818322" lon="9.216898428021313"><ele>415.0</ele><time>2026-04-26T09:12:34Z</time></trkpt><trkpt lat="39.41799320285937" lon="9.216859218848102"><ele>412.0</ele><time>2026-04-26T09:12:35Z</time></trkpt><trkpt lat="39.41786867468101" lon="9.21682549454449"><ele>412.0</ele><time>2026-04-26T09:12:36Z</time></trkpt><trkpt lat="39.417748104808126" lon="9.216793102251605"><ele>412.0</ele><time>2026-04-26T09:12:37Z</time></trkpt><trkpt lat="39.41764564084716" lon="9.216749463634242"><ele>412.0</ele><time>2026-04-26T09:12:38Z</time></trkpt><trkpt lat="39.417559068980694" lon="9.21672647287782"><ele>412.0</ele><time>2026-04-26T09:12:39Z</time></trkpt><trkpt lat="39.41748541333593" lon="9.216690767789666"><ele>412.0</ele><time>2026-04-26T09:12:40Z</time></trkpt><trkpt lat="39.41742069204634" lon="9.216609165093569"><ele>412.0</ele><time>2026-04-26T09:12:41Z</time></trkpt><trkpt lat="39.41737211419889" lon="9.216497576705176"><ele>412.0</ele><time>2026-04-26T09:12:42Z</time></trkpt><trkpt lat="39.417354091221256" lon="9.216358399828698"><ele>412.0</ele><time>2026-04-26T09:12:43Z</time></trkpt><trkpt lat="39.417356880776495" lon="9.216215303444912"><ele>412.0</ele><time>2026-04-26T09:12:44Z</time></trkpt><trkpt lat="39.417370927756615" lon="9.216072016903345"><ele>412.0</ele><time>2026-04-26T09:12:45Z</time></trkpt><trkpt lat="39.417388964542354" lon="9.21593966669002"><ele>408.6</ele><time>2026-04-26T09:12:46Z</time></trkpt><trkpt lat="39.41737666304309" lon="9.215822434592964"><ele>405.20000000000005</ele><time>2026-04-26T09:12:47Z</time></trkpt><trkpt lat="39.41732817010766" lon="9.215724080675166"><ele>401.8</ele><time>2026-04-26T09:12:48Z</time></trkpt><trkpt lat="39.417248773714206" lon="9.215638962982233"><ele>398.4</ele><time>2026-04-26T09:12:49Z</time></trkpt><trkpt lat="39.41714683769842" lon="9.215592105995256"><ele>395.0</ele><time>2026-04-26T09:12:50Z</time></trkpt><trkpt lat="39.417033163004966" lon="9.215580788629348"><ele>395.0</ele><time>2026-04-26T09:12:51Z</time></trkpt><trkpt lat="39.41691826539491" lon="9.215595662976527"><ele>395.0</ele><time>2026-04-26T09:12:52Z</time></trkpt><trkpt lat="39.41681176502181" lon="9.215598798890834"><ele>395.0</ele><time>2026-04-26T09:12:53Z</time></trkpt><trkpt lat="39.41671942999215" lon="9.215543966759745"><ele>395.0</ele><time>2026-04-26T09:12:54Z</time></trkpt><trkpt lat="39.416642425681395" lon="9.2154391529856"><ele>395.0</ele><time>2026-04-26T09:12:55Z</time></trkpt><trkpt lat="39.4166039686349" lon="9.215296911693342"><ele>395.0</ele><time>2026-04-26T09:12:56Z</time></trkpt><trkpt lat="39.41656583606651" lon="9.215161554560547"><ele>395.0</ele><time>2026-04-26T09:12:57Z</time></trkpt><trkpt lat="39.41651841761941" lon="9.215025871879241"><ele>395.0</ele><time>2026-04-26T09:12:58Z</time></trkpt><trkpt lat="39.416508490863755" lon="9.214876990735537"><ele>395.0</ele><time>2026-04-26T09:12:59Z</time></trkpt><trkpt lat="39.41652691433546" lon="9.214714657227322"><ele>394.0</ele><time>2026-04-26T09:13:00Z</time></trkpt><trkpt lat="39.41656469041498" lon="9.21455884876546"><ele>393.0</ele><time>2026-04-26T09:13:01Z</time></trkpt><trkpt lat="39.41661292441271" lon="9.214418825822055"><ele>392.0</ele><time>2026-04-26T09:13:02Z</time></trkpt><trkpt lat="39.41666225923063" lon="9.214282366389742"><ele>391.0</ele><time>2026-04-26T09:13:03Z</time></trkpt><trkpt lat="39.416707021136695" lon="9.214148704954704"><ele>391.0</ele><time>2026-04-26T09:13:04Z</time></trkpt><trkpt lat="39.41675368910287" lon="9.214019753902772"><ele>391.0</ele><time>2026-04-26T09:13:05Z</time></trkpt><trkpt lat="39.41678920666166" lon="9.213895088189826"><ele>391.0</ele><time>2026-04-26T09:13:06Z</time></trkpt><trkpt lat="39.41680259829542" lon="9.213767966226415"><ele>391.0</ele><time>2026-04-26T09:13:07Z</time></trkpt><trkpt lat="39.416790524486785" lon="9.213639280775203"><ele>391.0</ele><time>2026-04-26T09:13:08Z</time></trkpt><trkpt lat="39.416747497960415" lon="9.213506873995467"><ele>388.5</ele><time>2026-04-26T09:13:09Z</time></trkpt><trkpt lat="39.41668184358779" lon="9.213382501205789"><ele>386.0</ele><time>2026-04-26T09:13:10Z</time></trkpt><trkpt lat="39.41660389499964" lon="9.21327467534681"><ele>383.5</ele><time>2026-04-26T09:13:11Z</time></trkpt><trkpt lat="39.41650717432145" lon="9.213180530136121"><ele>381.0</ele><time>2026-04-26T09:13:12Z</time></trkpt><trkpt lat="39.416392904103375" lon="9.213103984289353"><ele>377.20000000000005</ele><time>2026-04-26T09:13:13Z</time></trkpt><trkpt lat="39.416285122444975" lon="9.213045775739733"><ele>373.40000000000003</ele><time>2026-04-26T09:13:14Z</time></trkpt><trkpt lat="39.41618444662608" lon="9.212992620843234"><ele>369.6</ele><time>2026-04-26T09:13:15Z</time></trkpt><trkpt lat="39.416083755506016" lon="9.2129422483825"><ele>365.8</ele><time>2026-04-26T09:13:16Z</time></trkpt><trkpt lat="39.41597838863981" lon="9.212907748990354"><ele>362.0</ele><time>2026-04-26T09:13:17Z</time></trkpt><trkpt lat="39.415877684285505" lon="9.212925907423212"><ele>362.0</ele><time>2026-04-26T09:13:18Z</time></trkpt><trkpt lat="39.415784349164916" lon="9.212992688489784"><ele>362.0</ele><time>2026-04-26T09:13:19Z</time></trkpt><trkpt lat="39.41568056626493" lon="9.21306781086791"><ele>362.0</ele><time>2026-04-26T09:13:20Z</time></trkpt><trkpt lat="39.41557496572526" lon="9.21315344380977"><ele>362.0</ele><time>2026-04-26T09:13:21Z</time></trkpt><trkpt lat="39.415486470148196" lon="9.21323592549863"><ele>365.0</ele><time>2026-04-26T09:13:22Z</time></trkpt><trkpt lat="39.415401462835675" lon="9.213312201992812"><ele>368.0</ele><time>2026-04-26T09:13:23Z</time></trkpt><trkpt lat="39.41531463206399" lon="9.213389899931588"><ele>371.0</ele><time>2026-04-26T09:13:24Z</time></trkpt><trkpt lat="39.415225199882585" lon="9.213447552182085"><ele>374.0</ele><time>2026-04-26T09:13:25Z</time></trkpt><trkpt lat="39.41512252521337" lon="9.213476446706968"><ele>377.0</ele><time>2026-04-26T09:13:26Z</time></trkpt><trkpt lat="39.415014495964364" lon="9.213432257531988"><ele>377.0</ele><time>2026-04-26T09:13:27Z</time></trkpt><trkpt lat="39.41492051203701" lon="9.21335310946746"><ele>377.0</ele><time>2026-04-26T09:13:28Z</time></trkpt><trkpt lat="39.414822362866516" lon="9.21326220450866"><ele>377.0</ele><time>2026-04-26T09:13:29Z</time></trkpt><trkpt lat="39.414728448541844" lon="9.213194021997873"><ele>377.0</ele><time>2026-04-26T09:13:30Z</time></trkpt><trkpt lat="39.41464904643392" lon="9.213145101272588"><ele>377.0</ele><time>2026-04-26T09:13:31Z</time></trkpt><trkpt lat="39.414574331028945" lon="9.213127581974291"><ele>376.0</ele><time>2026-04-26T09:13:32Z</time></trkpt><trkpt lat="39.41448482484685" lon="9.213137964453553"><ele>375.0</ele><time>2026-04-26T09:13:33Z</time></trkpt><trkpt lat="39.41439509159252" lon="9.213187217281709"><ele>374.0</ele><time>2026-04-26T09:13:34Z</time></trkpt><trkpt lat="39.4143131990894" lon="9.213270664999383"><ele>373.0</ele><time>2026-04-26T09:13:35Z</time></trkpt><trkpt lat="39.41426681697498" lon="9.213394255526026"><ele>372.0</ele><time>2026-04-26T09:13:36Z</time></trkpt><trkpt lat="39.414237535904" lon="9.213534854808776"><ele>370.75</ele><time>2026-04-26T09:13:37Z</time></trkpt><trkpt lat="39.41422578163763" lon="9.213694374865737"><ele>369.5</ele><time>2026-04-26T09:13:38Z</time></trkpt><trkpt lat="39.4142170712023" lon="9.213857602284929"><ele>368.25</ele><time>2026-04-26T09:13:39Z</time></trkpt><trkpt lat="39.41420923177581" lon="9.214014047249591"><ele>367.0</ele><time>2026-04-26T09:13:40Z</time></trkpt><trkpt lat="39.414185542544125" lon="9.214156024822586"><ele>367.0</ele><time>2026-04-26T09:13:41Z</time></trkpt><trkpt lat="39.414189247453024" lon="9.21429038753699"><ele>367.0</ele><time>2026-04-26T09:13:42Z</time></trkpt><trkpt lat="39.41419534695018" lon="9.214425428025567"><ele>367.0</ele><time>2026-04-26T09:13:43Z</time></trkpt><trkpt lat="39.41420477969435" lon="9.214550668833564"><ele>367.0</ele><time>2026-04-26T09:13:44Z</time></trkpt><trkpt lat="39.414202647770786" lon="9.214661722179056"><ele>367.0</ele><time>2026-04-26T09:13:45Z</time></trkpt><trkpt lat="39.41416672191352" lon="9.214760460798658"><ele>368.6</ele><time>2026-04-26T09:13:46Z</time></trkpt><trkpt lat="39.41411374813257" lon="9.214850301485937"><ele>370.20000000000005</ele><time>2026-04-26T09:13:47Z</time></trkpt><trkpt lat="39.414031793041616" lon="9.214892616205425"><ele>371.8</ele><time>2026-04-26T09:13:48Z</time></trkpt><trkpt lat="39.41394199953911" lon="9.214910257979003"><ele>373.4</ele><time>2026-04-26T09:13:49Z</time></trkpt><trkpt lat="39.41385116107332" lon="9.214869670073723"><ele>375.0</ele><time>2026-04-26T09:13:50Z</time></trkpt><trkpt lat="39.41377437396607" lon="9.214781529223862"><ele>369.8</ele><time>2026-04-26T09:13:51Z</time></trkpt><trkpt lat="39.41372655193407" lon="9.21466393420406"><ele>364.6</ele><time>2026-04-26T09:13:52Z</time></trkpt><trkpt lat="39.41367054686536" lon="9.214555900769478"><ele>359.4</ele><time>2026-04-26T09:13:53Z</time></trkpt><trkpt lat="39.41360376070215" lon="9.21447562229361"><ele>354.2</ele><time>2026-04-26T09:13:54Z</time></trkpt><trkpt lat="39.41352977594255" lon="9.214420797552657"><ele>349.0</ele><time>2026-04-26T09:13:55Z</time></trkpt><trkpt lat="39.41342697457833" lon="9.214397977302513"><ele>349.0</ele><time>2026-04-26T09:13:56Z</time></trkpt><trkpt lat="39.41330348561411" lon="9.214403652312603"><ele>349.0</ele><time>2026-04-26T09:13:57Z</time></trkpt><trkpt lat="39.413166491302356" lon="9.214423478324031"><ele>349.0</ele><time>2026-04-26T09:13:58Z</time></trkpt><trkpt lat="39.41303596095095" lon="9.214433279845"><ele>349.0</ele><time>2026-04-26T09:13:59Z</time></trkpt><trkpt lat="39.41291794400828" lon="9.214438918376132"><ele>346.75</ele><time>2026-04-26T09:14:00Z</time></trkpt><trkpt lat="39.412802877606445" lon="9.21443683627948"><ele>344.5</ele><time>2026-04-26T09:14:01Z</time></trkpt><trkpt lat="39.41269093955964" lon="9.21439010068041"><ele>342.25</ele><time>2026-04-26T09:14:02Z</time></trkpt><trkpt lat="39.41257919126075" lon="9.214349823063598"><ele>340.0</ele><time>2026-04-26T09:14:03Z</time></trkpt><trkpt lat="39.412460754228995" lon="9.214320770678992"><ele>340.0</ele><time>2026-04-26T09:14:04Z</time></trkpt><trkpt lat="39.412354452091044" lon="9.214285644940379"><ele>340.0</ele><time>2026-04-26T09:14:05Z</time></trkpt><trkpt lat="39.41226291985223" lon="9.21428223328573"><ele>340.0</ele><time>2026-04-26T09:14:06Z</time></trkpt><trkpt lat="39.41217891368713" lon="9.214308438113505"><ele>340.0</ele><time>2026-04-26T09:14:07Z</time></trkpt><trkpt lat="39.41210061565071" lon="9.214359826411272"><ele>340.0</ele><time>2026-04-26T09:14:08Z</time></trkpt><trkpt lat="39.412035329682794" lon="9.214454504374334"><ele>335.5</ele><time>2026-04-26T09:14:09Z</time></trkpt><trkpt lat="39.41199677149658" lon="9.21458226994665"><ele>331.0</ele><time>2026-04-26T09:14:10Z</time></trkpt><trkpt lat="39.41197912207979" lon="9.214731686303761"><ele>326.5</ele><time>2026-04-26T09:14:11Z</time></trkpt><trkpt lat="39.41198216165329" lon="9.214895915319143"><ele>322.0</ele><time>2026-04-26T09:14:12Z</time></trkpt><trkpt lat="39.411999019528984" lon="9.215060871399412"><ele>321.25</ele><time>2026-04-26T09:14:13Z</time></trkpt><trkpt lat="39.41200703384074" lon="9.21523015426685"><ele>320.5</ele><time>2026-04-26T09:14:14Z</time></trkpt><trkpt lat="39.4120171774875" lon="9.2153848749053"><ele>319.75</ele><time>2026-04-26T09:14:15Z</time></trkpt><trkpt lat="39.41201998420955" lon="9.215532562275984"><ele>319.0</ele><time>2026-04-26T09:14:16Z</time></trkpt><trkpt lat="39.41202101640359" lon="9.215672613305031"><ele>318.5</ele><time>2026-04-26T09:14:17Z</time></trkpt><trkpt lat="39.41204427999985" lon="9.215816539423612"><ele>318.0</ele><time>2026-04-26T09:14:18Z</time></trkpt><trkpt lat="39.41209495511839" lon="9.21595456691614"><ele>317.5</ele><time>2026-04-26T09:14:19Z</time></trkpt><trkpt lat="39.41213662734956" lon="9.216094075840871"><ele>317.0</ele><time>2026-04-26T09:14:20Z</time></trkpt><trkpt lat="39.4121828219855" lon="9.216231796132474"><ele>323.5</ele><time>2026-04-26T09:14:21Z</time></trkpt><trkpt lat="39.41222988403071" lon="9.216369003902653"><ele>330.0</ele><time>2026-04-26T09:14:22Z</time></trkpt><trkpt lat="39.41227363713118" lon="9.216504584007911"><ele>336.5</ele><time>2026-04-26T09:14:23Z</time></trkpt><trkpt lat="39.41231904591629" lon="9.216642301952318"><ele>343.0</ele><time>2026-04-26T09:14:24Z</time></trkpt><trkpt lat="39.412361351778564" lon="9.216787026558963"><ele>343.0</ele><time>2026-04-26T09:14:25Z</time></trkpt><trkpt lat="39.41236487144972" lon="9.216930682633482"><ele>343.0</ele><time>2026-04-26T09:14:26Z</time></trkpt><trkpt lat="39.41237769345041" lon="9.217068623464137"><ele>343.0</ele><time>2026-04-26T09:14:27Z</time></trkpt><trkpt lat="39.412399827482886" lon="9.217199791680839"><ele>343.0</ele><time>2026-04-26T09:14:28Z</time></trkpt><trkpt lat="39.412413759853145" lon="9.21732916084228"><ele>343.0</ele><time>2026-04-26T09:14:29Z</time></trkpt><trkpt lat="39.41241758566947" lon="9.21745020777307"><ele>341.79999999999995</ele><time>2026-04-26T09:14:30Z</time></trkpt><trkpt lat="39.41242793573302" lon="9.217565555744281"><ele>340.6</ele><time>2026-04-26T09:14:31Z</time></trkpt><trkpt lat="39.412421188163" lon="9.217674141184954"><ele>339.4</ele><time>2026-04-26T09:14:32Z</time></trkpt><trkpt lat="39.41234883788536" lon="9.217770600739057"><ele>338.20000000000005</ele><time>2026-04-26T09:14:33Z</time></trkpt><trkpt lat="39.412255305738505" lon="9.217845936293918"><ele>337.0</ele><time>2026-04-26T09:14:34Z</time></trkpt><trkpt lat="39.41216879901386" lon="9.217953176127349"><ele>335.0</ele><time>2026-04-26T09:14:35Z</time></trkpt><trkpt lat="39.41208635827972" lon="9.21802364951245"><ele>333.0</ele><time>2026-04-26T09:14:36Z</time></trkpt><trkpt lat="39.41200838857485" lon="9.218036127808478"><ele>331.0</ele><time>2026-04-26T09:14:37Z</time></trkpt><trkpt lat="39.411929286378374" lon="9.218059002561331"><ele>329.0</ele><time>2026-04-26T09:14:38Z</time></trkpt><trkpt lat="39.41183093551926" lon="9.21800748620813"><ele>327.0</ele><time>2026-04-26T09:14:39Z</time></trkpt><trkpt lat="39.41175238286386" lon="9.21790923288401"><ele>327.0</ele><time>2026-04-26T09:14:40Z</time></trkpt><trkpt lat="39.4116895668545" lon="9.217786428046802"><ele>327.0</ele><time>2026-04-26T09:14:41Z</time></trkpt><trkpt lat="39.41163223370361" lon="9.21765237232548"><ele>327.0</ele><time>2026-04-26T09:14:42Z</time></trkpt><trkpt lat="39.41156801229938" lon="9.217513316954062"><ele>327.0</ele><time>2026-04-26T09:14:43Z</time></trkpt><trkpt lat="39.41149957402977" lon="9.217370995366892"><ele>328.75</ele><time>2026-04-26T09:14:44Z</time></trkpt><trkpt lat="39.411434444391" lon="9.217227421618972"><ele>330.5</ele><time>2026-04-26T09:14:45Z</time></trkpt><trkpt lat="39.41136928215841" lon="9.217089189781959"><ele>332.25</ele><time>2026-04-26T09:14:46Z</time></trkpt><trkpt lat="39.411320649316664" lon="9.216953573540385"><ele>334.0</ele><time>2026-04-26T09:14:47Z</time></trkpt><trkpt lat="39.41126881396564" lon="9.21681824474045"><ele>334.0</ele><time>2026-04-26T09:14:48Z</time></trkpt><trkpt lat="39.41122660983291" lon="9.216668182535209"><ele>334.0</ele><time>2026-04-26T09:14:49Z</time></trkpt><trkpt lat="39.41115678068482" lon="9.216534259641248"><ele>334.0</ele><time>2026-04-26T09:14:50Z</time></trkpt><trkpt lat="39.41109315381592" lon="9.21639552646147"><ele>334.0</ele><time>2026-04-26T09:14:51Z</time></trkpt><trkpt lat="39.41103465604894" lon="9.216257667359905"><ele>330.4</ele><time>2026-04-26T09:14:52Z</time></trkpt><trkpt lat="39.410974755177286" lon="9.216130229415656"><ele>326.79999999999995</ele><time>2026-04-26T09:14:53Z</time></trkpt><trkpt lat="39.410907825340956" lon="9.216014136757297"><ele>323.20000000000005</ele><time>2026-04-26T09:14:54Z</time></trkpt><trkpt lat="39.410850610697686" lon="9.215892494016323"><ele>319.6</ele><time>2026-04-26T09:14:55Z</time></trkpt><trkpt lat="39.410791073601715" lon="9.215772872242272"><ele>316.0</ele><time>2026-04-26T09:14:56Z</time></trkpt><trkpt lat="39.41073201104593" lon="9.215648395595288"><ele>318.5</ele><time>2026-04-26T09:14:57Z</time></trkpt><trkpt lat="39.410670176043794" lon="9.215519811156149"><ele>321.0</ele><time>2026-04-26T09:14:58Z</time></trkpt><trkpt lat="39.410598017346054" lon="9.215388857300383"><ele>323.5</ele><time>2026-04-26T09:14:59Z</time></trkpt><trkpt lat="39.410526360112335" lon="9.215254184919738"><ele>326.0</ele><time>2026-04-26T09:15:00Z</time></trkpt><trkpt lat="39.41044666715746" lon="9.215122195405376"><ele>326.0</ele><time>2026-04-26T09:15:01Z</time></trkpt><trkpt lat="39.41036817542842" lon="9.214983536165372"><ele>326.0</ele><time>2026-04-26T09:15:02Z</time></trkpt><trkpt lat="39.41030148743608" lon="9.214845334663615"><ele>326.0</ele><time>2026-04-26T09:15:03Z</time></trkpt><trkpt lat="39.41025797552223" lon="9.214698488962028"><ele>326.0</ele><time>2026-04-26T09:15:04Z</time></trkpt><trkpt lat="39.410229793862335" lon="9.214543762695003"><ele>322.40000000000003</ele><time>2026-04-26T09:15:05Z</time></trkpt><trkpt lat="39.410206119962545" lon="9.214392960756946"><ele>318.8</ele><time>2026-04-26T09:15:06Z</time></trkpt><trkpt lat="39.41018347955228" lon="9.214244533787182"><ele>315.20000000000005</ele><time>2026-04-26T09:15:07Z</time></trkpt><trkpt lat="39.410158294545134" lon="9.214107407542304"><ele>311.6</ele><time>2026-04-26T09:15:08Z</time></trkpt><trkpt lat="39.41012031638656" lon="9.21398206348554"><ele>308.0</ele><time>2026-04-26T09:15:09Z</time></trkpt><trkpt lat="39.410066338308795" lon="9.2138722177887"><ele>302.25</ele><time>2026-04-26T09:15:10Z</time></trkpt><trkpt lat="39.409986177366065" lon="9.213784331656903"><ele>296.5</ele><time>2026-04-26T09:15:11Z</time></trkpt><trkpt lat="39.40988717151967" lon="9.213710341737205"><ele>290.75</ele><time>2026-04-26T09:15:12Z</time></trkpt><trkpt lat="39.409771893871394" lon="9.213648700916268"><ele>285.0</ele><time>2026-04-26T09:15:13Z</time></trkpt><trkpt lat="39.40966539610467" lon="9.213595571861116"><ele>284.8</ele><time>2026-04-26T09:15:14Z</time></trkpt><trkpt lat="39.40956706376112" lon="9.213542731535892"><ele>284.6</ele><time>2026-04-26T09:15:15Z</time></trkpt><trkpt lat="39.40947059160523" lon="9.213505771756575"><ele>284.4</ele><time>2026-04-26T09:15:16Z</time></trkpt><trkpt lat="39.409369122875276" lon="9.213510533761392"><ele>284.2</ele><time>2026-04-26T09:15:17Z</time></trkpt><trkpt lat="39.409259891647544" lon="9.21355541637765"><ele>284.0</ele><time>2026-04-26T09:15:18Z</time></trkpt><trkpt lat="39.40915115238999" lon="9.213633551325499"><ele>284.0</ele><time>2026-04-26T09:15:19Z</time></trkpt><trkpt lat="39.40904714113702" lon="9.213733267930301"><ele>284.0</ele><time>2026-04-26T09:15:20Z</time></trkpt><trkpt lat="39.408944814298934" lon="9.213831340003942"><ele>284.0</ele><time>2026-04-26T09:15:21Z</time></trkpt><trkpt lat="39.40885276510364" lon="9.213922347607365"><ele>284.0</ele><time>2026-04-26T09:15:22Z</time></trkpt><trkpt lat="39.40876547505739" lon="9.214008257238973"><ele>283.75</ele><time>2026-04-26T09:15:23Z</time></trkpt><trkpt lat="39.408675937380636" lon="9.214104294371968"><ele>283.5</ele><time>2026-04-26T09:15:24Z</time></trkpt><trkpt lat="39.408592429995785" lon="9.214223983626646"><ele>283.25</ele><time>2026-04-26T09:15:25Z</time></trkpt><trkpt lat="39.40852352320668" lon="9.214370695509455"><ele>283.0</ele><time>2026-04-26T09:15:26Z</time></trkpt><trkpt lat="39.40844892703593" lon="9.214510563362708"><ele>283.0</ele><time>2026-04-26T09:15:27Z</time></trkpt><trkpt lat="39.40837342801172" lon="9.2146292219011"><ele>283.0</ele><time>2026-04-26T09:15:28Z</time></trkpt><trkpt lat="39.40828705009587" lon="9.214722111962374"><ele>283.0</ele><time>2026-04-26T09:15:29Z</time></trkpt><trkpt lat="39.408183689869595" lon="9.214793719515828"><ele>283.0</ele><time>2026-04-26T09:15:30Z</time></trkpt><trkpt lat="39.408052468411896" lon="9.214805018618646"><ele>282.5</ele><time>2026-04-26T09:15:31Z</time></trkpt><trkpt lat="39.40791744919635" lon="9.214856746735778"><ele>282.0</ele><time>2026-04-26T09:15:32Z</time></trkpt><trkpt lat="39.407788817129024" lon="9.214936672398178"><ele>281.5</ele><time>2026-04-26T09:15:33Z</time></trkpt><trkpt lat="39.40765590479473" lon="9.215009804605174"><ele>281.0</ele><time>2026-04-26T09:15:34Z</time></trkpt><trkpt lat="39.40753647094256" lon="9.21508110346604"><ele>281.0</ele><time>2026-04-26T09:15:35Z</time></trkpt><trkpt lat="39.40741523173138" lon="9.215154007254743"><ele>281.0</ele><time>2026-04-26T09:15:36Z</time></trkpt><trkpt lat="39.40729533226374" lon="9.21523058665891"><ele>281.0</ele><time>2026-04-26T09:15:37Z</time></trkpt><trkpt lat="39.407173656354644" lon="9.215296590426428"><ele>281.0</ele><time>2026-04-26T09:15:38Z</time></trkpt><trkpt lat="39.40705408722667" lon="9.215368905843846"><ele>279.75</ele><time>2026-04-26T09:15:39Z</time></trkpt><trkpt lat="39.406931610015164" lon="9.21542883016902"><ele>278.5</ele><time>2026-04-26T09:15:40Z</time></trkpt><trkpt lat="39.40682264247592" lon="9.215483580880584"><ele>277.25</ele><time>2026-04-26T09:15:41Z</time></trkpt><trkpt lat="39.40670469721261" lon="9.215509277694002"><ele>276.0</ele><time>2026-04-26T09:15:42Z</time></trkpt><trkpt lat="39.406588499767224" lon="9.2155453873012"><ele>276.0</ele><time>2026-04-26T09:15:43Z</time></trkpt><trkpt lat="39.40646799752573" lon="9.215581740189608"><ele>276.0</ele><time>2026-04-26T09:15:44Z</time></trkpt><trkpt lat="39.406358892463864" lon="9.215631687321597"><ele>276.0</ele><time>2026-04-26T09:15:45Z</time></trkpt><trkpt lat="39.40625651960559" lon="9.215662120316525"><ele>276.0</ele><time>2026-04-26T09:15:46Z</time></trkpt><trkpt lat="39.40615766901951" lon="9.215664194777927"><ele>276.0</ele><time>2026-04-26T09:15:47Z</time></trkpt><trkpt lat="39.40606328119512" lon="9.215646207869685"><ele>277.75</ele><time>2026-04-26T09:15:48Z</time></trkpt><trkpt lat="39.405953935747945" lon="9.21560477970164"><ele>279.5</ele><time>2026-04-26T09:15:49Z</time></trkpt><trkpt lat="39.40587200363984" lon="9.215484732688516"><ele>281.25</ele><time>2026-04-26T09:15:50Z</time></trkpt><trkpt lat="39.40577727414891" lon="9.215378090892354"><ele>283.0</ele><time>2026-04-26T09:15:51Z</time></trkpt><trkpt lat="39.40569976675251" lon="9.215285403684986"><ele>283.0</ele><time>2026-04-26T09:15:52Z</time></trkpt><trkpt lat="39.405639414132885" lon="9.215218809010747"><ele>283.0</ele><time>2026-04-26T09:15:53Z</time></trkpt><trkpt lat="39.405615160765024" lon="9.215108159547798"><ele>283.0</ele><time>2026-04-26T09:15:54Z</time></trkpt><trkpt lat="39.4056198626054" lon="9.214982516800452"><ele>283.0</ele><time>2026-04-26T09:15:55Z</time></trkpt><trkpt lat="39.40566109885841" lon="9.214865846063063"><ele>283.0</ele><time>2026-04-26T09:15:56Z</time></trkpt><trkpt lat="39.405734560005726" lon="9.214762816115062"><ele>289.0</ele><time>2026-04-26T09:15:57Z</time></trkpt><trkpt lat="39.40582878050149" lon="9.214680786113693"><ele>295.0</ele><time>2026-04-26T09:15:58Z</time></trkpt><trkpt lat="39.40593137099586" lon="9.214602857024566"><ele>301.0</ele><time>2026-04-26T09:15:59Z</time></trkpt><trkpt lat="39.40604977811343" lon="9.214537247176153"><ele>307.0</ele><time>2026-04-26T09:16:00Z</time></trkpt><trkpt lat="39.40615237069906" lon="9.21446244033731"><ele>307.0</ele><time>2026-04-26T09:16:01Z</time></trkpt><trkpt lat="39.40625298280337" lon="9.214397082640678"><ele>307.0</ele><time>2026-04-26T09:16:02Z</time></trkpt><trkpt lat="39.40638937284941" lon="9.214309709098998"><ele>307.0</ele><time>2026-04-26T09:16:03Z</time></trkpt><trkpt lat="39.406507842363354" lon="9.214247965838789"><ele>307.0</ele><time>2026-04-26T09:16:04Z</time></trkpt><trkpt lat="39.406617080614005" lon="9.21418464181586"><ele>307.0</ele><time>2026-04-26T09:16:05Z</time></trkpt><trkpt lat="39.40671605082784" lon="9.214099256439694"><ele>307.0</ele><time>2026-04-26T09:16:06Z</time></trkpt><trkpt lat="39.406818572296174" lon="9.213996499851977"><ele>307.0</ele><time>2026-04-26T09:16:07Z</time></trkpt><trkpt lat="39.40691843593517" lon="9.213891567215473"><ele>307.0</ele><time>2026-04-26T09:16:08Z</time></trkpt><trkpt lat="39.40702123872935" lon="9.213782670535778"><ele>307.0</ele><time>2026-04-26T09:16:09Z</time></trkpt><trkpt lat="39.40711710402092" lon="9.213677974912724"><ele>307.0</ele><time>2026-04-26T09:16:10Z</time></trkpt><trkpt lat="39.4072057584667" lon="9.213580249545918"><ele>307.0</ele><time>2026-04-26T09:16:11Z</time></trkpt><trkpt lat="39.40729852106988" lon="9.213477180556632"><ele>307.0</ele><time>2026-04-26T09:16:12Z</time></trkpt><trkpt lat="39.40739478062969" lon="9.213370453284337"><ele>305.5</ele><time>2026-04-26T09:16:13Z</time></trkpt><trkpt lat="39.407491050821754" lon="9.213266588390917"><ele>304.0</ele><time>2026-04-26T09:16:14Z</time></trkpt><trkpt lat="39.40758970149738" lon="9.213160060931429"><ele>302.5</ele><time>2026-04-26T09:16:15Z</time></trkpt><trkpt lat="39.407686555433095" lon="9.213057349392853"><ele>301.0</ele><time>2026-04-26T09:16:16Z</time></trkpt><trkpt lat="39.40778359079844" lon="9.212953639146962"><ele>301.0</ele><time>2026-04-26T09:16:17Z</time></trkpt><trkpt lat="39.40786821315934" lon="9.212863555928429"><ele>301.0</ele><time>2026-04-26T09:16:18Z</time></trkpt><trkpt lat="39.407944974684256" lon="9.212782591682982"><ele>301.0</ele><time>2026-04-26T09:16:19Z</time></trkpt><trkpt lat="39.40802173232672" lon="9.212695799722999"><ele>301.0</ele><time>2026-04-26T09:16:20Z</time></trkpt><trkpt lat="39.408085909095135" lon="9.212575668126805"><ele>301.0</ele><time>2026-04-26T09:16:21Z</time></trkpt><trkpt lat="39.408127981390905" lon="9.212437458520808"><ele>304.25</ele><time>2026-04-26T09:16:22Z</time></trkpt><trkpt lat="39.408129726556226" lon="9.212291992455802"><ele>307.5</ele><time>2026-04-26T09:16:23Z</time></trkpt><trkpt lat="39.40809721488767" lon="9.2121378697213"><ele>310.75</ele><time>2026-04-26T09:16:24Z</time></trkpt><trkpt lat="39.40804168071758" lon="9.21198227676286"><ele>314.0</ele><time>2026-04-26T09:16:25Z</time></trkpt><trkpt lat="39.40797322146805" lon="9.211811723471246"><ele>314.0</ele><time>2026-04-26T09:16:26Z</time></trkpt><trkpt lat="39.40796755605341" lon="9.211636998070793"><ele>314.0</ele><time>2026-04-26T09:16:27Z</time></trkpt><trkpt lat="39.40799412268799" lon="9.211450614881963"><ele>314.0</ele><time>2026-04-26T09:16:28Z</time></trkpt><trkpt lat="39.408055684523056" lon="9.21128154582647"><ele>314.0</ele><time>2026-04-26T09:16:29Z</time></trkpt><trkpt lat="39.40808235803591" lon="9.211118803429427"><ele>308.0</ele><time>2026-04-26T09:16:30Z</time></trkpt><trkpt lat="39.408128818012614" lon="9.210962723102853"><ele>302.0</ele><time>2026-04-26T09:16:31Z</time></trkpt><trkpt lat="39.40816816562087" lon="9.210805527551706"><ele>296.0</ele><time>2026-04-26T09:16:32Z</time></trkpt><trkpt lat="39.40821015704358" lon="9.210654836956255"><ele>290.0</ele><time>2026-04-26T09:16:33Z</time></trkpt><trkpt lat="39.4082776004756" lon="9.210509878019044"><ele>290.0</ele><time>2026-04-26T09:16:34Z</time></trkpt><trkpt lat="39.408330119860125" lon="9.210347149539995"><ele>290.0</ele><time>2026-04-26T09:16:35Z</time></trkpt><trkpt lat="39.40840294453168" lon="9.210196166559301"><ele>290.0</ele><time>2026-04-26T09:16:36Z</time></trkpt><trkpt lat="39.40848043959836" lon="9.21004269135086"><ele>290.0</ele><time>2026-04-26T09:16:37Z</time></trkpt><trkpt lat="39.40855454819033" lon="9.209889544714699"><ele>291.5</ele><time>2026-04-26T09:16:38Z</time></trkpt><trkpt lat="39.40863866164444" lon="9.209738371547447"><ele>293.0</ele><time>2026-04-26T09:16:39Z</time></trkpt><trkpt lat="39.408738232720694" lon="9.209603422278725"><ele>294.5</ele><time>2026-04-26T09:16:40Z</time></trkpt><trkpt lat="39.40885200767754" lon="9.209472926377316"><ele>296.0</ele><time>2026-04-26T09:16:41Z</time></trkpt><trkpt lat="39.408993742960625" lon="9.209315484883604"><ele>293.75</ele><time>2026-04-26T09:16:42Z</time></trkpt><trkpt lat="39.409123973604856" lon="9.209195666825568"><ele>291.5</ele><time>2026-04-26T09:16:43Z</time></trkpt><trkpt lat="39.40927434332012" lon="9.209077747556979"><ele>289.25</ele><time>2026-04-26T09:16:45Z</time></trkpt><trkpt lat="39.4093792566139" lon="9.209032193872652"><ele>287.0</ele><time>2026-04-26T09:16:46Z</time></trkpt><trkpt lat="39.40947363649049" lon="9.20895488340394"><ele>287.0</ele><time>2026-04-26T09:16:47Z</time></trkpt><trkpt lat="39.40955780031633" lon="9.20883458774672"><ele>287.0</ele><time>2026-04-26T09:16:48Z</time></trkpt><trkpt lat="39.409641772088435" lon="9.20869882989603"><ele>287.0</ele><time>2026-04-26T09:16:49Z</time></trkpt><trkpt lat="39.40971967888829" lon="9.208559709828407"><ele>287.0</ele><time>2026-04-26T09:16:50Z</time></trkpt><trkpt lat="39.409783174734" lon="9.208436013870697"><ele>283.6</ele><time>2026-04-26T09:16:51Z</time></trkpt><trkpt lat="39.40984369257424" lon="9.208324195595017"><ele>280.2</ele><time>2026-04-26T09:16:52Z</time></trkpt><trkpt lat="39.40989093811807" lon="9.208202515903592"><ele>276.8</ele><time>2026-04-26T09:16:53Z</time></trkpt><trkpt lat="39.409919125483846" lon="9.20806991008551"><ele>273.4</ele><time>2026-04-26T09:16:54Z</time></trkpt><trkpt lat="39.40991627048589" lon="9.207922272954576"><ele>270.0</ele><time>2026-04-26T09:16:55Z</time></trkpt><trkpt lat="39.409892667517056" lon="9.207759649513555"><ele>270.0</ele><time>2026-04-26T09:16:56Z</time></trkpt><trkpt lat="39.409862985139576" lon="9.20759104725264"><ele>270.0</ele><time>2026-04-26T09:16:57Z</time></trkpt><trkpt lat="39.40983579844107" lon="9.207412389650264"><ele>270.0</ele><time>2026-04-26T09:16:58Z</time></trkpt><trkpt lat="39.40980902589216" lon="9.207229063385507"><ele>270.0</ele><time>2026-04-26T09:16:59Z</time></trkpt><trkpt lat="39.409791938403835" lon="9.207056247531343"><ele>268.8</ele><time>2026-04-26T09:17:00Z</time></trkpt><trkpt lat="39.409771934673756" lon="9.20690305663129"><ele>267.6</ele><time>2026-04-26T09:17:01Z</time></trkpt><trkpt lat="39.40975130535366" lon="9.206760581209275"><ele>266.4</ele><time>2026-04-26T09:17:02Z</time></trkpt><trkpt lat="39.40972970316287" lon="9.20662113971604"><ele>265.2</ele><time>2026-04-26T09:17:03Z</time></trkpt><trkpt lat="39.40970842860474" lon="9.206487845104355"><ele>264.0</ele><time>2026-04-26T09:17:04Z</time></trkpt><trkpt lat="39.409682149240076" lon="9.206371256439253"><ele>263.25</ele><time>2026-04-26T09:17:05Z</time></trkpt><trkpt lat="39.40968127853158" lon="9.20627462520519"><ele>262.5</ele><time>2026-04-26T09:17:06Z</time></trkpt><trkpt lat="39.40966956899911" lon="9.206193357209454"><ele>261.75</ele><time>2026-04-26T09:17:07Z</time></trkpt><trkpt lat="39.4094271859517" lon="9.206156427659353"><ele>261.0</ele><time>2026-04-26T09:17:09Z</time></trkpt><trkpt lat="39.40933622081021" lon="9.206185697025786"><ele>260.0</ele><time>2026-04-26T09:17:10Z</time></trkpt><trkpt lat="39.409222403130705" lon="9.20627723397882"><ele>259.0</ele><time>2026-04-26T09:17:11Z</time></trkpt><trkpt lat="39.40911880056023" lon="9.2063845764799"><ele>258.0</ele><time>2026-04-26T09:17:12Z</time></trkpt><trkpt lat="39.409009026857866" lon="9.206492661028596"><ele>257.0</ele><time>2026-04-26T09:17:13Z</time></trkpt><trkpt lat="39.40890016177368" lon="9.206586253775551"><ele>256.25</ele><time>2026-04-26T09:17:14Z</time></trkpt><trkpt lat="39.40879444403978" lon="9.206678106635007"><ele>255.5</ele><time>2026-04-26T09:17:15Z</time></trkpt><trkpt lat="39.40868947658292" lon="9.206775557427832"><ele>254.75</ele><time>2026-04-26T09:17:16Z</time></trkpt><trkpt lat="39.40858476279359" lon="9.206871607886495"><ele>254.0</ele><time>2026-04-26T09:17:17Z</time></trkpt><trkpt lat="39.408479169085886" lon="9.206966599639202"><ele>254.0</ele><time>2026-04-26T09:17:18Z</time></trkpt><trkpt lat="39.40837449009155" lon="9.207056643461557"><ele>254.0</ele><time>2026-04-26T09:17:19Z</time></trkpt><trkpt lat="39.4082732110765" lon="9.207147819705883"><ele>254.0</ele><time>2026-04-26T09:17:20Z</time></trkpt><trkpt lat="39.408173994249644" lon="9.207236677284712"><ele>254.0</ele><time>2026-04-26T09:17:21Z</time></trkpt><trkpt lat="39.40807595572769" lon="9.207330852247752"><ele>254.75</ele><time>2026-04-26T09:17:22Z</time></trkpt><trkpt lat="39.407960994864176" lon="9.207430376674466"><ele>255.5</ele><time>2026-04-26T09:17:23Z</time></trkpt><trkpt lat="39.407855270068765" lon="9.207535296095521"><ele>256.25</ele><time>2026-04-26T09:17:24Z</time></trkpt><trkpt lat="39.40775410616646" lon="9.207622289508905"><ele>257.0</ele><time>2026-04-26T09:17:25Z</time></trkpt><trkpt lat="39.40766116573049" lon="9.20769611726728"><ele>257.0</ele><time>2026-04-26T09:17:26Z</time></trkpt><trkpt lat="39.40756988370158" lon="9.207736909438061"><ele>257.0</ele><time>2026-04-26T09:17:27Z</time></trkpt><trkpt lat="39.40747496691363" lon="9.20772353340069"><ele>257.0</ele><time>2026-04-26T09:17:28Z</time></trkpt><trkpt lat="39.407387284524575" lon="9.20767366858354"><ele>257.0</ele><time>2026-04-26T09:17:29Z</time></trkpt><trkpt lat="39.40730582833573" lon="9.207585222366959"><ele>257.0</ele><time>2026-04-26T09:17:30Z</time></trkpt><trkpt lat="39.40725706724342" lon="9.207477071927649"><ele>257.0</ele><time>2026-04-26T09:17:31Z</time></trkpt><trkpt lat="39.40723727353883" lon="9.20734575622883"><ele>257.0</ele><time>2026-04-26T09:17:32Z</time></trkpt><trkpt lat="39.4072473787032" lon="9.207201336137949"><ele>257.0</ele><time>2026-04-26T09:17:33Z</time></trkpt><trkpt lat="39.40726589543061" lon="9.20705484384723"><ele>257.0</ele><time>2026-04-26T09:17:34Z</time></trkpt><trkpt lat="39.40728912862519" lon="9.206904232022536"><ele>257.0</ele><time>2026-04-26T09:17:35Z</time></trkpt><trkpt lat="39.40730794135803" lon="9.206746692547094"><ele>257.25</ele><time>2026-04-26T09:17:36Z</time></trkpt><trkpt lat="39.407326317157235" lon="9.206584779389889"><ele>257.5</ele><time>2026-04-26T09:17:37Z</time></trkpt><trkpt lat="39.40733944425817" lon="9.206427480721242"><ele>257.75</ele><time>2026-04-26T09:17:38Z</time></trkpt><trkpt lat="39.40734202907419" lon="9.206271240777275"><ele>258.0</ele><time>2026-04-26T09:17:39Z</time></trkpt><trkpt lat="39.40732576414341" lon="9.206119357985482"><ele>257.5</ele><time>2026-04-26T09:17:40Z</time></trkpt><trkpt lat="39.407314540283714" lon="9.20595861528499"><ele>257.0</ele><time>2026-04-26T09:17:41Z</time></trkpt><trkpt lat="39.4073078567475" lon="9.205784347164283"><ele>256.5</ele><time>2026-04-26T09:17:42Z</time></trkpt><trkpt lat="39.40730163072814" lon="9.20561738385188"><ele>256.0</ele><time>2026-04-26T09:17:43Z</time></trkpt><trkpt lat="39.40731320829538" lon="9.205447398342434"><ele>255.25</ele><time>2026-04-26T09:17:44Z</time></trkpt><trkpt lat="39.40733638486438" lon="9.20528434403584"><ele>254.5</ele><time>2026-04-26T09:17:45Z</time></trkpt><trkpt lat="39.4073669937576" lon="9.205115047205508"><ele>253.75</ele><time>2026-04-26T09:17:46Z</time></trkpt><trkpt lat="39.407399458462024" lon="9.204952818189252"><ele>253.0</ele><time>2026-04-26T09:17:47Z</time></trkpt><trkpt lat="39.40742312545023" lon="9.20479143544776"><ele>252.75</ele><time>2026-04-26T09:17:48Z</time></trkpt><trkpt lat="39.407449368743556" lon="9.204629221199186"><ele>252.5</ele><time>2026-04-26T09:17:49Z</time></trkpt><trkpt lat="39.40747884233448" lon="9.204460307860602"><ele>252.25</ele><time>2026-04-26T09:17:50Z</time></trkpt><trkpt lat="39.407492227253954" lon="9.204307726944077"><ele>252.0</ele><time>2026-04-26T09:17:51Z</time></trkpt><trkpt lat="39.407502883094125" lon="9.20416011123015"><ele>252.0</ele><time>2026-04-26T09:17:52Z</time></trkpt><trkpt lat="39.407489787356894" lon="9.204005621928705"><ele>252.0</ele><time>2026-04-26T09:17:53Z</time></trkpt><trkpt lat="39.407453305822706" lon="9.203865566141959"><ele>252.0</ele><time>2026-04-26T09:17:54Z</time></trkpt><trkpt lat="39.40742191358788" lon="9.20373837459839"><ele>252.0</ele><time>2026-04-26T09:17:55Z</time></trkpt><trkpt lat="39.407402826566944" lon="9.203617394502874"><ele>252.0</ele><time>2026-04-26T09:17:56Z</time></trkpt><trkpt lat="39.407408178962974" lon="9.20348731603637"><ele>252.25</ele><time>2026-04-26T09:17:57Z</time></trkpt><trkpt lat="39.40743866639592" lon="9.203338414748663"><ele>252.5</ele><time>2026-04-26T09:17:58Z</time></trkpt><trkpt lat="39.40748558394942" lon="9.203190049871575"><ele>252.75</ele><time>2026-04-26T09:17:59Z</time></trkpt><trkpt lat="39.407549152963796" lon="9.203038671865114"><ele>253.0</ele><time>2026-04-26T09:18:00Z</time></trkpt><trkpt lat="39.407617193151175" lon="9.202891368339074"><ele>253.5</ele><time>2026-04-26T09:18:01Z</time></trkpt><trkpt lat="39.407677962764325" lon="9.202744312884317"><ele>254.0</ele><time>2026-04-26T09:18:02Z</time></trkpt><trkpt lat="39.40774014828816" lon="9.202600428065882"><ele>254.5</ele><time>2026-04-26T09:18:03Z</time></trkpt><trkpt lat="39.40780365018866" lon="9.202448332874008"><ele>255.0</ele><time>2026-04-26T09:18:04Z</time></trkpt><trkpt lat="39.4078648056873" lon="9.2022997083535"><ele>255.0</ele><time>2026-04-26T09:18:05Z</time></trkpt><trkpt lat="39.40790528838367" lon="9.20215175830347"><ele>255.0</ele><time>2026-04-26T09:18:06Z</time></trkpt><trkpt lat="39.40792404971068" lon="9.201999591798144"><ele>255.0</ele><time>2026-04-26T09:18:07Z</time></trkpt><trkpt lat="39.40792284159741" lon="9.201836101316184"><ele>255.0</ele><time>2026-04-26T09:18:08Z</time></trkpt><trkpt lat="39.40790217720704" lon="9.201687686869882"><ele>255.0</ele><time>2026-04-26T09:18:09Z</time></trkpt><trkpt lat="39.4078693714759" lon="9.201560403119018"><ele>255.0</ele><time>2026-04-26T09:18:10Z</time></trkpt><trkpt lat="39.40781095700487" lon="9.201446527909782"><ele>255.0</ele><time>2026-04-26T09:18:11Z</time></trkpt><trkpt lat="39.40772890215109" lon="9.201345912542008"><ele>255.0</ele><time>2026-04-26T09:18:12Z</time></trkpt><trkpt lat="39.40761962354107" lon="9.20126731856588"><ele>255.0</ele><time>2026-04-26T09:18:13Z</time></trkpt><trkpt lat="39.40751075134882" lon="9.201180317893662"><ele>254.0</ele><time>2026-04-26T09:18:14Z</time></trkpt><trkpt lat="39.40740385419997" lon="9.20108780274089"><ele>253.0</ele><time>2026-04-26T09:18:15Z</time></trkpt><trkpt lat="39.40729454006965" lon="9.200999136190068"><ele>252.0</ele><time>2026-04-26T09:18:16Z</time></trkpt><trkpt lat="39.40717771461722" lon="9.200905040117703"><ele>251.0</ele><time>2026-04-26T09:18:17Z</time></trkpt><trkpt lat="39.40706541468583" lon="9.200810670813025"><ele>252.5</ele><time>2026-04-26T09:18:18Z</time></trkpt><trkpt lat="39.406951051256556" lon="9.200719511582006"><ele>254.0</ele><time>2026-04-26T09:18:19Z</time></trkpt><trkpt lat="39.4068519996868" lon="9.20064805441625"><ele>255.5</ele><time>2026-04-26T09:18:20Z</time></trkpt><trkpt lat="39.40675849716166" lon="9.200568565944721"><ele>257.0</ele><time>2026-04-26T09:18:21Z</time></trkpt><trkpt lat="39.40665598791385" lon="9.200510870340535"><ele>257.0</ele><time>2026-04-26T09:18:22Z</time></trkpt><trkpt lat="39.406542609044024" lon="9.20047695757691"><ele>257.0</ele><time>2026-04-26T09:18:23Z</time></trkpt><trkpt lat="39.406414297182764" lon="9.20045856479853"><ele>257.0</ele><time>2026-04-26T09:18:24Z</time></trkpt><trkpt lat="39.40628026956003" lon="9.200431990167983"><ele>257.0</ele><time>2026-04-26T09:18:25Z</time></trkpt><trkpt lat="39.406140496546506" lon="9.200418468558047"><ele>257.75</ele><time>2026-04-26T09:18:26Z</time></trkpt><trkpt lat="39.40599924364785" lon="9.200403692723917"><ele>258.5</ele><time>2026-04-26T09:18:27Z</time></trkpt><trkpt lat="39.4058679544119" lon="9.200396277925798"><ele>259.25</ele><time>2026-04-26T09:18:28Z</time></trkpt><trkpt lat="39.40574670982524" lon="9.200378297392684"><ele>260.0</ele><time>2026-04-26T09:18:29Z</time></trkpt><trkpt lat="39.40562490925302" lon="9.200357976734832"><ele>260.0</ele><time>2026-04-26T09:18:30Z</time></trkpt><trkpt lat="39.405513620874515" lon="9.200297850205018"><ele>260.0</ele><time>2026-04-26T09:18:31Z</time></trkpt><trkpt lat="39.405401920095414" lon="9.200232866384502"><ele>260.0</ele><time>2026-04-26T09:18:32Z</time></trkpt><trkpt lat="39.405293626990854" lon="9.200150456198378"><ele>260.0</ele><time>2026-04-26T09:18:33Z</time></trkpt><trkpt lat="39.405183842310514" lon="9.200063418530412"><ele>259.75</ele><time>2026-04-26T09:18:34Z</time></trkpt><trkpt lat="39.40506618911124" lon="9.199980508896337"><ele>259.5</ele><time>2026-04-26T09:18:35Z</time></trkpt><trkpt lat="39.404949490030994" lon="9.199892702754367"><ele>259.25</ele><time>2026-04-26T09:18:36Z</time></trkpt><trkpt lat="39.40483150672041" lon="9.199800659008272"><ele>259.0</ele><time>2026-04-26T09:18:37Z</time></trkpt><trkpt lat="39.40471898543931" lon="9.199709238712504"><ele>256.75</ele><time>2026-04-26T09:18:38Z</time></trkpt><trkpt lat="39.40461082707042" lon="9.199625737502162"><ele>254.5</ele><time>2026-04-26T09:18:39Z</time></trkpt><trkpt lat="39.4044985121869" lon="9.19954680874539"><ele>252.25</ele><time>2026-04-26T09:18:40Z</time></trkpt><trkpt lat="39.40438630900075" lon="9.199461570160562"><ele>250.0</ele><time>2026-04-26T09:18:41Z</time></trkpt><trkpt lat="39.40427263728717" lon="9.199388959522887"><ele>250.0</ele><time>2026-04-26T09:18:42Z</time></trkpt><trkpt lat="39.40415319928701" lon="9.199309361623795"><ele>250.0</ele><time>2026-04-26T09:18:43Z</time></trkpt><trkpt lat="39.40403922836652" lon="9.199236460095163"><ele>250.0</ele><time>2026-04-26T09:18:44Z</time></trkpt><trkpt lat="39.40392613051205" lon="9.199162904257813"><ele>250.0</ele><time>2026-04-26T09:18:45Z</time></trkpt><trkpt lat="39.40381182509466" lon="9.19908591139556"><ele>249.75</ele><time>2026-04-26T09:18:46Z</time></trkpt><trkpt lat="39.40369905549193" lon="9.199019771725906"><ele>249.5</ele><time>2026-04-26T09:18:47Z</time></trkpt><trkpt lat="39.4035843933783" lon="9.198944941556626"><ele>249.25</ele><time>2026-04-26T09:18:48Z</time></trkpt><trkpt lat="39.40346152363318" lon="9.198868516761001"><ele>249.0</ele><time>2026-04-26T09:18:49Z</time></trkpt><trkpt lat="39.40335025703157" lon="9.198792642114176"><ele>248.0</ele><time>2026-04-26T09:18:50Z</time></trkpt><trkpt lat="39.40324389897069" lon="9.198720149281511"><ele>247.0</ele><time>2026-04-26T09:18:51Z</time></trkpt><trkpt lat="39.403137420327596" lon="9.198650067236578"><ele>246.0</ele><time>2026-04-26T09:18:52Z</time></trkpt><trkpt lat="39.403026238084855" lon="9.198580841663432"><ele>245.0</ele><time>2026-04-26T09:18:53Z</time></trkpt><trkpt lat="39.40291331458372" lon="9.198513585006612"><ele>245.0</ele><time>2026-04-26T09:18:54Z</time></trkpt><trkpt lat="39.402804532497015" lon="9.198439596682851"><ele>245.0</ele><time>2026-04-26T09:18:55Z</time></trkpt><trkpt lat="39.40270093138827" lon="9.198373280881176"><ele>245.0</ele><time>2026-04-26T09:18:56Z</time></trkpt><trkpt lat="39.40260047132023" lon="9.19830385849824"><ele>245.0</ele><time>2026-04-26T09:18:57Z</time></trkpt><trkpt lat="39.40250011594221" lon="9.198241483340338"><ele>245.0</ele><time>2026-04-26T09:18:58Z</time></trkpt><trkpt lat="39.40240377006554" lon="9.198178364877721"><ele>245.0</ele><time>2026-04-26T09:18:59Z</time></trkpt><trkpt lat="39.40229857407099" lon="9.19811754962444"><ele>245.0</ele><time>2026-04-26T09:19:00Z</time></trkpt><trkpt lat="39.40219625706461" lon="9.198049391311699"><ele>245.0</ele><time>2026-04-26T09:19:01Z</time></trkpt><trkpt lat="39.402091907703706" lon="9.197982756482945"><ele>244.0</ele><time>2026-04-26T09:19:02Z</time></trkpt><trkpt lat="39.401985892797036" lon="9.197910661014046"><ele>243.0</ele><time>2026-04-26T09:19:03Z</time></trkpt><trkpt lat="39.40188116682773" lon="9.197829769356256"><ele>242.0</ele><time>2026-04-26T09:19:04Z</time></trkpt><trkpt lat="39.40176592060274" lon="9.197765729233836"><ele>241.0</ele><time>2026-04-26T09:19:05Z</time></trkpt><trkpt lat="39.4016533735488" lon="9.197689998686498"><ele>241.0</ele><time>2026-04-26T09:19:06Z</time></trkpt><trkpt lat="39.40154076732357" lon="9.19762160203987"><ele>241.0</ele><time>2026-04-26T09:19:07Z</time></trkpt><trkpt lat="39.40142123924941" lon="9.197546946162875"><ele>241.0</ele><time>2026-04-26T09:19:08Z</time></trkpt><trkpt lat="39.40130627611491" lon="9.197472227648417"><ele>241.0</ele><time>2026-04-26T09:19:09Z</time></trkpt><trkpt lat="39.40119034841272" lon="9.197392648275692"><ele>240.0</ele><time>2026-04-26T09:19:10Z</time></trkpt><trkpt lat="39.401073659606624" lon="9.197311566456335"><ele>239.0</ele><time>2026-04-26T09:19:11Z</time></trkpt><trkpt lat="39.400958675301176" lon="9.19722327006211"><ele>238.0</ele><time>2026-04-26T09:19:12Z</time></trkpt><trkpt lat="39.40085505892397" lon="9.197122625517745"><ele>237.0</ele><time>2026-04-26T09:19:13Z</time></trkpt><trkpt lat="39.40072624558986" lon="9.197092463650065"><ele>237.0</ele><time>2026-04-26T09:19:14Z</time></trkpt><trkpt lat="39.400611661421856" lon="9.19701717487186"><ele>237.0</ele><time>2026-04-26T09:19:15Z</time></trkpt><trkpt lat="39.40049483258854" lon="9.19694304203051"><ele>237.0</ele><time>2026-04-26T09:19:16Z</time></trkpt><trkpt lat="39.40037804812968" lon="9.196869924722492"><ele>237.0</ele><time>2026-04-26T09:19:17Z</time></trkpt><trkpt lat="39.400268066885474" lon="9.196792385011287"><ele>236.0</ele><time>2026-04-26T09:19:18Z</time></trkpt><trkpt lat="39.40015091075417" lon="9.196726242874405"><ele>235.0</ele><time>2026-04-26T09:19:19Z</time></trkpt><trkpt lat="39.40003407141077" lon="9.196646143089183"><ele>234.0</ele><time>2026-04-26T09:19:20Z</time></trkpt><trkpt lat="39.39992040688984" lon="9.19656746929173"><ele>233.0</ele><time>2026-04-26T09:19:21Z</time></trkpt><trkpt lat="39.399802962958105" lon="9.196489596968695"><ele>233.0</ele><time>2026-04-26T09:19:22Z</time></trkpt><trkpt lat="39.399687792783276" lon="9.196415410923336"><ele>233.0</ele><time>2026-04-26T09:19:23Z</time></trkpt><trkpt lat="39.39956928667166" lon="9.196343201384979"><ele>233.0</ele><time>2026-04-26T09:19:24Z</time></trkpt><trkpt lat="39.399456123129646" lon="9.196267113774791"><ele>233.0</ele><time>2026-04-26T09:19:25Z</time></trkpt><trkpt lat="39.39934045610969" lon="9.196193492068483"><ele>232.5</ele><time>2026-04-26T09:19:26Z</time></trkpt><trkpt lat="39.39922715478169" lon="9.196118844079757"><ele>232.0</ele><time>2026-04-26T09:19:27Z</time></trkpt><trkpt lat="39.3991153836324" lon="9.196047346977059"><ele>231.5</ele><time>2026-04-26T09:19:28Z</time></trkpt><trkpt lat="39.398997629990625" lon="9.195973900138414"><ele>231.0</ele><time>2026-04-26T09:19:29Z</time></trkpt><trkpt lat="39.398885831498156" lon="9.195901203460435"><ele>230.25</ele><time>2026-04-26T09:19:30Z</time></trkpt><trkpt lat="39.39876938684674" lon="9.195826405224931"><ele>229.5</ele><time>2026-04-26T09:19:31Z</time></trkpt><trkpt lat="39.398650431373895" lon="9.195749502629509"><ele>228.75</ele><time>2026-04-26T09:19:32Z</time></trkpt><trkpt lat="39.39852972552671" lon="9.195672506265112"><ele>228.0</ele><time>2026-04-26T09:19:33Z</time></trkpt><trkpt lat="39.39841117999225" lon="9.195597019364893"><ele>227.5</ele><time>2026-04-26T09:19:34Z</time></trkpt><trkpt lat="39.39829039106571" lon="9.195518119019033"><ele>227.0</ele><time>2026-04-26T09:19:35Z</time></trkpt><trkpt lat="39.39817377440682" lon="9.195439762262145"><ele>226.5</ele><time>2026-04-26T09:19:36Z</time></trkpt><trkpt lat="39.398051163538156" lon="9.195363430110731"><ele>226.0</ele><time>2026-04-26T09:19:37Z</time></trkpt><trkpt lat="39.39793048343772" lon="9.195279170675558"><ele>225.25</ele><time>2026-04-26T09:19:38Z</time></trkpt><trkpt lat="39.39781111544149" lon="9.195203898413546"><ele>224.5</ele><time>2026-04-26T09:19:39Z</time></trkpt><trkpt lat="39.39769376371685" lon="9.195133216337078"><ele>223.75</ele><time>2026-04-26T09:19:40Z</time></trkpt><trkpt lat="39.397584879199194" lon="9.195055047377972"><ele>223.0</ele><time>2026-04-26T09:19:41Z</time></trkpt><trkpt lat="39.39746876288173" lon="9.19497893142679"><ele>223.0</ele><time>2026-04-26T09:19:42Z</time></trkpt><trkpt lat="39.39735328722793" lon="9.194909463132078"><ele>223.0</ele><time>2026-04-26T09:19:43Z</time></trkpt><trkpt lat="39.397240226127565" lon="9.194829775740503"><ele>223.0</ele><time>2026-04-26T09:19:44Z</time></trkpt><trkpt lat="39.397122598350215" lon="9.194750152264278"><ele>223.0</ele><time>2026-04-26T09:19:45Z</time></trkpt><trkpt lat="39.39700783571875" lon="9.194678016051062"><ele>222.25</ele><time>2026-04-26T09:19:46Z</time></trkpt><trkpt lat="39.39689255146194" lon="9.194608317663487"><ele>221.5</ele><time>2026-04-26T09:19:47Z</time></trkpt><trkpt lat="39.39678038481141" lon="9.194534705778699"><ele>220.75</ele><time>2026-04-26T09:19:48Z</time></trkpt><trkpt lat="39.396665853807924" lon="9.194461065173432"><ele>220.0</ele><time>2026-04-26T09:19:49Z</time></trkpt><trkpt lat="39.39654963123554" lon="9.194389240731299"><ele>220.0</ele><time>2026-04-26T09:19:50Z</time></trkpt><trkpt lat="39.39643372624382" lon="9.194312607044875"><ele>220.0</ele><time>2026-04-26T09:19:51Z</time></trkpt><trkpt lat="39.39631101481164" lon="9.194234762689941"><ele>220.0</ele><time>2026-04-26T09:19:52Z</time></trkpt><trkpt lat="39.396185258267934" lon="9.194152633465661"><ele>220.0</ele><time>2026-04-26T09:19:53Z</time></trkpt><trkpt lat="39.39606517729582" lon="9.194055158763033"><ele>219.75</ele><time>2026-04-26T09:19:54Z</time></trkpt><trkpt lat="39.39593025940821" lon="9.19399181490072"><ele>219.5</ele><time>2026-04-26T09:19:55Z</time></trkpt><trkpt lat="39.39580818343143" lon="9.193906196492755"><ele>219.25</ele><time>2026-04-26T09:19:56Z</time></trkpt><trkpt lat="39.395689456202014" lon="9.193830022842553"><ele>219.0</ele><time>2026-04-26T09:19:57Z</time></trkpt><trkpt lat="39.39556504717979" lon="9.193746130428673"><ele>220.25</ele><time>2026-04-26T09:19:58Z</time></trkpt><trkpt lat="39.39543510186493" lon="9.193663470229614"><ele>221.5</ele><time>2026-04-26T09:19:59Z</time></trkpt><trkpt lat="39.395309874629504" lon="9.193581933715768"><ele>222.75</ele><time>2026-04-26T09:20:00Z</time></trkpt><trkpt lat="39.395187424351306" lon="9.19350214527956"><ele>224.0</ele><time>2026-04-26T09:20:01Z</time></trkpt><trkpt lat="39.39506544214625" lon="9.19341818117667"><ele>224.0</ele><time>2026-04-26T09:20:02Z</time></trkpt><trkpt lat="39.394942622426285" lon="9.193343373983845"><ele>224.0</ele><time>2026-04-26T09:20:03Z</time></trkpt><trkpt lat="39.394818353179595" lon="9.193262941941251"><ele>224.0</ele><time>2026-04-26T09:20:04Z</time></trkpt><trkpt lat="39.39469734641597" lon="9.193187460212647"><ele>224.0</ele><time>2026-04-26T09:20:05Z</time></trkpt><trkpt lat="39.39457941682618" lon="9.193100956686056"><ele>222.0</ele><time>2026-04-26T09:20:06Z</time></trkpt><trkpt lat="39.3944593723828" lon="9.193026804184893"><ele>220.0</ele><time>2026-04-26T09:20:07Z</time></trkpt><trkpt lat="39.39433952169595" lon="9.192954640983656"><ele>218.0</ele><time>2026-04-26T09:20:08Z</time></trkpt><trkpt lat="39.39422440861504" lon="9.19286789738796"><ele>216.0</ele><time>2026-04-26T09:20:09Z</time></trkpt><trkpt lat="39.39410456565168" lon="9.192791878528245"><ele>216.0</ele><time>2026-04-26T09:20:10Z</time></trkpt><trkpt lat="39.39397764543869" lon="9.192718069359719"><ele>216.0</ele><time>2026-04-26T09:20:11Z</time></trkpt><trkpt lat="39.39385711910594" lon="9.192636879307232"><ele>216.0</ele><time>2026-04-26T09:20:12Z</time></trkpt><trkpt lat="39.393738862580214" lon="9.19255295394702"><ele>216.0</ele><time>2026-04-26T09:20:13Z</time></trkpt><trkpt lat="39.39363171809233" lon="9.19247947120315"><ele>215.75</ele><time>2026-04-26T09:20:14Z</time></trkpt><trkpt lat="39.393526853399095" lon="9.192412859490835"><ele>215.5</ele><time>2026-04-26T09:20:15Z</time></trkpt><trkpt lat="39.393419369125894" lon="9.192349190479085"><ele>215.25</ele><time>2026-04-26T09:20:16Z</time></trkpt><trkpt lat="39.39330432878582" lon="9.192275749566264"><ele>215.0</ele><time>2026-04-26T09:20:17Z</time></trkpt><trkpt lat="39.393189536673695" lon="9.192197142573816"><ele>214.5</ele><time>2026-04-26T09:20:18Z</time></trkpt><trkpt lat="39.39307500428028" lon="9.192121775598538"><ele>214.0</ele><time>2026-04-26T09:20:19Z</time></trkpt><trkpt lat="39.392957118949035" lon="9.192045835376122"><ele>213.5</ele><time>2026-04-26T09:20:20Z</time></trkpt><trkpt lat="39.39284768656756" lon="9.191977205309696"><ele>213.0</ele><time>2026-04-26T09:20:21Z</time></trkpt><trkpt lat="39.392738167627364" lon="9.191902562927892"><ele>213.0</ele><time>2026-04-26T09:20:22Z</time></trkpt><trkpt lat="39.392626374815336" lon="9.191832262811603"><ele>213.0</ele><time>2026-04-26T09:20:23Z</time></trkpt><trkpt lat="39.392513170956406" lon="9.191756594994033"><ele>213.0</ele><time>2026-04-26T09:20:24Z</time></trkpt><trkpt lat="39.39239512282337" lon="9.191684964106377"><ele>213.0</ele><time>2026-04-26T09:20:25Z</time></trkpt><trkpt lat="39.3922767395046" lon="9.19160564294708"><ele>212.75</ele><time>2026-04-26T09:20:26Z</time></trkpt><trkpt lat="39.39215613852981" lon="9.19152640291698"><ele>212.5</ele><time>2026-04-26T09:20:27Z</time></trkpt><trkpt lat="39.392027825920216" lon="9.191448201372017"><ele>212.25</ele><time>2026-04-26T09:20:28Z</time></trkpt><trkpt lat="39.391893420772604" lon="9.191369376813268"><ele>212.0</ele><time>2026-04-26T09:20:29Z</time></trkpt><trkpt lat="39.3917703927655" lon="9.191267743262319"><ele>212.25</ele><time>2026-04-26T09:20:30Z</time></trkpt><trkpt lat="39.39164418250393" lon="9.191191378592995"><ele>212.5</ele><time>2026-04-26T09:20:31Z</time></trkpt><trkpt lat="39.3915204540685" lon="9.191111094977217"><ele>212.75</ele><time>2026-04-26T09:20:32Z</time></trkpt><trkpt lat="39.391396530844524" lon="9.19103787651156"><ele>213.0</ele><time>2026-04-26T09:20:33Z</time></trkpt><trkpt lat="39.39127247220235" lon="9.190954115739666"><ele>213.0</ele><time>2026-04-26T09:20:34Z</time></trkpt><trkpt lat="39.391148288988546" lon="9.190876837562081"><ele>213.0</ele><time>2026-04-26T09:20:35Z</time></trkpt><trkpt lat="39.39102502157027" lon="9.190797779283441"><ele>213.0</ele><time>2026-04-26T09:20:36Z</time></trkpt><trkpt lat="39.390909327596944" lon="9.190718915062458"><ele>213.0</ele><time>2026-04-26T09:20:37Z</time></trkpt><trkpt lat="39.390782390499126" lon="9.19063989978814"><ele>212.0</ele><time>2026-04-26T09:20:38Z</time></trkpt><trkpt lat="39.390656073581184" lon="9.190562869785776"><ele>211.0</ele><time>2026-04-26T09:20:39Z</time></trkpt><trkpt lat="39.390529634012836" lon="9.190486042983421"><ele>210.0</ele><time>2026-04-26T09:20:40Z</time></trkpt><trkpt lat="39.39040479591482" lon="9.190403534337593"><ele>209.0</ele><time>2026-04-26T09:20:41Z</time></trkpt><trkpt lat="39.39027617791324" lon="9.190320554254619"><ele>209.0</ele><time>2026-04-26T09:20:42Z</time></trkpt><trkpt lat="39.390147339635384" lon="9.190237151150164"><ele>209.0</ele><time>2026-04-26T09:20:43Z</time></trkpt><trkpt lat="39.39002086328619" lon="9.19015228377189"><ele>209.0</ele><time>2026-04-26T09:20:44Z</time></trkpt><trkpt lat="39.38989997126255" lon="9.190077799508284"><ele>209.0</ele><time>2026-04-26T09:20:45Z</time></trkpt><trkpt lat="39.3897723084386" lon="9.189995989884038"><ele>209.0</ele><time>2026-04-26T09:20:46Z</time></trkpt><trkpt lat="39.38965367979287" lon="9.18992004780679"><ele>209.0</ele><time>2026-04-26T09:20:47Z</time></trkpt><trkpt lat="39.389531739282035" lon="9.189836257057136"><ele>209.0</ele><time>2026-04-26T09:20:48Z</time></trkpt><trkpt lat="39.38941437179089" lon="9.189761391756988"><ele>209.0</ele><time>2026-04-26T09:20:49Z</time></trkpt><trkpt lat="39.38928871579064" lon="9.18968232886385"><ele>209.0</ele><time>2026-04-26T09:20:50Z</time></trkpt><trkpt lat="39.38916500236707" lon="9.189602716277111"><ele>209.0</ele><time>2026-04-26T09:20:51Z</time></trkpt><trkpt lat="39.38904286237661" lon="9.189524353944966"><ele>209.0</ele><time>2026-04-26T09:20:52Z</time></trkpt><trkpt lat="39.38892474585286" lon="9.189447227778743"><ele>209.0</ele><time>2026-04-26T09:20:53Z</time></trkpt><trkpt lat="39.388805069058535" lon="9.189374501043606"><ele>209.5</ele><time>2026-04-26T09:20:54Z</time></trkpt><trkpt lat="39.388691701835036" lon="9.189298472228105"><ele>210.0</ele><time>2026-04-26T09:20:55Z</time></trkpt><trkpt lat="39.38856881403302" lon="9.189220549298089"><ele>210.5</ele><time>2026-04-26T09:20:56Z</time></trkpt><trkpt lat="39.38844872386425" lon="9.189136526013224"><ele>211.0</ele><time>2026-04-26T09:20:57Z</time></trkpt><trkpt lat="39.3883273007341" lon="9.189065251473567"><ele>211.0</ele><time>2026-04-26T09:20:58Z</time></trkpt><trkpt lat="39.38821215965233" lon="9.188996738488152"><ele>211.0</ele><time>2026-04-26T09:20:59Z</time></trkpt><trkpt lat="39.38809367233831" lon="9.18890767266138"><ele>211.0</ele><time>2026-04-26T09:21:00Z</time></trkpt><trkpt lat="39.38796641313144" lon="9.1888309792199"><ele>211.0</ele><time>2026-04-26T09:21:01Z</time></trkpt><trkpt lat="39.38784432285842" lon="9.188749399964442"><ele>211.5</ele><time>2026-04-26T09:21:02Z</time></trkpt><trkpt lat="39.387718165150304" lon="9.188674459560279"><ele>212.0</ele><time>2026-04-26T09:21:03Z</time></trkpt><trkpt lat="39.38758978787663" lon="9.188588870505734"><ele>212.5</ele><time>2026-04-26T09:21:04Z</time></trkpt><trkpt lat="39.38746260721976" lon="9.18848271209591"><ele>213.0</ele><time>2026-04-26T09:21:05Z</time></trkpt><trkpt lat="39.3873391228838" lon="9.188415041786724"><ele>213.0</ele><time>2026-04-26T09:21:06Z</time></trkpt><trkpt lat="39.387217512613" lon="9.18833848555548"><ele>213.0</ele><time>2026-04-26T09:21:07Z</time></trkpt><trkpt lat="39.38709615607716" lon="9.188259727784974"><ele>213.0</ele><time>2026-04-26T09:21:08Z</time></trkpt><trkpt lat="39.386974250573246" lon="9.188178294659904"><ele>213.0</ele><time>2026-04-26T09:21:09Z</time></trkpt><trkpt lat="39.38684640330567" lon="9.188099537251881"><ele>213.5</ele><time>2026-04-26T09:21:10Z</time></trkpt><trkpt lat="39.386720104466384" lon="9.188020004889518"><ele>214.0</ele><time>2026-04-26T09:21:11Z</time></trkpt><trkpt lat="39.38660943505236" lon="9.187944043533923"><ele>214.5</ele><time>2026-04-26T09:21:12Z</time></trkpt><trkpt lat="39.38649435488979" lon="9.187867210301182"><ele>215.0</ele><time>2026-04-26T09:21:13Z</time></trkpt><trkpt lat="39.38637576552202" lon="9.187793270963411"><ele>216.0</ele><time>2026-04-26T09:21:14Z</time></trkpt><trkpt lat="39.38626616115263" lon="9.187722302447034"><ele>217.0</ele><time>2026-04-26T09:21:15Z</time></trkpt><trkpt lat="39.38615376063991" lon="9.187652689481341"><ele>218.0</ele><time>2026-04-26T09:21:16Z</time></trkpt><trkpt lat="39.386036355175634" lon="9.187580056748025"><ele>219.0</ele><time>2026-04-26T09:21:17Z</time></trkpt><trkpt lat="39.38592202553171" lon="9.18749846324789"><ele>219.0</ele><time>2026-04-26T09:21:18Z</time></trkpt><trkpt lat="39.38580686032955" lon="9.187422409251822"><ele>219.0</ele><time>2026-04-26T09:21:19Z</time></trkpt><trkpt lat="39.385693840841206" lon="9.187346241158986"><ele>219.0</ele><time>2026-04-26T09:21:20Z</time></trkpt><trkpt lat="39.38558970665436" lon="9.187277729591708"><ele>219.0</ele><time>2026-04-26T09:21:21Z</time></trkpt><trkpt lat="39.38548885531712" lon="9.187215208976731"><ele>219.75</ele><time>2026-04-26T09:21:22Z</time></trkpt><trkpt lat="39.385385933820764" lon="9.187151506421413"><ele>220.5</ele><time>2026-04-26T09:21:23Z</time></trkpt><trkpt lat="39.38527487030416" lon="9.187081598110836"><ele>221.25</ele><time>2026-04-26T09:21:24Z</time></trkpt><trkpt lat="39.38516257600289" lon="9.187007359099645"><ele>222.0</ele><time>2026-04-26T09:21:25Z</time></trkpt><trkpt lat="39.385048160776954" lon="9.18693250505986"><ele>222.0</ele><time>2026-04-26T09:21:26Z</time></trkpt><trkpt lat="39.38493309825175" lon="9.18685975834912"><ele>222.0</ele><time>2026-04-26T09:21:27Z</time></trkpt><trkpt lat="39.384815267637485" lon="9.186788120545359"><ele>222.0</ele><time>2026-04-26T09:21:28Z</time></trkpt><trkpt lat="39.38470013748342" lon="9.186716359685681"><ele>222.0</ele><time>2026-04-26T09:21:29Z</time></trkpt><trkpt lat="39.384590325151144" lon="9.186642445704717"><ele>222.75</ele><time>2026-04-26T09:21:30Z</time></trkpt><trkpt lat="39.384476608899405" lon="9.186567437536697"><ele>223.5</ele><time>2026-04-26T09:21:31Z</time></trkpt><trkpt lat="39.38435976093326" lon="9.186492548799908"><ele>224.25</ele><time>2026-04-26T09:21:32Z</time></trkpt><trkpt lat="39.38424410131612" lon="9.18640942415111"><ele>225.0</ele><time>2026-04-26T09:21:33Z</time></trkpt><trkpt lat="39.3841256625309" lon="9.186330807335302"><ele>225.0</ele><time>2026-04-26T09:21:34Z</time></trkpt><trkpt lat="39.38400788344963" lon="9.186256467619105"><ele>225.0</ele><time>2026-04-26T09:21:35Z</time></trkpt><trkpt lat="39.38389794419274" lon="9.186182498523308"><ele>225.0</ele><time>2026-04-26T09:21:36Z</time></trkpt><trkpt lat="39.38378741136571" lon="9.186110057128328"><ele>225.0</ele><time>2026-04-26T09:21:37Z</time></trkpt><trkpt lat="39.383674502827766" lon="9.186040684241714"><ele>225.25</ele><time>2026-04-26T09:21:38Z</time></trkpt><trkpt lat="39.383563380236154" lon="9.185962330155531"><ele>225.5</ele><time>2026-04-26T09:21:39Z</time></trkpt><trkpt lat="39.383449468210685" lon="9.18589555619942"><ele>225.75</ele><time>2026-04-26T09:21:40Z</time></trkpt><trkpt lat="39.3833398675478" lon="9.18582666948757"><ele>226.0</ele><time>2026-04-26T09:21:41Z</time></trkpt><trkpt lat="39.38322544626376" lon="9.185759152882259"><ele>226.0</ele><time>2026-04-26T09:21:42Z</time></trkpt><trkpt lat="39.38311461977196" lon="9.185687684755177"><ele>226.0</ele><time>2026-04-26T09:21:43Z</time></trkpt><trkpt lat="39.38300804505179" lon="9.185608001454"><ele>226.0</ele><time>2026-04-26T09:21:44Z</time></trkpt><trkpt lat="39.382892909818224" lon="9.185538840320623"><ele>226.0</ele><time>2026-04-26T09:21:45Z</time></trkpt><trkpt lat="39.382783365224455" lon="9.185471329515755"><ele>226.25</ele><time>2026-04-26T09:21:46Z</time></trkpt><trkpt lat="39.382681547556246" lon="9.1853834933953"><ele>226.5</ele><time>2026-04-26T09:21:47Z</time></trkpt><trkpt lat="39.38256107557378" lon="9.18532791326839"><ele>226.75</ele><time>2026-04-26T09:21:48Z</time></trkpt><trkpt lat="39.38245147287054" lon="9.185250416495077"><ele>227.0</ele><time>2026-04-26T09:21:49Z</time></trkpt><trkpt lat="39.382338556201454" lon="9.185177065324282"><ele>227.0</ele><time>2026-04-26T09:21:50Z</time></trkpt><trkpt lat="39.382224401327356" lon="9.18510283272911"><ele>227.0</ele><time>2026-04-26T09:21:51Z</time></trkpt><trkpt lat="39.3821122279701" lon="9.185034826534233"><ele>227.0</ele><time>2026-04-26T09:21:52Z</time></trkpt><trkpt lat="39.382002725936836" lon="9.184962960889349"><ele>227.0</ele><time>2026-04-26T09:21:53Z</time></trkpt><trkpt lat="39.381899240380285" lon="9.184891291804261"><ele>227.39999999999998</ele><time>2026-04-26T09:21:54Z</time></trkpt><trkpt lat="39.38179987886289" lon="9.18482803729712"><ele>227.79999999999998</ele><time>2026-04-26T09:21:55Z</time></trkpt><trkpt lat="39.381708962630576" lon="9.184755471980003"><ele>228.2</ele><time>2026-04-26T09:21:56Z</time></trkpt><trkpt lat="39.381609711709125" lon="9.184691157741181"><ele>228.6</ele><time>2026-04-26T09:21:57Z</time></trkpt><trkpt lat="39.38150717661118" lon="9.184627908677124"><ele>229.0</ele><time>2026-04-26T09:21:58Z</time></trkpt><trkpt lat="39.3814075300043" lon="9.184570908555488"><ele>229.2</ele><time>2026-04-26T09:21:59Z</time></trkpt><trkpt lat="39.38131298222508" lon="9.184509667196025"><ele>229.39999999999998</ele><time>2026-04-26T09:22:00Z</time></trkpt><trkpt lat="39.38122180458919" lon="9.184447902853638"><ele>229.6</ele><time>2026-04-26T09:22:01Z</time></trkpt><trkpt lat="39.381137961338744" lon="9.184394385286888"><ele>229.8</ele><time>2026-04-26T09:22:02Z</time></trkpt><trkpt lat="39.38105853302758" lon="9.18434032757574"><ele>230.0</ele><time>2026-04-26T09:22:03Z</time></trkpt><trkpt lat="39.38099773898325" lon="9.184305913798756"><ele>230.0</ele><time>2026-04-26T09:22:04Z</time></trkpt><trkpt lat="39.380924354751514" lon="9.184250171159086"><ele>230.0</ele><time>2026-04-26T09:22:06Z</time></trkpt><trkpt lat="39.38083009070858" lon="9.184189990845448"><ele>230.0</ele><time>2026-04-26T09:22:08Z</time></trkpt><trkpt lat="39.38075164346459" lon="9.184140122876926"><ele>230.0</ele><time>2026-04-26T09:22:09Z</time></trkpt><trkpt lat="39.38066578223428" lon="9.184087294835038"><ele>230.0</ele><time>2026-04-26T09:22:10Z</time></trkpt><trkpt lat="39.380571327681864" lon="9.184022992211949"><ele>230.0</ele><time>2026-04-26T09:22:11Z</time></trkpt><trkpt lat="39.38047790973075" lon="9.18395597198121"><ele>230.0</ele><time>2026-04-26T09:22:12Z</time></trkpt><trkpt lat="39.380374670900046" lon="9.183891068320584"><ele>230.0</ele><time>2026-04-26T09:22:13Z</time></trkpt><trkpt lat="39.38026700418998" lon="9.183825916041114"><ele>230.0</ele><time>2026-04-26T09:22:14Z</time></trkpt><trkpt lat="39.380153088554785" lon="9.183759276724514"><ele>230.0</ele><time>2026-04-26T09:22:15Z</time></trkpt><trkpt lat="39.38004745510699" lon="9.18368679842237"><ele>230.0</ele><time>2026-04-26T09:22:16Z</time></trkpt><trkpt lat="39.37994103365103" lon="9.183616131022001"><ele>230.0</ele><time>2026-04-26T09:22:17Z</time></trkpt><trkpt lat="39.37983537017731" lon="9.183550151595856"><ele>230.0</ele><time>2026-04-26T09:22:18Z</time></trkpt><trkpt lat="39.37973107110904" lon="9.183484707604284"><ele>230.5</ele><time>2026-04-26T09:22:19Z</time></trkpt><trkpt lat="39.37962774316324" lon="9.183413532646636"><ele>231.0</ele><time>2026-04-26T09:22:20Z</time></trkpt><trkpt lat="39.37952448921939" lon="9.183342459394746"><ele>231.5</ele><time>2026-04-26T09:22:21Z</time></trkpt><trkpt lat="39.37941918366927" lon="9.18327061660955"><ele>232.0</ele><time>2026-04-26T09:22:22Z</time></trkpt><trkpt lat="39.37931329333614" lon="9.18320585185056"><ele>232.2</ele><time>2026-04-26T09:22:23Z</time></trkpt><trkpt lat="39.379210375259106" lon="9.183146635523805"><ele>232.39999999999998</ele><time>2026-04-26T09:22:24Z</time></trkpt><trkpt lat="39.37911250521277" lon="9.183084590126505"><ele>232.60000000000002</ele><time>2026-04-26T09:22:25Z</time></trkpt><trkpt lat="39.37901448825933" lon="9.183016658691693"><ele>232.8</ele><time>2026-04-26T09:22:26Z</time></trkpt><trkpt lat="39.37891216787417" lon="9.182961479038932"><ele>233.0</ele><time>2026-04-26T09:22:27Z</time></trkpt><trkpt lat="39.37880852359095" lon="9.182888173852"><ele>233.8</ele><time>2026-04-26T09:22:28Z</time></trkpt><trkpt lat="39.37871005213173" lon="9.182824712358734"><ele>234.60000000000002</ele><time>2026-04-26T09:22:29Z</time></trkpt><trkpt lat="39.37863344738145" lon="9.182773809342722"><ele>235.39999999999998</ele><time>2026-04-26T09:22:30Z</time></trkpt><trkpt lat="39.378555867711455" lon="9.182713358211243"><ele>236.2</ele><time>2026-04-26T09:22:31Z</time></trkpt><trkpt lat="39.3784635505494" lon="9.182657901900987"><ele>237.0</ele><time>2026-04-26T09:22:32Z</time></trkpt><trkpt lat="39.37836754734819" lon="9.182600184099106"><ele>237.0</ele><time>2026-04-26T09:22:33Z</time></trkpt><trkpt lat="39.37827446402562" lon="9.1825400217026"><ele>237.0</ele><time>2026-04-26T09:22:34Z</time></trkpt><trkpt lat="39.37818216609836" lon="9.182481889907056"><ele>237.0</ele><time>2026-04-26T09:22:35Z</time></trkpt><trkpt lat="39.378091935986035" lon="9.182423540527878"><ele>237.0</ele><time>2026-04-26T09:22:36Z</time></trkpt><trkpt lat="39.377993164669874" lon="9.18237011180965"><ele>237.0</ele><time>2026-04-26T09:22:37Z</time></trkpt><trkpt lat="39.37790517537528" lon="9.182300119528024"><ele>237.39999999999998</ele><time>2026-04-26T09:22:38Z</time></trkpt><trkpt lat="39.377808887866316" lon="9.1822390776756"><ele>237.79999999999998</ele><time>2026-04-26T09:22:39Z</time></trkpt><trkpt lat="39.37772903613315" lon="9.182189395556119"><ele>238.2</ele><time>2026-04-26T09:22:40Z</time></trkpt><trkpt lat="39.37765910178563" lon="9.1821499792543"><ele>238.6</ele><time>2026-04-26T09:22:41Z</time></trkpt><trkpt lat="39.37756536013924" lon="9.182083453023267"><ele>239.0</ele><time>2026-04-26T09:22:43Z</time></trkpt><trkpt lat="39.37748834047568" lon="9.182039929376812"><ele>239.0</ele><time>2026-04-26T09:22:47Z</time></trkpt><trkpt lat="39.37743330932585" lon="9.18220670806258"><ele>238.99999999999997</ele><time>2026-04-26T09:22:50Z</time></trkpt><trkpt lat="39.377441148182875" lon="9.182317627007492"><ele>238.99999999999997</ele><time>2026-04-26T09:22:51Z</time></trkpt><trkpt lat="39.37744751778559" lon="9.182427476057454"><ele>239.0</ele><time>2026-04-26T09:22:52Z</time></trkpt><trkpt lat="39.37745016575705" lon="9.18255058502738"><ele>239.0</ele><time>2026-04-26T09:22:53Z</time></trkpt><trkpt lat="39.37745677769446" lon="9.182673293799803"><ele>239.00000000000003</ele><time>2026-04-26T09:22:54Z</time></trkpt><trkpt lat="39.37746287072898" lon="9.182785349561355"><ele>239.0</ele><time>2026-04-26T09:22:55Z</time></trkpt><trkpt lat="39.377470722435966" lon="9.182893965880776"><ele>239.0</ele><time>2026-04-26T09:22:56Z</time></trkpt><trkpt lat="39.37747494715585" lon="9.183002181856642"><ele>239.0</ele><time>2026-04-26T09:22:57Z</time></trkpt><trkpt lat="39.3774731102753" lon="9.183110416982988"><ele>239.00000000000003</ele><time>2026-04-26T09:22:58Z</time></trkpt><trkpt lat="39.37745663138684" lon="9.183214962944069"><ele>239.0</ele><time>2026-04-26T09:22:59Z</time></trkpt><trkpt lat="39.37744832778601" lon="9.183316043251974"><ele>239.00000000000003</ele><time>2026-04-26T09:23:00Z</time></trkpt><trkpt lat="39.37743635584721" lon="9.183414723426976"><ele>239.0</ele><time>2026-04-26T09:23:01Z</time></trkpt><trkpt lat="39.37742191162136" lon="9.183520041020792"><ele>239.0</ele><time>2026-04-26T09:23:02Z</time></trkpt><trkpt lat="39.37741924193891" lon="9.183628156950183"><ele>239.0</ele><time>2026-04-26T09:23:03Z</time></trkpt><trkpt lat="39.37738599644428" lon="9.183730875504855"><ele>239.00000000000003</ele><time>2026-04-26T09:23:04Z</time></trkpt><trkpt lat="39.377367769835" lon="9.18384190758674"><ele>239.0</ele><time>2026-04-26T09:23:05Z</time></trkpt><trkpt lat="39.3773495833749" lon="9.183952696828698"><ele>238.83333333333334</ele><time>2026-04-26T09:23:06Z</time></trkpt><trkpt lat="39.37733255320576" lon="9.184060246087206"><ele>238.66666666666669</ele><time>2026-04-26T09:23:07Z</time></trkpt><trkpt lat="39.377332683777986" lon="9.18416009600105"><ele>238.5</ele><time>2026-04-26T09:23:08Z</time></trkpt><trkpt lat="39.377304429211385" lon="9.184234944487818"><ele>238.33333333333331</ele><time>2026-04-26T09:23:09Z</time></trkpt><trkpt lat="39.37727778573841" lon="9.184400446288167"><ele>238.16666666666666</ele><time>2026-04-26T09:23:11Z</time></trkpt><trkpt lat="39.37726391187433" lon="9.18448662685072"><ele>238.0</ele><time>2026-04-26T09:23:12Z</time></trkpt><trkpt lat="39.37726025811145" lon="9.184614772158818"><ele>238.2</ele><time>2026-04-26T09:23:14Z</time></trkpt><trkpt lat="39.37715113552949" lon="9.184552896414544"><ele>238.4</ele><time>2026-04-26T09:23:17Z</time></trkpt><trkpt lat="39.377095140978966" lon="9.184452444124915"><ele>238.59999999999997</ele><time>2026-04-26T09:23:18Z</time></trkpt><trkpt lat="39.37705960728891" lon="9.184346086891725"><ele>238.79999999999998</ele><time>2026-04-26T09:23:19Z</time></trkpt><trkpt lat="39.37701134331476" lon="9.184229039772013"><ele>239.0</ele><time>2026-04-26T09:23:20Z</time></trkpt><trkpt lat="39.3769635709295" lon="9.184115951382074"><ele>239.00000000000003</ele><time>2026-04-26T09:23:21Z</time></trkpt><trkpt lat="39.376917317184144" lon="9.184023276006876"><ele>239.0</ele><time>2026-04-26T09:23:22Z</time></trkpt><trkpt lat="39.376880616346355" lon="9.183935991373554"><ele>239.0</ele><time>2026-04-26T09:23:23Z</time></trkpt><trkpt lat="39.376836358594154" lon="9.18385004807988"><ele>239.0</ele><time>2026-04-26T09:23:24Z</time></trkpt><trkpt lat="39.37679873424601" lon="9.183759537934899"><ele>239.00000000000003</ele><time>2026-04-26T09:23:25Z</time></trkpt><trkpt lat="39.37675536452506" lon="9.183685104113204"><ele>239.0</ele><time>2026-04-26T09:23:26Z</time></trkpt><trkpt lat="39.37669886989707" lon="9.183573604871725"><ele>238.79999999999998</ele><time>2026-04-26T09:23:28Z</time></trkpt><trkpt lat="39.37663926236879" lon="9.183486669398116"><ele>238.59999999999997</ele><time>2026-04-26T09:23:30Z</time></trkpt><trkpt lat="39.376593014841674" lon="9.183399257659747"><ele>238.4</ele><time>2026-04-26T09:23:31Z</time></trkpt><trkpt lat="39.37654387804056" lon="9.183289119723987"><ele>238.2</ele><time>2026-04-26T09:23:32Z</time></trkpt><trkpt lat="39.37648760992609" lon="9.183173512349965"><ele>238.0</ele><time>2026-04-26T09:23:33Z</time></trkpt><trkpt lat="39.37643752796384" lon="9.18305802318248"><ele>237.8</ele><time>2026-04-26T09:23:34Z</time></trkpt><trkpt lat="39.37638693895051" lon="9.182964609100814"><ele>237.60000000000002</ele><time>2026-04-26T09:23:35Z</time></trkpt><trkpt lat="39.37633623881772" lon="9.182864299322963"><ele>237.39999999999998</ele><time>2026-04-26T09:23:36Z</time></trkpt><trkpt lat="39.376294041855694" lon="9.18276032607773"><ele>237.2</ele><time>2026-04-26T09:23:37Z</time></trkpt><trkpt lat="39.3762428282654" lon="9.182661671584372"><ele>237.0</ele><time>2026-04-26T09:23:38Z</time></trkpt><trkpt lat="39.376187655024594" lon="9.182559439800748"><ele>236.83333333333334</ele><time>2026-04-26T09:23:39Z</time></trkpt><trkpt lat="39.376146467777446" lon="9.182464882169226"><ele>236.66666666666669</ele><time>2026-04-26T09:23:40Z</time></trkpt><trkpt lat="39.37610822611961" lon="9.182384373946181"><ele>236.5</ele><time>2026-04-26T09:23:41Z</time></trkpt><trkpt lat="39.37605656547971" lon="9.18226351098383"><ele>236.33333333333334</ele><time>2026-04-26T09:23:43Z</time></trkpt><trkpt lat="39.376018718237106" lon="9.182183821742434"><ele>236.16666666666669</ele><time>2026-04-26T09:23:45Z</time></trkpt><trkpt lat="39.375971245744836" lon="9.182112831335328"><ele>236.0</ele><time>2026-04-26T09:23:47Z</time></trkpt><trkpt lat="39.37593145165331" lon="9.182038548913953"><ele>236.0</ele><time>2026-04-26T09:23:48Z</time></trkpt><trkpt lat="39.37587203397154" lon="9.181967916153177"><ele>236.00000000000003</ele><time>2026-04-26T09:23:49Z</time></trkpt><trkpt lat="39.37581402846158" lon="9.181894184898887"><ele>236.00000000000003</ele><time>2026-04-26T09:23:50Z</time></trkpt><trkpt lat="39.37575441407585" lon="9.181805307320891"><ele>236.0</ele><time>2026-04-26T09:23:51Z</time></trkpt><trkpt lat="39.37567341357919" lon="9.181729803686205"><ele>236.0</ele><time>2026-04-26T09:23:52Z</time></trkpt><trkpt lat="39.37559203935006" lon="9.181627658219297"><ele>236.0</ele><time>2026-04-26T09:23:53Z</time></trkpt><trkpt lat="39.37552690150233" lon="9.18154688843676"><ele>236.00000000000003</ele><time>2026-04-26T09:23:54Z</time></trkpt><trkpt lat="39.375464404984015" lon="9.181468679149848"><ele>236.00000000000003</ele><time>2026-04-26T09:23:55Z</time></trkpt><trkpt lat="39.375402089021705" lon="9.181386064354829"><ele>236.0</ele><time>2026-04-26T09:23:56Z</time></trkpt><trkpt lat="39.37533651738709" lon="9.181294960764502"><ele>236.0</ele><time>2026-04-26T09:23:57Z</time></trkpt><trkpt lat="39.37527335459843" lon="9.181200923089929"><ele>235.60000000000002</ele><time>2026-04-26T09:23:58Z</time></trkpt><trkpt lat="39.37521125507432" lon="9.181108252540882"><ele>235.20000000000002</ele><time>2026-04-26T09:23:59Z</time></trkpt><trkpt lat="39.37515329800301" lon="9.181005745105033"><ele>234.79999999999998</ele><time>2026-04-26T09:24:00Z</time></trkpt><trkpt lat="39.37509160196038" lon="9.180909375238985"><ele>234.39999999999998</ele><time>2026-04-26T09:24:01Z</time></trkpt><trkpt lat="39.375035516569575" lon="9.180812267330069"><ele>234.0</ele><time>2026-04-26T09:24:02Z</time></trkpt><trkpt lat="39.37498885339869" lon="9.180727183784315"><ele>234.2</ele><time>2026-04-26T09:24:03Z</time></trkpt><trkpt lat="39.374955273116136" lon="9.180649487703857"><ele>234.39999999999998</ele><time>2026-04-26T09:24:04Z</time></trkpt><trkpt lat="39.374913875174144" lon="9.180510510219694"><ele>234.6</ele><time>2026-04-26T09:24:06Z</time></trkpt><trkpt lat="39.3748831104821" lon="9.180399523551921"><ele>234.8</ele><time>2026-04-26T09:24:07Z</time></trkpt><trkpt lat="39.37485566255697" lon="9.1802629458837"><ele>235.0</ele><time>2026-04-26T09:24:08Z</time></trkpt><trkpt lat="39.374854486678785" lon="9.180140723190634"><ele>235.0</ele><time>2026-04-26T09:24:09Z</time></trkpt><trkpt lat="39.37484990916209" lon="9.180006851603425"><ele>235.0</ele><time>2026-04-26T09:24:10Z</time></trkpt><trkpt lat="39.3748474443952" lon="9.17986769175164"><ele>235.0</ele><time>2026-04-26T09:24:11Z</time></trkpt><trkpt lat="39.37484505810873" lon="9.179717821371456"><ele>235.0</ele><time>2026-04-26T09:24:12Z</time></trkpt><trkpt lat="39.374829115732766" lon="9.17957540872355"><ele>235.0</ele><time>2026-04-26T09:24:13Z</time></trkpt><trkpt lat="39.37483326258607" lon="9.179442582840641"><ele>234.8</ele><time>2026-04-26T09:24:14Z</time></trkpt><trkpt lat="39.37483260070633" lon="9.17931343760857"><ele>234.6</ele><time>2026-04-26T09:24:15Z</time></trkpt><trkpt lat="39.37483306547947" lon="9.179176224960235"><ele>234.39999999999998</ele><time>2026-04-26T09:24:16Z</time></trkpt><trkpt lat="39.374833730391146" lon="9.179041526196686"><ele>234.2</ele><time>2026-04-26T09:24:17Z</time></trkpt><trkpt lat="39.374834758815126" lon="9.178906966496617"><ele>234.0</ele><time>2026-04-26T09:24:18Z</time></trkpt><trkpt lat="39.37483357044087" lon="9.17879309514535"><ele>233.2</ele><time>2026-04-26T09:24:19Z</time></trkpt><trkpt lat="39.37483646552608" lon="9.178672606385897"><ele>232.39999999999998</ele><time>2026-04-26T09:24:21Z</time></trkpt><trkpt lat="39.374834738476" lon="9.178513188181029"><ele>231.6</ele><time>2026-04-26T09:24:23Z</time></trkpt><trkpt lat="39.37482858445496" lon="9.178391886579565"><ele>230.8</ele><time>2026-04-26T09:24:24Z</time></trkpt><trkpt lat="39.37481380883522" lon="9.178267919390118"><ele>230.0</ele><time>2026-04-26T09:24:25Z</time></trkpt><trkpt lat="39.374801156087265" lon="9.178153340990916"><ele>229.66666666666669</ele><time>2026-04-26T09:24:26Z</time></trkpt><trkpt lat="39.374784051747284" lon="9.178043464185235"><ele>229.33333333333334</ele><time>2026-04-26T09:24:27Z</time></trkpt><trkpt lat="39.37476832587428" lon="9.17793205278212"><ele>229.0</ele><time>2026-04-26T09:24:28Z</time></trkpt><trkpt lat="39.37476190207791" lon="9.177815121233497"><ele>228.66666666666669</ele><time>2026-04-26T09:24:29Z</time></trkpt><trkpt lat="39.374747187868216" lon="9.17770905533317"><ele>228.33333333333334</ele><time>2026-04-26T09:24:30Z</time></trkpt><trkpt lat="39.37472908114294" lon="9.177618703271316"><ele>228.0</ele><time>2026-04-26T09:24:31Z</time></trkpt><trkpt lat="39.37470846243685" lon="9.177520166157182"><ele>227.66666666666666</ele><time>2026-04-26T09:24:32Z</time></trkpt><trkpt lat="39.374672958600385" lon="9.177423943267806"><ele>227.33333333333331</ele><time>2026-04-26T09:24:33Z</time></trkpt><trkpt lat="39.37464417382416" lon="9.177314348679413"><ele>227.0</ele><time>2026-04-26T09:24:34Z</time></trkpt><trkpt lat="39.37462009380237" lon="9.177211302846311"><ele>226.66666666666666</ele><time>2026-04-26T09:24:35Z</time></trkpt><trkpt lat="39.374604992159895" lon="9.177116020028226"><ele>226.33333333333331</ele><time>2026-04-26T09:24:36Z</time></trkpt><trkpt lat="39.37458717899144" lon="9.176998204506681"><ele>226.0</ele><time>2026-04-26T09:24:37Z</time></trkpt><trkpt lat="39.37455087594865" lon="9.176835276693447"><ele>225.4</ele><time>2026-04-26T09:24:38Z</time></trkpt><trkpt lat="39.374515264786936" lon="9.17669239679956"><ele>224.8</ele><time>2026-04-26T09:24:39Z</time></trkpt><trkpt lat="39.37449461668848" lon="9.1765859969874"><ele>224.20000000000002</ele><time>2026-04-26T09:24:40Z</time></trkpt><trkpt lat="39.37444304108485" lon="9.176437031301095"><ele>223.60000000000002</ele><time>2026-04-26T09:24:42Z</time></trkpt><trkpt lat="39.37436887429817" lon="9.176335122063062"><ele>223.0</ele><time>2026-04-26T09:24:44Z</time></trkpt><trkpt lat="39.37431016487031" lon="9.17629537041221"><ele>222.2</ele><time>2026-04-26T09:24:46Z</time></trkpt><trkpt lat="39.37421669475963" lon="9.176212554728505"><ele>221.4</ele><time>2026-04-26T09:24:50Z</time></trkpt><trkpt lat="39.37414675061146" lon="9.176238722003163"><ele>220.59999999999997</ele><time>2026-04-26T09:24:51Z</time></trkpt><trkpt lat="39.374073961317485" lon="9.176094832713959"><ele>219.79999999999998</ele><time>2026-04-26T09:24:52Z</time></trkpt><trkpt lat="39.37401286653473" lon="9.176038992518993"><ele>219.0</ele><time>2026-04-26T09:24:53Z</time></trkpt><trkpt lat="39.37396074582301" lon="9.17596689705195"><ele>219.0</ele><time>2026-04-26T09:24:54Z</time></trkpt><trkpt lat="39.37392245974442" lon="9.175888701561757"><ele>218.99999999999997</ele><time>2026-04-26T09:24:55Z</time></trkpt><trkpt lat="39.373875323906674" lon="9.175809347013052"><ele>218.99999999999997</ele><time>2026-04-26T09:24:56Z</time></trkpt><trkpt lat="39.373791412054544" lon="9.175691057388219"><ele>219.0</ele><time>2026-04-26T09:24:58Z</time></trkpt><trkpt lat="39.37370864923088" lon="9.17559858547537"><ele>219.0</ele><time>2026-04-26T09:25:00Z</time></trkpt><trkpt lat="39.373648036320695" lon="9.175525375935527"><ele>218.0</ele><time>2026-04-26T09:25:02Z</time></trkpt><trkpt lat="39.37349843861254" lon="9.175651906468843"><ele>216.99999999999997</ele><time>2026-04-26T09:25:06Z</time></trkpt><trkpt lat="39.37346576606485" lon="9.175743120912886"><ele>215.99999999999997</ele><time>2026-04-26T09:25:07Z</time></trkpt><trkpt lat="39.373433139413635" lon="9.17585768736238"><ele>215.0</ele><time>2026-04-26T09:25:08Z</time></trkpt><trkpt lat="39.37341175227982" lon="9.175938433714006"><ele>214.0</ele><time>2026-04-26T09:25:09Z</time></trkpt><trkpt lat="39.37335946072757" lon="9.176045358831358"><ele>213.99999999999997</ele><time>2026-04-26T09:25:11Z</time></trkpt><trkpt lat="39.37328346612381" lon="9.17602391592534"><ele>214.0</ele><time>2026-04-26T09:25:12Z</time></trkpt><trkpt lat="39.373220843200315" lon="9.176056424278212"><ele>214.0</ele><time>2026-04-26T09:25:13Z</time></trkpt><trkpt lat="39.373172052971405" lon="9.17615624114138"><ele>214.0</ele><time>2026-04-26T09:25:14Z</time></trkpt><trkpt lat="39.37310920759916" lon="9.176264590626529"><ele>213.99999999999997</ele><time>2026-04-26T09:25:15Z</time></trkpt><trkpt lat="39.373040286349074" lon="9.17634110613187"><ele>214.0</ele><time>2026-04-26T09:25:16Z</time></trkpt><trkpt lat="39.37296272675571" lon="9.176430480705724"><ele>213.6</ele><time>2026-04-26T09:25:18Z</time></trkpt><trkpt lat="39.37289236176838" lon="9.176468662365034"><ele>213.2</ele><time>2026-04-26T09:25:20Z</time></trkpt><trkpt lat="39.37279749813703" lon="9.17630697866994"><ele>212.79999999999998</ele><time>2026-04-26T09:25:21Z</time></trkpt><trkpt lat="39.3727187176527" lon="9.176239789285058"><ele>212.39999999999998</ele><time>2026-04-26T09:25:22Z</time></trkpt><trkpt lat="39.37264024081621" lon="9.176173361158536"><ele>212.0</ele><time>2026-04-26T09:25:23Z</time></trkpt><trkpt lat="39.37257488280195" lon="9.17611820746506"><ele>212.00000000000003</ele><time>2026-04-26T09:25:24Z</time></trkpt><trkpt lat="39.37250672982442" lon="9.176081577961614"><ele>212.0</ele><time>2026-04-26T09:25:25Z</time></trkpt><trkpt lat="39.372445787223874" lon="9.17603136391858"><ele>212.0</ele><time>2026-04-26T09:25:26Z</time></trkpt><trkpt lat="39.37238888254787" lon="9.175972172756651"><ele>212.0</ele><time>2026-04-26T09:25:27Z</time></trkpt><trkpt lat="39.372313245374805" lon="9.175891198950456"><ele>212.00000000000003</ele><time>2026-04-26T09:25:29Z</time></trkpt><trkpt lat="39.372240670902485" lon="9.175893524867929"><ele>212.0</ele><time>2026-04-26T09:37:02Z</time></trkpt><trkpt lat="39.3722686939104" lon="9.175808979789522"><ele>212.0</ele><time>2026-04-26T09:37:04Z</time></trkpt><trkpt lat="39.37232468337972" lon="9.175756858615562"><ele>212.0</ele><time>2026-04-26T09:37:05Z</time></trkpt><trkpt lat="39.37237941565153" lon="9.175687953845973"><ele>212.0</ele><time>2026-04-26T09:37:06Z</time></trkpt><trkpt lat="39.37242626383447" lon="9.175609124293835"><ele>212.0</ele><time>2026-04-26T09:37:07Z</time></trkpt><trkpt lat="39.37246874773498" lon="9.175537747307493"><ele>212.0</ele><time>2026-04-26T09:37:08Z</time></trkpt><trkpt lat="39.37249913377804" lon="9.175452859256966"><ele>212.0</ele><time>2026-04-26T09:37:09Z</time></trkpt><trkpt lat="39.37253066109413" lon="9.175366995628487"><ele>212.0</ele><time>2026-04-26T09:37:10Z</time></trkpt><trkpt lat="39.372558935804" lon="9.175289990206478"><ele>211.39999999999998</ele><time>2026-04-26T09:37:11Z</time></trkpt><trkpt lat="39.37259817363836" lon="9.175134139494643"><ele>210.79999999999998</ele><time>2026-04-26T09:37:13Z</time></trkpt><trkpt lat="39.37265199094231" lon="9.175036557408006"><ele>210.2</ele><time>2026-04-26T09:37:15Z</time></trkpt><trkpt lat="39.37267732840402" lon="9.174943587835537"><ele>209.6</ele><time>2026-04-26T09:37:28Z</time></trkpt><trkpt lat="39.37256531227274" lon="9.174876508750938"><ele>209.0</ele><time>2026-04-26T09:37:29Z</time></trkpt><trkpt lat="39.37249327727636" lon="9.174840327257714"><ele>208.6</ele><time>2026-04-26T09:37:30Z</time></trkpt><trkpt lat="39.37241874068045" lon="9.17479537243994"><ele>208.2</ele><time>2026-04-26T09:37:31Z</time></trkpt><trkpt lat="39.37233112957611" lon="9.174750232233437"><ele>207.79999999999998</ele><time>2026-04-26T09:37:32Z</time></trkpt><trkpt lat="39.37224660770719" lon="9.174700415624411"><ele>207.39999999999998</ele><time>2026-04-26T09:37:33Z</time></trkpt><trkpt lat="39.37216070288693" lon="9.174656283667039"><ele>207.0</ele><time>2026-04-26T09:37:34Z</time></trkpt><trkpt lat="39.372069252869075" lon="9.174607516770452"><ele>206.39999999999998</ele><time>2026-04-26T09:37:35Z</time></trkpt><trkpt lat="39.371978263705536" lon="9.17455605800714"><ele>205.79999999999998</ele><time>2026-04-26T09:37:36Z</time></trkpt><trkpt lat="39.37189487553019" lon="9.17449550588537"><ele>205.2</ele><time>2026-04-26T09:37:37Z</time></trkpt><trkpt lat="39.37179205201735" lon="9.174437436469715"><ele>204.6</ele><time>2026-04-26T09:37:38Z</time></trkpt><trkpt lat="39.37168617419906" lon="9.174377642885554"><ele>204.0</ele><time>2026-04-26T09:37:39Z</time></trkpt><trkpt lat="39.37158056693986" lon="9.174317739872413"><ele>204.0</ele><time>2026-04-26T09:37:40Z</time></trkpt><trkpt lat="39.37145178298302" lon="9.174256955882786"><ele>204.0</ele><time>2026-04-26T09:37:42Z</time></trkpt><trkpt lat="39.37136775068857" lon="9.17420149985127"><ele>204.0</ele><time>2026-04-26T09:37:43Z</time></trkpt><trkpt lat="39.37127917794144" lon="9.174149159867925"><ele>204.0</ele><time>2026-04-26T09:37:44Z</time></trkpt><trkpt lat="39.371184871235066" lon="9.174106158259878"><ele>204.0</ele><time>2026-04-26T09:37:45Z</time></trkpt><trkpt lat="39.3710968704462" lon="9.174052415465226"><ele>203.5</ele><time>2026-04-26T09:37:46Z</time></trkpt><trkpt lat="39.3710092875998" lon="9.174004243293592"><ele>203.0</ele><time>2026-04-26T09:37:47Z</time></trkpt><trkpt lat="39.370930472454134" lon="9.173964141848863"><ele>202.5</ele><time>2026-04-26T09:37:48Z</time></trkpt><trkpt lat="39.37084624746386" lon="9.173917690691637"><ele>202.0</ele><time>2026-04-26T09:37:49Z</time></trkpt><trkpt lat="39.370768662025824" lon="9.173871955332656"><ele>201.5</ele><time>2026-04-26T09:37:50Z</time></trkpt><trkpt lat="39.370685977086325" lon="9.17382533599761"><ele>201.0</ele><time>2026-04-26T09:37:51Z</time></trkpt><trkpt lat="39.37060442159894" lon="9.173779964996298"><ele>201.0</ele><time>2026-04-26T09:37:52Z</time></trkpt><trkpt lat="39.37052533047683" lon="9.173733100911308"><ele>201.0</ele><time>2026-04-26T09:37:53Z</time></trkpt><trkpt lat="39.37044601262072" lon="9.173686826157793"><ele>201.0</ele><time>2026-04-26T09:37:54Z</time></trkpt><trkpt lat="39.37037164195075" lon="9.173647446799842"><ele>201.0</ele><time>2026-04-26T09:37:55Z</time></trkpt><trkpt lat="39.370307888607414" lon="9.173604399032795"><ele>201.0</ele><time>2026-04-26T09:37:56Z</time></trkpt><trkpt lat="39.3702468199814" lon="9.173567627500642"><ele>201.0</ele><time>2026-04-26T09:37:57Z</time></trkpt><trkpt lat="39.37018833424857" lon="9.173532126832566"><ele>200.66666666666666</ele><time>2026-04-26T09:37:58Z</time></trkpt><trkpt lat="39.37007094776735" lon="9.17357420282299"><ele>200.33333333333331</ele><time>2026-04-26T09:38:00Z</time></trkpt><trkpt lat="39.3700132537159" lon="9.173632321701604"><ele>200.0</ele><time>2026-04-26T09:38:01Z</time></trkpt><trkpt lat="39.36995465541617" lon="9.173694151647982"><ele>199.66666666666666</ele><time>2026-04-26T09:38:02Z</time></trkpt><trkpt lat="39.36988842598256" lon="9.173700117529156"><ele>199.33333333333331</ele><time>2026-04-26T09:38:03Z</time></trkpt><trkpt lat="39.36981450793142" lon="9.173697779848327"><ele>199.0</ele><time>2026-04-26T09:40:50Z</time></trkpt><trkpt lat="39.369756428613805" lon="9.173638932390897"><ele>199.0</ele><time>2026-04-26T09:40:52Z</time></trkpt><trkpt lat="39.369772982869975" lon="9.173472476277688"><ele>199.0</ele><time>2026-04-26T09:40:54Z</time></trkpt><trkpt lat="39.36973506275943" lon="9.173380808101046"><ele>199.0</ele><time>2026-04-26T09:40:57Z</time></trkpt><trkpt lat="39.36972802958338" lon="9.173268983242771"><ele>199.0</ele><time>2026-04-26T09:41:04Z</time></trkpt><trkpt lat="39.36967519863559" lon="9.173224359908799"><ele>199.0</ele><time>2026-04-26T09:41:05Z</time></trkpt><trkpt lat="39.369583642559796" lon="9.17317913323687"><ele>197.99999999999997</ele><time>2026-04-26T09:41:06Z</time></trkpt><trkpt lat="39.36950791828161" lon="9.173150006304168"><ele>197.0</ele><time>2026-04-26T09:41:07Z</time></trkpt><trkpt lat="39.369419543167275" lon="9.173094074951429"><ele>196.0</ele><time>2026-04-26T09:41:09Z</time></trkpt><trkpt lat="39.369477657304486" lon="9.172988302560329"><ele>195.0</ele><time>2026-04-26T09:41:11Z</time></trkpt><trkpt lat="39.369518026139616" lon="9.172906909052385"><ele>193.99999999999997</ele><time>2026-04-26T09:41:12Z</time></trkpt><trkpt lat="39.36956315041602" lon="9.17281592750664"><ele>193.0</ele><time>2026-04-26T09:41:13Z</time></trkpt><trkpt lat="39.36961068786925" lon="9.172718897310794"><ele>193.0</ele><time>2026-04-26T09:41:14Z</time></trkpt><trkpt lat="39.369664745457335" lon="9.172608579955808"><ele>193.0</ele><time>2026-04-26T09:41:15Z</time></trkpt><trkpt lat="39.369710969233374" lon="9.172536021978463"><ele>193.0</ele><time>2026-04-26T09:41:16Z</time></trkpt><trkpt lat="39.36978337007547" lon="9.17249114209701"><ele>193.0</ele><time>2026-04-26T09:41:17Z</time></trkpt><trkpt lat="39.3698868018073" lon="9.172469408874548"><ele>193.0</ele><time>2026-04-26T09:41:18Z</time></trkpt><trkpt lat="39.369988060248296" lon="9.172421039815248"><ele>192.8</ele><time>2026-04-26T09:41:19Z</time></trkpt><trkpt lat="39.370092488256745" lon="9.172375268432592"><ele>192.60000000000002</ele><time>2026-04-26T09:41:20Z</time></trkpt><trkpt lat="39.370200633179515" lon="9.172334185726875"><ele>192.39999999999998</ele><time>2026-04-26T09:41:21Z</time></trkpt><trkpt lat="39.37030742315834" lon="9.172289611156879"><ele>192.2</ele><time>2026-04-26T09:41:22Z</time></trkpt><trkpt lat="39.37041552889238" lon="9.172248403577651"><ele>192.0</ele><time>2026-04-26T09:41:23Z</time></trkpt><trkpt lat="39.370510826453156" lon="9.172209357142213"><ele>192.8</ele><time>2026-04-26T09:41:24Z</time></trkpt><trkpt lat="39.370581796375475" lon="9.172180681675583"><ele>193.6</ele><time>2026-04-26T09:41:25Z</time></trkpt><trkpt lat="39.37065643101771" lon="9.172151296660436"><ele>194.4</ele><time>2026-04-26T09:41:26Z</time></trkpt><trkpt lat="39.370752180249916" lon="9.172110918306979"><ele>195.20000000000002</ele><time>2026-04-26T09:41:27Z</time></trkpt><trkpt lat="39.370861222326816" lon="9.172071819310922"><ele>196.0</ele><time>2026-04-26T09:41:28Z</time></trkpt><trkpt lat="39.370977573762055" lon="9.172022492728926"><ele>196.0</ele><time>2026-04-26T09:41:29Z</time></trkpt><trkpt lat="39.37110093469391" lon="9.171969180872953"><ele>196.0</ele><time>2026-04-26T09:41:30Z</time></trkpt><trkpt lat="39.371227092051825" lon="9.17190961884631"><ele>196.0</ele><time>2026-04-26T09:41:31Z</time></trkpt><trkpt lat="39.37135285363424" lon="9.171847240031225"><ele>196.0</ele><time>2026-04-26T09:41:32Z</time></trkpt><trkpt lat="39.37147262753643" lon="9.171795256393574"><ele>195.75</ele><time>2026-04-26T09:41:33Z</time></trkpt><trkpt lat="39.371591692184204" lon="9.17173799473531"><ele>195.5</ele><time>2026-04-26T09:41:34Z</time></trkpt><trkpt lat="39.371714164993186" lon="9.171685299162668"><ele>195.25</ele><time>2026-04-26T09:41:35Z</time></trkpt><trkpt lat="39.371833500385854" lon="9.17163482666276"><ele>195.0</ele><time>2026-04-26T09:41:36Z</time></trkpt><trkpt lat="39.37195305417202" lon="9.171587440094793"><ele>195.0</ele><time>2026-04-26T09:41:37Z</time></trkpt><trkpt lat="39.372059592059266" lon="9.171532151288535"><ele>195.0</ele><time>2026-04-26T09:41:38Z</time></trkpt><trkpt lat="39.372165093986595" lon="9.17148642745103"><ele>195.0</ele><time>2026-04-26T09:41:39Z</time></trkpt><trkpt lat="39.372275608892835" lon="9.171440386922173"><ele>195.0</ele><time>2026-04-26T09:41:40Z</time></trkpt><trkpt lat="39.37239000011867" lon="9.171390389470206"><ele>194.5</ele><time>2026-04-26T09:41:41Z</time></trkpt><trkpt lat="39.37250372014371" lon="9.171337985583921"><ele>194.0</ele><time>2026-04-26T09:41:42Z</time></trkpt><trkpt lat="39.37262248740768" lon="9.171286053009378"><ele>193.5</ele><time>2026-04-26T09:41:43Z</time></trkpt><trkpt lat="39.37274124386924" lon="9.171234541291383"><ele>193.0</ele><time>2026-04-26T09:41:44Z</time></trkpt><trkpt lat="39.37285652111572" lon="9.17117773927149"><ele>193.0</ele><time>2026-04-26T09:41:45Z</time></trkpt><trkpt lat="39.372977656369315" lon="9.171127674134656"><ele>193.0</ele><time>2026-04-26T09:41:46Z</time></trkpt><trkpt lat="39.37309572053402" lon="9.17107870124885"><ele>193.0</ele><time>2026-04-26T09:41:47Z</time></trkpt><trkpt lat="39.373216008155964" lon="9.171022587817914"><ele>193.0</ele><time>2026-04-26T09:41:48Z</time></trkpt><trkpt lat="39.37333781744144" lon="9.17096081146333"><ele>193.25</ele><time>2026-04-26T09:41:49Z</time></trkpt><trkpt lat="39.37346209857973" lon="9.170911038727784"><ele>193.5</ele><time>2026-04-26T09:41:50Z</time></trkpt><trkpt lat="39.373579156131" lon="9.170852404091635"><ele>193.75</ele><time>2026-04-26T09:41:51Z</time></trkpt><trkpt lat="39.37368828901231" lon="9.170796517507846"><ele>194.0</ele><time>2026-04-26T09:41:52Z</time></trkpt><trkpt lat="39.373788554418624" lon="9.170747973755784"><ele>194.0</ele><time>2026-04-26T09:41:53Z</time></trkpt><trkpt lat="39.37388813248258" lon="9.170711465843898"><ele>194.0</ele><time>2026-04-26T09:41:54Z</time></trkpt><trkpt lat="39.37398880907359" lon="9.170663999404367"><ele>194.0</ele><time>2026-04-26T09:41:55Z</time></trkpt><trkpt lat="39.374084807516155" lon="9.170617373113926"><ele>194.0</ele><time>2026-04-26T09:41:56Z</time></trkpt><trkpt lat="39.3741815401071" lon="9.170570977711513"><ele>194.0</ele><time>2026-04-26T09:41:57Z</time></trkpt><trkpt lat="39.37428512177715" lon="9.170523974952808"><ele>194.0</ele><time>2026-04-26T09:41:58Z</time></trkpt><trkpt lat="39.374379914209115" lon="9.170473968153408"><ele>194.0</ele><time>2026-04-26T09:41:59Z</time></trkpt><trkpt lat="39.37447032696435" lon="9.170428306423998"><ele>194.0</ele><time>2026-04-26T09:42:00Z</time></trkpt><trkpt lat="39.37456271231876" lon="9.170375312008659"><ele>194.0</ele><time>2026-04-26T09:42:01Z</time></trkpt><trkpt lat="39.37465971303819" lon="9.170320416519854"><ele>194.0</ele><time>2026-04-26T09:42:02Z</time></trkpt><trkpt lat="39.37475752837333" lon="9.170263794518714"><ele>194.39999999999998</ele><time>2026-04-26T09:42:03Z</time></trkpt><trkpt lat="39.37485307260984" lon="9.170202372881663"><ele>194.8</ele><time>2026-04-26T09:42:04Z</time></trkpt><trkpt lat="39.37494864950011" lon="9.17013978929875"><ele>195.2</ele><time>2026-04-26T09:42:05Z</time></trkpt><trkpt lat="39.375043772868345" lon="9.170075703852772"><ele>195.60000000000002</ele><time>2026-04-26T09:42:06Z</time></trkpt><trkpt lat="39.37513762179881" lon="9.170014527086563"><ele>196.0</ele><time>2026-04-26T09:42:07Z</time></trkpt><trkpt lat="39.37523398869696" lon="9.169950368349124"><ele>196.0</ele><time>2026-04-26T09:42:08Z</time></trkpt><trkpt lat="39.37532901160921" lon="9.169890805280573"><ele>196.0</ele><time>2026-04-26T09:42:09Z</time></trkpt><trkpt lat="39.375421010523105" lon="9.16983048168352"><ele>196.0</ele><time>2026-04-26T09:42:10Z</time></trkpt><trkpt lat="39.37550127170696" lon="9.169774254855897"><ele>196.0</ele><time>2026-04-26T09:42:11Z</time></trkpt><trkpt lat="39.37557541712693" lon="9.16973161338609"><ele>196.0</ele><time>2026-04-26T09:42:12Z</time></trkpt><trkpt lat="39.37567973196541" lon="9.169667402045528"><ele>195.8</ele><time>2026-04-26T09:42:14Z</time></trkpt><trkpt lat="39.375751351897684" lon="9.169626182777819"><ele>195.60000000000002</ele><time>2026-04-26T09:42:17Z</time></trkpt><trkpt lat="39.37583094769773" lon="9.169566644161211"><ele>195.4</ele><time>2026-04-26T09:42:20Z</time></trkpt><trkpt lat="39.37584809375328" lon="9.16941335053767"><ele>195.2</ele><time>2026-04-26T09:42:22Z</time></trkpt><trkpt lat="39.37585799642346" lon="9.169266356433857"><ele>195.0</ele><time>2026-04-26T09:42:24Z</time></trkpt><trkpt lat="39.37586130269637" lon="9.169172816858971"><ele>195.0</ele><time>2026-04-26T09:42:25Z</time></trkpt><trkpt lat="39.37587112016181" lon="9.169064469690902"><ele>195.0</ele><time>2026-04-26T09:42:26Z</time></trkpt><trkpt lat="39.375874808814885" lon="9.168946932294013"><ele>195.0</ele><time>2026-04-26T09:42:27Z</time></trkpt><trkpt lat="39.37588412907312" lon="9.168823146639049"><ele>195.0</ele><time>2026-04-26T09:42:28Z</time></trkpt><trkpt lat="39.37588421720258" lon="9.168721180847552"><ele>195.0</ele><time>2026-04-26T09:42:29Z</time></trkpt><trkpt lat="39.37589064564666" lon="9.168611007008234"><ele>195.0</ele><time>2026-04-26T09:42:30Z</time></trkpt><trkpt lat="39.375897216472524" lon="9.16849936651562"><ele>194.83333333333334</ele><time>2026-04-26T09:42:31Z</time></trkpt><trkpt lat="39.3759044801158" lon="9.168381938845588"><ele>194.66666666666669</ele><time>2026-04-26T09:42:32Z</time></trkpt><trkpt lat="39.375913034760536" lon="9.168265615450508"><ele>194.5</ele><time>2026-04-26T09:42:33Z</time></trkpt><trkpt lat="39.37591800887765" lon="9.168161732713976"><ele>194.33333333333334</ele><time>2026-04-26T09:42:34Z</time></trkpt><trkpt lat="39.37592603752352" lon="9.168055234835839"><ele>194.16666666666669</ele><time>2026-04-26T09:42:35Z</time></trkpt><trkpt lat="39.37593105153643" lon="9.167933338424424"><ele>194.0</ele><time>2026-04-26T09:42:36Z</time></trkpt><trkpt lat="39.375931459245805" lon="9.167790260571188"><ele>193.0</ele><time>2026-04-26T09:42:37Z</time></trkpt><trkpt lat="39.375936324814596" lon="9.167648426449784"><ele>192.0</ele><time>2026-04-26T09:42:38Z</time></trkpt><trkpt lat="39.375946653877" lon="9.167520292990861"><ele>191.0</ele><time>2026-04-26T09:42:39Z</time></trkpt><trkpt lat="39.37596605674867" lon="9.167385529567685"><ele>190.0</ele><time>2026-04-26T09:42:40Z</time></trkpt><trkpt lat="39.37600641724207" lon="9.167213142063535"><ele>189.8</ele><time>2026-04-26T09:42:41Z</time></trkpt><trkpt lat="39.37601454430742" lon="9.167040758567113"><ele>189.6</ele><time>2026-04-26T09:42:42Z</time></trkpt><trkpt lat="39.375968808001275" lon="9.166873992780234"><ele>189.39999999999998</ele><time>2026-04-26T09:42:44Z</time></trkpt><trkpt lat="39.37598029249958" lon="9.166757662456607"><ele>189.2</ele><time>2026-04-26T09:42:45Z</time></trkpt><trkpt lat="39.375984866206274" lon="9.166655097848059"><ele>189.0</ele><time>2026-04-26T09:42:46Z</time></trkpt><trkpt lat="39.375989092627115" lon="9.166567423920812"><ele>189.0</ele><time>2026-04-26T09:42:47Z</time></trkpt><trkpt lat="39.375988751682094" lon="9.166480812495207"><ele>189.0</ele><time>2026-04-26T09:42:48Z</time></trkpt><trkpt lat="39.3760308056536" lon="9.166403772038612"><ele>189.0</ele><time>2026-04-26T09:42:49Z</time></trkpt><trkpt lat="39.376177189758465" lon="9.166281922281255"><ele>189.0</ele><time>2026-04-26T09:42:51Z</time></trkpt><trkpt lat="39.37624922814581" lon="9.166182280133752"><ele>189.0</ele><time>2026-04-26T09:42:52Z</time></trkpt><trkpt lat="39.37636069475799" lon="9.16612307704638"><ele>189.0</ele><time>2026-04-26T09:42:53Z</time></trkpt><trkpt lat="39.37646629343031" lon="9.166065790308856"><ele>189.0</ele><time>2026-04-26T09:42:54Z</time></trkpt><trkpt lat="39.37657504967264" lon="9.165984755608736"><ele>189.0</ele><time>2026-04-26T09:42:55Z</time></trkpt><trkpt lat="39.376686368366244" lon="9.165900777718935"><ele>189.0</ele><time>2026-04-26T09:42:56Z</time></trkpt><trkpt lat="39.3768046517439" lon="9.165812069104996"><ele>189.0</ele><time>2026-04-26T09:42:57Z</time></trkpt><trkpt lat="39.37692763993747" lon="9.165721928932342"><ele>189.0</ele><time>2026-04-26T09:42:58Z</time></trkpt><trkpt lat="39.37705067955317" lon="9.165631056892272"><ele>189.0</ele><time>2026-04-26T09:42:59Z</time></trkpt><trkpt lat="39.37717211166389" lon="9.165532509810864"><ele>189.0</ele><time>2026-04-26T09:43:00Z</time></trkpt><trkpt lat="39.37727785515434" lon="9.165419077821559"><ele>189.0</ele><time>2026-04-26T09:43:01Z</time></trkpt><trkpt lat="39.37738905066881" lon="9.165325563350482"><ele>189.0</ele><time>2026-04-26T09:43:02Z</time></trkpt><trkpt lat="39.377495951045475" lon="9.165221801010274"><ele>189.0</ele><time>2026-04-26T09:43:03Z</time></trkpt><trkpt lat="39.377601204062685" lon="9.165122515932111"><ele>189.0</ele><time>2026-04-26T09:43:04Z</time></trkpt><trkpt lat="39.37770570640368" lon="9.165018486332478"><ele>189.0</ele><time>2026-04-26T09:43:05Z</time></trkpt><trkpt lat="39.37782024854404" lon="9.164909448412544"><ele>189.0</ele><time>2026-04-26T09:43:06Z</time></trkpt><trkpt lat="39.37792493462853" lon="9.164791346329107"><ele>189.0</ele><time>2026-04-26T09:43:07Z</time></trkpt><trkpt lat="39.378024788209125" lon="9.164660792718921"><ele>189.0</ele><time>2026-04-26T09:43:08Z</time></trkpt><trkpt lat="39.37812348402617" lon="9.164530595842043"><ele>189.0</ele><time>2026-04-26T09:43:09Z</time></trkpt><trkpt lat="39.378211995438036" lon="9.16439495981447"><ele>189.0</ele><time>2026-04-26T09:43:10Z</time></trkpt><trkpt lat="39.378294066742136" lon="9.164252912669651"><ele>189.0</ele><time>2026-04-26T09:43:11Z</time></trkpt><trkpt lat="39.3783818632026" lon="9.16410863268164"><ele>189.0</ele><time>2026-04-26T09:43:12Z</time></trkpt><trkpt lat="39.37847798618585" lon="9.163965429459395"><ele>189.0</ele><time>2026-04-26T09:43:13Z</time></trkpt><trkpt lat="39.37860034143334" lon="9.163818137423457"><ele>189.0</ele><time>2026-04-26T09:43:14Z</time></trkpt><trkpt lat="39.378626832641594" lon="9.16362996577693"><ele>189.0</ele><time>2026-04-26T09:43:15Z</time></trkpt><trkpt lat="39.37869112955644" lon="9.163458199889433"><ele>189.0</ele><time>2026-04-26T09:43:16Z</time></trkpt><trkpt lat="39.3787428827744" lon="9.163282568143357"><ele>189.0</ele><time>2026-04-26T09:43:17Z</time></trkpt><trkpt lat="39.37879208470114" lon="9.163106823260941"><ele>189.0</ele><time>2026-04-26T09:43:18Z</time></trkpt><trkpt lat="39.37883978097519" lon="9.162930535964756"><ele>189.0</ele><time>2026-04-26T09:43:19Z</time></trkpt><trkpt lat="39.378888773756536" lon="9.162758057533535"><ele>188.5</ele><time>2026-04-26T09:43:20Z</time></trkpt><trkpt lat="39.37893234750924" lon="9.162594372688684"><ele>188.0</ele><time>2026-04-26T09:43:21Z</time></trkpt><trkpt lat="39.37898350973379" lon="9.162413121766047"><ele>187.5</ele><time>2026-04-26T09:43:22Z</time></trkpt><trkpt lat="39.37902785740305" lon="9.162222421178164"><ele>187.0</ele><time>2026-04-26T09:43:23Z</time></trkpt><trkpt lat="39.379067444376105" lon="9.162026563056038"><ele>187.0</ele><time>2026-04-26T09:43:24Z</time></trkpt><trkpt lat="39.37909661607607" lon="9.161851251303368"><ele>187.0</ele><time>2026-04-26T09:43:25Z</time></trkpt><trkpt lat="39.379122005602575" lon="9.161673359330456"><ele>187.0</ele><time>2026-04-26T09:43:26Z</time></trkpt><trkpt lat="39.379148410560965" lon="9.161500529725746"><ele>187.0</ele><time>2026-04-26T09:43:27Z</time></trkpt><trkpt lat="39.37917391910412" lon="9.161326496730569"><ele>187.0</ele><time>2026-04-26T09:43:28Z</time></trkpt><trkpt lat="39.37920834726588" lon="9.16114918532885"><ele>187.0</ele><time>2026-04-26T09:43:29Z</time></trkpt><trkpt lat="39.379241494442354" lon="9.160974293382317"><ele>187.0</ele><time>2026-04-26T09:43:30Z</time></trkpt><trkpt lat="39.37926944604381" lon="9.160800170167564"><ele>187.0</ele><time>2026-04-26T09:43:31Z</time></trkpt><trkpt lat="39.3793014525931" lon="9.160628340281692"><ele>187.5</ele><time>2026-04-26T09:43:32Z</time></trkpt><trkpt lat="39.379330974913266" lon="9.160459857184776"><ele>188.0</ele><time>2026-04-26T09:43:33Z</time></trkpt><trkpt lat="39.37935920523603" lon="9.160292239698773"><ele>188.5</ele><time>2026-04-26T09:43:34Z</time></trkpt><trkpt lat="39.37938358661642" lon="9.160124985982304"><ele>189.0</ele><time>2026-04-26T09:43:35Z</time></trkpt><trkpt lat="39.37941795087447" lon="9.159954747745482"><ele>188.25</ele><time>2026-04-26T09:43:36Z</time></trkpt><trkpt lat="39.37945223289289" lon="9.159780687678479"><ele>187.5</ele><time>2026-04-26T09:43:37Z</time></trkpt><trkpt lat="39.37948527374739" lon="9.159595102942253"><ele>186.75</ele><time>2026-04-26T09:43:38Z</time></trkpt><trkpt lat="39.3795176042803" lon="9.159404085181169"><ele>186.0</ele><time>2026-04-26T09:43:39Z</time></trkpt><trkpt lat="39.37955169434102" lon="9.159233085212424"><ele>186.0</ele><time>2026-04-26T09:43:40Z</time></trkpt><trkpt lat="39.379583783284716" lon="9.159061453606876"><ele>186.0</ele><time>2026-04-26T09:43:41Z</time></trkpt><trkpt lat="39.37961629608348" lon="9.158887215921586"><ele>186.0</ele><time>2026-04-26T09:43:42Z</time></trkpt><trkpt lat="39.37964968042181" lon="9.158702808602994"><ele>186.0</ele><time>2026-04-26T09:43:43Z</time></trkpt><trkpt lat="39.37968499126862" lon="9.158520780176916"><ele>185.66666666666666</ele><time>2026-04-26T09:43:44Z</time></trkpt><trkpt lat="39.37971643800705" lon="9.15832083777603"><ele>185.33333333333331</ele><time>2026-04-26T09:43:45Z</time></trkpt><trkpt lat="39.379681279178016" lon="9.158079254878999"><ele>185.0</ele><time>2026-04-26T09:43:46Z</time></trkpt><trkpt lat="39.379792942360986" lon="9.157986627174967"><ele>183.25</ele><time>2026-04-26T09:43:47Z</time></trkpt><trkpt lat="39.37983267307353" lon="9.157791962996567"><ele>181.5</ele><time>2026-04-26T09:43:48Z</time></trkpt><trkpt lat="39.37986819543445" lon="9.157608893381454"><ele>179.75</ele><time>2026-04-26T09:43:49Z</time></trkpt><trkpt lat="39.3799004619735" lon="9.157438369684726"><ele>178.0</ele><time>2026-04-26T09:43:50Z</time></trkpt><trkpt lat="39.37993562507905" lon="9.157266918552882"><ele>176.5</ele><time>2026-04-26T09:43:51Z</time></trkpt><trkpt lat="39.37997199025379" lon="9.157094644632728"><ele>175.0</ele><time>2026-04-26T09:43:52Z</time></trkpt><trkpt lat="39.38001271623588" lon="9.156922724929768"><ele>173.5</ele><time>2026-04-26T09:43:53Z</time></trkpt><trkpt lat="39.38004901712372" lon="9.15676061774143"><ele>172.0</ele><time>2026-04-26T09:43:54Z</time></trkpt><trkpt lat="39.38008216202891" lon="9.156601824083566"><ele>171.2</ele><time>2026-04-26T09:43:55Z</time></trkpt><trkpt lat="39.38011192778245" lon="9.156452700032482"><ele>170.39999999999998</ele><time>2026-04-26T09:43:56Z</time></trkpt><trkpt lat="39.38014124690582" lon="9.156307188889866"><ele>169.60000000000002</ele><time>2026-04-26T09:43:57Z</time></trkpt><trkpt lat="39.380173395839925" lon="9.156170342013262"><ele>168.8</ele><time>2026-04-26T09:43:58Z</time></trkpt><trkpt lat="39.38018148686336" lon="9.156037203229793"><ele>168.0</ele><time>2026-04-26T09:43:59Z</time></trkpt><trkpt lat="39.38014099745541" lon="9.155901425385764"><ele>168.0</ele><time>2026-04-26T09:44:00Z</time></trkpt><trkpt lat="39.380073114439526" lon="9.155758096140831"><ele>168.0</ele><time>2026-04-26T09:44:01Z</time></trkpt><trkpt lat="39.38001405735976" lon="9.1555954459222"><ele>168.0</ele><time>2026-04-26T09:44:02Z</time></trkpt><trkpt lat="39.37995701197159" lon="9.155420184472415"><ele>168.0</ele><time>2026-04-26T09:44:03Z</time></trkpt><trkpt lat="39.379901701164506" lon="9.155267649489437"><ele>167.5</ele><time>2026-04-26T09:44:04Z</time></trkpt><trkpt lat="39.37984469388206" lon="9.155118287848465"><ele>167.0</ele><time>2026-04-26T09:44:05Z</time></trkpt><trkpt lat="39.37979279007385" lon="9.154965493053714"><ele>166.5</ele><time>2026-04-26T09:44:06Z</time></trkpt><trkpt lat="39.37974531082689" lon="9.154818594011765"><ele>166.0</ele><time>2026-04-26T09:44:07Z</time></trkpt><trkpt lat="39.379707242807" lon="9.154689651938712"><ele>166.20000000000002</ele><time>2026-04-26T09:44:08Z</time></trkpt><trkpt lat="39.37967098361342" lon="9.154566494117855"><ele>166.4</ele><time>2026-04-26T09:44:09Z</time></trkpt><trkpt lat="39.379648609494176" lon="9.154466086794457"><ele>166.6</ele><time>2026-04-26T09:44:10Z</time></trkpt><trkpt lat="39.37965710734749" lon="9.154336497837788"><ele>166.8</ele><time>2026-04-26T09:44:12Z</time></trkpt><trkpt lat="39.37969166948889" lon="9.154243600558624"><ele>167.0</ele><time>2026-04-26T09:44:13Z</time></trkpt><trkpt lat="39.37971821354919" lon="9.154130772277357"><ele>166.0</ele><time>2026-04-26T09:44:14Z</time></trkpt><trkpt lat="39.37972643133415" lon="9.15399103692211"><ele>165.0</ele><time>2026-04-26T09:44:15Z</time></trkpt><trkpt lat="39.37973984309661" lon="9.153854594218076"><ele>164.0</ele><time>2026-04-26T09:44:16Z</time></trkpt><trkpt lat="39.3797952565784" lon="9.153711292304374"><ele>163.0</ele><time>2026-04-26T09:44:17Z</time></trkpt><trkpt lat="39.3798847091608" lon="9.153585637445499"><ele>163.0</ele><time>2026-04-26T09:44:18Z</time></trkpt><trkpt lat="39.37996354916971" lon="9.153458798463184"><ele>163.0</ele><time>2026-04-26T09:44:19Z</time></trkpt><trkpt lat="39.38002684980733" lon="9.153325825475275"><ele>163.0</ele><time>2026-04-26T09:44:20Z</time></trkpt><trkpt lat="39.380113830852046" lon="9.153203586208415"><ele>163.0</ele><time>2026-04-26T09:44:21Z</time></trkpt><trkpt lat="39.38020546793556" lon="9.15307030799603"><ele>162.75</ele><time>2026-04-26T09:44:22Z</time></trkpt><trkpt lat="39.380291113549895" lon="9.15292929028412"><ele>162.5</ele><time>2026-04-26T09:44:23Z</time></trkpt><trkpt lat="39.380381914410826" lon="9.152789721317925"><ele>162.25</ele><time>2026-04-26T09:44:24Z</time></trkpt><trkpt lat="39.38046920460284" lon="9.152647173593047"><ele>162.0</ele><time>2026-04-26T09:44:25Z</time></trkpt><trkpt lat="39.38056190539571" lon="9.152500018403414"><ele>161.25</ele><time>2026-04-26T09:44:26Z</time></trkpt><trkpt lat="39.38065410742656" lon="9.152355204625193"><ele>160.5</ele><time>2026-04-26T09:44:27Z</time></trkpt><trkpt lat="39.380746994082784" lon="9.152219948949078"><ele>159.75</ele><time>2026-04-26T09:44:28Z</time></trkpt><trkpt lat="39.380829074978784" lon="9.152084124499211"><ele>159.0</ele><time>2026-04-26T09:44:29Z</time></trkpt><trkpt lat="39.380917687947246" lon="9.151946309523765"><ele>159.0</ele><time>2026-04-26T09:44:30Z</time></trkpt><trkpt lat="39.380999346524845" lon="9.151811868047176"><ele>159.0</ele><time>2026-04-26T09:44:31Z</time></trkpt><trkpt lat="39.38108333447542" lon="9.151676969908985"><ele>159.0</ele><time>2026-04-26T09:44:32Z</time></trkpt><trkpt lat="39.381167069019114" lon="9.15154935335854"><ele>159.0</ele><time>2026-04-26T09:44:33Z</time></trkpt><trkpt lat="39.3812524157896" lon="9.151423334032845"><ele>159.0</ele><time>2026-04-26T09:44:34Z</time></trkpt><trkpt lat="39.381336290609106" lon="9.151287926681782"><ele>159.0</ele><time>2026-04-26T09:44:35Z</time></trkpt><trkpt lat="39.38142229852827" lon="9.151154013179104"><ele>159.0</ele><time>2026-04-26T09:44:36Z</time></trkpt><trkpt lat="39.38150896111466" lon="9.151013956279222"><ele>159.0</ele><time>2026-04-26T09:44:37Z</time></trkpt><trkpt lat="39.38158942402456" lon="9.150870569215625"><ele>159.0</ele><time>2026-04-26T09:44:38Z</time></trkpt><trkpt lat="39.38168058205465" lon="9.15073296292492"><ele>159.0</ele><time>2026-04-26T09:44:39Z</time></trkpt><trkpt lat="39.381772233754376" lon="9.150592289382626"><ele>159.0</ele><time>2026-04-26T09:44:40Z</time></trkpt><trkpt lat="39.38185245209407" lon="9.150449744102376"><ele>159.0</ele><time>2026-04-26T09:44:41Z</time></trkpt><trkpt lat="39.381937690968066" lon="9.150325632920596"><ele>159.0</ele><time>2026-04-26T09:44:42Z</time></trkpt><trkpt lat="39.3820272532465" lon="9.15018515313887"><ele>159.0</ele><time>2026-04-26T09:44:43Z</time></trkpt><trkpt lat="39.38211444678581" lon="9.150049841819373"><ele>159.0</ele><time>2026-04-26T09:44:44Z</time></trkpt><trkpt lat="39.3822040951129" lon="9.149909178581026"><ele>159.0</ele><time>2026-04-26T09:44:45Z</time></trkpt><trkpt lat="39.382292303014566" lon="9.149775484306511"><ele>158.5</ele><time>2026-04-26T09:44:46Z</time></trkpt><trkpt lat="39.38237706296417" lon="9.14963201226975"><ele>158.0</ele><time>2026-04-26T09:44:47Z</time></trkpt><trkpt lat="39.382466295819256" lon="9.149489659168056"><ele>157.5</ele><time>2026-04-26T09:44:48Z</time></trkpt><trkpt lat="39.382556490859464" lon="9.149352990475974"><ele>157.0</ele><time>2026-04-26T09:44:49Z</time></trkpt><trkpt lat="39.38264389021039" lon="9.149210643944041"><ele>157.0</ele><time>2026-04-26T09:44:50Z</time></trkpt><trkpt lat="39.38273638945904" lon="9.14906845757807"><ele>157.0</ele><time>2026-04-26T09:44:51Z</time></trkpt><trkpt lat="39.38282685964202" lon="9.148924338074753"><ele>157.0</ele><time>2026-04-26T09:44:52Z</time></trkpt><trkpt lat="39.38291741721837" lon="9.148783733938199"><ele>157.0</ele><time>2026-04-26T09:44:53Z</time></trkpt><trkpt lat="39.38300751537646" lon="9.148642790712145"><ele>157.0</ele><time>2026-04-26T09:44:54Z</time></trkpt><trkpt lat="39.38310358137033" lon="9.148500457547842"><ele>157.0</ele><time>2026-04-26T09:44:55Z</time></trkpt><trkpt lat="39.38319042988887" lon="9.148345013236396"><ele>157.0</ele><time>2026-04-26T09:44:56Z</time></trkpt><trkpt lat="39.38327955207436" lon="9.148221541362082"><ele>157.0</ele><time>2026-04-26T09:44:57Z</time></trkpt><trkpt lat="39.38337283317112" lon="9.148051195799535"><ele>157.0</ele><time>2026-04-26T09:44:58Z</time></trkpt><trkpt lat="39.383462035866806" lon="9.147924746762225"><ele>157.0</ele><time>2026-04-26T09:44:59Z</time></trkpt><trkpt lat="39.38355565403361" lon="9.147780960393987"><ele>157.0</ele><time>2026-04-26T09:45:00Z</time></trkpt><trkpt lat="39.38364738495268" lon="9.147633789865697"><ele>157.0</ele><time>2026-04-26T09:45:01Z</time></trkpt><trkpt lat="39.38373586975556" lon="9.147485530994391"><ele>156.75</ele><time>2026-04-26T09:45:02Z</time></trkpt><trkpt lat="39.38382715857771" lon="9.147338230649067"><ele>156.5</ele><time>2026-04-26T09:45:03Z</time></trkpt><trkpt lat="39.38391607029602" lon="9.147188774896017"><ele>156.25</ele><time>2026-04-26T09:45:04Z</time></trkpt><trkpt lat="39.383997327619134" lon="9.147039127728846"><ele>156.0</ele><time>2026-04-26T09:45:05Z</time></trkpt><trkpt lat="39.38406916101918" lon="9.146904571555519"><ele>156.0</ele><time>2026-04-26T09:45:06Z</time></trkpt><trkpt lat="39.3841439623217" lon="9.146756607286601"><ele>156.0</ele><time>2026-04-26T09:45:07Z</time></trkpt><trkpt lat="39.38420613401874" lon="9.146596641234343"><ele>156.0</ele><time>2026-04-26T09:45:08Z</time></trkpt><trkpt lat="39.38426392273723" lon="9.146434014473911"><ele>156.0</ele><time>2026-04-26T09:45:09Z</time></trkpt><trkpt lat="39.38431384552767" lon="9.146268943619665"><ele>155.5</ele><time>2026-04-26T09:45:10Z</time></trkpt><trkpt lat="39.384357081684314" lon="9.146102091854205"><ele>155.0</ele><time>2026-04-26T09:45:11Z</time></trkpt><trkpt lat="39.384397522475346" lon="9.145930194984832"><ele>154.5</ele><time>2026-04-26T09:45:12Z</time></trkpt><trkpt lat="39.38442920947385" lon="9.145751890122298"><ele>154.0</ele><time>2026-04-26T09:45:13Z</time></trkpt><trkpt lat="39.38445517525244" lon="9.145572352823825"><ele>153.0</ele><time>2026-04-26T09:45:14Z</time></trkpt><trkpt lat="39.384479851455424" lon="9.14539146708015"><ele>152.0</ele><time>2026-04-26T09:45:15Z</time></trkpt><trkpt lat="39.38449646427946" lon="9.14520894641663"><ele>151.0</ele><time>2026-04-26T09:45:16Z</time></trkpt><trkpt lat="39.38451622122038" lon="9.145028592379298"><ele>150.0</ele><time>2026-04-26T09:45:17Z</time></trkpt><trkpt lat="39.3845378457013" lon="9.144849930611585"><ele>149.75</ele><time>2026-04-26T09:45:18Z</time></trkpt><trkpt lat="39.3845644911732" lon="9.144665079041175"><ele>149.5</ele><time>2026-04-26T09:45:19Z</time></trkpt><trkpt lat="39.384587198660824" lon="9.144481094592107"><ele>149.25</ele><time>2026-04-26T09:45:20Z</time></trkpt><trkpt lat="39.38461115189158" lon="9.14429972411224"><ele>149.0</ele><time>2026-04-26T09:45:21Z</time></trkpt><trkpt lat="39.38463056122919" lon="9.1441191865904"><ele>149.0</ele><time>2026-04-26T09:45:22Z</time></trkpt><trkpt lat="39.38465709261447" lon="9.14393998219937"><ele>149.0</ele><time>2026-04-26T09:45:23Z</time></trkpt><trkpt lat="39.38467514600767" lon="9.14376472040736"><ele>149.0</ele><time>2026-04-26T09:45:24Z</time></trkpt><trkpt lat="39.38470021207767" lon="9.143587975441744"><ele>149.0</ele><time>2026-04-26T09:45:25Z</time></trkpt><trkpt lat="39.38472183358111" lon="9.143410317853192"><ele>149.0</ele><time>2026-04-26T09:45:26Z</time></trkpt><trkpt lat="39.38474278050434" lon="9.14323298219337"><ele>149.0</ele><time>2026-04-26T09:45:27Z</time></trkpt><trkpt lat="39.384767358755866" lon="9.143055060595817"><ele>149.0</ele><time>2026-04-26T09:45:28Z</time></trkpt><trkpt lat="39.38479075476381" lon="9.14287519319838"><ele>149.0</ele><time>2026-04-26T09:45:29Z</time></trkpt><trkpt lat="39.38481169495357" lon="9.142697991269333"><ele>149.0</ele><time>2026-04-26T09:45:30Z</time></trkpt><trkpt lat="39.3848260795879" lon="9.142513022815193"><ele>149.0</ele><time>2026-04-26T09:45:31Z</time></trkpt><trkpt lat="39.38484492355729" lon="9.142331589113246"><ele>149.0</ele><time>2026-04-26T09:45:32Z</time></trkpt><trkpt lat="39.38485345884698" lon="9.142155004351554"><ele>149.0</ele><time>2026-04-26T09:45:33Z</time></trkpt><trkpt lat="39.384832885630054" lon="9.141969186993935"><ele>149.0</ele><time>2026-04-26T09:45:34Z</time></trkpt><trkpt lat="39.38482938262923" lon="9.141792263038186"><ele>149.0</ele><time>2026-04-26T09:45:35Z</time></trkpt><trkpt lat="39.38482356368353" lon="9.141616482966851"><ele>149.0</ele><time>2026-04-26T09:45:36Z</time></trkpt><trkpt lat="39.38479778488421" lon="9.141440257357107"><ele>149.0</ele><time>2026-04-26T09:45:37Z</time></trkpt><trkpt lat="39.384767510280845" lon="9.141269388845949"><ele>148.75</ele><time>2026-04-26T09:45:38Z</time></trkpt><trkpt lat="39.384732148010684" lon="9.141100055005884"><ele>148.5</ele><time>2026-04-26T09:45:39Z</time></trkpt><trkpt lat="39.38469491779024" lon="9.1409281014716"><ele>148.25</ele><time>2026-04-26T09:45:40Z</time></trkpt><trkpt lat="39.384660237445054" lon="9.140750853630077"><ele>148.0</ele><time>2026-04-26T09:45:41Z</time></trkpt><trkpt lat="39.38462587932495" lon="9.140576805468212"><ele>147.75</ele><time>2026-04-26T09:45:42Z</time></trkpt><trkpt lat="39.384581414230645" lon="9.140400555842614"><ele>147.5</ele><time>2026-04-26T09:45:43Z</time></trkpt><trkpt lat="39.38454271741508" lon="9.14021463435479"><ele>147.25</ele><time>2026-04-26T09:45:44Z</time></trkpt><trkpt lat="39.38449998829081" lon="9.140029153145953"><ele>147.0</ele><time>2026-04-26T09:45:45Z</time></trkpt><trkpt lat="39.38446941478289" lon="9.139847824052337"><ele>147.0</ele><time>2026-04-26T09:45:46Z</time></trkpt><trkpt lat="39.384433045532525" lon="9.139667836948394"><ele>147.0</ele><time>2026-04-26T09:45:47Z</time></trkpt><trkpt lat="39.384400339476535" lon="9.139503764010119"><ele>147.0</ele><time>2026-04-26T09:45:48Z</time></trkpt><trkpt lat="39.3843636827165" lon="9.139329015525286"><ele>147.0</ele><time>2026-04-26T09:45:49Z</time></trkpt><trkpt lat="39.38432892676513" lon="9.13915845814536"><ele>147.0</ele><time>2026-04-26T09:45:50Z</time></trkpt><trkpt lat="39.38429405177664" lon="9.13898840793071"><ele>147.0</ele><time>2026-04-26T09:45:51Z</time></trkpt><trkpt lat="39.38425463180983" lon="9.138816335128897"><ele>147.0</ele><time>2026-04-26T09:45:52Z</time></trkpt><trkpt lat="39.384224583306256" lon="9.138650453066075"><ele>147.0</ele><time>2026-04-26T09:45:53Z</time></trkpt><trkpt lat="39.384186054790725" lon="9.138499254826389"><ele>147.0</ele><time>2026-04-26T09:45:54Z</time></trkpt><trkpt lat="39.384152696703815" lon="9.138335170387638"><ele>147.0</ele><time>2026-04-26T09:45:55Z</time></trkpt><trkpt lat="39.38412001872397" lon="9.13817692195821"><ele>147.0</ele><time>2026-04-26T09:45:56Z</time></trkpt><trkpt lat="39.38408422893551" lon="9.138014520395203"><ele>147.0</ele><time>2026-04-26T09:45:57Z</time></trkpt><trkpt lat="39.38405390140272" lon="9.137852919987619"><ele>146.75</ele><time>2026-04-26T09:45:58Z</time></trkpt><trkpt lat="39.38402073636085" lon="9.13769379329391"><ele>146.5</ele><time>2026-04-26T09:45:59Z</time></trkpt><trkpt lat="39.383982559371724" lon="9.137533907644775"><ele>146.25</ele><time>2026-04-26T09:46:00Z</time></trkpt><trkpt lat="39.38394534191517" lon="9.137375591215932"><ele>146.0</ele><time>2026-04-26T09:46:01Z</time></trkpt><trkpt lat="39.38392006379369" lon="9.137221269733036"><ele>145.5</ele><time>2026-04-26T09:46:02Z</time></trkpt><trkpt lat="39.383880721956885" lon="9.137070192580902"><ele>145.0</ele><time>2026-04-26T09:46:03Z</time></trkpt><trkpt lat="39.383847216381106" lon="9.136895572695192"><ele>144.5</ele><time>2026-04-26T09:46:04Z</time></trkpt><trkpt lat="39.38381683258377" lon="9.136736274244802"><ele>144.0</ele><time>2026-04-26T09:46:05Z</time></trkpt><trkpt lat="39.383784222355686" lon="9.136566440648883"><ele>144.0</ele><time>2026-04-26T09:46:06Z</time></trkpt><trkpt lat="39.38374734515931" lon="9.13641015603981"><ele>144.0</ele><time>2026-04-26T09:46:07Z</time></trkpt><trkpt lat="39.383713418461696" lon="9.13625274811361"><ele>144.0</ele><time>2026-04-26T09:46:08Z</time></trkpt><trkpt lat="39.38368646616712" lon="9.136082551930347"><ele>144.0</ele><time>2026-04-26T09:46:09Z</time></trkpt><trkpt lat="39.38366547427604" lon="9.135912251576789"><ele>144.0</ele><time>2026-04-26T09:46:10Z</time></trkpt><trkpt lat="39.38364180409275" lon="9.135755352792483"><ele>144.0</ele><time>2026-04-26T09:46:11Z</time></trkpt><trkpt lat="39.38362595569138" lon="9.135581507417436"><ele>144.0</ele><time>2026-04-26T09:46:12Z</time></trkpt><trkpt lat="39.38361246451977" lon="9.135408415447582"><ele>144.0</ele><time>2026-04-26T09:46:13Z</time></trkpt><trkpt lat="39.38359742899231" lon="9.135246129050653"><ele>143.75</ele><time>2026-04-26T09:46:14Z</time></trkpt><trkpt lat="39.383587287667744" lon="9.135074642620634"><ele>143.5</ele><time>2026-04-26T09:46:15Z</time></trkpt><trkpt lat="39.38357062040741" lon="9.13490365418689"><ele>143.25</ele><time>2026-04-26T09:46:16Z</time></trkpt><trkpt lat="39.383564922517095" lon="9.134730772023849"><ele>143.0</ele><time>2026-04-26T09:46:17Z</time></trkpt><trkpt lat="39.383550088362334" lon="9.134556617333143"><ele>143.0</ele><time>2026-04-26T09:46:18Z</time></trkpt><trkpt lat="39.38353446161059" lon="9.134385525564417"><ele>143.0</ele><time>2026-04-26T09:46:19Z</time></trkpt><trkpt lat="39.38352286922202" lon="9.134201145088888"><ele>143.0</ele><time>2026-04-26T09:46:20Z</time></trkpt><trkpt lat="39.38351681218988" lon="9.134004228183851"><ele>143.0</ele><time>2026-04-26T09:46:21Z</time></trkpt><trkpt lat="39.38352726419169" lon="9.133829960522158"><ele>143.0</ele><time>2026-04-26T09:46:22Z</time></trkpt><trkpt lat="39.38348654608547" lon="9.13366445301964"><ele>143.0</ele><time>2026-04-26T09:46:23Z</time></trkpt><trkpt lat="39.38347165489587" lon="9.133490509355077"><ele>143.0</ele><time>2026-04-26T09:46:24Z</time></trkpt><trkpt lat="39.38345285616017" lon="9.133318982855332"><ele>143.0</ele><time>2026-04-26T09:46:25Z</time></trkpt><trkpt lat="39.383439353015724" lon="9.13315544708979"><ele>142.25</ele><time>2026-04-26T09:46:26Z</time></trkpt><trkpt lat="39.38343065337405" lon="9.132992488476487"><ele>141.5</ele><time>2026-04-26T09:46:27Z</time></trkpt><trkpt lat="39.38341725236427" lon="9.13282846141419"><ele>140.75</ele><time>2026-04-26T09:46:28Z</time></trkpt><trkpt lat="39.38340458213125" lon="9.132663760955586"><ele>140.0</ele><time>2026-04-26T09:46:29Z</time></trkpt><trkpt lat="39.38339684531771" lon="9.132499644287849"><ele>139.5</ele><time>2026-04-26T09:46:30Z</time></trkpt><trkpt lat="39.383382386316455" lon="9.132328880551475"><ele>139.0</ele><time>2026-04-26T09:46:31Z</time></trkpt><trkpt lat="39.38336982666754" lon="9.132158766409477"><ele>138.5</ele><time>2026-04-26T09:46:32Z</time></trkpt><trkpt lat="39.38335596065139" lon="9.131985579880782"><ele>138.0</ele><time>2026-04-26T09:46:33Z</time></trkpt><trkpt lat="39.383348897490634" lon="9.13181662152626"><ele>138.0</ele><time>2026-04-26T09:46:34Z</time></trkpt><trkpt lat="39.38334748921518" lon="9.131653037936246"><ele>138.0</ele><time>2026-04-26T09:46:35Z</time></trkpt><trkpt lat="39.38334945049715" lon="9.131486074748759"><ele>138.0</ele><time>2026-04-26T09:46:36Z</time></trkpt><trkpt lat="39.38335435939101" lon="9.131313035861757"><ele>138.0</ele><time>2026-04-26T09:46:37Z</time></trkpt><trkpt lat="39.38336040205975" lon="9.131141188937336"><ele>138.0</ele><time>2026-04-26T09:46:38Z</time></trkpt><trkpt lat="39.383370997023526" lon="9.130957094519156"><ele>138.0</ele><time>2026-04-26T09:46:39Z</time></trkpt><trkpt lat="39.38339422121559" lon="9.130776990998898"><ele>138.0</ele><time>2026-04-26T09:46:40Z</time></trkpt><trkpt lat="39.383414907584225" lon="9.130597000833744"><ele>138.0</ele><time>2026-04-26T09:46:41Z</time></trkpt><trkpt lat="39.38343346490765" lon="9.130415615498197"><ele>137.5</ele><time>2026-04-26T09:46:42Z</time></trkpt><trkpt lat="39.3834596169807" lon="9.130218693450438"><ele>137.0</ele><time>2026-04-26T09:46:43Z</time></trkpt><trkpt lat="39.38347893812018" lon="9.130040799066204"><ele>136.5</ele><time>2026-04-26T09:46:44Z</time></trkpt><trkpt lat="39.383494663059274" lon="9.129870538715227"><ele>136.0</ele><time>2026-04-26T09:46:45Z</time></trkpt><trkpt lat="39.383513951479934" lon="9.129699755035364"><ele>136.0</ele><time>2026-04-26T09:46:46Z</time></trkpt><trkpt lat="39.383533136130794" lon="9.129534395836183"><ele>136.0</ele><time>2026-04-26T09:46:47Z</time></trkpt><trkpt lat="39.383544781324595" lon="9.1293681104462"><ele>136.0</ele><time>2026-04-26T09:46:48Z</time></trkpt><trkpt lat="39.38356329413501" lon="9.129207177512184"><ele>136.0</ele><time>2026-04-26T09:46:49Z</time></trkpt><trkpt lat="39.383577573779476" lon="9.129033069114868"><ele>136.25</ele><time>2026-04-26T09:46:50Z</time></trkpt><trkpt lat="39.38359757821881" lon="9.128862466143113"><ele>136.5</ele><time>2026-04-26T09:46:51Z</time></trkpt><trkpt lat="39.383615003726405" lon="9.128690057679664"><ele>136.75</ele><time>2026-04-26T09:46:52Z</time></trkpt><trkpt lat="39.38363045006192" lon="9.128519828065345"><ele>137.0</ele><time>2026-04-26T09:46:53Z</time></trkpt><trkpt lat="39.383648227494284" lon="9.128346038979632"><ele>136.75</ele><time>2026-04-26T09:46:54Z</time></trkpt><trkpt lat="39.38366688525554" lon="9.128174840864888"><ele>136.5</ele><time>2026-04-26T09:46:55Z</time></trkpt><trkpt lat="39.38368564924426" lon="9.12800715495954"><ele>136.25</ele><time>2026-04-26T09:46:56Z</time></trkpt><trkpt lat="39.3837028661176" lon="9.127836675483469"><ele>136.0</ele><time>2026-04-26T09:46:57Z</time></trkpt><trkpt lat="39.38372324902707" lon="9.127676560317884"><ele>136.0</ele><time>2026-04-26T09:46:58Z</time></trkpt><trkpt lat="39.38373722253601" lon="9.12750439019488"><ele>136.0</ele><time>2026-04-26T09:46:59Z</time></trkpt><trkpt lat="39.38375538403964" lon="9.127339660445474"><ele>136.0</ele><time>2026-04-26T09:47:00Z</time></trkpt><trkpt lat="39.38377569171888" lon="9.127172640488759"><ele>136.0</ele><time>2026-04-26T09:47:01Z</time></trkpt><trkpt lat="39.38379357816845" lon="9.127011709888635"><ele>136.0</ele><time>2026-04-26T09:47:02Z</time></trkpt><trkpt lat="39.383808933079415" lon="9.126845407533386"><ele>136.0</ele><time>2026-04-26T09:47:03Z</time></trkpt><trkpt lat="39.383826432113565" lon="9.126681756013262"><ele>136.0</ele><time>2026-04-26T09:47:04Z</time></trkpt><trkpt lat="39.38384631890633" lon="9.126517404535026"><ele>136.0</ele><time>2026-04-26T09:47:05Z</time></trkpt><trkpt lat="39.38386439264372" lon="9.1263541705165"><ele>135.75</ele><time>2026-04-26T09:47:06Z</time></trkpt><trkpt lat="39.38388529106436" lon="9.126191444485277"><ele>135.5</ele><time>2026-04-26T09:47:07Z</time></trkpt><trkpt lat="39.383901088534735" lon="9.12602407460034"><ele>135.25</ele><time>2026-04-26T09:47:08Z</time></trkpt><trkpt lat="39.38392174244519" lon="9.125860357736755"><ele>135.0</ele><time>2026-04-26T09:47:09Z</time></trkpt><trkpt lat="39.38394043874176" lon="9.12569598369533"><ele>134.5</ele><time>2026-04-26T09:47:10Z</time></trkpt><trkpt lat="39.38395159133088" lon="9.125520498637481"><ele>134.0</ele><time>2026-04-26T09:47:11Z</time></trkpt><trkpt lat="39.3839724856335" lon="9.125356626971739"><ele>133.5</ele><time>2026-04-26T09:47:12Z</time></trkpt><trkpt lat="39.383989044256225" lon="9.125183892246794"><ele>133.0</ele><time>2026-04-26T09:47:13Z</time></trkpt><trkpt lat="39.38400644828997" lon="9.12501643809677"><ele>133.25</ele><time>2026-04-26T09:47:14Z</time></trkpt><trkpt lat="39.38402571640956" lon="9.124870523374772"><ele>133.5</ele><time>2026-04-26T09:47:15Z</time></trkpt><trkpt lat="39.384043165278115" lon="9.124716098942331"><ele>133.75</ele><time>2026-04-26T09:47:16Z</time></trkpt><trkpt lat="39.384061494992" lon="9.12454478598818"><ele>134.0</ele><time>2026-04-26T09:47:17Z</time></trkpt><trkpt lat="39.38407678883609" lon="9.124360064127115"><ele>134.0</ele><time>2026-04-26T09:47:18Z</time></trkpt><trkpt lat="39.3840941694838" lon="9.124173233200498"><ele>134.0</ele><time>2026-04-26T09:47:19Z</time></trkpt><trkpt lat="39.384116832059924" lon="9.123991610441907"><ele>134.0</ele><time>2026-04-26T09:47:20Z</time></trkpt><trkpt lat="39.3841352146768" lon="9.123809164734176"><ele>134.0</ele><time>2026-04-26T09:47:21Z</time></trkpt><trkpt lat="39.38415564687917" lon="9.123628896547672"><ele>134.0</ele><time>2026-04-26T09:47:22Z</time></trkpt><trkpt lat="39.38417409182121" lon="9.12344971829891"><ele>134.0</ele><time>2026-04-26T09:47:23Z</time></trkpt><trkpt lat="39.38419601824132" lon="9.123271024915029"><ele>134.0</ele><time>2026-04-26T09:47:24Z</time></trkpt><trkpt lat="39.384214529920825" lon="9.123093037735147"><ele>134.0</ele><time>2026-04-26T09:47:25Z</time></trkpt><trkpt lat="39.38423102702867" lon="9.122917725216718"><ele>134.0</ele><time>2026-04-26T09:47:26Z</time></trkpt><trkpt lat="39.38424979136446" lon="9.12273848416895"><ele>134.0</ele><time>2026-04-26T09:47:27Z</time></trkpt><trkpt lat="39.3842704200839" lon="9.122552204862616"><ele>134.0</ele><time>2026-04-26T09:47:28Z</time></trkpt><trkpt lat="39.38430178102632" lon="9.12237244378672"><ele>134.0</ele><time>2026-04-26T09:47:29Z</time></trkpt><trkpt lat="39.3843450415812" lon="9.122227636029816"><ele>133.66666666666666</ele><time>2026-04-26T09:47:30Z</time></trkpt><trkpt lat="39.3843289919298" lon="9.122008923017122"><ele>133.33333333333334</ele><time>2026-04-26T09:47:31Z</time></trkpt><trkpt lat="39.38434389471224" lon="9.121826089953197"><ele>133.0</ele><time>2026-04-26T09:47:32Z</time></trkpt><trkpt lat="39.384365738875914" lon="9.121646599342471"><ele>132.5</ele><time>2026-04-26T09:47:33Z</time></trkpt><trkpt lat="39.38438344258492" lon="9.121466898489015"><ele>132.0</ele><time>2026-04-26T09:47:34Z</time></trkpt><trkpt lat="39.38440097304858" lon="9.121289411253521"><ele>131.5</ele><time>2026-04-26T09:47:35Z</time></trkpt><trkpt lat="39.38441952122893" lon="9.121106297765104"><ele>131.0</ele><time>2026-04-26T09:47:36Z</time></trkpt><trkpt lat="39.38444838003227" lon="9.120924735944445"><ele>131.0</ele><time>2026-04-26T09:47:37Z</time></trkpt><trkpt lat="39.38446781947534" lon="9.120737658525357"><ele>131.0</ele><time>2026-04-26T09:47:38Z</time></trkpt><trkpt lat="39.38448671215829" lon="9.120555842903935"><ele>131.0</ele><time>2026-04-26T09:47:39Z</time></trkpt><trkpt lat="39.3844976930854" lon="9.120359188247543"><ele>131.0</ele><time>2026-04-26T09:47:40Z</time></trkpt><trkpt lat="39.38452351730167" lon="9.120195543775981"><ele>130.75</ele><time>2026-04-26T09:47:41Z</time></trkpt><trkpt lat="39.38456471372478" lon="9.120056939647359"><ele>130.5</ele><time>2026-04-26T09:47:42Z</time></trkpt><trkpt lat="39.38454813143623" lon="9.11981378540337"><ele>130.25</ele><time>2026-04-26T09:47:43Z</time></trkpt><trkpt lat="39.38456598201951" lon="9.119634996333156"><ele>130.0</ele><time>2026-04-26T09:47:44Z</time></trkpt><trkpt lat="39.38458550305813" lon="9.119438199100475"><ele>129.66666666666669</ele><time>2026-04-26T09:47:45Z</time></trkpt><trkpt lat="39.38460466115821" lon="9.11923388937221"><ele>129.33333333333334</ele><time>2026-04-26T09:47:46Z</time></trkpt><trkpt lat="39.38463021555631" lon="9.119036856369762"><ele>129.0</ele><time>2026-04-26T09:47:47Z</time></trkpt><trkpt lat="39.38464856236175" lon="9.118854702040444"><ele>128.75</ele><time>2026-04-26T09:47:48Z</time></trkpt><trkpt lat="39.38466373531819" lon="9.118670119765534"><ele>128.5</ele><time>2026-04-26T09:47:49Z</time></trkpt><trkpt lat="39.384676629031624" lon="9.118496884776437"><ele>128.25</ele><time>2026-04-26T09:47:50Z</time></trkpt><trkpt lat="39.3846894646679" lon="9.118327552567774"><ele>128.0</ele><time>2026-04-26T09:47:51Z</time></trkpt><trkpt lat="39.384707367238455" lon="9.118166575330092"><ele>127.75</ele><time>2026-04-26T09:47:52Z</time></trkpt><trkpt lat="39.38472844043478" lon="9.11800328178998"><ele>127.5</ele><time>2026-04-26T09:47:53Z</time></trkpt><trkpt lat="39.3847545145779" lon="9.117823236065751"><ele>127.25</ele><time>2026-04-26T09:47:54Z</time></trkpt><trkpt lat="39.38477322315247" lon="9.117644014967414"><ele>127.0</ele><time>2026-04-26T09:47:55Z</time></trkpt><trkpt lat="39.3847932425652" lon="9.117465386552121"><ele>126.75</ele><time>2026-04-26T09:47:56Z</time></trkpt><trkpt lat="39.38480732522322" lon="9.117286663673065"><ele>126.5</ele><time>2026-04-26T09:47:57Z</time></trkpt><trkpt lat="39.38482649658164" lon="9.11711397769856"><ele>126.25</ele><time>2026-04-26T09:47:58Z</time></trkpt><trkpt lat="39.38484633116182" lon="9.116942541072708"><ele>126.0</ele><time>2026-04-26T09:47:59Z</time></trkpt><trkpt lat="39.38486826307039" lon="9.116772235512444"><ele>126.0</ele><time>2026-04-26T09:48:00Z</time></trkpt><trkpt lat="39.38488735065904" lon="9.116599567336682"><ele>126.0</ele><time>2026-04-26T09:48:01Z</time></trkpt><trkpt lat="39.38490349759776" lon="9.116424562995453"><ele>126.0</ele><time>2026-04-26T09:48:02Z</time></trkpt><trkpt lat="39.384922574645124" lon="9.11624633327573"><ele>126.0</ele><time>2026-04-26T09:48:03Z</time></trkpt><trkpt lat="39.38494281118709" lon="9.116068267548421"><ele>126.0</ele><time>2026-04-26T09:48:04Z</time></trkpt><trkpt lat="39.38496493014713" lon="9.115895440319935"><ele>126.0</ele><time>2026-04-26T09:48:05Z</time></trkpt><trkpt lat="39.38498408570699" lon="9.115719460893597"><ele>126.0</ele><time>2026-04-26T09:48:06Z</time></trkpt><trkpt lat="39.384998701255235" lon="9.115546357014619"><ele>126.0</ele><time>2026-04-26T09:48:07Z</time></trkpt><trkpt lat="39.385014674785154" lon="9.115370498814507"><ele>125.5</ele><time>2026-04-26T09:48:08Z</time></trkpt><trkpt lat="39.38502559731938" lon="9.115193497013093"><ele>125.0</ele><time>2026-04-26T09:48:09Z</time></trkpt><trkpt lat="39.38503867126052" lon="9.115017870579363"><ele>124.5</ele><time>2026-04-26T09:48:10Z</time></trkpt><trkpt lat="39.38504513986125" lon="9.114843636477767"><ele>124.0</ele><time>2026-04-26T09:48:11Z</time></trkpt><trkpt lat="39.3850545776858" lon="9.114669328351301"><ele>123.75</ele><time>2026-04-26T09:48:12Z</time></trkpt><trkpt lat="39.38505959667314" lon="9.114495317180467"><ele>123.5</ele><time>2026-04-26T09:48:13Z</time></trkpt><trkpt lat="39.3850608985553" lon="9.114321986724303"><ele>123.25</ele><time>2026-04-26T09:48:14Z</time></trkpt><trkpt lat="39.38506452499271" lon="9.114147743464711"><ele>123.0</ele><time>2026-04-26T09:48:15Z</time></trkpt><trkpt lat="39.38506342990252" lon="9.113972827991581"><ele>122.75</ele><time>2026-04-26T09:48:16Z</time></trkpt><trkpt lat="39.38507242098102" lon="9.11379573111754"><ele>122.5</ele><time>2026-04-26T09:48:17Z</time></trkpt><trkpt lat="39.385069297762136" lon="9.113610847165559"><ele>122.25</ele><time>2026-04-26T09:48:18Z</time></trkpt><trkpt lat="39.3850721851758" lon="9.11342510438377"><ele>122.0</ele><time>2026-04-26T09:48:19Z</time></trkpt><trkpt lat="39.38507381719182" lon="9.113242411519684"><ele>122.0</ele><time>2026-04-26T09:48:20Z</time></trkpt><trkpt lat="39.38507352928989" lon="9.113058741653509"><ele>122.0</ele><time>2026-04-26T09:48:21Z</time></trkpt><trkpt lat="39.38508728025426" lon="9.112877830865687"><ele>122.0</ele><time>2026-04-26T09:48:22Z</time></trkpt><trkpt lat="39.38508921327209" lon="9.11269677428693"><ele>122.0</ele><time>2026-04-26T09:48:23Z</time></trkpt><trkpt lat="39.38507719480419" lon="9.112515535069575"><ele>122.0</ele><time>2026-04-26T09:48:24Z</time></trkpt><trkpt lat="39.38508002858485" lon="9.112336821271228"><ele>122.0</ele><time>2026-04-26T09:48:25Z</time></trkpt><trkpt lat="39.38508112713828" lon="9.112153385731585"><ele>122.0</ele><time>2026-04-26T09:48:26Z</time></trkpt><trkpt lat="39.38508150963246" lon="9.111970285864494"><ele>122.0</ele><time>2026-04-26T09:48:27Z</time></trkpt><trkpt lat="39.38508626920109" lon="9.111789318154822"><ele>122.0</ele><time>2026-04-26T09:48:28Z</time></trkpt><trkpt lat="39.38509141395943" lon="9.111608094103698"><ele>122.0</ele><time>2026-04-26T09:48:29Z</time></trkpt><trkpt lat="39.385089603888005" lon="9.111430892765728"><ele>122.0</ele><time>2026-04-26T09:48:30Z</time></trkpt><trkpt lat="39.38509048095146" lon="9.111251016870124"><ele>122.0</ele><time>2026-04-26T09:48:31Z</time></trkpt><trkpt lat="39.38509344864332" lon="9.11106841857863"><ele>122.0</ele><time>2026-04-26T09:48:32Z</time></trkpt><trkpt lat="39.38509293639571" lon="9.110886539316414"><ele>122.0</ele><time>2026-04-26T09:48:33Z</time></trkpt><trkpt lat="39.38509300808292" lon="9.110705426689591"><ele>122.0</ele><time>2026-04-26T09:48:34Z</time></trkpt><trkpt lat="39.38509786561545" lon="9.110526017543846"><ele>122.0</ele><time>2026-04-26T09:48:35Z</time></trkpt><trkpt lat="39.385103245474596" lon="9.110351250979464"><ele>121.75</ele><time>2026-04-26T09:48:36Z</time></trkpt><trkpt lat="39.38510856093504" lon="9.110173486166213"><ele>121.5</ele><time>2026-04-26T09:48:37Z</time></trkpt><trkpt lat="39.385112589561416" lon="9.10999948358483"><ele>121.25</ele><time>2026-04-26T09:48:38Z</time></trkpt><trkpt lat="39.38510832360825" lon="9.109822249304454"><ele>121.0</ele><time>2026-04-26T09:48:39Z</time></trkpt><trkpt lat="39.385112428411446" lon="9.10965039175895"><ele>121.0</ele><time>2026-04-26T09:48:40Z</time></trkpt><trkpt lat="39.385114027619" lon="9.109474568504108"><ele>121.0</ele><time>2026-04-26T09:48:41Z</time></trkpt><trkpt lat="39.38511433715803" lon="9.10930106011822"><ele>121.0</ele><time>2026-04-26T09:48:42Z</time></trkpt><trkpt lat="39.38511608923398" lon="9.10912332003405"><ele>121.0</ele><time>2026-04-26T09:48:43Z</time></trkpt><trkpt lat="39.38511565553876" lon="9.108946991176653"><ele>120.75</ele><time>2026-04-26T09:48:44Z</time></trkpt><trkpt lat="39.385117248203684" lon="9.108771396460819"><ele>120.5</ele><time>2026-04-26T09:48:45Z</time></trkpt><trkpt lat="39.3851140491927" lon="9.10858991848863"><ele>120.25</ele><time>2026-04-26T09:48:46Z</time></trkpt><trkpt lat="39.38512354871175" lon="9.108411923854257"><ele>120.0</ele><time>2026-04-26T09:48:47Z</time></trkpt><trkpt lat="39.38512568160292" lon="9.108233496322429"><ele>120.0</ele><time>2026-04-26T09:48:48Z</time></trkpt><trkpt lat="39.385126552891855" lon="9.108051792579966"><ele>120.0</ele><time>2026-04-26T09:48:49Z</time></trkpt><trkpt lat="39.38512943733868" lon="9.10787158285831"><ele>120.0</ele><time>2026-04-26T09:48:50Z</time></trkpt><trkpt lat="39.38513084418103" lon="9.10768919089749"><ele>120.0</ele><time>2026-04-26T09:48:51Z</time></trkpt><trkpt lat="39.385130635801666" lon="9.10750686759851"><ele>120.25</ele><time>2026-04-26T09:48:52Z</time></trkpt><trkpt lat="39.38513817211254" lon="9.107327994546829"><ele>120.5</ele><time>2026-04-26T09:48:53Z</time></trkpt><trkpt lat="39.38514472670441" lon="9.107149820196815"><ele>120.75</ele><time>2026-04-26T09:48:54Z</time></trkpt><trkpt lat="39.385147504712606" lon="9.106967161221863"><ele>121.0</ele><time>2026-04-26T09:48:55Z</time></trkpt><trkpt lat="39.38514856733383" lon="9.106789029451523"><ele>121.0</ele><time>2026-04-26T09:48:56Z</time></trkpt><trkpt lat="39.3851516084784" lon="9.106612879503514"><ele>121.0</ele><time>2026-04-26T09:48:57Z</time></trkpt><trkpt lat="39.38515157562767" lon="9.106425874349377"><ele>121.0</ele><time>2026-04-26T09:48:58Z</time></trkpt><trkpt lat="39.385152629190735" lon="9.106243256120264"><ele>121.0</ele><time>2026-04-26T09:48:59Z</time></trkpt><trkpt lat="39.38515659675974" lon="9.10605952200762"><ele>120.5</ele><time>2026-04-26T09:49:00Z</time></trkpt><trkpt lat="39.38516136133964" lon="9.10588109697801"><ele>120.0</ele><time>2026-04-26T09:49:01Z</time></trkpt><trkpt lat="39.38515917834331" lon="9.105707520519273"><ele>119.5</ele><time>2026-04-26T09:49:02Z</time></trkpt><trkpt lat="39.38516408726471" lon="9.10553254367364"><ele>119.0</ele><time>2026-04-26T09:49:03Z</time></trkpt><trkpt lat="39.38515984933959" lon="9.105352470193832"><ele>119.0</ele><time>2026-04-26T09:49:04Z</time></trkpt><trkpt lat="39.385164587401015" lon="9.105175497027842"><ele>119.0</ele><time>2026-04-26T09:49:05Z</time></trkpt><trkpt lat="39.38516858305245" lon="9.104991778867166"><ele>119.0</ele><time>2026-04-26T09:49:06Z</time></trkpt><trkpt lat="39.38516721506254" lon="9.10480704130666"><ele>119.0</ele><time>2026-04-26T09:49:07Z</time></trkpt><trkpt lat="39.385170478228126" lon="9.104623506567151"><ele>118.75</ele><time>2026-04-26T09:49:08Z</time></trkpt><trkpt lat="39.38517280603594" lon="9.10443955038493"><ele>118.5</ele><time>2026-04-26T09:49:09Z</time></trkpt><trkpt lat="39.3851794722383" lon="9.104258396064878"><ele>118.25</ele><time>2026-04-26T09:49:10Z</time></trkpt><trkpt lat="39.38517895790094" lon="9.104078842182968"><ele>118.0</ele><time>2026-04-26T09:49:11Z</time></trkpt><trkpt lat="39.38518109425385" lon="9.10390422740912"><ele>117.5</ele><time>2026-04-26T09:49:12Z</time></trkpt><trkpt lat="39.38518482582554" lon="9.103751500123813"><ele>117.0</ele><time>2026-04-26T09:49:13Z</time></trkpt><trkpt lat="39.38518046892104" lon="9.10359160684553"><ele>116.5</ele><time>2026-04-26T09:49:14Z</time></trkpt><trkpt lat="39.385185820620286" lon="9.103433465321048"><ele>116.0</ele><time>2026-04-26T09:49:15Z</time></trkpt><trkpt lat="39.385182746440435" lon="9.10327226751564"><ele>116.0</ele><time>2026-04-26T09:49:16Z</time></trkpt><trkpt lat="39.38518568970525" lon="9.103105027482286"><ele>116.0</ele><time>2026-04-26T09:49:17Z</time></trkpt><trkpt lat="39.385188970342156" lon="9.102936795186519"><ele>116.0</ele><time>2026-04-26T09:49:18Z</time></trkpt><trkpt lat="39.3851882254149" lon="9.10276749359109"><ele>116.0</ele><time>2026-04-26T09:49:19Z</time></trkpt><trkpt lat="39.38518710182833" lon="9.102593457712235"><ele>115.75</ele><time>2026-04-26T09:49:20Z</time></trkpt><trkpt lat="39.38518762163001" lon="9.102408951967206"><ele>115.5</ele><time>2026-04-26T09:49:21Z</time></trkpt><trkpt lat="39.38519052728092" lon="9.102228068751767"><ele>115.25</ele><time>2026-04-26T09:49:22Z</time></trkpt><trkpt lat="39.3851966473634" lon="9.10204432605301"><ele>115.0</ele><time>2026-04-26T09:49:23Z</time></trkpt><trkpt lat="39.38519608813936" lon="9.101863035975375"><ele>115.0</ele><time>2026-04-26T09:49:24Z</time></trkpt><trkpt lat="39.38519955064161" lon="9.1016811315821"><ele>115.0</ele><time>2026-04-26T09:49:25Z</time></trkpt><trkpt lat="39.38519845182695" lon="9.101498881961227"><ele>115.0</ele><time>2026-04-26T09:49:26Z</time></trkpt><trkpt lat="39.38520426734335" lon="9.101315977036293"><ele>115.0</ele><time>2026-04-26T09:49:27Z</time></trkpt><trkpt lat="39.385205335756105" lon="9.101133081956624"><ele>115.0</ele><time>2026-04-26T09:49:28Z</time></trkpt><trkpt lat="39.385207169479" lon="9.100949671963043"><ele>115.0</ele><time>2026-04-26T09:49:29Z</time></trkpt><trkpt lat="39.385204687898884" lon="9.100764970106205"><ele>115.0</ele><time>2026-04-26T09:49:30Z</time></trkpt><trkpt lat="39.38520546087571" lon="9.10058311475746"><ele>115.0</ele><time>2026-04-26T09:49:31Z</time></trkpt><trkpt lat="39.38520385630344" lon="9.100401303051044"><ele>115.0</ele><time>2026-04-26T09:49:32Z</time></trkpt><trkpt lat="39.38521065443634" lon="9.10022400024135"><ele>115.0</ele><time>2026-04-26T09:49:33Z</time></trkpt><trkpt lat="39.38521083830847" lon="9.100044691536292"><ele>115.0</ele><time>2026-04-26T09:49:34Z</time></trkpt><trkpt lat="39.385213634238795" lon="9.099859852945487"><ele>115.0</ele><time>2026-04-26T09:49:35Z</time></trkpt><trkpt lat="39.38522486803486" lon="9.099674998756706"><ele>115.0</ele><time>2026-04-26T09:49:36Z</time></trkpt><trkpt lat="39.385247874246986" lon="9.099494656658987"><ele>115.0</ele><time>2026-04-26T09:49:37Z</time></trkpt><trkpt lat="39.38526752775363" lon="9.099295420646753"><ele>115.0</ele><time>2026-04-26T09:49:38Z</time></trkpt><trkpt lat="39.38522269847981" lon="9.099073329567013"><ele>115.0</ele><time>2026-04-26T09:49:39Z</time></trkpt><trkpt lat="39.385344016387606" lon="9.098952412139795"><ele>115.0</ele><time>2026-04-26T09:49:40Z</time></trkpt><trkpt lat="39.38537665446504" lon="9.098773309934657"><ele>115.0</ele><time>2026-04-26T09:49:41Z</time></trkpt><trkpt lat="39.385411213762794" lon="9.09859431283655"><ele>115.0</ele><time>2026-04-26T09:49:42Z</time></trkpt><trkpt lat="39.38544906371077" lon="9.098414019977616"><ele>114.25</ele><time>2026-04-26T09:49:43Z</time></trkpt><trkpt lat="39.38548443843914" lon="9.098232366318094"><ele>113.5</ele><time>2026-04-26T09:49:44Z</time></trkpt><trkpt lat="39.38551728131469" lon="9.09805088714574"><ele>112.75</ele><time>2026-04-26T09:49:45Z</time></trkpt><trkpt lat="39.38555047173834" lon="9.097872276713806"><ele>112.0</ele><time>2026-04-26T09:49:46Z</time></trkpt><trkpt lat="39.38558263579846" lon="9.09769289184763"><ele>111.5</ele><time>2026-04-26T09:49:47Z</time></trkpt><trkpt lat="39.3856158182024" lon="9.097517593263843"><ele>111.0</ele><time>2026-04-26T09:49:48Z</time></trkpt><trkpt lat="39.38564643165523" lon="9.097340151388762"><ele>110.5</ele><time>2026-04-26T09:49:49Z</time></trkpt><trkpt lat="39.3856783958449" lon="9.097164691424453"><ele>110.0</ele><time>2026-04-26T09:49:50Z</time></trkpt><trkpt lat="39.38571158853066" lon="9.09699037405682"><ele>110.0</ele><time>2026-04-26T09:49:51Z</time></trkpt><trkpt lat="39.38574266302582" lon="9.096819098380127"><ele>110.0</ele><time>2026-04-26T09:49:52Z</time></trkpt><trkpt lat="39.385778739473906" lon="9.096645962908346"><ele>110.0</ele><time>2026-04-26T09:49:53Z</time></trkpt><trkpt lat="39.385810356086175" lon="9.096469083451236"><ele>110.0</ele><time>2026-04-26T09:49:54Z</time></trkpt><trkpt lat="39.3858388874268" lon="9.096291420776156"><ele>110.0</ele><time>2026-04-26T09:49:55Z</time></trkpt><trkpt lat="39.385871269674475" lon="9.09611480832298"><ele>110.0</ele><time>2026-04-26T09:49:56Z</time></trkpt><trkpt lat="39.38590701000305" lon="9.095939179921716"><ele>110.0</ele><time>2026-04-26T09:49:57Z</time></trkpt><trkpt lat="39.3859454206586" lon="9.095763045405466"><ele>110.0</ele><time>2026-04-26T09:49:58Z</time></trkpt><trkpt lat="39.385978068771756" lon="9.095590575920657"><ele>110.5</ele><time>2026-04-26T09:49:59Z</time></trkpt><trkpt lat="39.38600901151317" lon="9.095418344362157"><ele>111.0</ele><time>2026-04-26T09:50:00Z</time></trkpt><trkpt lat="39.386035417821056" lon="9.09524364937571"><ele>111.5</ele><time>2026-04-26T09:50:01Z</time></trkpt><trkpt lat="39.3860658195359" lon="9.095066571074865"><ele>112.0</ele><time>2026-04-26T09:50:02Z</time></trkpt><trkpt lat="39.38610353737158" lon="9.094894271146396"><ele>112.75</ele><time>2026-04-26T09:50:03Z</time></trkpt><trkpt lat="39.386136370045676" lon="9.094717218296735"><ele>113.5</ele><time>2026-04-26T09:50:04Z</time></trkpt><trkpt lat="39.38616507227112" lon="9.094535379063064"><ele>114.25</ele><time>2026-04-26T09:50:05Z</time></trkpt><trkpt lat="39.386200180315534" lon="9.09436015313332"><ele>115.0</ele><time>2026-04-26T09:50:06Z</time></trkpt><trkpt lat="39.38623342228017" lon="9.094190995634898"><ele>115.75</ele><time>2026-04-26T09:50:07Z</time></trkpt><trkpt lat="39.38625457902177" lon="9.094008709651556"><ele>116.5</ele><time>2026-04-26T09:50:08Z</time></trkpt><trkpt lat="39.38629057385417" lon="9.093844538662374"><ele>117.25</ele><time>2026-04-26T09:50:09Z</time></trkpt><trkpt lat="39.38632795510767" lon="9.09366568764022"><ele>118.0</ele><time>2026-04-26T09:50:10Z</time></trkpt><trkpt lat="39.38636407451888" lon="9.093500576382981"><ele>115.25</ele><time>2026-04-26T09:50:11Z</time></trkpt><trkpt lat="39.3863845798253" lon="9.093340962289952"><ele>112.5</ele><time>2026-04-26T09:50:12Z</time></trkpt><trkpt lat="39.38641893198677" lon="9.09317251749331"><ele>109.75</ele><time>2026-04-26T09:50:13Z</time></trkpt><trkpt lat="39.38645049127911" lon="9.09300135921246"><ele>107.0</ele><time>2026-04-26T09:50:14Z</time></trkpt><trkpt lat="39.38648259859041" lon="9.092833294183396"><ele>106.75</ele><time>2026-04-26T09:50:15Z</time></trkpt><trkpt lat="39.38651331865805" lon="9.092652222477298"><ele>106.5</ele><time>2026-04-26T09:50:16Z</time></trkpt><trkpt lat="39.386544319520695" lon="9.092483643754624"><ele>106.25</ele><time>2026-04-26T09:50:17Z</time></trkpt><trkpt lat="39.38657727693891" lon="9.092305341094903"><ele>106.0</ele><time>2026-04-26T09:50:18Z</time></trkpt><trkpt lat="39.38661097060417" lon="9.092125072325665"><ele>106.0</ele><time>2026-04-26T09:50:19Z</time></trkpt><trkpt lat="39.386641261906284" lon="9.091948587214851"><ele>106.0</ele><time>2026-04-26T09:50:20Z</time></trkpt><trkpt lat="39.386674633978984" lon="9.091772336504938"><ele>106.0</ele><time>2026-04-26T09:50:21Z</time></trkpt><trkpt lat="39.38670395540601" lon="9.091601487399043"><ele>106.0</ele><time>2026-04-26T09:50:22Z</time></trkpt><trkpt lat="39.38673403827444" lon="9.091426784232999"><ele>106.0</ele><time>2026-04-26T09:50:23Z</time></trkpt><trkpt lat="39.38675846312075" lon="9.091253343813637"><ele>106.0</ele><time>2026-04-26T09:50:24Z</time></trkpt><trkpt lat="39.38678305890232" lon="9.091075320502696"><ele>106.0</ele><time>2026-04-26T09:50:25Z</time></trkpt><trkpt lat="39.38680016916966" lon="9.090905264359321"><ele>106.0</ele><time>2026-04-26T09:50:26Z</time></trkpt><trkpt lat="39.38681602223266" lon="9.090727206430657"><ele>106.0</ele><time>2026-04-26T09:50:27Z</time></trkpt><trkpt lat="39.38682901726551" lon="9.090554962662829"><ele>106.0</ele><time>2026-04-26T09:50:28Z</time></trkpt><trkpt lat="39.386847224940986" lon="9.090381566406322"><ele>106.0</ele><time>2026-04-26T09:50:29Z</time></trkpt><trkpt lat="39.38685989185233" lon="9.090208766719746"><ele>106.0</ele><time>2026-04-26T09:50:30Z</time></trkpt><trkpt lat="39.386870482051634" lon="9.090034178279653"><ele>105.75</ele><time>2026-04-26T09:50:31Z</time></trkpt><trkpt lat="39.386885781031516" lon="9.089853909577691"><ele>105.5</ele><time>2026-04-26T09:50:32Z</time></trkpt><trkpt lat="39.38689310502348" lon="9.0896836231089"><ele>105.25</ele><time>2026-04-26T09:50:33Z</time></trkpt><trkpt lat="39.386905619258926" lon="9.089507069641833"><ele>105.0</ele><time>2026-04-26T09:50:34Z</time></trkpt><trkpt lat="39.386918790693926" lon="9.08933357478349"><ele>105.0</ele><time>2026-04-26T09:50:35Z</time></trkpt><trkpt lat="39.386947179629715" lon="9.089162409707635"><ele>105.0</ele><time>2026-04-26T09:50:36Z</time></trkpt><trkpt lat="39.386944834387684" lon="9.088980639995205"><ele>105.0</ele><time>2026-04-26T09:50:37Z</time></trkpt><trkpt lat="39.38696416448232" lon="9.088803567652219"><ele>105.0</ele><time>2026-04-26T09:50:38Z</time></trkpt><trkpt lat="39.386971409749684" lon="9.088623054558484"><ele>104.5</ele><time>2026-04-26T09:50:39Z</time></trkpt><trkpt lat="39.38698673269643" lon="9.08844583669243"><ele>104.0</ele><time>2026-04-26T09:50:40Z</time></trkpt><trkpt lat="39.38699759366136" lon="9.088268893364704"><ele>103.5</ele><time>2026-04-26T09:50:41Z</time></trkpt><trkpt lat="39.38701491347444" lon="9.088087264176856"><ele>103.0</ele><time>2026-04-26T09:50:42Z</time></trkpt><trkpt lat="39.38702474577109" lon="9.087915283549147"><ele>103.0</ele><time>2026-04-26T09:50:43Z</time></trkpt><trkpt lat="39.387038263031606" lon="9.0877378534916"><ele>103.0</ele><time>2026-04-26T09:50:44Z</time></trkpt><trkpt lat="39.38705310485368" lon="9.08756091367858"><ele>103.0</ele><time>2026-04-26T09:50:45Z</time></trkpt><trkpt lat="39.38706789632785" lon="9.087384095771956"><ele>103.0</ele><time>2026-04-26T09:50:46Z</time></trkpt><trkpt lat="39.38708569449428" lon="9.087208442910706"><ele>103.0</ele><time>2026-04-26T09:50:47Z</time></trkpt><trkpt lat="39.387104746278666" lon="9.087034500224219"><ele>103.0</ele><time>2026-04-26T09:50:48Z</time></trkpt><trkpt lat="39.38713829025269" lon="9.086855419758555"><ele>103.0</ele><time>2026-04-26T09:50:49Z</time></trkpt><trkpt lat="39.387174834908656" lon="9.08668287219267"><ele>103.0</ele><time>2026-04-26T09:50:50Z</time></trkpt><trkpt lat="39.38721641557943" lon="9.086509979794345"><ele>102.25</ele><time>2026-04-26T09:50:51Z</time></trkpt><trkpt lat="39.387271265341774" lon="9.086336857000536"><ele>101.5</ele><time>2026-04-26T09:50:52Z</time></trkpt><trkpt lat="39.38732983125246" lon="9.086171222006506"><ele>100.75</ele><time>2026-04-26T09:50:53Z</time></trkpt><trkpt lat="39.38739341538524" lon="9.086005542800867"><ele>100.0</ele><time>2026-04-26T09:50:54Z</time></trkpt><trkpt lat="39.387456299099874" lon="9.085846717854038"><ele>99.75</ele><time>2026-04-26T09:50:55Z</time></trkpt><trkpt lat="39.387530337016415" lon="9.08570047934329"><ele>99.5</ele><time>2026-04-26T09:50:56Z</time></trkpt><trkpt lat="39.38759940304817" lon="9.085564453237222"><ele>99.25</ele><time>2026-04-26T09:50:57Z</time></trkpt><trkpt lat="39.38767643106014" lon="9.085431308317421"><ele>99.0</ele><time>2026-04-26T09:50:58Z</time></trkpt><trkpt lat="39.38776219474095" lon="9.085296773636408"><ele>99.0</ele><time>2026-04-26T09:50:59Z</time></trkpt><trkpt lat="39.387855788556784" lon="9.085164057732731"><ele>99.0</ele><time>2026-04-26T09:51:00Z</time></trkpt><trkpt lat="39.38794835721425" lon="9.085039994586136"><ele>99.0</ele><time>2026-04-26T09:51:01Z</time></trkpt><trkpt lat="39.3880414950095" lon="9.084919348527336"><ele>99.0</ele><time>2026-04-26T09:51:02Z</time></trkpt><trkpt lat="39.38813665745538" lon="9.084806396781032"><ele>98.75</ele><time>2026-04-26T09:51:03Z</time></trkpt><trkpt lat="39.38822699761008" lon="9.08468332326667"><ele>98.5</ele><time>2026-04-26T09:51:04Z</time></trkpt><trkpt lat="39.38832522093033" lon="9.084569135995048"><ele>98.25</ele><time>2026-04-26T09:51:05Z</time></trkpt><trkpt lat="39.3884127994832" lon="9.084454932051205"><ele>98.0</ele><time>2026-04-26T09:51:06Z</time></trkpt><trkpt lat="39.38849425052871" lon="9.084353476086061"><ele>98.0</ele><time>2026-04-26T09:51:07Z</time></trkpt><trkpt lat="39.388577279691276" lon="9.084243020568026"><ele>98.0</ele><time>2026-04-26T09:51:08Z</time></trkpt><trkpt lat="39.38866337041816" lon="9.0841323276126"><ele>98.0</ele><time>2026-04-26T09:51:09Z</time></trkpt><trkpt lat="39.38875157943468" lon="9.084018159097646"><ele>98.0</ele><time>2026-04-26T09:51:10Z</time></trkpt><trkpt lat="39.388843397819876" lon="9.083899062059073"><ele>97.75</ele><time>2026-04-26T09:51:11Z</time></trkpt><trkpt lat="39.38893926605502" lon="9.083782498503476"><ele>97.5</ele><time>2026-04-26T09:51:12Z</time></trkpt><trkpt lat="39.38903522838604" lon="9.083669989577347"><ele>97.25</ele><time>2026-04-26T09:51:13Z</time></trkpt><trkpt lat="39.389123971177746" lon="9.08356032804449"><ele>97.0</ele><time>2026-04-26T09:51:14Z</time></trkpt><trkpt lat="39.389208325580256" lon="9.08346026062265"><ele>97.0</ele><time>2026-04-26T09:51:15Z</time></trkpt><trkpt lat="39.3892925990875" lon="9.083346206081968"><ele>97.0</ele><time>2026-04-26T09:51:16Z</time></trkpt><trkpt lat="39.38937830092285" lon="9.0832204776578"><ele>97.0</ele><time>2026-04-26T09:51:17Z</time></trkpt><trkpt lat="39.38946355536434" lon="9.083089705707218"><ele>97.0</ele><time>2026-04-26T09:51:18Z</time></trkpt><trkpt lat="39.38955972054352" lon="9.082970032455115"><ele>97.0</ele><time>2026-04-26T09:51:19Z</time></trkpt><trkpt lat="39.38964089525655" lon="9.082833098393012"><ele>97.0</ele><time>2026-04-26T09:51:20Z</time></trkpt><trkpt lat="39.38971637713141" lon="9.082689398914022"><ele>97.0</ele><time>2026-04-26T09:51:21Z</time></trkpt><trkpt lat="39.38977693011179" lon="9.082537933552489"><ele>97.0</ele><time>2026-04-26T09:51:22Z</time></trkpt><trkpt lat="39.38984929350685" lon="9.082393762509462"><ele>97.25</ele><time>2026-04-26T09:51:23Z</time></trkpt><trkpt lat="39.38992807663363" lon="9.082252955329952"><ele>97.5</ele><time>2026-04-26T09:51:24Z</time></trkpt><trkpt lat="39.38999887378359" lon="9.082110469830916"><ele>97.75</ele><time>2026-04-26T09:51:25Z</time></trkpt><trkpt lat="39.390066784505535" lon="9.081961518813921"><ele>98.0</ele><time>2026-04-26T09:51:26Z</time></trkpt><trkpt lat="39.39014083668184" lon="9.081839568991134"><ele>98.0</ele><time>2026-04-26T09:51:27Z</time></trkpt><trkpt lat="39.39021145842442" lon="9.081729446032224"><ele>98.0</ele><time>2026-04-26T09:51:28Z</time></trkpt><trkpt lat="39.390278586035556" lon="9.081638733916632"><ele>98.0</ele><time>2026-04-26T09:51:29Z</time></trkpt><trkpt lat="39.39034499550342" lon="9.081559389671797"><ele>98.0</ele><time>2026-04-26T09:51:30Z</time></trkpt><trkpt lat="39.39040878739862" lon="9.081484538124583"><ele>98.0</ele><time>2026-04-26T09:51:31Z</time></trkpt><trkpt lat="39.390470038255046" lon="9.081400432782827"><ele>97.60000000000001</ele><time>2026-04-26T09:51:32Z</time></trkpt><trkpt lat="39.3905340676483" lon="9.081313442882228"><ele>97.2</ele><time>2026-04-26T09:51:33Z</time></trkpt><trkpt lat="39.39060041065085" lon="9.08121867757957"><ele>96.8</ele><time>2026-04-26T09:51:34Z</time></trkpt><trkpt lat="39.390680195279685" lon="9.081116560797328"><ele>96.4</ele><time>2026-04-26T09:51:35Z</time></trkpt><trkpt lat="39.390781220235205" lon="9.081026754848942"><ele>96.0</ele><time>2026-04-26T09:51:36Z</time></trkpt><trkpt lat="39.390903878612335" lon="9.080973789842743"><ele>96.0</ele><time>2026-04-26T09:51:37Z</time></trkpt><trkpt lat="39.391021219601534" lon="9.080926204023502"><ele>96.0</ele><time>2026-04-26T09:51:38Z</time></trkpt><trkpt lat="39.39112491709573" lon="9.080874808747861"><ele>96.0</ele><time>2026-04-26T09:51:39Z</time></trkpt><trkpt lat="39.3912323621008" lon="9.080831735518267"><ele>96.0</ele><time>2026-04-26T09:51:40Z</time></trkpt><trkpt lat="39.391335805557986" lon="9.080780718989912"><ele>96.4</ele><time>2026-04-26T09:51:41Z</time></trkpt><trkpt lat="39.39142896084189" lon="9.080712099207764"><ele>96.8</ele><time>2026-04-26T09:51:42Z</time></trkpt><trkpt lat="39.39150394081616" lon="9.08061701645474"><ele>97.2</ele><time>2026-04-26T09:51:43Z</time></trkpt><trkpt lat="39.39155832577049" lon="9.08048147731463"><ele>97.60000000000001</ele><time>2026-04-26T09:51:44Z</time></trkpt><trkpt lat="39.39160223085205" lon="9.080338491789774"><ele>98.0</ele><time>2026-04-26T09:51:45Z</time></trkpt><trkpt lat="39.39163099742031" lon="9.080164936762376"><ele>98.0</ele><time>2026-04-26T09:51:46Z</time></trkpt><trkpt lat="39.391655890804266" lon="9.079990881552746"><ele>98.0</ele><time>2026-04-26T09:51:47Z</time></trkpt><trkpt lat="39.39168558031978" lon="9.079839428119847"><ele>98.0</ele><time>2026-04-26T09:51:48Z</time></trkpt><trkpt lat="39.391703661799156" lon="9.079700994887277"><ele>98.0</ele><time>2026-04-26T09:51:49Z</time></trkpt><trkpt lat="39.39172040952867" lon="9.07957693860193"><ele>98.0</ele><time>2026-04-26T09:51:50Z</time></trkpt><trkpt lat="39.39174874883486" lon="9.079465331736484"><ele>98.0</ele><time>2026-04-26T09:51:51Z</time></trkpt><trkpt lat="39.39176036559833" lon="9.079346045192215"><ele>98.0</ele><time>2026-04-26T09:51:52Z</time></trkpt><trkpt lat="39.39189048675549" lon="9.079280837948437"><ele>98.0</ele><time>2026-04-26T09:51:53Z</time></trkpt><trkpt lat="39.39196263143239" lon="9.079199850178275"><ele>98.0</ele><time>2026-04-26T09:51:54Z</time></trkpt><trkpt lat="39.39204351835818" lon="9.079132990303677"><ele>98.0</ele><time>2026-04-26T09:51:55Z</time></trkpt><trkpt lat="39.392135098040185" lon="9.079096869090616"><ele>98.0</ele><time>2026-04-26T09:51:56Z</time></trkpt><trkpt lat="39.39222406120917" lon="9.079060845778875"><ele>98.0</ele><time>2026-04-26T09:51:57Z</time></trkpt><trkpt lat="39.39231686622756" lon="9.079037324382826"><ele>98.0</ele><time>2026-04-26T09:51:58Z</time></trkpt><trkpt lat="39.39240170273269" lon="9.078951239465807"><ele>98.0</ele><time>2026-04-26T09:52:00Z</time></trkpt><trkpt lat="39.39246001790807" lon="9.078890964067147"><ele>98.60000000000001</ele><time>2026-04-26T09:52:02Z</time></trkpt><trkpt lat="39.392577300799346" lon="9.078763966681702"><ele>99.2</ele><time>2026-04-26T09:52:04Z</time></trkpt><trkpt lat="39.392649631570244" lon="9.078669370152218"><ele>99.8</ele><time>2026-04-26T09:52:05Z</time></trkpt><trkpt lat="39.392703669443534" lon="9.078594379746008"><ele>100.4</ele><time>2026-04-26T09:52:06Z</time></trkpt><trkpt lat="39.392751070723556" lon="9.078513987475937"><ele>101.0</ele><time>2026-04-26T09:52:07Z</time></trkpt><trkpt lat="39.392794173982345" lon="9.078430614365816"><ele>100.99999999999999</ele><time>2026-04-26T09:52:08Z</time></trkpt><trkpt lat="39.39284418855733" lon="9.0783458446822"><ele>101.0</ele><time>2026-04-26T09:52:09Z</time></trkpt><trkpt lat="39.39288194032421" lon="9.078257648855692"><ele>101.0</ele><time>2026-04-26T09:52:10Z</time></trkpt><trkpt lat="39.3929372363787" lon="9.07818309399891"><ele>101.0</ele><time>2026-04-26T09:52:11Z</time></trkpt><trkpt lat="39.39298407147032" lon="9.078103194348097"><ele>100.99999999999999</ele><time>2026-04-26T09:52:12Z</time></trkpt><trkpt lat="39.39302526410687" lon="9.078017378365454"><ele>101.0</ele><time>2026-04-26T09:52:13Z</time></trkpt><trkpt lat="39.39307367045486" lon="9.077938595190638"><ele>101.6</ele><time>2026-04-26T09:52:14Z</time></trkpt><trkpt lat="39.39311811974133" lon="9.077863129541942"><ele>102.19999999999999</ele><time>2026-04-26T09:52:15Z</time></trkpt><trkpt lat="39.3931801390866" lon="9.077762628863608"><ele>102.80000000000001</ele><time>2026-04-26T09:52:17Z</time></trkpt><trkpt lat="39.393259523556075" lon="9.077682442807118"><ele>103.4</ele><time>2026-04-26T09:52:25Z</time></trkpt><trkpt lat="39.393361239712156" lon="9.0775905967675"><ele>104.0</ele><time>2026-04-26T09:52:27Z</time></trkpt><trkpt lat="39.393427158152285" lon="9.077545481779762"><ele>104.0</ele><time>2026-04-26T09:52:28Z</time></trkpt><trkpt lat="39.393505763690925" lon="9.077474755493945"><ele>104.0</ele><time>2026-04-26T09:52:29Z</time></trkpt><trkpt lat="39.39357872946329" lon="9.077388491402917"><ele>104.0</ele><time>2026-04-26T09:52:30Z</time></trkpt><trkpt lat="39.393653721354404" lon="9.077301313316662"><ele>104.0</ele><time>2026-04-26T09:52:31Z</time></trkpt><trkpt lat="39.39373295459876" lon="9.077217116805997"><ele>104.0</ele><time>2026-04-26T09:52:32Z</time></trkpt><trkpt lat="39.39381965403429" lon="9.07712839601308"><ele>104.80000000000001</ele><time>2026-04-26T09:52:33Z</time></trkpt><trkpt lat="39.39390227579181" lon="9.077044822997808"><ele>105.60000000000001</ele><time>2026-04-26T09:52:34Z</time></trkpt><trkpt lat="39.393977673565544" lon="9.076968557260322"><ele>106.4</ele><time>2026-04-26T09:52:35Z</time></trkpt><trkpt lat="39.394053130049876" lon="9.076892088711157"><ele>107.2</ele><time>2026-04-26T09:52:36Z</time></trkpt><trkpt lat="39.394125976331836" lon="9.076818116348502"><ele>108.0</ele><time>2026-04-26T09:52:37Z</time></trkpt><trkpt lat="39.394199879066434" lon="9.076743071137479"><ele>108.0</ele><time>2026-04-26T09:52:38Z</time></trkpt><trkpt lat="39.3942785417606" lon="9.076662828166256"><ele>108.00000000000001</ele><time>2026-04-26T09:52:39Z</time></trkpt><trkpt lat="39.394351380496595" lon="9.076588505354433"><ele>108.00000000000001</ele><time>2026-04-26T09:52:40Z</time></trkpt><trkpt lat="39.3944270000383" lon="9.076511345113419"><ele>108.0</ele><time>2026-04-26T09:52:41Z</time></trkpt><trkpt lat="39.39450915959654" lon="9.076430303157679"><ele>108.0</ele><time>2026-04-26T09:52:42Z</time></trkpt><trkpt lat="39.39459133879291" lon="9.076350014318892"><ele>107.80000000000001</ele><time>2026-04-26T09:52:43Z</time></trkpt><trkpt lat="39.39466994279783" lon="9.076279161600556"><ele>107.60000000000001</ele><time>2026-04-26T09:52:44Z</time></trkpt><trkpt lat="39.39475439493425" lon="9.076203919239022"><ele>107.39999999999999</ele><time>2026-04-26T09:52:45Z</time></trkpt><trkpt lat="39.39484554611017" lon="9.076122708413623"><ele>107.19999999999999</ele><time>2026-04-26T09:52:46Z</time></trkpt><trkpt lat="39.39493532012745" lon="9.076042725602504"><ele>107.0</ele><time>2026-04-26T09:52:47Z</time></trkpt><trkpt lat="39.395020837281244" lon="9.075963389818762"><ele>107.0</ele><time>2026-04-26T09:52:48Z</time></trkpt><trkpt lat="39.39511087217953" lon="9.075879220857447"><ele>106.99999999999999</ele><time>2026-04-26T09:52:49Z</time></trkpt><trkpt lat="39.395195160437886" lon="9.075789485710661"><ele>106.99999999999999</ele><time>2026-04-26T09:52:50Z</time></trkpt><trkpt lat="39.395260499574924" lon="9.07568585954853"><ele>107.0</ele><time>2026-04-26T09:52:51Z</time></trkpt><trkpt lat="39.3953148442504" lon="9.075562475045096"><ele>107.0</ele><time>2026-04-26T09:52:52Z</time></trkpt><trkpt lat="39.39532992200177" lon="9.07539349300696"><ele>106.6</ele><time>2026-04-26T09:52:53Z</time></trkpt><trkpt lat="39.395335055528406" lon="9.075239917111752"><ele>106.19999999999999</ele><time>2026-04-26T09:52:54Z</time></trkpt><trkpt lat="39.39534175992118" lon="9.075094743249245"><ele>105.8</ele><time>2026-04-26T09:52:55Z</time></trkpt><trkpt lat="39.395347936224226" lon="9.074961004212138"><ele>105.4</ele><time>2026-04-26T09:52:56Z</time></trkpt><trkpt lat="39.395353979382385" lon="9.074830148057368"><ele>105.0</ele><time>2026-04-26T09:52:57Z</time></trkpt><trkpt lat="39.39535964738223" lon="9.07469664333826"><ele>103.8</ele><time>2026-04-26T09:52:58Z</time></trkpt><trkpt lat="39.39536525446981" lon="9.074569699569082"><ele>102.6</ele><time>2026-04-26T09:52:59Z</time></trkpt><trkpt lat="39.39537068413481" lon="9.0744467726767"><ele>101.4</ele><time>2026-04-26T09:53:00Z</time></trkpt><trkpt lat="39.39537636289838" lon="9.074318206324138"><ele>100.2</ele><time>2026-04-26T09:53:01Z</time></trkpt><trkpt lat="39.395383725321665" lon="9.074151522179559"><ele>99.0</ele><time>2026-04-26T09:53:02Z</time></trkpt><trkpt lat="39.39539100494637" lon="9.073986711113879"><ele>98.0</ele><time>2026-04-26T09:53:03Z</time></trkpt><trkpt lat="39.39538663720112" lon="9.073828673587906"><ele>97.0</ele><time>2026-04-26T09:53:04Z</time></trkpt><trkpt lat="39.395396234982805" lon="9.07367656872944"><ele>96.0</ele><time>2026-04-26T09:53:05Z</time></trkpt><trkpt lat="39.39540212809356" lon="9.073535524149403"><ele>95.0</ele><time>2026-04-26T09:53:06Z</time></trkpt><trkpt lat="39.39541774331932" lon="9.073390734636606"><ele>95.2</ele><time>2026-04-26T09:53:07Z</time></trkpt><trkpt lat="39.3954238701309" lon="9.073254109742866"><ele>95.4</ele><time>2026-04-26T09:53:08Z</time></trkpt><trkpt lat="39.39542917491831" lon="9.073128201726572"><ele>95.6</ele><time>2026-04-26T09:53:09Z</time></trkpt><trkpt lat="39.39543411368522" lon="9.073013271299851"><ele>95.8</ele><time>2026-04-26T09:53:10Z</time></trkpt><trkpt lat="39.39543926783886" lon="9.07289332665439"><ele>96.0</ele><time>2026-04-26T09:53:11Z</time></trkpt><trkpt lat="39.395444259576" lon="9.072760525664462"><ele>96.0</ele><time>2026-04-26T09:53:12Z</time></trkpt><trkpt lat="39.395449917387424" lon="9.072617740033555"><ele>96.0</ele><time>2026-04-26T09:53:13Z</time></trkpt><trkpt lat="39.3954442826691" lon="9.072467783360537"><ele>96.0</ele><time>2026-04-26T09:53:14Z</time></trkpt><trkpt lat="39.39545749996027" lon="9.072329002628107"><ele>96.0</ele><time>2026-04-26T09:53:15Z</time></trkpt><trkpt lat="39.39546057752563" lon="9.072208762176862"><ele>96.0</ele><time>2026-04-26T09:53:16Z</time></trkpt><trkpt lat="39.39546046759927" lon="9.072111172971779"><ele>98.0</ele><time>2026-04-26T09:53:17Z</time></trkpt><trkpt lat="39.39546475812584" lon="9.072027964918728"><ele>98.0</ele><time>2026-04-26T09:53:18Z</time></trkpt><trkpt lat="39.395471566015594" lon="9.071905055881567"><ele>98.0</ele><time>2026-04-26T09:53:20Z</time></trkpt></trkseg></trk></gpx>